<?xml version="1.0" encoding="UTF-8" standalone="no" ?>
<gpx xmlns="http://www.topografix.com/GPX/1/1" xmlns:xsi="http://www.w3.org/2001/XMLSchema-instance" xsi:schemaLocation="http://www.topografix.com/GPX/1/1 http://www.topografix.com/GPX/1/1/gpx.xsd" version="1.1" creator="VisuGPX - https://www.visugpx.com">
  <metadata>
    <name>Col du Senepy</name>
    <desc><![CDATA[Superbe vu à 360° descente sur les passerelles du Drac.  ]]></desc>
  </metadata>
  <wpt lat="44.91215" lon="5.72615">
    <ele>1491.1191406</ele>
    <name><![CDATA[Col Du Sénépy]]></name>
    <desc><![CDATA[Col Du Sénépy]]></desc>
    <cmt><![CDATA[Col Du Sénépy]]></cmt>
  </wpt>
  <wpt lat="45.15797" lon="5.74538">
    <ele>219.0644531</ele>
    <name><![CDATA[Home]]></name>
    <desc><![CDATA[Route et Sentier]]></desc>
    <cmt><![CDATA[Route et Sentier]]></cmt>
  </wpt>
  <wpt lat="44.95884" lon="5.7451">
    <ele>902.0759277</ele>
    <name><![CDATA[La Motte-D'Ave]]></name>
    <desc><![CDATA[La Motte-D'Aveillans]]></desc>
    <cmt><![CDATA[La Motte-D'Aveillans]]></cmt>
  </wpt>
  <wpt lat="44.93855" lon="5.73435">
    <ele>1239.9768066</ele>
    <name><![CDATA[Les Signaraux]]></name>
    <desc><![CDATA[Les Signaraux]]></desc>
    <cmt><![CDATA[Les Signaraux]]></cmt>
  </wpt>
  <wpt lat="44.87814" lon="5.69064">
    <ele>500.0076904</ele>
    <name><![CDATA[Plage de Savel]]></name>
    <desc><![CDATA[Plage de Savel]]></desc>
    <cmt><![CDATA[Plage de Savel]]></cmt>
  </wpt>
  <trk>
    <name><![CDATA[ACTIVE LOG 002]]></name>
    <trkseg>
      <trkpt lat="44.95349" lon="5.75429">
        <ele>881.185791</ele>
        <time>2017-08-03T06:50:04Z</time>
      </trkpt>
      <trkpt lat="44.95353" lon="5.75445">
        <ele>881.185791</ele>
        <time>2017-08-03T06:50:44Z</time>
      </trkpt>
      <trkpt lat="44.95351" lon="5.75449">
        <ele>883.5888672</ele>
        <time>2017-08-03T06:50:47Z</time>
      </trkpt>
      <trkpt lat="44.95348" lon="5.75457">
        <ele>891.7600098</ele>
        <time>2017-08-03T06:50:50Z</time>
      </trkpt>
      <trkpt lat="44.95346" lon="5.7546">
        <ele>893.6828613</ele>
        <time>2017-08-03T06:50:51Z</time>
      </trkpt>
      <trkpt lat="44.95339" lon="5.75461">
        <ele>900.8925781</ele>
        <time>2017-08-03T06:50:54Z</time>
      </trkpt>
      <trkpt lat="44.95338" lon="5.75461">
        <ele>902.8151855</ele>
        <time>2017-08-03T06:50:55Z</time>
      </trkpt>
      <trkpt lat="44.95335" lon="5.75458">
        <ele>909.0639648</ele>
        <time>2017-08-03T06:50:58Z</time>
      </trkpt>
      <trkpt lat="44.95332" lon="5.75456">
        <ele>912.4284668</ele>
        <time>2017-08-03T06:51:00Z</time>
      </trkpt>
      <trkpt lat="44.95325" lon="5.75443">
        <ele>920.5996094</ele>
        <time>2017-08-03T06:51:05Z</time>
      </trkpt>
      <trkpt lat="44.95324" lon="5.75432">
        <ele>924.9257813</ele>
        <time>2017-08-03T06:51:08Z</time>
      </trkpt>
      <trkpt lat="44.95327" lon="5.7542">
        <ele>928.7709961</ele>
        <time>2017-08-03T06:51:11Z</time>
      </trkpt>
      <trkpt lat="44.95331" lon="5.75407">
        <ele>932.135498</ele>
        <time>2017-08-03T06:51:14Z</time>
      </trkpt>
      <trkpt lat="44.95334" lon="5.75399">
        <ele>933.5773926</ele>
        <time>2017-08-03T06:51:16Z</time>
      </trkpt>
      <trkpt lat="44.95336" lon="5.75374">
        <ele>938.3840332</ele>
        <time>2017-08-03T06:51:21Z</time>
      </trkpt>
      <trkpt lat="44.95335" lon="5.75354">
        <ele>941.7487793</ele>
        <time>2017-08-03T06:51:25Z</time>
      </trkpt>
      <trkpt lat="44.95333" lon="5.75336">
        <ele>945.1132813</ele>
        <time>2017-08-03T06:51:29Z</time>
      </trkpt>
      <trkpt lat="44.95334" lon="5.75315">
        <ele>947.9973145</ele>
        <time>2017-08-03T06:51:34Z</time>
      </trkpt>
      <trkpt lat="44.95337" lon="5.75288">
        <ele>951.3618164</ele>
        <time>2017-08-03T06:51:40Z</time>
      </trkpt>
      <trkpt lat="44.95344" lon="5.75254">
        <ele>954.7263184</ele>
        <time>2017-08-03T06:51:47Z</time>
      </trkpt>
      <trkpt lat="44.95345" lon="5.7525">
        <ele>954.7263184</ele>
        <time>2017-08-03T06:51:48Z</time>
      </trkpt>
      <trkpt lat="44.95353" lon="5.75198">
        <ele>958.0913086</ele>
        <time>2017-08-03T06:51:58Z</time>
      </trkpt>
      <trkpt lat="44.95355" lon="5.7516">
        <ele>960.9750977</ele>
        <time>2017-08-03T06:52:06Z</time>
      </trkpt>
      <trkpt lat="44.95354" lon="5.75145">
        <ele>962.4169922</ele>
        <time>2017-08-03T06:52:09Z</time>
      </trkpt>
      <trkpt lat="44.95353" lon="5.75132">
        <ele>963.8588867</ele>
        <time>2017-08-03T06:52:12Z</time>
      </trkpt>
      <trkpt lat="44.95344" lon="5.75104">
        <ele>967.7041016</ele>
        <time>2017-08-03T06:52:20Z</time>
      </trkpt>
      <trkpt lat="44.95344" lon="5.75101">
        <ele>968.1848145</ele>
        <time>2017-08-03T06:52:21Z</time>
      </trkpt>
      <trkpt lat="44.95339" lon="5.75089">
        <ele>969.1462402</ele>
        <time>2017-08-03T06:52:25Z</time>
      </trkpt>
      <trkpt lat="44.95336" lon="5.7508">
        <ele>970.5881348</ele>
        <time>2017-08-03T06:52:28Z</time>
      </trkpt>
      <trkpt lat="44.95327" lon="5.75064">
        <ele>973.9528809</ele>
        <time>2017-08-03T06:52:35Z</time>
      </trkpt>
      <trkpt lat="44.9531" lon="5.75031">
        <ele>976.8369141</ele>
        <time>2017-08-03T06:52:47Z</time>
      </trkpt>
      <trkpt lat="44.95285" lon="5.74987">
        <ele>980.201416</ele>
        <time>2017-08-03T06:53:03Z</time>
      </trkpt>
      <trkpt lat="44.95262" lon="5.74952">
        <ele>983.0852051</ele>
        <time>2017-08-03T06:53:18Z</time>
      </trkpt>
      <trkpt lat="44.95232" lon="5.74922">
        <ele>986.4499512</ele>
        <time>2017-08-03T06:53:34Z</time>
      </trkpt>
      <trkpt lat="44.95206" lon="5.74898">
        <ele>989.3339844</ele>
        <time>2017-08-03T06:53:48Z</time>
      </trkpt>
      <trkpt lat="44.95182" lon="5.74875">
        <ele>993.1791992</ele>
        <time>2017-08-03T06:54:02Z</time>
      </trkpt>
      <trkpt lat="44.95158" lon="5.74852">
        <ele>996.0632324</ele>
        <time>2017-08-03T06:54:16Z</time>
      </trkpt>
      <trkpt lat="44.95136" lon="5.7483">
        <ele>999.4277344</ele>
        <time>2017-08-03T06:54:31Z</time>
      </trkpt>
      <trkpt lat="44.95121" lon="5.74806">
        <ele>1000.8696289</ele>
        <time>2017-08-03T06:54:44Z</time>
      </trkpt>
      <trkpt lat="44.95122" lon="5.74811">
        <ele>1001.3503418</ele>
        <time>2017-08-03T06:54:49Z</time>
      </trkpt>
      <trkpt lat="44.9513" lon="5.74818">
        <ele>1000.3891602</ele>
        <time>2017-08-03T06:54:54Z</time>
      </trkpt>
      <trkpt lat="44.9513" lon="5.74824">
        <ele>999.9084473</ele>
        <time>2017-08-03T06:54:59Z</time>
      </trkpt>
      <trkpt lat="44.95114" lon="5.74796">
        <ele>1001.8310547</ele>
        <time>2017-08-03T06:55:12Z</time>
      </trkpt>
      <trkpt lat="44.95096" lon="5.74766">
        <ele>1004.7150879</ele>
        <time>2017-08-03T06:55:25Z</time>
      </trkpt>
      <trkpt lat="44.95085" lon="5.74746">
        <ele>1006.1569824</ele>
        <time>2017-08-03T06:55:34Z</time>
      </trkpt>
      <trkpt lat="44.95062" lon="5.74696">
        <ele>1008.5603027</ele>
        <time>2017-08-03T06:55:50Z</time>
      </trkpt>
      <trkpt lat="44.95035" lon="5.74632">
        <ele>1010.0021973</ele>
        <time>2017-08-03T06:56:08Z</time>
      </trkpt>
      <trkpt lat="44.95011" lon="5.74577">
        <ele>1010.963623</ele>
        <time>2017-08-03T06:56:22Z</time>
      </trkpt>
      <trkpt lat="44.94984" lon="5.74523">
        <ele>1012.4055176</ele>
        <time>2017-08-03T06:56:36Z</time>
      </trkpt>
      <trkpt lat="44.94965" lon="5.74491">
        <ele>1014.328125</ele>
        <time>2017-08-03T06:56:47Z</time>
      </trkpt>
      <trkpt lat="44.94942" lon="5.74452">
        <ele>1017.692627</ele>
        <time>2017-08-03T06:57:02Z</time>
      </trkpt>
      <trkpt lat="44.94924" lon="5.74418">
        <ele>1020.0961914</ele>
        <time>2017-08-03T06:57:14Z</time>
      </trkpt>
      <trkpt lat="44.94923" lon="5.74405">
        <ele>1021.5380859</ele>
        <time>2017-08-03T06:57:18Z</time>
      </trkpt>
      <trkpt lat="44.94922" lon="5.74394">
        <ele>1022.0187988</ele>
        <time>2017-08-03T06:57:21Z</time>
      </trkpt>
      <trkpt lat="44.94924" lon="5.74369">
        <ele>1023.9414063</ele>
        <time>2017-08-03T06:57:29Z</time>
      </trkpt>
      <trkpt lat="44.94925" lon="5.74353">
        <ele>1025.8640137</ele>
        <time>2017-08-03T06:57:36Z</time>
      </trkpt>
      <trkpt lat="44.94926" lon="5.74316">
        <ele>1028.7480469</ele>
        <time>2017-08-03T06:57:50Z</time>
      </trkpt>
      <trkpt lat="44.94928" lon="5.74307">
        <ele>1029.7092285</ele>
        <time>2017-08-03T06:57:53Z</time>
      </trkpt>
      <trkpt lat="44.94929" lon="5.74283">
        <ele>1031.6318359</ele>
        <time>2017-08-03T06:58:02Z</time>
      </trkpt>
      <trkpt lat="44.94929" lon="5.74268">
        <ele>1032.5932617</ele>
        <time>2017-08-03T06:58:07Z</time>
      </trkpt>
      <trkpt lat="44.94927" lon="5.7426">
        <ele>1033.0737305</ele>
        <time>2017-08-03T06:58:10Z</time>
      </trkpt>
      <trkpt lat="44.94927" lon="5.74245">
        <ele>1034.5158691</ele>
        <time>2017-08-03T06:58:16Z</time>
      </trkpt>
      <trkpt lat="44.94921" lon="5.74203">
        <ele>1037.3999023</ele>
        <time>2017-08-03T06:58:31Z</time>
      </trkpt>
      <trkpt lat="44.94925" lon="5.74175">
        <ele>1039.3225098</ele>
        <time>2017-08-03T06:58:41Z</time>
      </trkpt>
      <trkpt lat="44.94913" lon="5.74152">
        <ele>1041.2451172</ele>
        <time>2017-08-03T06:58:49Z</time>
      </trkpt>
      <trkpt lat="44.94923" lon="5.74115">
        <ele>1044.1291504</ele>
        <time>2017-08-03T06:59:03Z</time>
      </trkpt>
      <trkpt lat="44.94921" lon="5.74091">
        <ele>1046.0517578</ele>
        <time>2017-08-03T06:59:13Z</time>
      </trkpt>
      <trkpt lat="44.9492" lon="5.74084">
        <ele>1046.5324707</ele>
        <time>2017-08-03T06:59:15Z</time>
      </trkpt>
      <trkpt lat="44.94917" lon="5.74038">
        <ele>1049.8969727</ele>
        <time>2017-08-03T06:59:32Z</time>
      </trkpt>
      <trkpt lat="44.94917" lon="5.73997">
        <ele>1053.7424316</ele>
        <time>2017-08-03T06:59:47Z</time>
      </trkpt>
      <trkpt lat="44.94911" lon="5.73972">
        <ele>1055.6650391</ele>
        <time>2017-08-03T06:59:57Z</time>
      </trkpt>
      <trkpt lat="44.94904" lon="5.73963">
        <ele>1056.6262207</ele>
        <time>2017-08-03T07:00:02Z</time>
      </trkpt>
      <trkpt lat="44.94874" lon="5.73963">
        <ele>1059.9907227</ele>
        <time>2017-08-03T07:00:19Z</time>
      </trkpt>
      <trkpt lat="44.94851" lon="5.73961">
        <ele>1063.3554688</ele>
        <time>2017-08-03T07:00:33Z</time>
      </trkpt>
      <trkpt lat="44.9484" lon="5.73932">
        <ele>1065.7587891</ele>
        <time>2017-08-03T07:00:46Z</time>
      </trkpt>
      <trkpt lat="44.94845" lon="5.73884">
        <ele>1068.6428223</ele>
        <time>2017-08-03T07:01:05Z</time>
      </trkpt>
      <trkpt lat="44.94846" lon="5.7388">
        <ele>1069.604248</ele>
        <time>2017-08-03T07:01:07Z</time>
      </trkpt>
      <trkpt lat="44.94848" lon="5.73867">
        <ele>1070.5654297</ele>
        <time>2017-08-03T07:01:12Z</time>
      </trkpt>
      <trkpt lat="44.94854" lon="5.73828">
        <ele>1072.96875</ele>
        <time>2017-08-03T07:01:25Z</time>
      </trkpt>
      <trkpt lat="44.94856" lon="5.73796">
        <ele>1074.8913574</ele>
        <time>2017-08-03T07:01:39Z</time>
      </trkpt>
      <trkpt lat="44.94859" lon="5.73779">
        <ele>1076.333252</ele>
        <time>2017-08-03T07:01:46Z</time>
      </trkpt>
      <trkpt lat="44.94862" lon="5.73761">
        <ele>1078.2558594</ele>
        <time>2017-08-03T07:01:53Z</time>
      </trkpt>
      <trkpt lat="44.94871" lon="5.73723">
        <ele>1082.1010742</ele>
        <time>2017-08-03T07:02:08Z</time>
      </trkpt>
      <trkpt lat="44.94875" lon="5.73687">
        <ele>1085.4658203</ele>
        <time>2017-08-03T07:02:22Z</time>
      </trkpt>
      <trkpt lat="44.94861" lon="5.73642">
        <ele>1088.8305664</ele>
        <time>2017-08-03T07:02:40Z</time>
      </trkpt>
      <trkpt lat="44.94829" lon="5.73624">
        <ele>1091.7143555</ele>
        <time>2017-08-03T07:02:57Z</time>
      </trkpt>
      <trkpt lat="44.94803" lon="5.7361">
        <ele>1094.5981445</ele>
        <time>2017-08-03T07:03:12Z</time>
      </trkpt>
      <trkpt lat="44.94777" lon="5.73604">
        <ele>1097.4821777</ele>
        <time>2017-08-03T07:03:26Z</time>
      </trkpt>
      <trkpt lat="44.94751" lon="5.73605">
        <ele>1101.3276367</ele>
        <time>2017-08-03T07:03:40Z</time>
      </trkpt>
      <trkpt lat="44.94721" lon="5.73586">
        <ele>1102.7695313</ele>
        <time>2017-08-03T07:03:56Z</time>
      </trkpt>
      <trkpt lat="44.94678" lon="5.7356">
        <ele>1106.1340332</ele>
        <time>2017-08-03T07:04:18Z</time>
      </trkpt>
      <trkpt lat="44.94676" lon="5.73559">
        <ele>1106.1340332</ele>
        <time>2017-08-03T07:04:19Z</time>
      </trkpt>
      <trkpt lat="44.9465" lon="5.73552">
        <ele>1109.4987793</ele>
        <time>2017-08-03T07:04:33Z</time>
      </trkpt>
      <trkpt lat="44.94622" lon="5.73544">
        <ele>1112.3825684</ele>
        <time>2017-08-03T07:04:47Z</time>
      </trkpt>
      <trkpt lat="44.946" lon="5.73537">
        <ele>1115.7473145</ele>
        <time>2017-08-03T07:04:59Z</time>
      </trkpt>
      <trkpt lat="44.94579" lon="5.73526">
        <ele>1118.6313477</ele>
        <time>2017-08-03T07:05:11Z</time>
      </trkpt>
      <trkpt lat="44.94548" lon="5.73505">
        <ele>1121.9958496</ele>
        <time>2017-08-03T07:05:29Z</time>
      </trkpt>
      <trkpt lat="44.94507" lon="5.73509">
        <ele>1123.918457</ele>
        <time>2017-08-03T07:05:49Z</time>
      </trkpt>
      <trkpt lat="44.94479" lon="5.73507">
        <ele>1125.8410645</ele>
        <time>2017-08-03T07:05:59Z</time>
      </trkpt>
      <trkpt lat="44.94441" lon="5.73511">
        <ele>1127.7636719</ele>
        <time>2017-08-03T07:06:17Z</time>
      </trkpt>
      <trkpt lat="44.94393" lon="5.73512">
        <ele>1130.1669922</ele>
        <time>2017-08-03T07:06:37Z</time>
      </trkpt>
      <trkpt lat="44.94342" lon="5.73541">
        <ele>1131.128418</ele>
        <time>2017-08-03T07:06:57Z</time>
      </trkpt>
      <trkpt lat="44.943" lon="5.73575">
        <ele>1133.0510254</ele>
        <time>2017-08-03T07:07:15Z</time>
      </trkpt>
      <trkpt lat="44.94271" lon="5.73596">
        <ele>1136.4157715</ele>
        <time>2017-08-03T07:07:29Z</time>
      </trkpt>
      <trkpt lat="44.9423" lon="5.73612">
        <ele>1139.7802734</ele>
        <time>2017-08-03T07:07:48Z</time>
      </trkpt>
      <trkpt lat="44.94223" lon="5.73615">
        <ele>1141.7028809</ele>
        <time>2017-08-03T07:07:52Z</time>
      </trkpt>
      <trkpt lat="44.94176" lon="5.73632">
        <ele>1145.0673828</ele>
        <time>2017-08-03T07:08:13Z</time>
      </trkpt>
      <trkpt lat="44.94145" lon="5.7364">
        <ele>1147.951416</ele>
        <time>2017-08-03T07:08:27Z</time>
      </trkpt>
      <trkpt lat="44.94125" lon="5.73642">
        <ele>1149.8742676</ele>
        <time>2017-08-03T07:08:36Z</time>
      </trkpt>
      <trkpt lat="44.94077" lon="5.73647">
        <ele>1153.2387695</ele>
        <time>2017-08-03T07:08:57Z</time>
      </trkpt>
      <trkpt lat="44.94034" lon="5.7364">
        <ele>1156.1225586</ele>
        <time>2017-08-03T07:09:16Z</time>
      </trkpt>
      <trkpt lat="44.94029" lon="5.7363">
        <ele>1156.6032715</ele>
        <time>2017-08-03T07:09:19Z</time>
      </trkpt>
      <trkpt lat="44.94035" lon="5.73612">
        <ele>1157.0839844</ele>
        <time>2017-08-03T07:09:24Z</time>
      </trkpt>
      <trkpt lat="44.94068" lon="5.73569">
        <ele>1158.5258789</ele>
        <time>2017-08-03T07:09:40Z</time>
      </trkpt>
      <trkpt lat="44.94113" lon="5.73519">
        <ele>1161.4099121</ele>
        <time>2017-08-03T07:10:00Z</time>
      </trkpt>
      <trkpt lat="44.94122" lon="5.73506">
        <ele>1162.3710938</ele>
        <time>2017-08-03T07:10:05Z</time>
      </trkpt>
      <trkpt lat="44.94137" lon="5.7347">
        <ele>1163.3325195</ele>
        <time>2017-08-03T07:10:17Z</time>
      </trkpt>
      <trkpt lat="44.9415" lon="5.73449">
        <ele>1164.2939453</ele>
        <time>2017-08-03T07:10:24Z</time>
      </trkpt>
      <trkpt lat="44.94158" lon="5.73435">
        <ele>1165.736084</ele>
        <time>2017-08-03T07:10:29Z</time>
      </trkpt>
      <trkpt lat="44.94168" lon="5.73397">
        <ele>1168.1391602</ele>
        <time>2017-08-03T07:10:41Z</time>
      </trkpt>
      <trkpt lat="44.94169" lon="5.73349">
        <ele>1170.5424805</ele>
        <time>2017-08-03T07:10:54Z</time>
      </trkpt>
      <trkpt lat="44.94189" lon="5.73295">
        <ele>1173.9069824</ele>
        <time>2017-08-03T07:11:12Z</time>
      </trkpt>
      <trkpt lat="44.94194" lon="5.73277">
        <ele>1175.348877</ele>
        <time>2017-08-03T07:11:18Z</time>
      </trkpt>
      <trkpt lat="44.94218" lon="5.73222">
        <ele>1178.2329102</ele>
        <time>2017-08-03T07:11:36Z</time>
      </trkpt>
      <trkpt lat="44.94241" lon="5.73163">
        <ele>1181.1171875</ele>
        <time>2017-08-03T07:11:56Z</time>
      </trkpt>
      <trkpt lat="44.9427" lon="5.7312">
        <ele>1183.5202637</ele>
        <time>2017-08-03T07:12:13Z</time>
      </trkpt>
      <trkpt lat="44.94292" lon="5.73091">
        <ele>1185.923584</ele>
        <time>2017-08-03T07:12:24Z</time>
      </trkpt>
      <trkpt lat="44.9433" lon="5.73041">
        <ele>1189.2880859</ele>
        <time>2017-08-03T07:12:42Z</time>
      </trkpt>
      <trkpt lat="44.94323" lon="5.73011">
        <ele>1190.7299805</ele>
        <time>2017-08-03T07:12:53Z</time>
      </trkpt>
      <trkpt lat="44.94293" lon="5.73035">
        <ele>1193.1333008</ele>
        <time>2017-08-03T07:13:05Z</time>
      </trkpt>
      <trkpt lat="44.94243" lon="5.73094">
        <ele>1195.5366211</ele>
        <time>2017-08-03T07:13:26Z</time>
      </trkpt>
      <trkpt lat="44.94212" lon="5.73124">
        <ele>1197.4594727</ele>
        <time>2017-08-03T07:13:39Z</time>
      </trkpt>
      <trkpt lat="44.94187" lon="5.73159">
        <ele>1200.3435059</ele>
        <time>2017-08-03T07:13:52Z</time>
      </trkpt>
      <trkpt lat="44.94161" lon="5.73195">
        <ele>1203.7080078</ele>
        <time>2017-08-03T07:14:06Z</time>
      </trkpt>
      <trkpt lat="44.94155" lon="5.73203">
        <ele>1203.7080078</ele>
        <time>2017-08-03T07:14:09Z</time>
      </trkpt>
      <trkpt lat="44.94136" lon="5.73232">
        <ele>1206.111084</ele>
        <time>2017-08-03T07:14:20Z</time>
      </trkpt>
      <trkpt lat="44.94104" lon="5.73271">
        <ele>1208.5144043</ele>
        <time>2017-08-03T07:14:35Z</time>
      </trkpt>
      <trkpt lat="44.9407" lon="5.73309">
        <ele>1211.8791504</ele>
        <time>2017-08-03T07:14:52Z</time>
      </trkpt>
      <trkpt lat="44.94062" lon="5.73321">
        <ele>1212.3598633</ele>
        <time>2017-08-03T07:14:57Z</time>
      </trkpt>
      <trkpt lat="44.94036" lon="5.73357">
        <ele>1214.7631836</ele>
        <time>2017-08-03T07:15:11Z</time>
      </trkpt>
      <trkpt lat="44.94017" lon="5.73395">
        <ele>1218.6083984</ele>
        <time>2017-08-03T07:15:24Z</time>
      </trkpt>
      <trkpt lat="44.93988" lon="5.73449">
        <ele>1221.4921875</ele>
        <time>2017-08-03T07:15:43Z</time>
      </trkpt>
      <trkpt lat="44.93954" lon="5.73483">
        <ele>1222.9343262</ele>
        <time>2017-08-03T07:15:58Z</time>
      </trkpt>
      <trkpt lat="44.9391" lon="5.7347">
        <ele>1222.4536133</ele>
        <time>2017-08-03T07:16:12Z</time>
      </trkpt>
      <trkpt lat="44.93864" lon="5.73438">
        <ele>1224.8569336</ele>
        <time>2017-08-03T07:16:30Z</time>
      </trkpt>
      <trkpt lat="44.93862" lon="5.73438">
        <ele>1225.3374023</ele>
        <time>2017-08-03T07:16:31Z</time>
      </trkpt>
      <trkpt lat="44.93859" lon="5.7344">
        <ele>1224.8569336</ele>
        <time>2017-08-03T07:16:33Z</time>
      </trkpt>
      <trkpt lat="44.93852" lon="5.73441">
        <ele>1225.8181152</ele>
        <time>2017-08-03T07:16:37Z</time>
      </trkpt>
      <trkpt lat="44.93858" lon="5.73443">
        <ele>1225.8181152</ele>
        <time>2017-08-03T07:16:45Z</time>
      </trkpt>
      <trkpt lat="44.93856" lon="5.73451">
        <ele>1224.8569336</ele>
        <time>2017-08-03T07:16:47Z</time>
      </trkpt>
      <trkpt lat="44.93851" lon="5.73458">
        <ele>1226.2988281</ele>
        <time>2017-08-03T07:16:58Z</time>
      </trkpt>
      <trkpt lat="44.93847" lon="5.73449">
        <ele>1226.779541</ele>
        <time>2017-08-03T07:17:06Z</time>
      </trkpt>
      <trkpt lat="44.93841" lon="5.7344">
        <ele>1227.2602539</ele>
        <time>2017-08-03T07:17:17Z</time>
      </trkpt>
      <trkpt lat="44.93837" lon="5.73442">
        <ele>1228.2216797</ele>
        <time>2017-08-03T07:17:23Z</time>
      </trkpt>
      <trkpt lat="44.93833" lon="5.73448">
        <ele>1229.1828613</ele>
        <time>2017-08-03T07:17:29Z</time>
      </trkpt>
      <trkpt lat="44.93829" lon="5.73449">
        <ele>1229.6635742</ele>
        <time>2017-08-03T07:17:34Z</time>
      </trkpt>
      <trkpt lat="44.9383" lon="5.73437">
        <ele>1228.7023926</ele>
        <time>2017-08-03T07:17:43Z</time>
      </trkpt>
      <trkpt lat="44.9383" lon="5.73438">
        <ele>1229.6635742</ele>
        <time>2017-08-03T07:18:43Z</time>
      </trkpt>
      <trkpt lat="44.9383" lon="5.7344">
        <ele>1230.1442871</ele>
        <time>2017-08-03T07:18:47Z</time>
      </trkpt>
      <trkpt lat="44.9383" lon="5.73444">
        <ele>1230.1442871</ele>
        <time>2017-08-03T07:18:55Z</time>
      </trkpt>
      <trkpt lat="44.93832" lon="5.73446">
        <ele>1230.1442871</ele>
        <time>2017-08-03T07:19:25Z</time>
      </trkpt>
      <trkpt lat="44.93819" lon="5.73453">
        <ele>1230.625</ele>
        <time>2017-08-03T07:19:34Z</time>
      </trkpt>
      <trkpt lat="44.93786" lon="5.73468">
        <ele>1233.989502</ele>
        <time>2017-08-03T07:19:52Z</time>
      </trkpt>
      <trkpt lat="44.93753" lon="5.7348">
        <ele>1236.3928223</ele>
        <time>2017-08-03T07:20:10Z</time>
      </trkpt>
      <trkpt lat="44.93722" lon="5.73505">
        <ele>1240.2380371</ele>
        <time>2017-08-03T07:20:27Z</time>
      </trkpt>
      <trkpt lat="44.93695" lon="5.73533">
        <ele>1243.1218262</ele>
        <time>2017-08-03T07:20:45Z</time>
      </trkpt>
      <trkpt lat="44.93675" lon="5.73558">
        <ele>1245.5253906</ele>
        <time>2017-08-03T07:20:59Z</time>
      </trkpt>
      <trkpt lat="44.93662" lon="5.73582">
        <ele>1248.8898926</ele>
        <time>2017-08-03T07:21:11Z</time>
      </trkpt>
      <trkpt lat="44.93656" lon="5.73608">
        <ele>1250.8125</ele>
        <time>2017-08-03T07:21:22Z</time>
      </trkpt>
      <trkpt lat="44.93668" lon="5.73647">
        <ele>1254.6577148</ele>
        <time>2017-08-03T07:21:39Z</time>
      </trkpt>
      <trkpt lat="44.93676" lon="5.73662">
        <ele>1256.0996094</ele>
        <time>2017-08-03T07:21:46Z</time>
      </trkpt>
      <trkpt lat="44.93668" lon="5.73671">
        <ele>1257.0610352</ele>
        <time>2017-08-03T07:21:51Z</time>
      </trkpt>
      <trkpt lat="44.93639" lon="5.73667">
        <ele>1260.9064941</ele>
        <time>2017-08-03T07:22:07Z</time>
      </trkpt>
      <trkpt lat="44.93613" lon="5.73671">
        <ele>1262.3483887</ele>
        <time>2017-08-03T07:22:22Z</time>
      </trkpt>
      <trkpt lat="44.93583" lon="5.73688">
        <ele>1265.7131348</ele>
        <time>2017-08-03T07:22:39Z</time>
      </trkpt>
      <trkpt lat="44.93561" lon="5.73716">
        <ele>1266.6743164</ele>
        <time>2017-08-03T07:22:55Z</time>
      </trkpt>
      <trkpt lat="44.93532" lon="5.73748">
        <ele>1265.7131348</ele>
        <time>2017-08-03T07:23:08Z</time>
      </trkpt>
      <trkpt lat="44.93537" lon="5.73745">
        <ele>1266.6743164</ele>
        <time>2017-08-03T07:23:14Z</time>
      </trkpt>
      <trkpt lat="44.93536" lon="5.73758">
        <ele>1266.1936035</ele>
        <time>2017-08-03T07:23:18Z</time>
      </trkpt>
      <trkpt lat="44.93517" lon="5.73782">
        <ele>1268.1162109</ele>
        <time>2017-08-03T07:23:28Z</time>
      </trkpt>
      <trkpt lat="44.93517" lon="5.73793">
        <ele>1269.5583496</ele>
        <time>2017-08-03T07:23:33Z</time>
      </trkpt>
      <trkpt lat="44.93518" lon="5.73795">
        <ele>1269.0776367</ele>
        <time>2017-08-03T07:23:52Z</time>
      </trkpt>
      <trkpt lat="44.93518" lon="5.73795">
        <ele>1270.0388184</ele>
        <time>2017-08-03T07:25:00Z</time>
      </trkpt>
      <trkpt lat="44.9355" lon="5.73776">
        <ele>1271.4807129</ele>
        <time>2017-08-03T07:25:16Z</time>
      </trkpt>
      <trkpt lat="44.93574" lon="5.73764">
        <ele>1274.3647461</ele>
        <time>2017-08-03T07:25:30Z</time>
      </trkpt>
      <trkpt lat="44.93593" lon="5.73749">
        <ele>1278.2102051</ele>
        <time>2017-08-03T07:25:44Z</time>
      </trkpt>
      <trkpt lat="44.93619" lon="5.73762">
        <ele>1281.574707</ele>
        <time>2017-08-03T07:26:00Z</time>
      </trkpt>
      <trkpt lat="44.93621" lon="5.73766">
        <ele>1282.5361328</ele>
        <time>2017-08-03T07:26:02Z</time>
      </trkpt>
      <trkpt lat="44.93631" lon="5.73796">
        <ele>1284.4587402</ele>
        <time>2017-08-03T07:26:17Z</time>
      </trkpt>
      <trkpt lat="44.93642" lon="5.73817">
        <ele>1287.3425293</ele>
        <time>2017-08-03T07:26:31Z</time>
      </trkpt>
      <trkpt lat="44.93647" lon="5.73827">
        <ele>1287.8232422</ele>
        <time>2017-08-03T07:26:37Z</time>
      </trkpt>
      <trkpt lat="44.93658" lon="5.73848">
        <ele>1290.7070313</ele>
        <time>2017-08-03T07:26:49Z</time>
      </trkpt>
      <trkpt lat="44.93661" lon="5.73853">
        <ele>1291.668457</ele>
        <time>2017-08-03T07:26:53Z</time>
      </trkpt>
      <trkpt lat="44.93664" lon="5.73883">
        <ele>1294.5524902</ele>
        <time>2017-08-03T07:27:07Z</time>
      </trkpt>
      <trkpt lat="44.93669" lon="5.7392">
        <ele>1297.9172363</ele>
        <time>2017-08-03T07:27:24Z</time>
      </trkpt>
      <trkpt lat="44.93674" lon="5.73963">
        <ele>1301.2817383</ele>
        <time>2017-08-03T07:27:43Z</time>
      </trkpt>
      <trkpt lat="44.93665" lon="5.73998">
        <ele>1304.1657715</ele>
        <time>2017-08-03T07:27:59Z</time>
      </trkpt>
      <trkpt lat="44.93651" lon="5.74032">
        <ele>1307.0495605</ele>
        <time>2017-08-03T07:28:16Z</time>
      </trkpt>
      <trkpt lat="44.93635" lon="5.74065">
        <ele>1310.4143066</ele>
        <time>2017-08-03T07:28:33Z</time>
      </trkpt>
      <trkpt lat="44.93628" lon="5.74081">
        <ele>1311.8564453</ele>
        <time>2017-08-03T07:28:41Z</time>
      </trkpt>
      <trkpt lat="44.93628" lon="5.74088">
        <ele>1312.3369141</ele>
        <time>2017-08-03T07:28:44Z</time>
      </trkpt>
      <trkpt lat="44.93621" lon="5.74122">
        <ele>1314.7402344</ele>
        <time>2017-08-03T07:29:00Z</time>
      </trkpt>
      <trkpt lat="44.93612" lon="5.74109">
        <ele>1315.2209473</ele>
        <time>2017-08-03T07:29:09Z</time>
      </trkpt>
      <trkpt lat="44.9362" lon="5.74068">
        <ele>1317.1435547</ele>
        <time>2017-08-03T07:29:23Z</time>
      </trkpt>
      <trkpt lat="44.93616" lon="5.7402">
        <ele>1319.0661621</ele>
        <time>2017-08-03T07:29:38Z</time>
      </trkpt>
      <trkpt lat="44.93596" lon="5.73996">
        <ele>1322.4306641</ele>
        <time>2017-08-03T07:29:52Z</time>
      </trkpt>
      <trkpt lat="44.93581" lon="5.73982">
        <ele>1324.3535156</ele>
        <time>2017-08-03T07:30:02Z</time>
      </trkpt>
      <trkpt lat="44.93575" lon="5.73995">
        <ele>1324.8342285</ele>
        <time>2017-08-03T07:30:10Z</time>
      </trkpt>
      <trkpt lat="44.93583" lon="5.74012">
        <ele>1326.276123</ele>
        <time>2017-08-03T07:30:17Z</time>
      </trkpt>
      <trkpt lat="44.93575" lon="5.74061">
        <ele>1329.640625</ele>
        <time>2017-08-03T07:30:36Z</time>
      </trkpt>
      <trkpt lat="44.93559" lon="5.74101">
        <ele>1332.5246582</ele>
        <time>2017-08-03T07:30:54Z</time>
      </trkpt>
      <trkpt lat="44.93546" lon="5.74146">
        <ele>1335.8891602</ele>
        <time>2017-08-03T07:31:13Z</time>
      </trkpt>
      <trkpt lat="44.93535" lon="5.7418">
        <ele>1339.2536621</ele>
        <time>2017-08-03T07:31:29Z</time>
      </trkpt>
      <trkpt lat="44.93534" lon="5.74184">
        <ele>1340.215332</ele>
        <time>2017-08-03T07:31:31Z</time>
      </trkpt>
      <trkpt lat="44.93523" lon="5.74223">
        <ele>1343.579834</ele>
        <time>2017-08-03T07:31:50Z</time>
      </trkpt>
      <trkpt lat="44.93521" lon="5.74231">
        <ele>1344.5410156</ele>
        <time>2017-08-03T07:31:53Z</time>
      </trkpt>
      <trkpt lat="44.93514" lon="5.74248">
        <ele>1345.5024414</ele>
        <time>2017-08-03T07:32:03Z</time>
      </trkpt>
      <trkpt lat="44.93511" lon="5.74259">
        <ele>1346.9443359</ele>
        <time>2017-08-03T07:32:08Z</time>
      </trkpt>
      <trkpt lat="44.93511" lon="5.74286">
        <ele>1349.3476563</ele>
        <time>2017-08-03T07:32:21Z</time>
      </trkpt>
      <trkpt lat="44.93528" lon="5.74307">
        <ele>1352.7121582</ele>
        <time>2017-08-03T07:32:34Z</time>
      </trkpt>
      <trkpt lat="44.93564" lon="5.74314">
        <ele>1354.6347656</ele>
        <time>2017-08-03T07:32:52Z</time>
      </trkpt>
      <trkpt lat="44.93595" lon="5.74314">
        <ele>1356.5576172</ele>
        <time>2017-08-03T07:33:07Z</time>
      </trkpt>
      <trkpt lat="44.93641" lon="5.74332">
        <ele>1359.9221191</ele>
        <time>2017-08-03T07:33:28Z</time>
      </trkpt>
      <trkpt lat="44.9367" lon="5.74348">
        <ele>1362.3254395</ele>
        <time>2017-08-03T07:33:42Z</time>
      </trkpt>
      <trkpt lat="44.93696" lon="5.74391">
        <ele>1364.7287598</ele>
        <time>2017-08-03T07:34:01Z</time>
      </trkpt>
      <trkpt lat="44.93703" lon="5.74432">
        <ele>1367.6125488</ele>
        <time>2017-08-03T07:34:17Z</time>
      </trkpt>
      <trkpt lat="44.93725" lon="5.74465">
        <ele>1370.0158691</ele>
        <time>2017-08-03T07:34:33Z</time>
      </trkpt>
      <trkpt lat="44.93731" lon="5.74471">
        <ele>1370.496582</ele>
        <time>2017-08-03T07:34:36Z</time>
      </trkpt>
      <trkpt lat="44.93756" lon="5.74507">
        <ele>1371.9384766</ele>
        <time>2017-08-03T07:34:52Z</time>
      </trkpt>
      <trkpt lat="44.93783" lon="5.74554">
        <ele>1374.342041</ele>
        <time>2017-08-03T07:35:10Z</time>
      </trkpt>
      <trkpt lat="44.93803" lon="5.74602">
        <ele>1376.2646484</ele>
        <time>2017-08-03T07:35:27Z</time>
      </trkpt>
      <trkpt lat="44.93799" lon="5.7463">
        <ele>1378.6679688</ele>
        <time>2017-08-03T07:35:38Z</time>
      </trkpt>
      <trkpt lat="44.93792" lon="5.74629">
        <ele>1379.1484375</ele>
        <time>2017-08-03T07:35:42Z</time>
      </trkpt>
      <trkpt lat="44.93788" lon="5.74621">
        <ele>1379.1484375</ele>
        <time>2017-08-03T07:35:45Z</time>
      </trkpt>
      <trkpt lat="44.93781" lon="5.74612">
        <ele>1379.1484375</ele>
        <time>2017-08-03T07:35:50Z</time>
      </trkpt>
      <trkpt lat="44.93779" lon="5.74607">
        <ele>1378.1872559</ele>
        <time>2017-08-03T07:36:00Z</time>
      </trkpt>
      <trkpt lat="44.93779" lon="5.74608">
        <ele>1381.5517578</ele>
        <time>2017-08-03T07:40:57Z</time>
      </trkpt>
      <trkpt lat="44.9378" lon="5.74607">
        <ele>1382.5131836</ele>
        <time>2017-08-03T07:45:18Z</time>
      </trkpt>
      <trkpt lat="44.93781" lon="5.74605">
        <ele>1382.0324707</ele>
        <time>2017-08-03T07:45:21Z</time>
      </trkpt>
      <trkpt lat="44.93783" lon="5.74606">
        <ele>1382.5131836</ele>
        <time>2017-08-03T07:45:23Z</time>
      </trkpt>
      <trkpt lat="44.93785" lon="5.74614">
        <ele>1382.9936523</ele>
        <time>2017-08-03T07:45:27Z</time>
      </trkpt>
      <trkpt lat="44.93792" lon="5.74628">
        <ele>1382.9936523</ele>
        <time>2017-08-03T07:45:34Z</time>
      </trkpt>
      <trkpt lat="44.93777" lon="5.74666">
        <ele>1383.9550781</ele>
        <time>2017-08-03T07:45:49Z</time>
      </trkpt>
      <trkpt lat="44.93738" lon="5.74685">
        <ele>1382.9936523</ele>
        <time>2017-08-03T07:46:01Z</time>
      </trkpt>
      <trkpt lat="44.93696" lon="5.74664">
        <ele>1385.8776855</ele>
        <time>2017-08-03T07:46:14Z</time>
      </trkpt>
      <trkpt lat="44.9366" lon="5.74657">
        <ele>1388.7619629</ele>
        <time>2017-08-03T07:46:28Z</time>
      </trkpt>
      <trkpt lat="44.93623" lon="5.74656">
        <ele>1388.7619629</ele>
        <time>2017-08-03T07:46:41Z</time>
      </trkpt>
      <trkpt lat="44.93609" lon="5.74659">
        <ele>1388.7619629</ele>
        <time>2017-08-03T07:46:45Z</time>
      </trkpt>
      <trkpt lat="44.93559" lon="5.74664">
        <ele>1390.6843262</ele>
        <time>2017-08-03T07:47:00Z</time>
      </trkpt>
      <trkpt lat="44.93514" lon="5.74668">
        <ele>1391.1650391</ele>
        <time>2017-08-03T07:47:12Z</time>
      </trkpt>
      <trkpt lat="44.93493" lon="5.74673">
        <ele>1389.7231445</ele>
        <time>2017-08-03T07:47:17Z</time>
      </trkpt>
      <trkpt lat="44.93416" lon="5.74663">
        <ele>1392.1264648</ele>
        <time>2017-08-03T07:47:34Z</time>
      </trkpt>
      <trkpt lat="44.93362" lon="5.74666">
        <ele>1395.0102539</ele>
        <time>2017-08-03T07:47:48Z</time>
      </trkpt>
      <trkpt lat="44.93323" lon="5.74683">
        <ele>1397.8942871</ele>
        <time>2017-08-03T07:48:02Z</time>
      </trkpt>
      <trkpt lat="44.93322" lon="5.74684">
        <ele>1398.3747559</ele>
        <time>2017-08-03T07:48:09Z</time>
      </trkpt>
      <trkpt lat="44.9332" lon="5.74685">
        <ele>1398.8554688</ele>
        <time>2017-08-03T07:48:19Z</time>
      </trkpt>
      <trkpt lat="44.93337" lon="5.74661">
        <ele>1399.3361816</ele>
        <time>2017-08-03T07:48:30Z</time>
      </trkpt>
      <trkpt lat="44.93345" lon="5.7465">
        <ele>1400.2976074</ele>
        <time>2017-08-03T07:48:34Z</time>
      </trkpt>
      <trkpt lat="44.9337" lon="5.74618">
        <ele>1399.3361816</ele>
        <time>2017-08-03T07:48:44Z</time>
      </trkpt>
      <trkpt lat="44.93381" lon="5.746">
        <ele>1400.2976074</ele>
        <time>2017-08-03T07:48:51Z</time>
      </trkpt>
      <trkpt lat="44.93381" lon="5.74578">
        <ele>1400.2976074</ele>
        <time>2017-08-03T07:48:56Z</time>
      </trkpt>
      <trkpt lat="44.93363" lon="5.74574">
        <ele>1401.739502</ele>
        <time>2017-08-03T07:49:06Z</time>
      </trkpt>
      <trkpt lat="44.93355" lon="5.74568">
        <ele>1402.7006836</ele>
        <time>2017-08-03T07:49:11Z</time>
      </trkpt>
      <trkpt lat="44.93352" lon="5.74556">
        <ele>1404.6235352</ele>
        <time>2017-08-03T07:49:16Z</time>
      </trkpt>
      <trkpt lat="44.93355" lon="5.74534">
        <ele>1403.1813965</ele>
        <time>2017-08-03T07:49:21Z</time>
      </trkpt>
      <trkpt lat="44.93344" lon="5.74495">
        <ele>1403.1813965</ele>
        <time>2017-08-03T07:49:28Z</time>
      </trkpt>
      <trkpt lat="44.93316" lon="5.74466">
        <ele>1406.5461426</ele>
        <time>2017-08-03T07:49:42Z</time>
      </trkpt>
      <trkpt lat="44.93296" lon="5.74444">
        <ele>1409.9106445</ele>
        <time>2017-08-03T07:49:54Z</time>
      </trkpt>
      <trkpt lat="44.93274" lon="5.74412">
        <ele>1410.8720703</ele>
        <time>2017-08-03T07:50:09Z</time>
      </trkpt>
      <trkpt lat="44.93254" lon="5.74382">
        <ele>1410.3913574</ele>
        <time>2017-08-03T07:50:17Z</time>
      </trkpt>
      <trkpt lat="44.93205" lon="5.74318">
        <ele>1410.8720703</ele>
        <time>2017-08-03T07:50:33Z</time>
      </trkpt>
      <trkpt lat="44.93194" lon="5.74303">
        <ele>1413.7558594</ele>
        <time>2017-08-03T07:50:46Z</time>
      </trkpt>
      <trkpt lat="44.93194" lon="5.74303">
        <ele>1413.7558594</ele>
        <time>2017-08-03T07:51:02Z</time>
      </trkpt>
      <trkpt lat="44.93194" lon="5.74303">
        <ele>1414.2365723</ele>
        <time>2017-08-03T07:51:14Z</time>
      </trkpt>
      <trkpt lat="44.93194" lon="5.74303">
        <ele>1413.7558594</ele>
        <time>2017-08-03T07:51:16Z</time>
      </trkpt>
      <trkpt lat="44.93175" lon="5.74244">
        <ele>1414.2365723</ele>
        <time>2017-08-03T07:51:31Z</time>
      </trkpt>
      <trkpt lat="44.93146" lon="5.74148">
        <ele>1415.197998</ele>
        <time>2017-08-03T07:51:52Z</time>
      </trkpt>
      <trkpt lat="44.93122" lon="5.74093">
        <ele>1417.6010742</ele>
        <time>2017-08-03T07:52:08Z</time>
      </trkpt>
      <trkpt lat="44.93088" lon="5.74051">
        <ele>1420.0046387</ele>
        <time>2017-08-03T07:52:25Z</time>
      </trkpt>
      <trkpt lat="44.93072" lon="5.74032">
        <ele>1423.3693848</ele>
        <time>2017-08-03T07:52:38Z</time>
      </trkpt>
      <trkpt lat="44.93036" lon="5.74037">
        <ele>1426.2531738</ele>
        <time>2017-08-03T07:52:54Z</time>
      </trkpt>
      <trkpt lat="44.93033" lon="5.74037">
        <ele>1427.6950684</ele>
        <time>2017-08-03T07:52:56Z</time>
      </trkpt>
      <trkpt lat="44.93005" lon="5.74034">
        <ele>1430.5791016</ele>
        <time>2017-08-03T07:53:15Z</time>
      </trkpt>
      <trkpt lat="44.92986" lon="5.74029">
        <ele>1433.4628906</ele>
        <time>2017-08-03T07:53:29Z</time>
      </trkpt>
      <trkpt lat="44.92958" lon="5.73993">
        <ele>1436.347168</ele>
        <time>2017-08-03T07:53:52Z</time>
      </trkpt>
      <trkpt lat="44.92938" lon="5.73959">
        <ele>1439.230957</ele>
        <time>2017-08-03T07:54:11Z</time>
      </trkpt>
      <trkpt lat="44.92916" lon="5.73931">
        <ele>1442.5957031</ele>
        <time>2017-08-03T07:54:29Z</time>
      </trkpt>
      <trkpt lat="44.92894" lon="5.73914">
        <ele>1445.9602051</ele>
        <time>2017-08-03T07:54:45Z</time>
      </trkpt>
      <trkpt lat="44.92881" lon="5.73905">
        <ele>1447.8828125</ele>
        <time>2017-08-03T07:54:54Z</time>
      </trkpt>
      <trkpt lat="44.92874" lon="5.73902">
        <ele>1448.8439941</ele>
        <time>2017-08-03T07:54:59Z</time>
      </trkpt>
      <trkpt lat="44.92851" lon="5.73893">
        <ele>1452.6894531</ele>
        <time>2017-08-03T07:55:17Z</time>
      </trkpt>
      <trkpt lat="44.92843" lon="5.7389">
        <ele>1454.1315918</ele>
        <time>2017-08-03T07:55:24Z</time>
      </trkpt>
      <trkpt lat="44.92835" lon="5.7389">
        <ele>1455.0927734</ele>
        <time>2017-08-03T07:55:31Z</time>
      </trkpt>
      <trkpt lat="44.92829" lon="5.7389">
        <ele>1456.534668</ele>
        <time>2017-08-03T07:55:36Z</time>
      </trkpt>
      <trkpt lat="44.92809" lon="5.73892">
        <ele>1459.8991699</ele>
        <time>2017-08-03T07:55:53Z</time>
      </trkpt>
      <trkpt lat="44.92793" lon="5.73903">
        <ele>1462.3024902</ele>
        <time>2017-08-03T07:56:07Z</time>
      </trkpt>
      <trkpt lat="44.928" lon="5.73936">
        <ele>1465.1865234</ele>
        <time>2017-08-03T07:56:23Z</time>
      </trkpt>
      <trkpt lat="44.92821" lon="5.73973">
        <ele>1469.0319824</ele>
        <time>2017-08-03T07:56:46Z</time>
      </trkpt>
      <trkpt lat="44.92836" lon="5.74003">
        <ele>1472.3964844</ele>
        <time>2017-08-03T07:57:04Z</time>
      </trkpt>
      <trkpt lat="44.92852" lon="5.74039">
        <ele>1475.2802734</ele>
        <time>2017-08-03T07:57:24Z</time>
      </trkpt>
      <trkpt lat="44.92875" lon="5.74085">
        <ele>1478.1643066</ele>
        <time>2017-08-03T07:57:48Z</time>
      </trkpt>
      <trkpt lat="44.929" lon="5.74137">
        <ele>1481.0483398</ele>
        <time>2017-08-03T07:58:12Z</time>
      </trkpt>
      <trkpt lat="44.92902" lon="5.74151">
        <ele>1481.5288086</ele>
        <time>2017-08-03T07:58:20Z</time>
      </trkpt>
      <trkpt lat="44.92892" lon="5.74156">
        <ele>1482.0095215</ele>
        <time>2017-08-03T07:58:27Z</time>
      </trkpt>
      <trkpt lat="44.92888" lon="5.74154">
        <ele>1482.9707031</ele>
        <time>2017-08-03T07:58:32Z</time>
      </trkpt>
      <trkpt lat="44.92882" lon="5.74152">
        <ele>1484.4130859</ele>
        <time>2017-08-03T07:58:36Z</time>
      </trkpt>
      <trkpt lat="44.92863" lon="5.74149">
        <ele>1486.8161621</ele>
        <time>2017-08-03T07:58:48Z</time>
      </trkpt>
      <trkpt lat="44.92847" lon="5.74149">
        <ele>1488.2583008</ele>
        <time>2017-08-03T07:58:57Z</time>
      </trkpt>
      <trkpt lat="44.92814" lon="5.7414">
        <ele>1491.1420898</ele>
        <time>2017-08-03T07:59:16Z</time>
      </trkpt>
      <trkpt lat="44.92765" lon="5.74122">
        <ele>1493.5454102</ele>
        <time>2017-08-03T07:59:42Z</time>
      </trkpt>
      <trkpt lat="44.92726" lon="5.74113">
        <ele>1495.9487305</ele>
        <time>2017-08-03T08:00:04Z</time>
      </trkpt>
      <trkpt lat="44.92688" lon="5.74111">
        <ele>1498.3518066</ele>
        <time>2017-08-03T08:00:24Z</time>
      </trkpt>
      <trkpt lat="44.9265" lon="5.74131">
        <ele>1500.2749023</ele>
        <time>2017-08-03T08:00:41Z</time>
      </trkpt>
      <trkpt lat="44.92628" lon="5.74167">
        <ele>1500.7553711</ele>
        <time>2017-08-03T08:00:58Z</time>
      </trkpt>
      <trkpt lat="44.92596" lon="5.74188">
        <ele>1501.236084</ele>
        <time>2017-08-03T08:01:16Z</time>
      </trkpt>
      <trkpt lat="44.92594" lon="5.74142">
        <ele>1500.2749023</ele>
        <time>2017-08-03T08:01:20Z</time>
      </trkpt>
      <trkpt lat="44.92597" lon="5.74188">
        <ele>1500.7553711</ele>
        <time>2017-08-03T08:01:25Z</time>
      </trkpt>
      <trkpt lat="44.92599" lon="5.74152">
        <ele>1504.6005859</ele>
        <time>2017-08-03T08:01:32Z</time>
      </trkpt>
      <trkpt lat="44.92599" lon="5.74152">
        <ele>1500.7553711</ele>
        <time>2017-08-03T08:01:33Z</time>
      </trkpt>
      <trkpt lat="44.92599" lon="5.74152">
        <ele>1500.7553711</ele>
        <time>2017-08-03T08:01:34Z</time>
      </trkpt>
      <trkpt lat="44.92599" lon="5.74152">
        <ele>1501.7167969</ele>
        <time>2017-08-03T08:02:10Z</time>
      </trkpt>
      <trkpt lat="44.92597" lon="5.74148">
        <ele>1500.7553711</ele>
        <time>2017-08-03T08:02:13Z</time>
      </trkpt>
      <trkpt lat="44.92591" lon="5.74136">
        <ele>1501.7167969</ele>
        <time>2017-08-03T08:02:17Z</time>
      </trkpt>
      <trkpt lat="44.92579" lon="5.74101">
        <ele>1500.2749023</ele>
        <time>2017-08-03T08:02:31Z</time>
      </trkpt>
      <trkpt lat="44.92573" lon="5.74073">
        <ele>1501.7167969</ele>
        <time>2017-08-03T08:02:41Z</time>
      </trkpt>
      <trkpt lat="44.92514" lon="5.7406">
        <ele>1503.6394043</ele>
        <time>2017-08-03T08:02:56Z</time>
      </trkpt>
      <trkpt lat="44.92511" lon="5.74046">
        <ele>1506.5231934</ele>
        <time>2017-08-03T08:03:04Z</time>
      </trkpt>
      <trkpt lat="44.92511" lon="5.74043">
        <ele>1506.5231934</ele>
        <time>2017-08-03T08:03:05Z</time>
      </trkpt>
      <trkpt lat="44.92511" lon="5.74037">
        <ele>1507.965332</ele>
        <time>2017-08-03T08:03:09Z</time>
      </trkpt>
      <trkpt lat="44.9251" lon="5.74033">
        <ele>1508.9265137</ele>
        <time>2017-08-03T08:03:13Z</time>
      </trkpt>
      <trkpt lat="44.92503" lon="5.74011">
        <ele>1512.2910156</ele>
        <time>2017-08-03T08:03:29Z</time>
      </trkpt>
      <trkpt lat="44.92494" lon="5.7401">
        <ele>1513.2524414</ele>
        <time>2017-08-03T08:03:42Z</time>
      </trkpt>
      <trkpt lat="44.92477" lon="5.74014">
        <ele>1513.7329102</ele>
        <time>2017-08-03T08:04:00Z</time>
      </trkpt>
      <trkpt lat="44.92426" lon="5.73903">
        <ele>1516.1364746</ele>
        <time>2017-08-03T08:04:18Z</time>
      </trkpt>
      <trkpt lat="44.92397" lon="5.73923">
        <ele>1517.0979004</ele>
        <time>2017-08-03T08:04:38Z</time>
      </trkpt>
      <trkpt lat="44.92373" lon="5.73943">
        <ele>1519.9816895</ele>
        <time>2017-08-03T08:04:57Z</time>
      </trkpt>
      <trkpt lat="44.92332" lon="5.73991">
        <ele>1517.0979004</ele>
        <time>2017-08-03T08:05:17Z</time>
      </trkpt>
      <trkpt lat="44.92316" lon="5.73993">
        <ele>1515.6557617</ele>
        <time>2017-08-03T08:05:19Z</time>
      </trkpt>
      <trkpt lat="44.92282" lon="5.73993">
        <ele>1513.2524414</ele>
        <time>2017-08-03T08:05:23Z</time>
      </trkpt>
      <trkpt lat="44.92223" lon="5.73943">
        <ele>1513.7329102</ele>
        <time>2017-08-03T08:05:37Z</time>
      </trkpt>
      <trkpt lat="44.92174" lon="5.73915">
        <ele>1510.8491211</ele>
        <time>2017-08-03T08:05:52Z</time>
      </trkpt>
      <trkpt lat="44.92149" lon="5.73911">
        <ele>1510.8491211</ele>
        <time>2017-08-03T08:06:04Z</time>
      </trkpt>
      <trkpt lat="44.92125" lon="5.73781">
        <ele>1510.8491211</ele>
        <time>2017-08-03T08:06:17Z</time>
      </trkpt>
      <trkpt lat="44.92082" lon="5.73728">
        <ele>1512.2910156</ele>
        <time>2017-08-03T08:06:36Z</time>
      </trkpt>
      <trkpt lat="44.92058" lon="5.73672">
        <ele>1513.2524414</ele>
        <time>2017-08-03T08:06:52Z</time>
      </trkpt>
      <trkpt lat="44.92052" lon="5.73652">
        <ele>1513.7329102</ele>
        <time>2017-08-03T08:06:57Z</time>
      </trkpt>
      <trkpt lat="44.92044" lon="5.73648">
        <ele>1512.7717285</ele>
        <time>2017-08-03T08:07:01Z</time>
      </trkpt>
      <trkpt lat="44.92036" lon="5.73646">
        <ele>1511.8105469</ele>
        <time>2017-08-03T08:07:04Z</time>
      </trkpt>
      <trkpt lat="44.9202" lon="5.73637">
        <ele>1510.3684082</ele>
        <time>2017-08-03T08:07:08Z</time>
      </trkpt>
      <trkpt lat="44.92019" lon="5.73635">
        <ele>1509.8876953</ele>
        <time>2017-08-03T08:07:23Z</time>
      </trkpt>
      <trkpt lat="44.92019" lon="5.73635">
        <ele>1509.4072266</ele>
        <time>2017-08-03T08:07:49Z</time>
      </trkpt>
      <trkpt lat="44.92021" lon="5.73639">
        <ele>1509.4072266</ele>
        <time>2017-08-03T08:07:54Z</time>
      </trkpt>
      <trkpt lat="44.92021" lon="5.73639">
        <ele>1513.2524414</ele>
        <time>2017-08-03T08:08:09Z</time>
      </trkpt>
      <trkpt lat="44.92021" lon="5.73639">
        <ele>1515.1750488</ele>
        <time>2017-08-03T08:08:17Z</time>
      </trkpt>
      <trkpt lat="44.92021" lon="5.73639">
        <ele>1516.1364746</ele>
        <time>2017-08-03T08:08:34Z</time>
      </trkpt>
      <trkpt lat="44.92021" lon="5.73639">
        <ele>1516.1364746</ele>
        <time>2017-08-03T08:08:57Z</time>
      </trkpt>
      <trkpt lat="44.92023" lon="5.73664">
        <ele>1516.1364746</ele>
        <time>2017-08-03T08:08:59Z</time>
      </trkpt>
      <trkpt lat="44.92022" lon="5.73672">
        <ele>1515.6557617</ele>
        <time>2017-08-03T08:09:02Z</time>
      </trkpt>
      <trkpt lat="44.92026" lon="5.73714">
        <ele>1516.6171875</ele>
        <time>2017-08-03T08:09:21Z</time>
      </trkpt>
      <trkpt lat="44.92028" lon="5.73722">
        <ele>1516.6171875</ele>
        <time>2017-08-03T08:09:25Z</time>
      </trkpt>
      <trkpt lat="44.92026" lon="5.73757">
        <ele>1519.9816895</ele>
        <time>2017-08-03T08:09:42Z</time>
      </trkpt>
      <trkpt lat="44.92026" lon="5.73757">
        <ele>1521.9042969</ele>
        <time>2017-08-03T08:09:54Z</time>
      </trkpt>
      <trkpt lat="44.92026" lon="5.73757">
        <ele>1524.3076172</ele>
        <time>2017-08-03T08:10:15Z</time>
      </trkpt>
      <trkpt lat="44.92026" lon="5.73757">
        <ele>1526.7109375</ele>
        <time>2017-08-03T08:10:34Z</time>
      </trkpt>
      <trkpt lat="44.92026" lon="5.73757">
        <ele>1528.152832</ele>
        <time>2017-08-03T08:10:55Z</time>
      </trkpt>
      <trkpt lat="44.92026" lon="5.73757">
        <ele>1531.0368652</ele>
        <time>2017-08-03T08:11:08Z</time>
      </trkpt>
      <trkpt lat="44.92026" lon="5.73757">
        <ele>1534.8823242</ele>
        <time>2017-08-03T08:11:30Z</time>
      </trkpt>
      <trkpt lat="44.92025" lon="5.73862">
        <ele>1537.7661133</ele>
        <time>2017-08-03T08:11:47Z</time>
      </trkpt>
      <trkpt lat="44.92025" lon="5.73862">
        <ele>1540.1694336</ele>
        <time>2017-08-03T08:12:09Z</time>
      </trkpt>
      <trkpt lat="44.92025" lon="5.73862">
        <ele>1543.0532227</ele>
        <time>2017-08-03T08:12:31Z</time>
      </trkpt>
      <trkpt lat="44.92025" lon="5.73862">
        <ele>1544.9758301</ele>
        <time>2017-08-03T08:12:50Z</time>
      </trkpt>
      <trkpt lat="44.91909" lon="5.73898">
        <ele>1546.8984375</ele>
        <time>2017-08-03T08:13:09Z</time>
      </trkpt>
      <trkpt lat="44.919" lon="5.73898">
        <ele>1547.3791504</ele>
        <time>2017-08-03T08:13:24Z</time>
      </trkpt>
      <trkpt lat="44.91875" lon="5.73907">
        <ele>1548.8212891</ele>
        <time>2017-08-03T08:13:49Z</time>
      </trkpt>
      <trkpt lat="44.91861" lon="5.73917">
        <ele>1551.2246094</ele>
        <time>2017-08-03T08:14:08Z</time>
      </trkpt>
      <trkpt lat="44.91861" lon="5.7392">
        <ele>1550.7438965</ele>
        <time>2017-08-03T08:14:11Z</time>
      </trkpt>
      <trkpt lat="44.91858" lon="5.73927">
        <ele>1551.7053223</ele>
        <time>2017-08-03T08:14:19Z</time>
      </trkpt>
      <trkpt lat="44.91834" lon="5.73955">
        <ele>1554.5891113</ele>
        <time>2017-08-03T08:14:38Z</time>
      </trkpt>
      <trkpt lat="44.9183" lon="5.73961">
        <ele>1555.5505371</ele>
        <time>2017-08-03T08:14:43Z</time>
      </trkpt>
      <trkpt lat="44.91821" lon="5.73969">
        <ele>1556.5117188</ele>
        <time>2017-08-03T08:14:58Z</time>
      </trkpt>
      <trkpt lat="44.9182" lon="5.7397">
        <ele>1556.9924316</ele>
        <time>2017-08-03T08:15:44Z</time>
      </trkpt>
      <trkpt lat="44.91818" lon="5.73963">
        <ele>1558.4343262</ele>
        <time>2017-08-03T08:15:48Z</time>
      </trkpt>
      <trkpt lat="44.91817" lon="5.7396">
        <ele>1558.4343262</ele>
        <time>2017-08-03T08:15:50Z</time>
      </trkpt>
      <trkpt lat="44.91795" lon="5.73952">
        <ele>1560.8376465</ele>
        <time>2017-08-03T08:16:07Z</time>
      </trkpt>
      <trkpt lat="44.91766" lon="5.73936">
        <ele>1562.7602539</ele>
        <time>2017-08-03T08:16:28Z</time>
      </trkpt>
      <trkpt lat="44.91734" lon="5.73917">
        <ele>1565.6445313</ele>
        <time>2017-08-03T08:16:51Z</time>
      </trkpt>
      <trkpt lat="44.91717" lon="5.7391">
        <ele>1567.5668945</ele>
        <time>2017-08-03T08:17:02Z</time>
      </trkpt>
      <trkpt lat="44.91692" lon="5.73893">
        <ele>1567.5668945</ele>
        <time>2017-08-03T08:17:17Z</time>
      </trkpt>
      <trkpt lat="44.91662" lon="5.7386">
        <ele>1568.0476074</ele>
        <time>2017-08-03T08:17:32Z</time>
      </trkpt>
      <trkpt lat="44.91631" lon="5.73824">
        <ele>1568.5283203</ele>
        <time>2017-08-03T08:17:49Z</time>
      </trkpt>
      <trkpt lat="44.91623" lon="5.73815">
        <ele>1568.5283203</ele>
        <time>2017-08-03T08:17:54Z</time>
      </trkpt>
      <trkpt lat="44.916" lon="5.7379">
        <ele>1565.1638184</ele>
        <time>2017-08-03T08:18:01Z</time>
      </trkpt>
      <trkpt lat="44.91561" lon="5.73753">
        <ele>1567.0864258</ele>
        <time>2017-08-03T08:18:13Z</time>
      </trkpt>
      <trkpt lat="44.91542" lon="5.73733">
        <ele>1566.6057129</ele>
        <time>2017-08-03T08:18:18Z</time>
      </trkpt>
      <trkpt lat="44.91531" lon="5.73724">
        <ele>1567.5668945</ele>
        <time>2017-08-03T08:18:21Z</time>
      </trkpt>
      <trkpt lat="44.91529" lon="5.73722">
        <ele>1569.9702148</ele>
        <time>2017-08-03T08:18:24Z</time>
      </trkpt>
      <trkpt lat="44.91529" lon="5.73722">
        <ele>1569.9702148</ele>
        <time>2017-08-03T08:18:48Z</time>
      </trkpt>
      <trkpt lat="44.91509" lon="5.73709">
        <ele>1568.5283203</ele>
        <time>2017-08-03T08:18:56Z</time>
      </trkpt>
      <trkpt lat="44.91502" lon="5.73705">
        <ele>1569.9702148</ele>
        <time>2017-08-03T08:19:06Z</time>
      </trkpt>
      <trkpt lat="44.91484" lon="5.73694">
        <ele>1573.3349609</ele>
        <time>2017-08-03T08:19:20Z</time>
      </trkpt>
      <trkpt lat="44.91471" lon="5.73684">
        <ele>1573.8154297</ele>
        <time>2017-08-03T08:19:33Z</time>
      </trkpt>
      <trkpt lat="44.91441" lon="5.73667">
        <ele>1574.7768555</ele>
        <time>2017-08-03T08:19:50Z</time>
      </trkpt>
      <trkpt lat="44.91423" lon="5.73643">
        <ele>1577.1801758</ele>
        <time>2017-08-03T08:20:02Z</time>
      </trkpt>
      <trkpt lat="44.91422" lon="5.73642">
        <ele>1577.1801758</ele>
        <time>2017-08-03T08:20:03Z</time>
      </trkpt>
      <trkpt lat="44.914" lon="5.73618">
        <ele>1581.5061035</ele>
        <time>2017-08-03T08:20:19Z</time>
      </trkpt>
      <trkpt lat="44.91388" lon="5.73604">
        <ele>1583.9094238</ele>
        <time>2017-08-03T08:20:33Z</time>
      </trkpt>
      <trkpt lat="44.91367" lon="5.73589">
        <ele>1587.2739258</ele>
        <time>2017-08-03T08:20:49Z</time>
      </trkpt>
      <trkpt lat="44.91367" lon="5.73589">
        <ele>1588.7160645</ele>
        <time>2017-08-03T08:21:04Z</time>
      </trkpt>
      <trkpt lat="44.91363" lon="5.73587">
        <ele>1587.7546387</ele>
        <time>2017-08-03T08:21:11Z</time>
      </trkpt>
      <trkpt lat="44.9136" lon="5.73584">
        <ele>1586.7932129</ele>
        <time>2017-08-03T08:21:28Z</time>
      </trkpt>
      <trkpt lat="44.9136" lon="5.73584">
        <ele>1588.2353516</ele>
        <time>2017-08-03T08:21:51Z</time>
      </trkpt>
      <trkpt lat="44.9136" lon="5.73584">
        <ele>1587.7546387</ele>
        <time>2017-08-03T08:22:16Z</time>
      </trkpt>
      <trkpt lat="44.9136" lon="5.73584">
        <ele>1588.2353516</ele>
        <time>2017-08-03T08:22:59Z</time>
      </trkpt>
      <trkpt lat="44.9136" lon="5.73584">
        <ele>1588.2353516</ele>
        <time>2017-08-03T08:23:16Z</time>
      </trkpt>
      <trkpt lat="44.9136" lon="5.73584">
        <ele>1588.2353516</ele>
        <time>2017-08-03T08:25:32Z</time>
      </trkpt>
      <trkpt lat="44.9136" lon="5.73584">
        <ele>1588.2353516</ele>
        <time>2017-08-03T08:25:49Z</time>
      </trkpt>
      <trkpt lat="44.9136" lon="5.73584">
        <ele>1590.157959</ele>
        <time>2017-08-03T08:26:34Z</time>
      </trkpt>
      <trkpt lat="44.9136" lon="5.73584">
        <ele>1589.6772461</ele>
        <time>2017-08-03T08:27:16Z</time>
      </trkpt>
      <trkpt lat="44.91344" lon="5.73574">
        <ele>1589.6772461</ele>
        <time>2017-08-03T08:27:20Z</time>
      </trkpt>
      <trkpt lat="44.91343" lon="5.73573">
        <ele>1588.2353516</ele>
        <time>2017-08-03T08:27:31Z</time>
      </trkpt>
      <trkpt lat="44.91329" lon="5.73561">
        <ele>1586.3127441</ele>
        <time>2017-08-03T08:27:43Z</time>
      </trkpt>
      <trkpt lat="44.91325" lon="5.73554">
        <ele>1586.3127441</ele>
        <time>2017-08-03T08:27:45Z</time>
      </trkpt>
      <trkpt lat="44.91318" lon="5.73544">
        <ele>1584.8708496</ele>
        <time>2017-08-03T08:27:49Z</time>
      </trkpt>
      <trkpt lat="44.91298" lon="5.735">
        <ele>1582.947998</ele>
        <time>2017-08-03T08:28:02Z</time>
      </trkpt>
      <trkpt lat="44.9127" lon="5.73458">
        <ele>1581.0256348</ele>
        <time>2017-08-03T08:28:11Z</time>
      </trkpt>
      <trkpt lat="44.91214" lon="5.73419">
        <ele>1577.6606445</ele>
        <time>2017-08-03T08:28:22Z</time>
      </trkpt>
      <trkpt lat="44.91192" lon="5.73394">
        <ele>1576.21875</ele>
        <time>2017-08-03T08:28:34Z</time>
      </trkpt>
      <trkpt lat="44.91188" lon="5.73385">
        <ele>1573.8154297</ele>
        <time>2017-08-03T08:28:40Z</time>
      </trkpt>
      <trkpt lat="44.91187" lon="5.73383">
        <ele>1570.4509277</ele>
        <time>2017-08-03T08:28:45Z</time>
      </trkpt>
      <trkpt lat="44.91185" lon="5.73375">
        <ele>1568.5283203</ele>
        <time>2017-08-03T08:28:47Z</time>
      </trkpt>
      <trkpt lat="44.91185" lon="5.73375">
        <ele>1566.125</ele>
        <time>2017-08-03T08:28:49Z</time>
      </trkpt>
      <trkpt lat="44.91185" lon="5.73369">
        <ele>1563.7214355</ele>
        <time>2017-08-03T08:28:51Z</time>
      </trkpt>
      <trkpt lat="44.91185" lon="5.7336">
        <ele>1559.395752</ele>
        <time>2017-08-03T08:28:53Z</time>
      </trkpt>
      <trkpt lat="44.91185" lon="5.73355">
        <ele>1559.395752</ele>
        <time>2017-08-03T08:28:54Z</time>
      </trkpt>
      <trkpt lat="44.91185" lon="5.73344">
        <ele>1557.4731445</ele>
        <time>2017-08-03T08:28:56Z</time>
      </trkpt>
      <trkpt lat="44.91185" lon="5.73331">
        <ele>1555.5505371</ele>
        <time>2017-08-03T08:28:58Z</time>
      </trkpt>
      <trkpt lat="44.91185" lon="5.73316">
        <ele>1551.7053223</ele>
        <time>2017-08-03T08:29:00Z</time>
      </trkpt>
      <trkpt lat="44.91185" lon="5.73309">
        <ele>1551.7053223</ele>
        <time>2017-08-03T08:29:01Z</time>
      </trkpt>
      <trkpt lat="44.91185" lon="5.73298">
        <ele>1549.7827148</ele>
        <time>2017-08-03T08:29:03Z</time>
      </trkpt>
      <trkpt lat="44.91185" lon="5.73292">
        <ele>1548.3405762</ele>
        <time>2017-08-03T08:29:05Z</time>
      </trkpt>
      <trkpt lat="44.91185" lon="5.73287">
        <ele>1544.4951172</ele>
        <time>2017-08-03T08:29:13Z</time>
      </trkpt>
      <trkpt lat="44.91186" lon="5.73284">
        <ele>1543.0532227</ele>
        <time>2017-08-03T08:29:23Z</time>
      </trkpt>
      <trkpt lat="44.91186" lon="5.73284">
        <ele>1543.0532227</ele>
        <time>2017-08-03T08:29:24Z</time>
      </trkpt>
      <trkpt lat="44.9112" lon="5.7327">
        <ele>1539.2080078</ele>
        <time>2017-08-03T08:29:30Z</time>
      </trkpt>
      <trkpt lat="44.91118" lon="5.73267">
        <ele>1539.2080078</ele>
        <time>2017-08-03T08:29:31Z</time>
      </trkpt>
      <trkpt lat="44.91117" lon="5.73261">
        <ele>1536.8046875</ele>
        <time>2017-08-03T08:29:33Z</time>
      </trkpt>
      <trkpt lat="44.91117" lon="5.73255">
        <ele>1535.362793</ele>
        <time>2017-08-03T08:29:35Z</time>
      </trkpt>
      <trkpt lat="44.91118" lon="5.73251">
        <ele>1534.4016113</ele>
        <time>2017-08-03T08:29:36Z</time>
      </trkpt>
      <trkpt lat="44.91122" lon="5.73236">
        <ele>1533.9208984</ele>
        <time>2017-08-03T08:29:42Z</time>
      </trkpt>
      <trkpt lat="44.91117" lon="5.73218">
        <ele>1531.517334</ele>
        <time>2017-08-03T08:29:47Z</time>
      </trkpt>
      <trkpt lat="44.91117" lon="5.73139">
        <ele>1530.5561523</ele>
        <time>2017-08-03T08:30:02Z</time>
      </trkpt>
      <trkpt lat="44.91099" lon="5.73064">
        <ele>1531.517334</ele>
        <time>2017-08-03T08:30:18Z</time>
      </trkpt>
      <trkpt lat="44.91105" lon="5.7299">
        <ele>1531.9980469</ele>
        <time>2017-08-03T08:30:33Z</time>
      </trkpt>
      <trkpt lat="44.91119" lon="5.72957">
        <ele>1532.4790039</ele>
        <time>2017-08-03T08:30:45Z</time>
      </trkpt>
      <trkpt lat="44.91122" lon="5.7295">
        <ele>1531.9980469</ele>
        <time>2017-08-03T08:30:49Z</time>
      </trkpt>
      <trkpt lat="44.91126" lon="5.72939">
        <ele>1530.5561523</ele>
        <time>2017-08-03T08:30:52Z</time>
      </trkpt>
      <trkpt lat="44.91106" lon="5.7291">
        <ele>1529.1140137</ele>
        <time>2017-08-03T08:31:01Z</time>
      </trkpt>
      <trkpt lat="44.91079" lon="5.72897">
        <ele>1528.152832</ele>
        <time>2017-08-03T08:31:11Z</time>
      </trkpt>
      <trkpt lat="44.91072" lon="5.729">
        <ele>1526.2302246</ele>
        <time>2017-08-03T08:31:15Z</time>
      </trkpt>
      <trkpt lat="44.91055" lon="5.72902">
        <ele>1524.3076172</ele>
        <time>2017-08-03T08:31:22Z</time>
      </trkpt>
      <trkpt lat="44.91051" lon="5.72901">
        <ele>1524.7883301</ele>
        <time>2017-08-03T08:31:23Z</time>
      </trkpt>
      <trkpt lat="44.91025" lon="5.72889">
        <ele>1521.423584</ele>
        <time>2017-08-03T08:31:28Z</time>
      </trkpt>
      <trkpt lat="44.91012" lon="5.72875">
        <ele>1519.9816895</ele>
        <time>2017-08-03T08:31:31Z</time>
      </trkpt>
      <trkpt lat="44.91" lon="5.7287">
        <ele>1518.5397949</ele>
        <time>2017-08-03T08:31:33Z</time>
      </trkpt>
      <trkpt lat="44.90962" lon="5.72877">
        <ele>1514.213623</ele>
        <time>2017-08-03T08:31:39Z</time>
      </trkpt>
      <trkpt lat="44.90929" lon="5.72873">
        <ele>1511.329834</ele>
        <time>2017-08-03T08:31:43Z</time>
      </trkpt>
      <trkpt lat="44.90921" lon="5.72873">
        <ele>1509.8876953</ele>
        <time>2017-08-03T08:31:44Z</time>
      </trkpt>
      <trkpt lat="44.90887" lon="5.7288">
        <ele>1507.0039063</ele>
        <time>2017-08-03T08:31:48Z</time>
      </trkpt>
      <trkpt lat="44.90873" lon="5.72885">
        <ele>1505.0812988</ele>
        <time>2017-08-03T08:31:50Z</time>
      </trkpt>
      <trkpt lat="44.9086" lon="5.72897">
        <ele>1503.1586914</ele>
        <time>2017-08-03T08:31:52Z</time>
      </trkpt>
      <trkpt lat="44.90845" lon="5.72903">
        <ele>1501.7167969</ele>
        <time>2017-08-03T08:31:54Z</time>
      </trkpt>
      <trkpt lat="44.9083" lon="5.72912">
        <ele>1500.2749023</ele>
        <time>2017-08-03T08:31:56Z</time>
      </trkpt>
      <trkpt lat="44.9081" lon="5.7293">
        <ele>1497.8713379</ele>
        <time>2017-08-03T08:31:59Z</time>
      </trkpt>
      <trkpt lat="44.90781" lon="5.72941">
        <ele>1495.4680176</ele>
        <time>2017-08-03T08:32:03Z</time>
      </trkpt>
      <trkpt lat="44.90764" lon="5.72956">
        <ele>1492.5842285</ele>
        <time>2017-08-03T08:32:06Z</time>
      </trkpt>
      <trkpt lat="44.90751" lon="5.72963">
        <ele>1491.1420898</ele>
        <time>2017-08-03T08:32:08Z</time>
      </trkpt>
      <trkpt lat="44.90738" lon="5.72969">
        <ele>1490.1809082</ele>
        <time>2017-08-03T08:32:10Z</time>
      </trkpt>
      <trkpt lat="44.9072" lon="5.72979">
        <ele>1486.8161621</ele>
        <time>2017-08-03T08:32:13Z</time>
      </trkpt>
      <trkpt lat="44.90706" lon="5.72983">
        <ele>1485.3742676</ele>
        <time>2017-08-03T08:32:15Z</time>
      </trkpt>
      <trkpt lat="44.9069" lon="5.72988">
        <ele>1484.8937988</ele>
        <time>2017-08-03T08:32:17Z</time>
      </trkpt>
      <trkpt lat="44.90667" lon="5.72997">
        <ele>1481.5288086</ele>
        <time>2017-08-03T08:32:20Z</time>
      </trkpt>
      <trkpt lat="44.90638" lon="5.7301">
        <ele>1479.1254883</ele>
        <time>2017-08-03T08:32:24Z</time>
      </trkpt>
      <trkpt lat="44.90615" lon="5.7301">
        <ele>1475.7609863</ele>
        <time>2017-08-03T08:32:27Z</time>
      </trkpt>
      <trkpt lat="44.90602" lon="5.73014">
        <ele>1474.3190918</ele>
        <time>2017-08-03T08:32:29Z</time>
      </trkpt>
      <trkpt lat="44.90574" lon="5.73029">
        <ele>1470.9545898</ele>
        <time>2017-08-03T08:32:33Z</time>
      </trkpt>
      <trkpt lat="44.90567" lon="5.73033">
        <ele>1470.9545898</ele>
        <time>2017-08-03T08:32:34Z</time>
      </trkpt>
      <trkpt lat="44.90553" lon="5.73041">
        <ele>1469.5126953</ele>
        <time>2017-08-03T08:32:36Z</time>
      </trkpt>
      <trkpt lat="44.90546" lon="5.73045">
        <ele>1468.0705566</ele>
        <time>2017-08-03T08:32:37Z</time>
      </trkpt>
      <trkpt lat="44.90509" lon="5.73072">
        <ele>1463.7443848</ele>
        <time>2017-08-03T08:32:42Z</time>
      </trkpt>
      <trkpt lat="44.90502" lon="5.73078">
        <ele>1463.7443848</ele>
        <time>2017-08-03T08:32:43Z</time>
      </trkpt>
      <trkpt lat="44.90487" lon="5.73089">
        <ele>1462.3024902</ele>
        <time>2017-08-03T08:32:45Z</time>
      </trkpt>
      <trkpt lat="44.90454" lon="5.73097">
        <ele>1457.9768066</ele>
        <time>2017-08-03T08:32:49Z</time>
      </trkpt>
      <trkpt lat="44.90445" lon="5.73095">
        <ele>1457.9768066</ele>
        <time>2017-08-03T08:32:50Z</time>
      </trkpt>
      <trkpt lat="44.90419" lon="5.73082">
        <ele>1454.1315918</ele>
        <time>2017-08-03T08:32:54Z</time>
      </trkpt>
      <trkpt lat="44.90415" lon="5.73073">
        <ele>1452.6894531</ele>
        <time>2017-08-03T08:32:55Z</time>
      </trkpt>
      <trkpt lat="44.90403" lon="5.73047">
        <ele>1450.7666016</ele>
        <time>2017-08-03T08:32:58Z</time>
      </trkpt>
      <trkpt lat="44.90394" lon="5.73016">
        <ele>1449.8054199</ele>
        <time>2017-08-03T08:33:01Z</time>
      </trkpt>
      <trkpt lat="44.9038" lon="5.73008">
        <ele>1446.440918</ele>
        <time>2017-08-03T08:33:04Z</time>
      </trkpt>
      <trkpt lat="44.90367" lon="5.73005">
        <ele>1445.9602051</ele>
        <time>2017-08-03T08:33:06Z</time>
      </trkpt>
      <trkpt lat="44.90351" lon="5.7299">
        <ele>1443.0761719</ele>
        <time>2017-08-03T08:33:10Z</time>
      </trkpt>
      <trkpt lat="44.90349" lon="5.72987">
        <ele>1442.1149902</ele>
        <time>2017-08-03T08:33:22Z</time>
      </trkpt>
      <trkpt lat="44.90342" lon="5.72976">
        <ele>1443.0761719</ele>
        <time>2017-08-03T08:33:38Z</time>
      </trkpt>
      <trkpt lat="44.90342" lon="5.72915">
        <ele>1443.0761719</ele>
        <time>2017-08-03T08:33:52Z</time>
      </trkpt>
      <trkpt lat="44.90346" lon="5.72907">
        <ele>1443.0761719</ele>
        <time>2017-08-03T08:33:54Z</time>
      </trkpt>
      <trkpt lat="44.90355" lon="5.72893">
        <ele>1443.0761719</ele>
        <time>2017-08-03T08:33:57Z</time>
      </trkpt>
      <trkpt lat="44.90357" lon="5.72872">
        <ele>1441.6342773</ele>
        <time>2017-08-03T08:34:01Z</time>
      </trkpt>
      <trkpt lat="44.90353" lon="5.72838">
        <ele>1442.1149902</ele>
        <time>2017-08-03T08:34:07Z</time>
      </trkpt>
      <trkpt lat="44.9034" lon="5.72801">
        <ele>1441.1535645</ele>
        <time>2017-08-03T08:34:13Z</time>
      </trkpt>
      <trkpt lat="44.90315" lon="5.72769">
        <ele>1439.7116699</ele>
        <time>2017-08-03T08:34:20Z</time>
      </trkpt>
      <trkpt lat="44.90302" lon="5.72754">
        <ele>1439.230957</ele>
        <time>2017-08-03T08:34:23Z</time>
      </trkpt>
      <trkpt lat="44.90291" lon="5.72746">
        <ele>1438.2697754</ele>
        <time>2017-08-03T08:34:25Z</time>
      </trkpt>
      <trkpt lat="44.9026" lon="5.72726">
        <ele>1436.347168</ele>
        <time>2017-08-03T08:34:30Z</time>
      </trkpt>
      <trkpt lat="44.9023" lon="5.7272">
        <ele>1433.9436035</ele>
        <time>2017-08-03T08:34:34Z</time>
      </trkpt>
      <trkpt lat="44.90215" lon="5.72716">
        <ele>1432.0209961</ele>
        <time>2017-08-03T08:34:36Z</time>
      </trkpt>
      <trkpt lat="44.9019" lon="5.72713">
        <ele>1430.5791016</ele>
        <time>2017-08-03T08:34:39Z</time>
      </trkpt>
      <trkpt lat="44.90175" lon="5.72708">
        <ele>1428.6564941</ele>
        <time>2017-08-03T08:34:41Z</time>
      </trkpt>
      <trkpt lat="44.90166" lon="5.72704">
        <ele>1426.7338867</ele>
        <time>2017-08-03T08:34:43Z</time>
      </trkpt>
      <trkpt lat="44.90164" lon="5.72703">
        <ele>1424.3305664</ele>
        <time>2017-08-03T08:34:46Z</time>
      </trkpt>
      <trkpt lat="44.90164" lon="5.72703">
        <ele>1423.8498535</ele>
        <time>2017-08-03T08:35:04Z</time>
      </trkpt>
      <trkpt lat="44.90159" lon="5.727">
        <ele>1423.3693848</ele>
        <time>2017-08-03T08:35:32Z</time>
      </trkpt>
      <trkpt lat="44.90139" lon="5.72684">
        <ele>1421.9272461</ele>
        <time>2017-08-03T08:35:39Z</time>
      </trkpt>
      <trkpt lat="44.90119" lon="5.72657">
        <ele>1419.5239258</ele>
        <time>2017-08-03T08:35:46Z</time>
      </trkpt>
      <trkpt lat="44.90115" lon="5.72648">
        <ele>1419.0432129</ele>
        <time>2017-08-03T08:35:48Z</time>
      </trkpt>
      <trkpt lat="44.9011" lon="5.7263">
        <ele>1417.1206055</ele>
        <time>2017-08-03T08:35:51Z</time>
      </trkpt>
      <trkpt lat="44.90108" lon="5.72615">
        <ele>1416.1591797</ele>
        <time>2017-08-03T08:35:53Z</time>
      </trkpt>
      <trkpt lat="44.90106" lon="5.72609">
        <ele>1415.197998</ele>
        <time>2017-08-03T08:35:54Z</time>
      </trkpt>
      <trkpt lat="44.90075" lon="5.72577">
        <ele>1411.8334961</ele>
        <time>2017-08-03T08:36:01Z</time>
      </trkpt>
      <trkpt lat="44.90071" lon="5.72577">
        <ele>1411.8334961</ele>
        <time>2017-08-03T08:36:02Z</time>
      </trkpt>
      <trkpt lat="44.90067" lon="5.72577">
        <ele>1411.3527832</ele>
        <time>2017-08-03T08:36:03Z</time>
      </trkpt>
      <trkpt lat="44.90058" lon="5.72577">
        <ele>1411.3527832</ele>
        <time>2017-08-03T08:36:05Z</time>
      </trkpt>
      <trkpt lat="44.90029" lon="5.72553">
        <ele>1408.9494629</ele>
        <time>2017-08-03T08:36:11Z</time>
      </trkpt>
      <trkpt lat="44.90014" lon="5.72558">
        <ele>1405.5849609</ele>
        <time>2017-08-03T08:36:14Z</time>
      </trkpt>
      <trkpt lat="44.90004" lon="5.72564">
        <ele>1404.6235352</ele>
        <time>2017-08-03T08:36:16Z</time>
      </trkpt>
      <trkpt lat="44.89977" lon="5.72559">
        <ele>1402.2199707</ele>
        <time>2017-08-03T08:36:20Z</time>
      </trkpt>
      <trkpt lat="44.89953" lon="5.72551">
        <ele>1400.2976074</ele>
        <time>2017-08-03T08:36:23Z</time>
      </trkpt>
      <trkpt lat="44.89938" lon="5.72546">
        <ele>1398.8554688</ele>
        <time>2017-08-03T08:36:25Z</time>
      </trkpt>
      <trkpt lat="44.8993" lon="5.72542">
        <ele>1397.8942871</ele>
        <time>2017-08-03T08:36:26Z</time>
      </trkpt>
      <trkpt lat="44.89897" lon="5.72525">
        <ele>1395.0102539</ele>
        <time>2017-08-03T08:36:30Z</time>
      </trkpt>
      <trkpt lat="44.89878" lon="5.72512">
        <ele>1392.6071777</ele>
        <time>2017-08-03T08:36:34Z</time>
      </trkpt>
      <trkpt lat="44.89827" lon="5.72469">
        <ele>1389.7231445</ele>
        <time>2017-08-03T08:36:40Z</time>
      </trkpt>
      <trkpt lat="44.89812" lon="5.72455">
        <ele>1388.28125</ele>
        <time>2017-08-03T08:36:42Z</time>
      </trkpt>
      <trkpt lat="44.89798" lon="5.72446">
        <ele>1387.3195801</ele>
        <time>2017-08-03T08:36:44Z</time>
      </trkpt>
      <trkpt lat="44.89791" lon="5.72441">
        <ele>1385.8776855</ele>
        <time>2017-08-03T08:36:45Z</time>
      </trkpt>
      <trkpt lat="44.89772" lon="5.72423">
        <ele>1385.3969727</ele>
        <time>2017-08-03T08:36:48Z</time>
      </trkpt>
      <trkpt lat="44.89751" lon="5.72413">
        <ele>1382.5131836</ele>
        <time>2017-08-03T08:36:51Z</time>
      </trkpt>
      <trkpt lat="44.8972" lon="5.72404">
        <ele>1381.0712891</ele>
        <time>2017-08-03T08:36:55Z</time>
      </trkpt>
      <trkpt lat="44.89706" lon="5.72398">
        <ele>1379.1484375</ele>
        <time>2017-08-03T08:36:57Z</time>
      </trkpt>
      <trkpt lat="44.89692" lon="5.72391">
        <ele>1377.2260742</ele>
        <time>2017-08-03T08:36:59Z</time>
      </trkpt>
      <trkpt lat="44.89669" lon="5.72374">
        <ele>1375.7839355</ele>
        <time>2017-08-03T08:37:02Z</time>
      </trkpt>
      <trkpt lat="44.89639" lon="5.72348">
        <ele>1371.9384766</ele>
        <time>2017-08-03T08:37:06Z</time>
      </trkpt>
      <trkpt lat="44.89633" lon="5.72341">
        <ele>1371.9384766</ele>
        <time>2017-08-03T08:37:07Z</time>
      </trkpt>
      <trkpt lat="44.89597" lon="5.72307">
        <ele>1368.0932617</ele>
        <time>2017-08-03T08:37:12Z</time>
      </trkpt>
      <trkpt lat="44.89584" lon="5.72295">
        <ele>1366.6513672</ele>
        <time>2017-08-03T08:37:14Z</time>
      </trkpt>
      <trkpt lat="44.89559" lon="5.72267">
        <ele>1364.2480469</ele>
        <time>2017-08-03T08:37:18Z</time>
      </trkpt>
      <trkpt lat="44.89541" lon="5.72241">
        <ele>1361.3642578</ele>
        <time>2017-08-03T08:37:21Z</time>
      </trkpt>
      <trkpt lat="44.89519" lon="5.72205">
        <ele>1358.9609375</ele>
        <time>2017-08-03T08:37:25Z</time>
      </trkpt>
      <trkpt lat="44.89503" lon="5.72174">
        <ele>1357.0383301</ele>
        <time>2017-08-03T08:37:28Z</time>
      </trkpt>
      <trkpt lat="44.89492" lon="5.72159">
        <ele>1355.1154785</ele>
        <time>2017-08-03T08:37:30Z</time>
      </trkpt>
      <trkpt lat="44.89478" lon="5.7215">
        <ele>1353.673584</ele>
        <time>2017-08-03T08:37:32Z</time>
      </trkpt>
      <trkpt lat="44.89457" lon="5.72136">
        <ele>1351.2702637</ele>
        <time>2017-08-03T08:37:35Z</time>
      </trkpt>
      <trkpt lat="44.89435" lon="5.72125">
        <ele>1348.8669434</ele>
        <time>2017-08-03T08:37:38Z</time>
      </trkpt>
      <trkpt lat="44.89398" lon="5.72094">
        <ele>1345.5024414</ele>
        <time>2017-08-03T08:37:43Z</time>
      </trkpt>
      <trkpt lat="44.89391" lon="5.72088">
        <ele>1345.5024414</ele>
        <time>2017-08-03T08:37:44Z</time>
      </trkpt>
      <trkpt lat="44.89377" lon="5.72075">
        <ele>1343.579834</ele>
        <time>2017-08-03T08:37:46Z</time>
      </trkpt>
      <trkpt lat="44.89364" lon="5.7206">
        <ele>1341.6572266</ele>
        <time>2017-08-03T08:37:48Z</time>
      </trkpt>
      <trkpt lat="44.8935" lon="5.72046">
        <ele>1338.2924805</ele>
        <time>2017-08-03T08:37:50Z</time>
      </trkpt>
      <trkpt lat="44.8933" lon="5.72034">
        <ele>1335.8891602</ele>
        <time>2017-08-03T08:37:53Z</time>
      </trkpt>
      <trkpt lat="44.89316" lon="5.72024">
        <ele>1333.9665527</ele>
        <time>2017-08-03T08:37:55Z</time>
      </trkpt>
      <trkpt lat="44.89292" lon="5.72003">
        <ele>1332.0439453</ele>
        <time>2017-08-03T08:37:58Z</time>
      </trkpt>
      <trkpt lat="44.89276" lon="5.71992">
        <ele>1330.1213379</ele>
        <time>2017-08-03T08:38:00Z</time>
      </trkpt>
      <trkpt lat="44.8926" lon="5.71981">
        <ele>1327.7180176</ele>
        <time>2017-08-03T08:38:02Z</time>
      </trkpt>
      <trkpt lat="44.89244" lon="5.7197">
        <ele>1324.3535156</ele>
        <time>2017-08-03T08:38:04Z</time>
      </trkpt>
      <trkpt lat="44.89236" lon="5.71964">
        <ele>1324.3535156</ele>
        <time>2017-08-03T08:38:05Z</time>
      </trkpt>
      <trkpt lat="44.89218" lon="5.71953">
        <ele>1322.4306641</ele>
        <time>2017-08-03T08:38:07Z</time>
      </trkpt>
      <trkpt lat="44.89198" lon="5.71944">
        <ele>1321.4692383</ele>
        <time>2017-08-03T08:38:09Z</time>
      </trkpt>
      <trkpt lat="44.89179" lon="5.71936">
        <ele>1316.6628418</ele>
        <time>2017-08-03T08:38:11Z</time>
      </trkpt>
      <trkpt lat="44.89169" lon="5.71931">
        <ele>1316.6628418</ele>
        <time>2017-08-03T08:38:12Z</time>
      </trkpt>
      <trkpt lat="44.89152" lon="5.71922">
        <ele>1314.2595215</ele>
        <time>2017-08-03T08:38:14Z</time>
      </trkpt>
      <trkpt lat="44.89136" lon="5.71914">
        <ele>1311.3757324</ele>
        <time>2017-08-03T08:38:16Z</time>
      </trkpt>
      <trkpt lat="44.89119" lon="5.71906">
        <ele>1307.0495605</ele>
        <time>2017-08-03T08:38:18Z</time>
      </trkpt>
      <trkpt lat="44.89112" lon="5.71903">
        <ele>1307.0495605</ele>
        <time>2017-08-03T08:38:19Z</time>
      </trkpt>
      <trkpt lat="44.89097" lon="5.71898">
        <ele>1304.6462402</ele>
        <time>2017-08-03T08:38:21Z</time>
      </trkpt>
      <trkpt lat="44.89082" lon="5.71893">
        <ele>1303.2043457</ele>
        <time>2017-08-03T08:38:23Z</time>
      </trkpt>
      <trkpt lat="44.89066" lon="5.71887">
        <ele>1301.2817383</ele>
        <time>2017-08-03T08:38:25Z</time>
      </trkpt>
      <trkpt lat="44.8905" lon="5.7188">
        <ele>1297.4365234</ele>
        <time>2017-08-03T08:38:27Z</time>
      </trkpt>
      <trkpt lat="44.89043" lon="5.71878">
        <ele>1297.4365234</ele>
        <time>2017-08-03T08:38:28Z</time>
      </trkpt>
      <trkpt lat="44.89029" lon="5.71873">
        <ele>1295.513916</ele>
        <time>2017-08-03T08:38:30Z</time>
      </trkpt>
      <trkpt lat="44.89014" lon="5.71869">
        <ele>1294.0720215</ele>
        <time>2017-08-03T08:38:32Z</time>
      </trkpt>
      <trkpt lat="44.89001" lon="5.71866">
        <ele>1289.7458496</ele>
        <time>2017-08-03T08:38:34Z</time>
      </trkpt>
      <trkpt lat="44.88995" lon="5.71865">
        <ele>1289.7458496</ele>
        <time>2017-08-03T08:38:35Z</time>
      </trkpt>
      <trkpt lat="44.88982" lon="5.71863">
        <ele>1287.8232422</ele>
        <time>2017-08-03T08:38:37Z</time>
      </trkpt>
      <trkpt lat="44.88962" lon="5.71861">
        <ele>1283.9780273</ele>
        <time>2017-08-03T08:38:40Z</time>
      </trkpt>
      <trkpt lat="44.88957" lon="5.71861">
        <ele>1282.0554199</ele>
        <time>2017-08-03T08:38:42Z</time>
      </trkpt>
      <trkpt lat="44.8893" lon="5.71857">
        <ele>1279.6520996</ele>
        <time>2017-08-03T08:38:59Z</time>
      </trkpt>
      <trkpt lat="44.88902" lon="5.71851">
        <ele>1276.7683105</ele>
        <time>2017-08-03T08:39:03Z</time>
      </trkpt>
      <trkpt lat="44.88866" lon="5.71847">
        <ele>1274.3647461</ele>
        <time>2017-08-03T08:39:07Z</time>
      </trkpt>
      <trkpt lat="44.88849" lon="5.71847">
        <ele>1271.9614258</ele>
        <time>2017-08-03T08:39:09Z</time>
      </trkpt>
      <trkpt lat="44.88834" lon="5.71849">
        <ele>1268.1162109</ele>
        <time>2017-08-03T08:39:11Z</time>
      </trkpt>
      <trkpt lat="44.88826" lon="5.71849">
        <ele>1268.1162109</ele>
        <time>2017-08-03T08:39:12Z</time>
      </trkpt>
      <trkpt lat="44.88801" lon="5.71851">
        <ele>1265.2324219</ele>
        <time>2017-08-03T08:39:15Z</time>
      </trkpt>
      <trkpt lat="44.8878" lon="5.71849">
        <ele>1261.8679199</ele>
        <time>2017-08-03T08:39:18Z</time>
      </trkpt>
      <trkpt lat="44.88773" lon="5.71849">
        <ele>1261.8679199</ele>
        <time>2017-08-03T08:39:19Z</time>
      </trkpt>
      <trkpt lat="44.88758" lon="5.71849">
        <ele>1260.4257813</ele>
        <time>2017-08-03T08:39:21Z</time>
      </trkpt>
      <trkpt lat="44.88741" lon="5.71855">
        <ele>1258.9836426</ele>
        <time>2017-08-03T08:39:23Z</time>
      </trkpt>
      <trkpt lat="44.88727" lon="5.71863">
        <ele>1255.1384277</ele>
        <time>2017-08-03T08:39:25Z</time>
      </trkpt>
      <trkpt lat="44.88708" lon="5.71875">
        <ele>1253.6965332</ele>
        <time>2017-08-03T08:39:28Z</time>
      </trkpt>
      <trkpt lat="44.88703" lon="5.71878">
        <ele>1252.2543945</ele>
        <time>2017-08-03T08:39:29Z</time>
      </trkpt>
      <trkpt lat="44.88681" lon="5.71878">
        <ele>1248.4091797</ele>
        <time>2017-08-03T08:39:32Z</time>
      </trkpt>
      <trkpt lat="44.88674" lon="5.71876">
        <ele>1248.4091797</ele>
        <time>2017-08-03T08:39:33Z</time>
      </trkpt>
      <trkpt lat="44.88659" lon="5.71872">
        <ele>1246.9672852</ele>
        <time>2017-08-03T08:39:35Z</time>
      </trkpt>
      <trkpt lat="44.88643" lon="5.71867">
        <ele>1245.0446777</ele>
        <time>2017-08-03T08:39:37Z</time>
      </trkpt>
      <trkpt lat="44.88627" lon="5.71864">
        <ele>1241.6799316</ele>
        <time>2017-08-03T08:39:39Z</time>
      </trkpt>
      <trkpt lat="44.88619" lon="5.71864">
        <ele>1241.6799316</ele>
        <time>2017-08-03T08:39:40Z</time>
      </trkpt>
      <trkpt lat="44.88603" lon="5.71867">
        <ele>1240.2380371</ele>
        <time>2017-08-03T08:39:42Z</time>
      </trkpt>
      <trkpt lat="44.88589" lon="5.7187">
        <ele>1237.8347168</ele>
        <time>2017-08-03T08:39:44Z</time>
      </trkpt>
      <trkpt lat="44.88564" lon="5.71873">
        <ele>1235.4313965</ele>
        <time>2017-08-03T08:39:47Z</time>
      </trkpt>
      <trkpt lat="44.88547" lon="5.71877">
        <ele>1233.5087891</ele>
        <time>2017-08-03T08:39:49Z</time>
      </trkpt>
      <trkpt lat="44.88533" lon="5.71877">
        <ele>1230.625</ele>
        <time>2017-08-03T08:39:51Z</time>
      </trkpt>
      <trkpt lat="44.88519" lon="5.71875">
        <ele>1228.7023926</ele>
        <time>2017-08-03T08:39:53Z</time>
      </trkpt>
      <trkpt lat="44.88506" lon="5.7187">
        <ele>1225.8181152</ele>
        <time>2017-08-03T08:39:55Z</time>
      </trkpt>
      <trkpt lat="44.88483" lon="5.7186">
        <ele>1224.3762207</ele>
        <time>2017-08-03T08:39:58Z</time>
      </trkpt>
      <trkpt lat="44.88468" lon="5.71851">
        <ele>1221.9729004</ele>
        <time>2017-08-03T08:40:00Z</time>
      </trkpt>
      <trkpt lat="44.88451" lon="5.71842">
        <ele>1219.0891113</ele>
        <time>2017-08-03T08:40:02Z</time>
      </trkpt>
      <trkpt lat="44.88443" lon="5.71838">
        <ele>1219.0891113</ele>
        <time>2017-08-03T08:40:03Z</time>
      </trkpt>
      <trkpt lat="44.88427" lon="5.71833">
        <ele>1217.1665039</ele>
        <time>2017-08-03T08:40:05Z</time>
      </trkpt>
      <trkpt lat="44.88412" lon="5.71827">
        <ele>1215.2438965</ele>
        <time>2017-08-03T08:40:07Z</time>
      </trkpt>
      <trkpt lat="44.88398" lon="5.71821">
        <ele>1211.3984375</ele>
        <time>2017-08-03T08:40:09Z</time>
      </trkpt>
      <trkpt lat="44.88391" lon="5.71818">
        <ele>1211.3984375</ele>
        <time>2017-08-03T08:40:10Z</time>
      </trkpt>
      <trkpt lat="44.88376" lon="5.71811">
        <ele>1209.9562988</ele>
        <time>2017-08-03T08:40:12Z</time>
      </trkpt>
      <trkpt lat="44.8836" lon="5.71805">
        <ele>1208.5144043</ele>
        <time>2017-08-03T08:40:14Z</time>
      </trkpt>
      <trkpt lat="44.88344" lon="5.71801">
        <ele>1205.1499023</ele>
        <time>2017-08-03T08:40:16Z</time>
      </trkpt>
      <trkpt lat="44.88336" lon="5.71799">
        <ele>1205.1499023</ele>
        <time>2017-08-03T08:40:17Z</time>
      </trkpt>
      <trkpt lat="44.88317" lon="5.71794">
        <ele>1203.7080078</ele>
        <time>2017-08-03T08:40:19Z</time>
      </trkpt>
      <trkpt lat="44.88299" lon="5.71787">
        <ele>1202.2658691</ele>
        <time>2017-08-03T08:40:21Z</time>
      </trkpt>
      <trkpt lat="44.88289" lon="5.71783">
        <ele>1200.8239746</ele>
        <time>2017-08-03T08:40:22Z</time>
      </trkpt>
      <trkpt lat="44.8827" lon="5.71773">
        <ele>1199.3820801</ele>
        <time>2017-08-03T08:40:24Z</time>
      </trkpt>
      <trkpt lat="44.88246" lon="5.71757">
        <ele>1197.4594727</ele>
        <time>2017-08-03T08:40:27Z</time>
      </trkpt>
      <trkpt lat="44.88234" lon="5.71745">
        <ele>1194.0947266</ele>
        <time>2017-08-03T08:40:30Z</time>
      </trkpt>
      <trkpt lat="44.88231" lon="5.71743">
        <ele>1194.0947266</ele>
        <time>2017-08-03T08:40:31Z</time>
      </trkpt>
      <trkpt lat="44.88231" lon="5.71742">
        <ele>1192.652832</ele>
        <time>2017-08-03T08:40:37Z</time>
      </trkpt>
      <trkpt lat="44.88234" lon="5.71738">
        <ele>1192.652832</ele>
        <time>2017-08-03T08:40:51Z</time>
      </trkpt>
      <trkpt lat="44.88235" lon="5.71737">
        <ele>1192.652832</ele>
        <time>2017-08-03T08:41:01Z</time>
      </trkpt>
      <trkpt lat="44.88237" lon="5.71738">
        <ele>1191.2106934</ele>
        <time>2017-08-03T08:41:13Z</time>
      </trkpt>
      <trkpt lat="44.88237" lon="5.71738">
        <ele>1190.7299805</ele>
        <time>2017-08-03T08:45:06Z</time>
      </trkpt>
      <trkpt lat="44.88237" lon="5.71738">
        <ele>1191.2106934</ele>
        <time>2017-08-03T08:45:16Z</time>
      </trkpt>
      <trkpt lat="44.88237" lon="5.71739">
        <ele>1191.2106934</ele>
        <time>2017-08-03T08:45:22Z</time>
      </trkpt>
      <trkpt lat="44.88254" lon="5.71703">
        <ele>1189.7687988</ele>
        <time>2017-08-03T08:45:34Z</time>
      </trkpt>
      <trkpt lat="44.88263" lon="5.71689">
        <ele>1188.8076172</ele>
        <time>2017-08-03T08:45:37Z</time>
      </trkpt>
      <trkpt lat="44.88289" lon="5.71666">
        <ele>1187.8461914</ele>
        <time>2017-08-03T08:45:43Z</time>
      </trkpt>
      <trkpt lat="44.88303" lon="5.71658">
        <ele>1187.8461914</ele>
        <time>2017-08-03T08:45:46Z</time>
      </trkpt>
      <trkpt lat="44.88322" lon="5.71639">
        <ele>1186.8847656</ele>
        <time>2017-08-03T08:45:50Z</time>
      </trkpt>
      <trkpt lat="44.88339" lon="5.7161">
        <ele>1184.4816895</ele>
        <time>2017-08-03T08:45:55Z</time>
      </trkpt>
      <trkpt lat="44.88357" lon="5.71576">
        <ele>1182.559082</ele>
        <time>2017-08-03T08:46:08Z</time>
      </trkpt>
      <trkpt lat="44.88399" lon="5.71526">
        <ele>1180.6364746</ele>
        <time>2017-08-03T08:46:19Z</time>
      </trkpt>
      <trkpt lat="44.88425" lon="5.71507">
        <ele>1180.1557617</ele>
        <time>2017-08-03T08:46:24Z</time>
      </trkpt>
      <trkpt lat="44.88489" lon="5.71478">
        <ele>1177.2717285</ele>
        <time>2017-08-03T08:46:35Z</time>
      </trkpt>
      <trkpt lat="44.88509" lon="5.71456">
        <ele>1176.3103027</ele>
        <time>2017-08-03T08:46:39Z</time>
      </trkpt>
      <trkpt lat="44.88517" lon="5.71438">
        <ele>1175.348877</ele>
        <time>2017-08-03T08:46:41Z</time>
      </trkpt>
      <trkpt lat="44.88538" lon="5.7141">
        <ele>1172.9458008</ele>
        <time>2017-08-03T08:46:45Z</time>
      </trkpt>
      <trkpt lat="44.88555" lon="5.7139">
        <ele>1171.984375</ele>
        <time>2017-08-03T08:46:48Z</time>
      </trkpt>
      <trkpt lat="44.88565" lon="5.71381">
        <ele>1170.0617676</ele>
        <time>2017-08-03T08:46:50Z</time>
      </trkpt>
      <trkpt lat="44.88578" lon="5.7137">
        <ele>1166.6972656</ele>
        <time>2017-08-03T08:46:52Z</time>
      </trkpt>
      <trkpt lat="44.88582" lon="5.71364">
        <ele>1166.6972656</ele>
        <time>2017-08-03T08:46:53Z</time>
      </trkpt>
      <trkpt lat="44.88593" lon="5.71354">
        <ele>1165.2553711</ele>
        <time>2017-08-03T08:46:55Z</time>
      </trkpt>
      <trkpt lat="44.88603" lon="5.71344">
        <ele>1163.3325195</ele>
        <time>2017-08-03T08:46:57Z</time>
      </trkpt>
      <trkpt lat="44.88612" lon="5.71335">
        <ele>1159.0065918</ele>
        <time>2017-08-03T08:46:59Z</time>
      </trkpt>
      <trkpt lat="44.88641" lon="5.71302">
        <ele>1156.6032715</ele>
        <time>2017-08-03T08:47:04Z</time>
      </trkpt>
      <trkpt lat="44.88675" lon="5.71272">
        <ele>1153.2387695</ele>
        <time>2017-08-03T08:47:09Z</time>
      </trkpt>
      <trkpt lat="44.88682" lon="5.71266">
        <ele>1151.796875</ele>
        <time>2017-08-03T08:47:13Z</time>
      </trkpt>
      <trkpt lat="44.88664" lon="5.71278">
        <ele>1147.951416</ele>
        <time>2017-08-03T08:47:21Z</time>
      </trkpt>
      <trkpt lat="44.88656" lon="5.71256">
        <ele>1146.9899902</ele>
        <time>2017-08-03T08:47:23Z</time>
      </trkpt>
      <trkpt lat="44.88644" lon="5.71252">
        <ele>1145.0673828</ele>
        <time>2017-08-03T08:47:26Z</time>
      </trkpt>
      <trkpt lat="44.88631" lon="5.71249">
        <ele>1141.7028809</ele>
        <time>2017-08-03T08:47:29Z</time>
      </trkpt>
      <trkpt lat="44.88628" lon="5.71248">
        <ele>1141.7028809</ele>
        <time>2017-08-03T08:47:30Z</time>
      </trkpt>
      <trkpt lat="44.88621" lon="5.71246">
        <ele>1139.7802734</ele>
        <time>2017-08-03T08:47:32Z</time>
      </trkpt>
      <trkpt lat="44.88613" lon="5.71244">
        <ele>1138.3383789</ele>
        <time>2017-08-03T08:47:34Z</time>
      </trkpt>
      <trkpt lat="44.88605" lon="5.71244">
        <ele>1134.0124512</ele>
        <time>2017-08-03T08:47:36Z</time>
      </trkpt>
      <trkpt lat="44.88601" lon="5.71244">
        <ele>1134.0124512</ele>
        <time>2017-08-03T08:47:37Z</time>
      </trkpt>
      <trkpt lat="44.88591" lon="5.71242">
        <ele>1132.5705566</ele>
        <time>2017-08-03T08:47:39Z</time>
      </trkpt>
      <trkpt lat="44.88583" lon="5.71242">
        <ele>1130.6477051</ele>
        <time>2017-08-03T08:47:41Z</time>
      </trkpt>
      <trkpt lat="44.88571" lon="5.71245">
        <ele>1126.3217773</ele>
        <time>2017-08-03T08:47:44Z</time>
      </trkpt>
      <trkpt lat="44.88565" lon="5.71248">
        <ele>1124.8798828</ele>
        <time>2017-08-03T08:47:46Z</time>
      </trkpt>
      <trkpt lat="44.88556" lon="5.71248">
        <ele>1122.9572754</ele>
        <time>2017-08-03T08:47:48Z</time>
      </trkpt>
      <trkpt lat="44.88545" lon="5.71248">
        <ele>1121.9958496</ele>
        <time>2017-08-03T08:47:50Z</time>
      </trkpt>
      <trkpt lat="44.88526" lon="5.71252">
        <ele>1118.6313477</ele>
        <time>2017-08-03T08:47:53Z</time>
      </trkpt>
      <trkpt lat="44.88514" lon="5.71257">
        <ele>1116.7087402</ele>
        <time>2017-08-03T08:47:55Z</time>
      </trkpt>
      <trkpt lat="44.88503" lon="5.71262">
        <ele>1115.2666016</ele>
        <time>2017-08-03T08:47:57Z</time>
      </trkpt>
      <trkpt lat="44.88491" lon="5.71264">
        <ele>1111.9020996</ele>
        <time>2017-08-03T08:47:59Z</time>
      </trkpt>
      <trkpt lat="44.88475" lon="5.71268">
        <ele>1110.4599609</ele>
        <time>2017-08-03T08:48:02Z</time>
      </trkpt>
      <trkpt lat="44.88465" lon="5.71273">
        <ele>1108.5373535</ele>
        <time>2017-08-03T08:48:04Z</time>
      </trkpt>
      <trkpt lat="44.88454" lon="5.71282">
        <ele>1104.2116699</ele>
        <time>2017-08-03T08:48:07Z</time>
      </trkpt>
      <trkpt lat="44.88447" lon="5.71289">
        <ele>1101.3276367</ele>
        <time>2017-08-03T08:48:09Z</time>
      </trkpt>
      <trkpt lat="44.88444" lon="5.71293">
        <ele>1100.3664551</ele>
        <time>2017-08-03T08:48:11Z</time>
      </trkpt>
      <trkpt lat="44.88437" lon="5.71312">
        <ele>1097.9628906</ele>
        <time>2017-08-03T08:48:14Z</time>
      </trkpt>
      <trkpt lat="44.88433" lon="5.7132">
        <ele>1096.5209961</ele>
        <time>2017-08-03T08:48:16Z</time>
      </trkpt>
      <trkpt lat="44.88417" lon="5.71341">
        <ele>1094.5981445</ele>
        <time>2017-08-03T08:48:18Z</time>
      </trkpt>
      <trkpt lat="44.88397" lon="5.71339">
        <ele>1091.2336426</ele>
        <time>2017-08-03T08:48:21Z</time>
      </trkpt>
      <trkpt lat="44.88386" lon="5.71336">
        <ele>1089.791748</ele>
        <time>2017-08-03T08:48:23Z</time>
      </trkpt>
      <trkpt lat="44.88375" lon="5.71335">
        <ele>1088.3498535</ele>
        <time>2017-08-03T08:48:25Z</time>
      </trkpt>
      <trkpt lat="44.88365" lon="5.71331">
        <ele>1084.5046387</ele>
        <time>2017-08-03T08:48:27Z</time>
      </trkpt>
      <trkpt lat="44.88361" lon="5.7133">
        <ele>1084.5046387</ele>
        <time>2017-08-03T08:48:28Z</time>
      </trkpt>
      <trkpt lat="44.88353" lon="5.71329">
        <ele>1083.0622559</ele>
        <time>2017-08-03T08:48:30Z</time>
      </trkpt>
      <trkpt lat="44.88338" lon="5.71326">
        <ele>1080.6591797</ele>
        <time>2017-08-03T08:48:34Z</time>
      </trkpt>
      <trkpt lat="44.88333" lon="5.71326">
        <ele>1078.7365723</ele>
        <time>2017-08-03T08:48:35Z</time>
      </trkpt>
      <trkpt lat="44.88325" lon="5.71327">
        <ele>1076.333252</ele>
        <time>2017-08-03T08:48:37Z</time>
      </trkpt>
      <trkpt lat="44.88315" lon="5.71328">
        <ele>1074.8913574</ele>
        <time>2017-08-03T08:48:39Z</time>
      </trkpt>
      <trkpt lat="44.8831" lon="5.71329">
        <ele>1073.4494629</ele>
        <time>2017-08-03T08:48:40Z</time>
      </trkpt>
      <trkpt lat="44.88297" lon="5.71331">
        <ele>1070.0847168</ele>
        <time>2017-08-03T08:48:43Z</time>
      </trkpt>
      <trkpt lat="44.88292" lon="5.71332">
        <ele>1070.0847168</ele>
        <time>2017-08-03T08:48:44Z</time>
      </trkpt>
      <trkpt lat="44.88288" lon="5.71332">
        <ele>1068.1621094</ele>
        <time>2017-08-03T08:48:45Z</time>
      </trkpt>
      <trkpt lat="44.88274" lon="5.71338">
        <ele>1066.2392578</ele>
        <time>2017-08-03T08:48:48Z</time>
      </trkpt>
      <trkpt lat="44.88265" lon="5.71342">
        <ele>1062.8747559</ele>
        <time>2017-08-03T08:48:50Z</time>
      </trkpt>
      <trkpt lat="44.88261" lon="5.71344">
        <ele>1062.8747559</ele>
        <time>2017-08-03T08:48:51Z</time>
      </trkpt>
      <trkpt lat="44.88255" lon="5.71347">
        <ele>1060.9521484</ele>
        <time>2017-08-03T08:48:53Z</time>
      </trkpt>
      <trkpt lat="44.88249" lon="5.71348">
        <ele>1059.5102539</ele>
        <time>2017-08-03T08:48:55Z</time>
      </trkpt>
      <trkpt lat="44.88239" lon="5.71354">
        <ele>1056.6262207</ele>
        <time>2017-08-03T08:48:58Z</time>
      </trkpt>
      <trkpt lat="44.88232" lon="5.71357">
        <ele>1055.1843262</ele>
        <time>2017-08-03T08:49:00Z</time>
      </trkpt>
      <trkpt lat="44.88224" lon="5.71362">
        <ele>1053.2617188</ele>
        <time>2017-08-03T08:49:02Z</time>
      </trkpt>
      <trkpt lat="44.88221" lon="5.71365">
        <ele>1052.300293</ele>
        <time>2017-08-03T08:49:03Z</time>
      </trkpt>
      <trkpt lat="44.88215" lon="5.71372">
        <ele>1050.8581543</ele>
        <time>2017-08-03T08:49:05Z</time>
      </trkpt>
      <trkpt lat="44.88208" lon="5.7138">
        <ele>1049.4162598</ele>
        <time>2017-08-03T08:49:07Z</time>
      </trkpt>
      <trkpt lat="44.882" lon="5.71388">
        <ele>1047.4936523</ele>
        <time>2017-08-03T08:49:09Z</time>
      </trkpt>
      <trkpt lat="44.88193" lon="5.71399">
        <ele>1043.1677246</ele>
        <time>2017-08-03T08:49:11Z</time>
      </trkpt>
      <trkpt lat="44.88189" lon="5.71404">
        <ele>1043.1677246</ele>
        <time>2017-08-03T08:49:12Z</time>
      </trkpt>
      <trkpt lat="44.88184" lon="5.71409">
        <ele>1040.7644043</ele>
        <time>2017-08-03T08:49:13Z</time>
      </trkpt>
      <trkpt lat="44.88173" lon="5.71407">
        <ele>1038.3613281</ele>
        <time>2017-08-03T08:49:16Z</time>
      </trkpt>
      <trkpt lat="44.88163" lon="5.71404">
        <ele>1036.9191895</ele>
        <time>2017-08-03T08:49:18Z</time>
      </trkpt>
      <trkpt lat="44.88147" lon="5.71399">
        <ele>1034.0351563</ele>
        <time>2017-08-03T08:49:21Z</time>
      </trkpt>
      <trkpt lat="44.88136" lon="5.71398">
        <ele>1032.1125488</ele>
        <time>2017-08-03T08:49:23Z</time>
      </trkpt>
      <trkpt lat="44.88126" lon="5.71396">
        <ele>1030.1899414</ele>
        <time>2017-08-03T08:49:25Z</time>
      </trkpt>
      <trkpt lat="44.88122" lon="5.71395">
        <ele>1027.7866211</ele>
        <time>2017-08-03T08:49:26Z</time>
      </trkpt>
      <trkpt lat="44.88113" lon="5.71394">
        <ele>1026.8254395</ele>
        <time>2017-08-03T08:49:28Z</time>
      </trkpt>
      <trkpt lat="44.88104" lon="5.71392">
        <ele>1024.902832</ele>
        <time>2017-08-03T08:49:30Z</time>
      </trkpt>
      <trkpt lat="44.88095" lon="5.7139">
        <ele>1022.9802246</ele>
        <time>2017-08-03T08:49:32Z</time>
      </trkpt>
      <trkpt lat="44.88085" lon="5.71388">
        <ele>1019.6154785</ele>
        <time>2017-08-03T08:49:34Z</time>
      </trkpt>
      <trkpt lat="44.8808" lon="5.71388">
        <ele>1019.6154785</ele>
        <time>2017-08-03T08:49:35Z</time>
      </trkpt>
      <trkpt lat="44.8807" lon="5.71388">
        <ele>1018.1733398</ele>
        <time>2017-08-03T08:49:37Z</time>
      </trkpt>
      <trkpt lat="44.88061" lon="5.71388">
        <ele>1015.7702637</ele>
        <time>2017-08-03T08:49:39Z</time>
      </trkpt>
      <trkpt lat="44.88053" lon="5.71388">
        <ele>1011.9250488</ele>
        <time>2017-08-03T08:49:41Z</time>
      </trkpt>
      <trkpt lat="44.88044" lon="5.71389">
        <ele>1010.4829102</ele>
        <time>2017-08-03T08:49:43Z</time>
      </trkpt>
      <trkpt lat="44.88029" lon="5.7139">
        <ele>1008.5603027</ele>
        <time>2017-08-03T08:49:46Z</time>
      </trkpt>
      <trkpt lat="44.8802" lon="5.71394">
        <ele>1004.7150879</ele>
        <time>2017-08-03T08:49:48Z</time>
      </trkpt>
      <trkpt lat="44.88013" lon="5.71397">
        <ele>1004.7150879</ele>
        <time>2017-08-03T08:49:49Z</time>
      </trkpt>
      <trkpt lat="44.88008" lon="5.714">
        <ele>1002.3115234</ele>
        <time>2017-08-03T08:49:50Z</time>
      </trkpt>
      <trkpt lat="44.87992" lon="5.71409">
        <ele>1000.8696289</ele>
        <time>2017-08-03T08:49:53Z</time>
      </trkpt>
      <trkpt lat="44.87979" lon="5.71415">
        <ele>997.9858398</ele>
        <time>2017-08-03T08:49:55Z</time>
      </trkpt>
      <trkpt lat="44.87968" lon="5.71418">
        <ele>996.5439453</ele>
        <time>2017-08-03T08:49:57Z</time>
      </trkpt>
      <trkpt lat="44.87952" lon="5.71422">
        <ele>994.6210938</ele>
        <time>2017-08-03T08:50:00Z</time>
      </trkpt>
      <trkpt lat="44.87942" lon="5.71424">
        <ele>992.6987305</ele>
        <time>2017-08-03T08:50:02Z</time>
      </trkpt>
      <trkpt lat="44.87932" lon="5.71428">
        <ele>988.8535156</ele>
        <time>2017-08-03T08:50:04Z</time>
      </trkpt>
      <trkpt lat="44.87927" lon="5.7143">
        <ele>988.8535156</ele>
        <time>2017-08-03T08:50:05Z</time>
      </trkpt>
      <trkpt lat="44.87922" lon="5.71432">
        <ele>986.9304199</ele>
        <time>2017-08-03T08:50:06Z</time>
      </trkpt>
      <trkpt lat="44.87906" lon="5.71442">
        <ele>985.0080566</ele>
        <time>2017-08-03T08:50:09Z</time>
      </trkpt>
      <trkpt lat="44.87896" lon="5.71448">
        <ele>981.6433105</ele>
        <time>2017-08-03T08:50:11Z</time>
      </trkpt>
      <trkpt lat="44.8789" lon="5.71452">
        <ele>981.6433105</ele>
        <time>2017-08-03T08:50:12Z</time>
      </trkpt>
      <trkpt lat="44.87879" lon="5.71457">
        <ele>979.7207031</ele>
        <time>2017-08-03T08:50:14Z</time>
      </trkpt>
      <trkpt lat="44.87874" lon="5.71459">
        <ele>977.7980957</ele>
        <time>2017-08-03T08:50:15Z</time>
      </trkpt>
      <trkpt lat="44.87859" lon="5.71471">
        <ele>974.4335938</ele>
        <time>2017-08-03T08:50:18Z</time>
      </trkpt>
      <trkpt lat="44.87853" lon="5.71474">
        <ele>974.4335938</ele>
        <time>2017-08-03T08:50:19Z</time>
      </trkpt>
      <trkpt lat="44.87848" lon="5.71476">
        <ele>972.0302734</ele>
        <time>2017-08-03T08:50:20Z</time>
      </trkpt>
      <trkpt lat="44.87833" lon="5.71479">
        <ele>970.5881348</ele>
        <time>2017-08-03T08:50:23Z</time>
      </trkpt>
      <trkpt lat="44.8782" lon="5.71482">
        <ele>968.1848145</ele>
        <time>2017-08-03T08:50:26Z</time>
      </trkpt>
      <trkpt lat="44.87812" lon="5.71487">
        <ele>966.262207</ele>
        <time>2017-08-03T08:50:28Z</time>
      </trkpt>
      <trkpt lat="44.87805" lon="5.71491">
        <ele>964.8203125</ele>
        <time>2017-08-03T08:50:30Z</time>
      </trkpt>
      <trkpt lat="44.87796" lon="5.71489">
        <ele>961.9365234</ele>
        <time>2017-08-03T08:50:33Z</time>
      </trkpt>
      <trkpt lat="44.87792" lon="5.7149">
        <ele>960.9750977</ele>
        <time>2017-08-03T08:50:34Z</time>
      </trkpt>
      <trkpt lat="44.87785" lon="5.71491">
        <ele>959.5332031</ele>
        <time>2017-08-03T08:50:37Z</time>
      </trkpt>
      <trkpt lat="44.87789" lon="5.71492">
        <ele>958.0913086</ele>
        <time>2017-08-03T08:50:55Z</time>
      </trkpt>
      <trkpt lat="44.87789" lon="5.71492">
        <ele>958.0913086</ele>
        <time>2017-08-03T08:51:01Z</time>
      </trkpt>
      <trkpt lat="44.87801" lon="5.71467">
        <ele>955.2070313</ele>
        <time>2017-08-03T08:51:09Z</time>
      </trkpt>
      <trkpt lat="44.87803" lon="5.71461">
        <ele>955.2070313</ele>
        <time>2017-08-03T08:51:10Z</time>
      </trkpt>
      <trkpt lat="44.87802" lon="5.71429">
        <ele>949.9199219</ele>
        <time>2017-08-03T08:51:16Z</time>
      </trkpt>
      <trkpt lat="44.87801" lon="5.71425">
        <ele>949.9199219</ele>
        <time>2017-08-03T08:51:17Z</time>
      </trkpt>
      <trkpt lat="44.87801" lon="5.71415">
        <ele>948.4777832</ele>
        <time>2017-08-03T08:51:19Z</time>
      </trkpt>
      <trkpt lat="44.87802" lon="5.71401">
        <ele>947.0358887</ele>
        <time>2017-08-03T08:51:21Z</time>
      </trkpt>
      <trkpt lat="44.87804" lon="5.7139">
        <ele>945.1132813</ele>
        <time>2017-08-03T08:51:23Z</time>
      </trkpt>
      <trkpt lat="44.87809" lon="5.71375">
        <ele>942.2294922</ele>
        <time>2017-08-03T08:51:26Z</time>
      </trkpt>
      <trkpt lat="44.87812" lon="5.71368">
        <ele>941.2680664</ele>
        <time>2017-08-03T08:51:28Z</time>
      </trkpt>
      <trkpt lat="44.87816" lon="5.71359">
        <ele>939.8259277</ele>
        <time>2017-08-03T08:51:30Z</time>
      </trkpt>
      <trkpt lat="44.87822" lon="5.71345">
        <ele>936.9418945</ele>
        <time>2017-08-03T08:51:33Z</time>
      </trkpt>
      <trkpt lat="44.87825" lon="5.71338">
        <ele>935.5</ele>
        <time>2017-08-03T08:51:35Z</time>
      </trkpt>
      <trkpt lat="44.87829" lon="5.71329">
        <ele>934.0581055</ele>
        <time>2017-08-03T08:51:37Z</time>
      </trkpt>
      <trkpt lat="44.87833" lon="5.71322">
        <ele>930.6936035</ele>
        <time>2017-08-03T08:51:39Z</time>
      </trkpt>
      <trkpt lat="44.87835" lon="5.71318">
        <ele>930.6936035</ele>
        <time>2017-08-03T08:51:40Z</time>
      </trkpt>
      <trkpt lat="44.87841" lon="5.7131">
        <ele>927.8095703</ele>
        <time>2017-08-03T08:51:43Z</time>
      </trkpt>
      <trkpt lat="44.87842" lon="5.71308">
        <ele>927.8095703</ele>
        <time>2017-08-03T08:51:44Z</time>
      </trkpt>
      <trkpt lat="44.87847" lon="5.71301">
        <ele>925.8869629</ele>
        <time>2017-08-03T08:51:47Z</time>
      </trkpt>
      <trkpt lat="44.87855" lon="5.71286">
        <ele>923.4836426</ele>
        <time>2017-08-03T08:51:51Z</time>
      </trkpt>
      <trkpt lat="44.87859" lon="5.7128">
        <ele>919.6384277</ele>
        <time>2017-08-03T08:51:53Z</time>
      </trkpt>
      <trkpt lat="44.87861" lon="5.71277">
        <ele>919.6384277</ele>
        <time>2017-08-03T08:51:54Z</time>
      </trkpt>
      <trkpt lat="44.87869" lon="5.71264">
        <ele>917.2351074</ele>
        <time>2017-08-03T08:51:58Z</time>
      </trkpt>
      <trkpt lat="44.87874" lon="5.71258">
        <ele>913.8703613</ele>
        <time>2017-08-03T08:52:00Z</time>
      </trkpt>
      <trkpt lat="44.87876" lon="5.71253">
        <ele>913.8703613</ele>
        <time>2017-08-03T08:52:01Z</time>
      </trkpt>
      <trkpt lat="44.8788" lon="5.71245">
        <ele>912.4284668</ele>
        <time>2017-08-03T08:52:03Z</time>
      </trkpt>
      <trkpt lat="44.87889" lon="5.71228">
        <ele>910.0251465</ele>
        <time>2017-08-03T08:52:07Z</time>
      </trkpt>
      <trkpt lat="44.87891" lon="5.71223">
        <ele>908.583252</ele>
        <time>2017-08-03T08:52:08Z</time>
      </trkpt>
      <trkpt lat="44.87897" lon="5.71211">
        <ele>907.6218262</ele>
        <time>2017-08-03T08:52:10Z</time>
      </trkpt>
      <trkpt lat="44.87903" lon="5.71201">
        <ele>905.6992188</ele>
        <time>2017-08-03T08:52:12Z</time>
      </trkpt>
      <trkpt lat="44.87908" lon="5.71192">
        <ele>903.7766113</ele>
        <time>2017-08-03T08:52:14Z</time>
      </trkpt>
      <trkpt lat="44.87918" lon="5.71176">
        <ele>901.8540039</ele>
        <time>2017-08-03T08:52:17Z</time>
      </trkpt>
      <trkpt lat="44.87925" lon="5.71161">
        <ele>900.4121094</ele>
        <time>2017-08-03T08:52:19Z</time>
      </trkpt>
      <trkpt lat="44.87931" lon="5.7115">
        <ele>898.4892578</ele>
        <time>2017-08-03T08:52:21Z</time>
      </trkpt>
      <trkpt lat="44.87939" lon="5.71138">
        <ele>895.6054688</ele>
        <time>2017-08-03T08:52:24Z</time>
      </trkpt>
      <trkpt lat="44.87945" lon="5.71133">
        <ele>893.6828613</ele>
        <time>2017-08-03T08:52:26Z</time>
      </trkpt>
      <trkpt lat="44.87951" lon="5.71127">
        <ele>892.7216797</ele>
        <time>2017-08-03T08:52:28Z</time>
      </trkpt>
      <trkpt lat="44.87956" lon="5.71122">
        <ele>889.8374023</ele>
        <time>2017-08-03T08:52:30Z</time>
      </trkpt>
      <trkpt lat="44.87959" lon="5.7112">
        <ele>889.8374023</ele>
        <time>2017-08-03T08:52:31Z</time>
      </trkpt>
      <trkpt lat="44.87967" lon="5.71114">
        <ele>887.9147949</ele>
        <time>2017-08-03T08:52:33Z</time>
      </trkpt>
      <trkpt lat="44.87973" lon="5.71108">
        <ele>885.5114746</ele>
        <time>2017-08-03T08:52:35Z</time>
      </trkpt>
      <trkpt lat="44.87983" lon="5.71102">
        <ele>882.6276855</ele>
        <time>2017-08-03T08:52:38Z</time>
      </trkpt>
      <trkpt lat="44.88019" lon="5.71062">
        <ele>878.3017578</ele>
        <time>2017-08-03T08:52:45Z</time>
      </trkpt>
      <trkpt lat="44.88036" lon="5.71032">
        <ele>875.8981934</ele>
        <time>2017-08-03T08:52:49Z</time>
      </trkpt>
      <trkpt lat="44.88044" lon="5.71019">
        <ele>874.4562988</ele>
        <time>2017-08-03T08:52:51Z</time>
      </trkpt>
      <trkpt lat="44.88054" lon="5.71004">
        <ele>870.1303711</ele>
        <time>2017-08-03T08:52:54Z</time>
      </trkpt>
      <trkpt lat="44.88062" lon="5.70996">
        <ele>869.1691895</ele>
        <time>2017-08-03T08:52:56Z</time>
      </trkpt>
      <trkpt lat="44.8807" lon="5.70986">
        <ele>867.246582</ele>
        <time>2017-08-03T08:52:58Z</time>
      </trkpt>
      <trkpt lat="44.88079" lon="5.70976">
        <ele>864.3625488</ele>
        <time>2017-08-03T08:53:00Z</time>
      </trkpt>
      <trkpt lat="44.88084" lon="5.70973">
        <ele>864.3625488</ele>
        <time>2017-08-03T08:53:01Z</time>
      </trkpt>
      <trkpt lat="44.88103" lon="5.70963">
        <ele>861.9594727</ele>
        <time>2017-08-03T08:53:05Z</time>
      </trkpt>
      <trkpt lat="44.88115" lon="5.70953">
        <ele>859.5559082</ele>
        <time>2017-08-03T08:53:08Z</time>
      </trkpt>
      <trkpt lat="44.88117" lon="5.70942">
        <ele>858.5944824</ele>
        <time>2017-08-03T08:53:10Z</time>
      </trkpt>
      <trkpt lat="44.88117" lon="5.70936">
        <ele>857.1525879</ele>
        <time>2017-08-03T08:53:12Z</time>
      </trkpt>
      <trkpt lat="44.88117" lon="5.70936">
        <ele>855.7106934</ele>
        <time>2017-08-03T08:53:27Z</time>
      </trkpt>
      <trkpt lat="44.88117" lon="5.70927">
        <ele>855.2299805</ele>
        <time>2017-08-03T08:53:47Z</time>
      </trkpt>
      <trkpt lat="44.88119" lon="5.70906">
        <ele>851.3847656</ele>
        <time>2017-08-03T08:53:51Z</time>
      </trkpt>
      <trkpt lat="44.88119" lon="5.709">
        <ele>851.3847656</ele>
        <time>2017-08-03T08:53:52Z</time>
      </trkpt>
      <trkpt lat="44.88121" lon="5.70887">
        <ele>849.4621582</ele>
        <time>2017-08-03T08:53:54Z</time>
      </trkpt>
      <trkpt lat="44.88124" lon="5.70875">
        <ele>847.5395508</ele>
        <time>2017-08-03T08:53:56Z</time>
      </trkpt>
      <trkpt lat="44.88125" lon="5.70866">
        <ele>842.7329102</ele>
        <time>2017-08-03T08:53:58Z</time>
      </trkpt>
      <trkpt lat="44.88125" lon="5.70862">
        <ele>842.7329102</ele>
        <time>2017-08-03T08:53:59Z</time>
      </trkpt>
      <trkpt lat="44.88127" lon="5.70854">
        <ele>841.2907715</ele>
        <time>2017-08-03T08:54:01Z</time>
      </trkpt>
      <trkpt lat="44.8813" lon="5.70846">
        <ele>839.848877</ele>
        <time>2017-08-03T08:54:03Z</time>
      </trkpt>
      <trkpt lat="44.8813" lon="5.70835">
        <ele>836.0036621</ele>
        <time>2017-08-03T08:54:05Z</time>
      </trkpt>
      <trkpt lat="44.8813" lon="5.70829">
        <ele>836.0036621</ele>
        <time>2017-08-03T08:54:06Z</time>
      </trkpt>
      <trkpt lat="44.8813" lon="5.70823">
        <ele>833.6003418</ele>
        <time>2017-08-03T08:54:07Z</time>
      </trkpt>
      <trkpt lat="44.88132" lon="5.70802">
        <ele>831.6777344</ele>
        <time>2017-08-03T08:54:10Z</time>
      </trkpt>
      <trkpt lat="44.88139" lon="5.70784">
        <ele>826.8710938</ele>
        <time>2017-08-03T08:54:13Z</time>
      </trkpt>
      <trkpt lat="44.8814" lon="5.70777">
        <ele>824.4677734</ele>
        <time>2017-08-03T08:54:15Z</time>
      </trkpt>
      <trkpt lat="44.88142" lon="5.70765">
        <ele>822.0644531</ele>
        <time>2017-08-03T08:54:17Z</time>
      </trkpt>
      <trkpt lat="44.8814" lon="5.7076">
        <ele>820.1418457</ele>
        <time>2017-08-03T08:54:19Z</time>
      </trkpt>
      <trkpt lat="44.8813" lon="5.7076">
        <ele>818.2192383</ele>
        <time>2017-08-03T08:54:22Z</time>
      </trkpt>
      <trkpt lat="44.88108" lon="5.70743">
        <ele>815.8161621</ele>
        <time>2017-08-03T08:54:26Z</time>
      </trkpt>
      <trkpt lat="44.88098" lon="5.70737">
        <ele>811.4899902</ele>
        <time>2017-08-03T08:54:28Z</time>
      </trkpt>
      <trkpt lat="44.88091" lon="5.70733">
        <ele>811.4899902</ele>
        <time>2017-08-03T08:54:29Z</time>
      </trkpt>
      <trkpt lat="44.88086" lon="5.70729">
        <ele>809.0866699</ele>
        <time>2017-08-03T08:54:30Z</time>
      </trkpt>
      <trkpt lat="44.88075" lon="5.70717">
        <ele>807.1640625</ele>
        <time>2017-08-03T08:54:32Z</time>
      </trkpt>
      <trkpt lat="44.88068" lon="5.70699">
        <ele>803.3188477</ele>
        <time>2017-08-03T08:54:35Z</time>
      </trkpt>
      <trkpt lat="44.88067" lon="5.70696">
        <ele>803.3188477</ele>
        <time>2017-08-03T08:54:36Z</time>
      </trkpt>
      <trkpt lat="44.88063" lon="5.70685">
        <ele>800.9155273</ele>
        <time>2017-08-03T08:54:38Z</time>
      </trkpt>
      <trkpt lat="44.8806" lon="5.70677">
        <ele>799.4736328</ele>
        <time>2017-08-03T08:54:40Z</time>
      </trkpt>
      <trkpt lat="44.88057" lon="5.70673">
        <ele>798.0317383</ele>
        <time>2017-08-03T08:54:41Z</time>
      </trkpt>
      <trkpt lat="44.88052" lon="5.70661">
        <ele>797.0703125</ele>
        <time>2017-08-03T08:54:43Z</time>
      </trkpt>
      <trkpt lat="44.88045" lon="5.70648">
        <ele>795.6281738</ele>
        <time>2017-08-03T08:54:45Z</time>
      </trkpt>
      <trkpt lat="44.88038" lon="5.70635">
        <ele>793.2248535</ele>
        <time>2017-08-03T08:54:47Z</time>
      </trkpt>
      <trkpt lat="44.88034" lon="5.70631">
        <ele>791.3022461</ele>
        <time>2017-08-03T08:54:48Z</time>
      </trkpt>
      <trkpt lat="44.88026" lon="5.70628">
        <ele>789.3796387</ele>
        <time>2017-08-03T08:54:50Z</time>
      </trkpt>
      <trkpt lat="44.88016" lon="5.70627">
        <ele>787.9377441</ele>
        <time>2017-08-03T08:54:52Z</time>
      </trkpt>
      <trkpt lat="44.88009" lon="5.7062">
        <ele>786.9763184</ele>
        <time>2017-08-03T08:54:53Z</time>
      </trkpt>
      <trkpt lat="44.87998" lon="5.70604">
        <ele>782.6506348</ele>
        <time>2017-08-03T08:54:56Z</time>
      </trkpt>
      <trkpt lat="44.87994" lon="5.70598">
        <ele>782.6506348</ele>
        <time>2017-08-03T08:54:57Z</time>
      </trkpt>
      <trkpt lat="44.8799" lon="5.70592">
        <ele>780.7280273</ele>
        <time>2017-08-03T08:54:58Z</time>
      </trkpt>
      <trkpt lat="44.87976" lon="5.70569">
        <ele>778.3244629</ele>
        <time>2017-08-03T08:55:01Z</time>
      </trkpt>
      <trkpt lat="44.87971" lon="5.70561">
        <ele>775.4404297</ele>
        <time>2017-08-03T08:55:02Z</time>
      </trkpt>
      <trkpt lat="44.87967" lon="5.70552">
        <ele>775.4404297</ele>
        <time>2017-08-03T08:55:03Z</time>
      </trkpt>
      <trkpt lat="44.87957" lon="5.70534">
        <ele>770.1533203</ele>
        <time>2017-08-03T08:55:05Z</time>
      </trkpt>
      <trkpt lat="44.87953" lon="5.70524">
        <ele>770.1533203</ele>
        <time>2017-08-03T08:55:06Z</time>
      </trkpt>
      <trkpt lat="44.87949" lon="5.70517">
        <ele>767.2695313</ele>
        <time>2017-08-03T08:55:08Z</time>
      </trkpt>
      <trkpt lat="44.87949" lon="5.70517">
        <ele>765.3469238</ele>
        <time>2017-08-03T08:55:10Z</time>
      </trkpt>
      <trkpt lat="44.87944" lon="5.7048">
        <ele>761.5014648</ele>
        <time>2017-08-03T08:55:12Z</time>
      </trkpt>
      <trkpt lat="44.87947" lon="5.70471">
        <ele>761.5014648</ele>
        <time>2017-08-03T08:55:13Z</time>
      </trkpt>
      <trkpt lat="44.87959" lon="5.70453">
        <ele>759.5788574</ele>
        <time>2017-08-03T08:55:16Z</time>
      </trkpt>
      <trkpt lat="44.87964" lon="5.7045">
        <ele>758.1369629</ele>
        <time>2017-08-03T08:55:18Z</time>
      </trkpt>
      <trkpt lat="44.87955" lon="5.70444">
        <ele>757.65625</ele>
        <time>2017-08-03T08:55:23Z</time>
      </trkpt>
      <trkpt lat="44.87918" lon="5.70454">
        <ele>755.2529297</ele>
        <time>2017-08-03T08:55:29Z</time>
      </trkpt>
      <trkpt lat="44.87902" lon="5.7046">
        <ele>753.3303223</ele>
        <time>2017-08-03T08:55:31Z</time>
      </trkpt>
      <trkpt lat="44.87882" lon="5.70469">
        <ele>749.4851074</ele>
        <time>2017-08-03T08:55:33Z</time>
      </trkpt>
      <trkpt lat="44.87875" lon="5.70473">
        <ele>749.4851074</ele>
        <time>2017-08-03T08:55:34Z</time>
      </trkpt>
      <trkpt lat="44.87841" lon="5.70506">
        <ele>749.4851074</ele>
        <time>2017-08-03T08:55:39Z</time>
      </trkpt>
      <trkpt lat="44.87799" lon="5.70572">
        <ele>746.1203613</ele>
        <time>2017-08-03T08:55:50Z</time>
      </trkpt>
      <trkpt lat="44.8779" lon="5.70611">
        <ele>744.1977539</ele>
        <time>2017-08-03T08:55:54Z</time>
      </trkpt>
      <trkpt lat="44.87784" lon="5.70645">
        <ele>741.3137207</ele>
        <time>2017-08-03T08:55:57Z</time>
      </trkpt>
      <trkpt lat="44.87784" lon="5.70657">
        <ele>740.3525391</ele>
        <time>2017-08-03T08:55:58Z</time>
      </trkpt>
      <trkpt lat="44.87773" lon="5.70678">
        <ele>737.4685059</ele>
        <time>2017-08-03T08:56:01Z</time>
      </trkpt>
      <trkpt lat="44.87763" lon="5.70692">
        <ele>736.0266113</ele>
        <time>2017-08-03T08:56:03Z</time>
      </trkpt>
      <trkpt lat="44.87748" lon="5.70729">
        <ele>733.623291</ele>
        <time>2017-08-03T08:56:07Z</time>
      </trkpt>
      <trkpt lat="44.87741" lon="5.70769">
        <ele>731.7004395</ele>
        <time>2017-08-03T08:56:11Z</time>
      </trkpt>
      <trkpt lat="44.87733" lon="5.70809">
        <ele>730.2585449</ele>
        <time>2017-08-03T08:56:15Z</time>
      </trkpt>
      <trkpt lat="44.87719" lon="5.70841">
        <ele>727.8552246</ele>
        <time>2017-08-03T08:56:18Z</time>
      </trkpt>
      <trkpt lat="44.87714" lon="5.70864">
        <ele>726.894043</ele>
        <time>2017-08-03T08:56:20Z</time>
      </trkpt>
      <trkpt lat="44.8768" lon="5.70891">
        <ele>724.4907227</ele>
        <time>2017-08-03T08:56:25Z</time>
      </trkpt>
      <trkpt lat="44.87651" lon="5.7092">
        <ele>722.5681152</ele>
        <time>2017-08-03T08:56:29Z</time>
      </trkpt>
      <trkpt lat="44.87613" lon="5.70938">
        <ele>718.2421875</ele>
        <time>2017-08-03T08:56:33Z</time>
      </trkpt>
      <trkpt lat="44.87603" lon="5.70941">
        <ele>718.2421875</ele>
        <time>2017-08-03T08:56:34Z</time>
      </trkpt>
      <trkpt lat="44.87556" lon="5.70963">
        <ele>714.3967285</ele>
        <time>2017-08-03T08:56:39Z</time>
      </trkpt>
      <trkpt lat="44.87539" lon="5.70968">
        <ele>712.4741211</ele>
        <time>2017-08-03T08:56:41Z</time>
      </trkpt>
      <trkpt lat="44.87522" lon="5.70971">
        <ele>710.0708008</ele>
        <time>2017-08-03T08:56:43Z</time>
      </trkpt>
      <trkpt lat="44.87512" lon="5.70971">
        <ele>707.6677246</ele>
        <time>2017-08-03T08:56:45Z</time>
      </trkpt>
      <trkpt lat="44.87494" lon="5.7098">
        <ele>704.7836914</ele>
        <time>2017-08-03T08:56:48Z</time>
      </trkpt>
      <trkpt lat="44.87482" lon="5.70986">
        <ele>704.7836914</ele>
        <time>2017-08-03T08:56:50Z</time>
      </trkpt>
      <trkpt lat="44.87426" lon="5.7103">
        <ele>701.4191895</ele>
        <time>2017-08-03T08:57:02Z</time>
      </trkpt>
      <trkpt lat="44.87424" lon="5.71032">
        <ele>700.9384766</ele>
        <time>2017-08-03T08:57:03Z</time>
      </trkpt>
      <trkpt lat="44.87424" lon="5.71021">
        <ele>699.9770508</ele>
        <time>2017-08-03T08:57:13Z</time>
      </trkpt>
      <trkpt lat="44.87424" lon="5.71021">
        <ele>699.9770508</ele>
        <time>2017-08-03T08:57:40Z</time>
      </trkpt>
      <trkpt lat="44.87422" lon="5.71034">
        <ele>699.9770508</ele>
        <time>2017-08-03T08:57:48Z</time>
      </trkpt>
      <trkpt lat="44.87408" lon="5.71069">
        <ele>699.9770508</ele>
        <time>2017-08-03T08:57:53Z</time>
      </trkpt>
      <trkpt lat="44.87403" lon="5.71121">
        <ele>699.015625</ele>
        <time>2017-08-03T08:58:00Z</time>
      </trkpt>
      <trkpt lat="44.87371" lon="5.71232">
        <ele>698.0544434</ele>
        <time>2017-08-03T08:58:13Z</time>
      </trkpt>
      <trkpt lat="44.87363" lon="5.71276">
        <ele>697.0930176</ele>
        <time>2017-08-03T08:58:18Z</time>
      </trkpt>
      <trkpt lat="44.87354" lon="5.71309">
        <ele>697.5737305</ele>
        <time>2017-08-03T08:58:22Z</time>
      </trkpt>
      <trkpt lat="44.87329" lon="5.71367">
        <ele>697.5737305</ele>
        <time>2017-08-03T08:58:32Z</time>
      </trkpt>
      <trkpt lat="44.87331" lon="5.71357">
        <ele>697.0930176</ele>
        <time>2017-08-03T08:58:36Z</time>
      </trkpt>
      <trkpt lat="44.87318" lon="5.71305">
        <ele>693.7285156</ele>
        <time>2017-08-03T08:58:44Z</time>
      </trkpt>
      <trkpt lat="44.87309" lon="5.7128">
        <ele>691.3251953</ele>
        <time>2017-08-03T08:58:46Z</time>
      </trkpt>
      <trkpt lat="44.87298" lon="5.71252">
        <ele>688.4414063</ele>
        <time>2017-08-03T08:58:48Z</time>
      </trkpt>
      <trkpt lat="44.87285" lon="5.71222">
        <ele>685.557373</ele>
        <time>2017-08-03T08:58:50Z</time>
      </trkpt>
      <trkpt lat="44.87278" lon="5.71209">
        <ele>680.7507324</ele>
        <time>2017-08-03T08:58:51Z</time>
      </trkpt>
      <trkpt lat="44.87271" lon="5.71196">
        <ele>677.3862305</ele>
        <time>2017-08-03T08:58:52Z</time>
      </trkpt>
      <trkpt lat="44.87264" lon="5.71183">
        <ele>677.3862305</ele>
        <time>2017-08-03T08:58:53Z</time>
      </trkpt>
      <trkpt lat="44.87257" lon="5.71171">
        <ele>673.0603027</ele>
        <time>2017-08-03T08:58:54Z</time>
      </trkpt>
      <trkpt lat="44.8725" lon="5.71161">
        <ele>673.0603027</ele>
        <time>2017-08-03T08:58:55Z</time>
      </trkpt>
      <trkpt lat="44.87244" lon="5.71153">
        <ele>668.734375</ele>
        <time>2017-08-03T08:58:56Z</time>
      </trkpt>
      <trkpt lat="44.87234" lon="5.7115">
        <ele>665.3696289</ele>
        <time>2017-08-03T08:58:58Z</time>
      </trkpt>
      <trkpt lat="44.87225" lon="5.71155">
        <ele>663.4470215</ele>
        <time>2017-08-03T08:59:00Z</time>
      </trkpt>
      <trkpt lat="44.87181" lon="5.71183">
        <ele>662.005127</ele>
        <time>2017-08-03T08:59:07Z</time>
      </trkpt>
      <trkpt lat="44.8716" lon="5.7117">
        <ele>660.0822754</ele>
        <time>2017-08-03T08:59:11Z</time>
      </trkpt>
      <trkpt lat="44.87141" lon="5.71148">
        <ele>656.7177734</ele>
        <time>2017-08-03T08:59:14Z</time>
      </trkpt>
      <trkpt lat="44.87126" lon="5.71133">
        <ele>654.3146973</ele>
        <time>2017-08-03T08:59:16Z</time>
      </trkpt>
      <trkpt lat="44.87107" lon="5.71123">
        <ele>652.3918457</ele>
        <time>2017-08-03T08:59:18Z</time>
      </trkpt>
      <trkpt lat="44.87087" lon="5.71113">
        <ele>648.5463867</ele>
        <time>2017-08-03T08:59:21Z</time>
      </trkpt>
      <trkpt lat="44.87054" lon="5.71094">
        <ele>646.6240234</ele>
        <time>2017-08-03T08:59:23Z</time>
      </trkpt>
      <trkpt lat="44.87032" lon="5.71081">
        <ele>645.1818848</ele>
        <time>2017-08-03T08:59:25Z</time>
      </trkpt>
      <trkpt lat="44.87013" lon="5.71071">
        <ele>643.2592773</ele>
        <time>2017-08-03T08:59:27Z</time>
      </trkpt>
      <trkpt lat="44.87005" lon="5.71067">
        <ele>641.3366699</ele>
        <time>2017-08-03T08:59:28Z</time>
      </trkpt>
      <trkpt lat="44.86994" lon="5.71062">
        <ele>640.3754883</ele>
        <time>2017-08-03T08:59:30Z</time>
      </trkpt>
      <trkpt lat="44.86989" lon="5.71059">
        <ele>638.4528809</ele>
        <time>2017-08-03T08:59:32Z</time>
      </trkpt>
      <trkpt lat="44.86986" lon="5.71057">
        <ele>637.4914551</ele>
        <time>2017-08-03T08:59:34Z</time>
      </trkpt>
      <trkpt lat="44.86979" lon="5.71058">
        <ele>636.0495605</ele>
        <time>2017-08-03T08:59:37Z</time>
      </trkpt>
      <trkpt lat="44.86975" lon="5.71059">
        <ele>635.0881348</ele>
        <time>2017-08-03T08:59:38Z</time>
      </trkpt>
      <trkpt lat="44.86969" lon="5.7106">
        <ele>634.126709</ele>
        <time>2017-08-03T08:59:41Z</time>
      </trkpt>
      <trkpt lat="44.86966" lon="5.71069">
        <ele>630.762207</ele>
        <time>2017-08-03T08:59:43Z</time>
      </trkpt>
      <trkpt lat="44.86966" lon="5.71073">
        <ele>630.762207</ele>
        <time>2017-08-03T08:59:44Z</time>
      </trkpt>
      <trkpt lat="44.86957" lon="5.7106">
        <ele>627.8781738</ele>
        <time>2017-08-03T08:59:50Z</time>
      </trkpt>
      <trkpt lat="44.86961" lon="5.71033">
        <ele>626.9169922</ele>
        <time>2017-08-03T08:59:55Z</time>
      </trkpt>
      <trkpt lat="44.86956" lon="5.7102">
        <ele>624.9943848</ele>
        <time>2017-08-03T08:59:58Z</time>
      </trkpt>
      <trkpt lat="44.86954" lon="5.71017">
        <ele>624.032959</ele>
        <time>2017-08-03T08:59:59Z</time>
      </trkpt>
      <trkpt lat="44.86957" lon="5.7101">
        <ele>622.5910645</ele>
        <time>2017-08-03T09:00:02Z</time>
      </trkpt>
      <trkpt lat="44.8696" lon="5.71008">
        <ele>621.6296387</ele>
        <time>2017-08-03T09:00:03Z</time>
      </trkpt>
      <trkpt lat="44.86963" lon="5.71003">
        <ele>619.2263184</ele>
        <time>2017-08-03T09:00:07Z</time>
      </trkpt>
      <trkpt lat="44.86956" lon="5.71001">
        <ele>619.2263184</ele>
        <time>2017-08-03T09:00:11Z</time>
      </trkpt>
      <trkpt lat="44.86949" lon="5.71002">
        <ele>617.3037109</ele>
        <time>2017-08-03T09:00:14Z</time>
      </trkpt>
      <trkpt lat="44.86949" lon="5.71001">
        <ele>616.822998</ele>
        <time>2017-08-03T09:00:15Z</time>
      </trkpt>
      <trkpt lat="44.86956" lon="5.7099">
        <ele>615.3811035</ele>
        <time>2017-08-03T09:00:19Z</time>
      </trkpt>
      <trkpt lat="44.86956" lon="5.70987">
        <ele>613.9389648</ele>
        <time>2017-08-03T09:00:21Z</time>
      </trkpt>
      <trkpt lat="44.86952" lon="5.7099">
        <ele>612.0166016</ele>
        <time>2017-08-03T09:00:24Z</time>
      </trkpt>
      <trkpt lat="44.86961" lon="5.70977">
        <ele>610.09375</ele>
        <time>2017-08-03T09:00:30Z</time>
      </trkpt>
      <trkpt lat="44.86961" lon="5.70973">
        <ele>607.6906738</ele>
        <time>2017-08-03T09:00:35Z</time>
      </trkpt>
      <trkpt lat="44.86954" lon="5.70973">
        <ele>606.729248</ele>
        <time>2017-08-03T09:00:37Z</time>
      </trkpt>
      <trkpt lat="44.86949" lon="5.70974">
        <ele>605.2873535</ele>
        <time>2017-08-03T09:00:39Z</time>
      </trkpt>
      <trkpt lat="44.8695" lon="5.7097">
        <ele>603.8452148</ele>
        <time>2017-08-03T09:00:42Z</time>
      </trkpt>
      <trkpt lat="44.86952" lon="5.70968">
        <ele>603.364502</ele>
        <time>2017-08-03T09:00:43Z</time>
      </trkpt>
      <trkpt lat="44.8697" lon="5.70961">
        <ele>600</ele>
        <time>2017-08-03T09:00:49Z</time>
      </trkpt>
      <trkpt lat="44.86976" lon="5.70961">
        <ele>599.0385742</ele>
        <time>2017-08-03T09:00:51Z</time>
      </trkpt>
      <trkpt lat="44.86989" lon="5.70958">
        <ele>596.635498</ele>
        <time>2017-08-03T09:00:58Z</time>
      </trkpt>
      <trkpt lat="44.86992" lon="5.70958">
        <ele>595.6740723</ele>
        <time>2017-08-03T09:01:00Z</time>
      </trkpt>
      <trkpt lat="44.86994" lon="5.70955">
        <ele>594.7126465</ele>
        <time>2017-08-03T09:01:02Z</time>
      </trkpt>
      <trkpt lat="44.86991" lon="5.70953">
        <ele>592.7902832</ele>
        <time>2017-08-03T09:01:04Z</time>
      </trkpt>
      <trkpt lat="44.86979" lon="5.70948">
        <ele>590.8674316</ele>
        <time>2017-08-03T09:01:09Z</time>
      </trkpt>
      <trkpt lat="44.86974" lon="5.70943">
        <ele>587.9833984</ele>
        <time>2017-08-03T09:01:18Z</time>
      </trkpt>
      <trkpt lat="44.86969" lon="5.70941">
        <ele>587.0219727</ele>
        <time>2017-08-03T09:01:36Z</time>
      </trkpt>
      <trkpt lat="44.86956" lon="5.70934">
        <ele>583.6574707</ele>
        <time>2017-08-03T09:01:41Z</time>
      </trkpt>
      <trkpt lat="44.86936" lon="5.70916">
        <ele>580.2929688</ele>
        <time>2017-08-03T09:01:48Z</time>
      </trkpt>
      <trkpt lat="44.86932" lon="5.70914">
        <ele>580.2929688</ele>
        <time>2017-08-03T09:01:49Z</time>
      </trkpt>
      <trkpt lat="44.86911" lon="5.70895">
        <ele>576.9284668</ele>
        <time>2017-08-03T09:01:55Z</time>
      </trkpt>
      <trkpt lat="44.86907" lon="5.70892">
        <ele>576.9284668</ele>
        <time>2017-08-03T09:01:56Z</time>
      </trkpt>
      <trkpt lat="44.86896" lon="5.70884">
        <ele>574.5251465</ele>
        <time>2017-08-03T09:02:00Z</time>
      </trkpt>
      <trkpt lat="44.86889" lon="5.70877">
        <ele>573.083252</ele>
        <time>2017-08-03T09:02:03Z</time>
      </trkpt>
      <trkpt lat="44.86848" lon="5.70855">
        <ele>572.6025391</ele>
        <time>2017-08-03T09:02:17Z</time>
      </trkpt>
      <trkpt lat="44.86818" lon="5.70827">
        <ele>575.0058594</ele>
        <time>2017-08-03T09:02:36Z</time>
      </trkpt>
      <trkpt lat="44.86813" lon="5.70816">
        <ele>575.967041</ele>
        <time>2017-08-03T09:02:47Z</time>
      </trkpt>
      <trkpt lat="44.86799" lon="5.70804">
        <ele>579.331543</ele>
        <time>2017-08-03T09:03:04Z</time>
      </trkpt>
      <trkpt lat="44.86788" lon="5.70786">
        <ele>581.7348633</ele>
        <time>2017-08-03T09:03:23Z</time>
      </trkpt>
      <trkpt lat="44.86789" lon="5.70781">
        <ele>581.2543945</ele>
        <time>2017-08-03T09:03:59Z</time>
      </trkpt>
      <trkpt lat="44.8679" lon="5.7078">
        <ele>581.2543945</ele>
        <time>2017-08-03T09:04:09Z</time>
      </trkpt>
      <trkpt lat="44.86779" lon="5.70769">
        <ele>578.3703613</ele>
        <time>2017-08-03T09:04:15Z</time>
      </trkpt>
      <trkpt lat="44.86774" lon="5.7076">
        <ele>576.9284668</ele>
        <time>2017-08-03T09:04:17Z</time>
      </trkpt>
      <trkpt lat="44.8677" lon="5.70751">
        <ele>574.5251465</ele>
        <time>2017-08-03T09:04:19Z</time>
      </trkpt>
      <trkpt lat="44.86764" lon="5.7074">
        <ele>571.1604004</ele>
        <time>2017-08-03T09:04:22Z</time>
      </trkpt>
      <trkpt lat="44.86758" lon="5.70726">
        <ele>568.7570801</ele>
        <time>2017-08-03T09:04:26Z</time>
      </trkpt>
      <trkpt lat="44.86753" lon="5.70716">
        <ele>567.3151855</ele>
        <time>2017-08-03T09:04:28Z</time>
      </trkpt>
      <trkpt lat="44.86804" lon="5.70654">
        <ele>562.0280762</ele>
        <time>2017-08-03T09:04:30Z</time>
      </trkpt>
      <trkpt lat="44.86807" lon="5.70646">
        <ele>562.0280762</ele>
        <time>2017-08-03T09:04:31Z</time>
      </trkpt>
      <trkpt lat="44.86811" lon="5.70631">
        <ele>559.6247559</ele>
        <time>2017-08-03T09:04:33Z</time>
      </trkpt>
      <trkpt lat="44.86816" lon="5.70617">
        <ele>557.7021484</ele>
        <time>2017-08-03T09:04:35Z</time>
      </trkpt>
      <trkpt lat="44.86824" lon="5.70597">
        <ele>553.8566895</ele>
        <time>2017-08-03T09:04:38Z</time>
      </trkpt>
      <trkpt lat="44.8683" lon="5.7059">
        <ele>550.9726563</ele>
        <time>2017-08-03T09:04:40Z</time>
      </trkpt>
      <trkpt lat="44.86836" lon="5.70586">
        <ele>549.5307617</ele>
        <time>2017-08-03T09:04:42Z</time>
      </trkpt>
      <trkpt lat="44.8684" lon="5.70575">
        <ele>546.6468506</ele>
        <time>2017-08-03T09:04:44Z</time>
      </trkpt>
      <trkpt lat="44.86849" lon="5.7056">
        <ele>544.7242432</ele>
        <time>2017-08-03T09:04:47Z</time>
      </trkpt>
      <trkpt lat="44.86856" lon="5.70561">
        <ele>543.7628174</ele>
        <time>2017-08-03T09:04:50Z</time>
      </trkpt>
      <trkpt lat="44.8686" lon="5.70561">
        <ele>544.2436523</ele>
        <time>2017-08-03T09:04:52Z</time>
      </trkpt>
      <trkpt lat="44.86865" lon="5.70554">
        <ele>546.6468506</ele>
        <time>2017-08-03T09:05:00Z</time>
      </trkpt>
      <trkpt lat="44.86865" lon="5.70551">
        <ele>546.6468506</ele>
        <time>2017-08-03T09:05:02Z</time>
      </trkpt>
      <trkpt lat="44.8686" lon="5.70532">
        <ele>546.6468506</ele>
        <time>2017-08-03T09:05:08Z</time>
      </trkpt>
      <trkpt lat="44.86856" lon="5.7052">
        <ele>548.5693359</ele>
        <time>2017-08-03T09:05:14Z</time>
      </trkpt>
      <trkpt lat="44.86853" lon="5.70511">
        <ele>551.4533691</ele>
        <time>2017-08-03T09:05:24Z</time>
      </trkpt>
      <trkpt lat="44.86841" lon="5.70491">
        <ele>554.3374023</ele>
        <time>2017-08-03T09:05:35Z</time>
      </trkpt>
      <trkpt lat="44.86837" lon="5.70481">
        <ele>554.3374023</ele>
        <time>2017-08-03T09:05:40Z</time>
      </trkpt>
      <trkpt lat="44.86835" lon="5.70461">
        <ele>556.2600098</ele>
        <time>2017-08-03T09:05:47Z</time>
      </trkpt>
      <trkpt lat="44.86833" lon="5.70455">
        <ele>557.7021484</ele>
        <time>2017-08-03T09:05:50Z</time>
      </trkpt>
      <trkpt lat="44.86833" lon="5.70445">
        <ele>559.144043</ele>
        <time>2017-08-03T09:05:55Z</time>
      </trkpt>
      <trkpt lat="44.86834" lon="5.70439">
        <ele>560.1052246</ele>
        <time>2017-08-03T09:05:58Z</time>
      </trkpt>
      <trkpt lat="44.86836" lon="5.7043">
        <ele>561.0666504</ele>
        <time>2017-08-03T09:06:02Z</time>
      </trkpt>
      <trkpt lat="44.86836" lon="5.70407">
        <ele>562.0280762</ele>
        <time>2017-08-03T09:06:13Z</time>
      </trkpt>
      <trkpt lat="44.8683" lon="5.70393">
        <ele>562.9892578</ele>
        <time>2017-08-03T09:06:20Z</time>
      </trkpt>
      <trkpt lat="44.86829" lon="5.70387">
        <ele>563.9504395</ele>
        <time>2017-08-03T09:06:23Z</time>
      </trkpt>
      <trkpt lat="44.86818" lon="5.70369">
        <ele>565.873291</ele>
        <time>2017-08-03T09:06:34Z</time>
      </trkpt>
      <trkpt lat="44.86818" lon="5.70361">
        <ele>567.3151855</ele>
        <time>2017-08-03T09:06:42Z</time>
      </trkpt>
      <trkpt lat="44.86811" lon="5.70352">
        <ele>569.7185059</ele>
        <time>2017-08-03T09:06:57Z</time>
      </trkpt>
      <trkpt lat="44.86804" lon="5.70345">
        <ele>571.6408691</ele>
        <time>2017-08-03T09:07:10Z</time>
      </trkpt>
      <trkpt lat="44.86798" lon="5.70334">
        <ele>574.0444336</ele>
        <time>2017-08-03T09:07:26Z</time>
      </trkpt>
      <trkpt lat="44.86796" lon="5.70333">
        <ele>574.5251465</ele>
        <time>2017-08-03T09:07:29Z</time>
      </trkpt>
      <trkpt lat="44.86798" lon="5.70329">
        <ele>575.0058594</ele>
        <time>2017-08-03T09:07:44Z</time>
      </trkpt>
      <trkpt lat="44.86798" lon="5.7033">
        <ele>574.5251465</ele>
        <time>2017-08-03T09:08:00Z</time>
      </trkpt>
      <trkpt lat="44.86799" lon="5.7033">
        <ele>574.0444336</ele>
        <time>2017-08-03T09:08:12Z</time>
      </trkpt>
      <trkpt lat="44.86799" lon="5.7033">
        <ele>574.0444336</ele>
        <time>2017-08-03T09:08:20Z</time>
      </trkpt>
      <trkpt lat="44.86796" lon="5.70326">
        <ele>574.0444336</ele>
        <time>2017-08-03T09:08:23Z</time>
      </trkpt>
      <trkpt lat="44.86793" lon="5.70323">
        <ele>575.0058594</ele>
        <time>2017-08-03T09:08:25Z</time>
      </trkpt>
      <trkpt lat="44.86776" lon="5.70309">
        <ele>575.967041</ele>
        <time>2017-08-03T09:08:33Z</time>
      </trkpt>
      <trkpt lat="44.86779" lon="5.70284">
        <ele>575.0058594</ele>
        <time>2017-08-03T09:08:40Z</time>
      </trkpt>
      <trkpt lat="44.86774" lon="5.70271">
        <ele>575.967041</ele>
        <time>2017-08-03T09:08:44Z</time>
      </trkpt>
      <trkpt lat="44.8677" lon="5.70264">
        <ele>576.4477539</ele>
        <time>2017-08-03T09:08:47Z</time>
      </trkpt>
      <trkpt lat="44.86755" lon="5.70255">
        <ele>578.8510742</ele>
        <time>2017-08-03T09:08:57Z</time>
      </trkpt>
      <trkpt lat="44.86753" lon="5.7025">
        <ele>579.8122559</ele>
        <time>2017-08-03T09:09:00Z</time>
      </trkpt>
      <trkpt lat="44.86745" lon="5.70239">
        <ele>582.6962891</ele>
        <time>2017-08-03T09:09:08Z</time>
      </trkpt>
      <trkpt lat="44.8674" lon="5.7023">
        <ele>585.0996094</ele>
        <time>2017-08-03T09:09:15Z</time>
      </trkpt>
      <trkpt lat="44.86737" lon="5.70222">
        <ele>585.5800781</ele>
        <time>2017-08-03T09:09:29Z</time>
      </trkpt>
      <trkpt lat="44.86731" lon="5.70219">
        <ele>586.5415039</ele>
        <time>2017-08-03T09:09:41Z</time>
      </trkpt>
      <trkpt lat="44.86736" lon="5.70205">
        <ele>588.9450684</ele>
        <time>2017-08-03T09:09:54Z</time>
      </trkpt>
      <trkpt lat="44.86736" lon="5.70185">
        <ele>590.8674316</ele>
        <time>2017-08-03T09:10:09Z</time>
      </trkpt>
      <trkpt lat="44.86734" lon="5.70167">
        <ele>592.7902832</ele>
        <time>2017-08-03T09:10:27Z</time>
      </trkpt>
      <trkpt lat="44.86736" lon="5.70147">
        <ele>596.1547852</ele>
        <time>2017-08-03T09:10:43Z</time>
      </trkpt>
      <trkpt lat="44.86733" lon="5.7014">
        <ele>597.1159668</ele>
        <time>2017-08-03T09:10:51Z</time>
      </trkpt>
      <trkpt lat="44.86731" lon="5.70129">
        <ele>598.5578613</ele>
        <time>2017-08-03T09:11:00Z</time>
      </trkpt>
      <trkpt lat="44.86729" lon="5.70107">
        <ele>600.9611816</ele>
        <time>2017-08-03T09:11:18Z</time>
      </trkpt>
      <trkpt lat="44.86728" lon="5.70093">
        <ele>603.364502</ele>
        <time>2017-08-03T09:11:31Z</time>
      </trkpt>
      <trkpt lat="44.86729" lon="5.70074">
        <ele>606.2485352</ele>
        <time>2017-08-03T09:11:50Z</time>
      </trkpt>
      <trkpt lat="44.86724" lon="5.70051">
        <ele>609.6132813</ele>
        <time>2017-08-03T09:12:13Z</time>
      </trkpt>
      <trkpt lat="44.86721" lon="5.7004">
        <ele>611.0551758</ele>
        <time>2017-08-03T09:12:24Z</time>
      </trkpt>
      <trkpt lat="44.86729" lon="5.70029">
        <ele>610.09375</ele>
        <time>2017-08-03T09:12:29Z</time>
      </trkpt>
      <trkpt lat="44.8673" lon="5.70023">
        <ele>610.09375</ele>
        <time>2017-08-03T09:12:32Z</time>
      </trkpt>
      <trkpt lat="44.86729" lon="5.70019">
        <ele>611.0551758</ele>
        <time>2017-08-03T09:12:35Z</time>
      </trkpt>
      <trkpt lat="44.86724" lon="5.70016">
        <ele>610.5744629</ele>
        <time>2017-08-03T09:12:39Z</time>
      </trkpt>
      <trkpt lat="44.86722" lon="5.70009">
        <ele>610.5744629</ele>
        <time>2017-08-03T09:12:44Z</time>
      </trkpt>
      <trkpt lat="44.86716" lon="5.70006">
        <ele>612.0166016</ele>
        <time>2017-08-03T09:12:57Z</time>
      </trkpt>
      <trkpt lat="44.86712" lon="5.70012">
        <ele>613.4584961</ele>
        <time>2017-08-03T09:13:04Z</time>
      </trkpt>
      <trkpt lat="44.86709" lon="5.7002">
        <ele>614.4196777</ele>
        <time>2017-08-03T09:13:12Z</time>
      </trkpt>
      <trkpt lat="44.86709" lon="5.70023">
        <ele>616.3422852</ele>
        <time>2017-08-03T09:13:25Z</time>
      </trkpt>
      <trkpt lat="44.86708" lon="5.70022">
        <ele>616.3422852</ele>
        <time>2017-08-03T09:13:26Z</time>
      </trkpt>
      <trkpt lat="44.86697" lon="5.70008">
        <ele>619.2263184</ele>
        <time>2017-08-03T09:13:46Z</time>
      </trkpt>
      <trkpt lat="44.86696" lon="5.70012">
        <ele>620.1877441</ele>
        <time>2017-08-03T09:13:50Z</time>
      </trkpt>
      <trkpt lat="44.86688" lon="5.70031">
        <ele>621.1491699</ele>
        <time>2017-08-03T09:14:06Z</time>
      </trkpt>
      <trkpt lat="44.86681" lon="5.70032">
        <ele>622.1103516</ele>
        <time>2017-08-03T09:14:28Z</time>
      </trkpt>
      <trkpt lat="44.86673" lon="5.7004">
        <ele>624.5136719</ele>
        <time>2017-08-03T09:14:43Z</time>
      </trkpt>
      <trkpt lat="44.8667" lon="5.70038">
        <ele>625.9555664</ele>
        <time>2017-08-03T09:14:50Z</time>
      </trkpt>
      <trkpt lat="44.8666" lon="5.70027">
        <ele>627.8781738</ele>
        <time>2017-08-03T09:15:10Z</time>
      </trkpt>
      <trkpt lat="44.86652" lon="5.70021">
        <ele>628.8395996</ele>
        <time>2017-08-03T09:15:20Z</time>
      </trkpt>
      <trkpt lat="44.86648" lon="5.70008">
        <ele>629.8007813</ele>
        <time>2017-08-03T09:15:36Z</time>
      </trkpt>
      <trkpt lat="44.86648" lon="5.69979">
        <ele>627.8781738</ele>
        <time>2017-08-03T09:15:42Z</time>
      </trkpt>
      <trkpt lat="44.8665" lon="5.69964">
        <ele>624.5136719</ele>
        <time>2017-08-03T09:15:45Z</time>
      </trkpt>
      <trkpt lat="44.86644" lon="5.69949">
        <ele>624.5136719</ele>
        <time>2017-08-03T09:15:50Z</time>
      </trkpt>
      <trkpt lat="44.86627" lon="5.69928">
        <ele>624.9943848</ele>
        <time>2017-08-03T09:15:59Z</time>
      </trkpt>
      <trkpt lat="44.86612" lon="5.69899">
        <ele>623.5524902</ele>
        <time>2017-08-03T09:16:05Z</time>
      </trkpt>
      <trkpt lat="44.86594" lon="5.69884">
        <ele>624.032959</ele>
        <time>2017-08-03T09:16:12Z</time>
      </trkpt>
      <trkpt lat="44.8657" lon="5.6987">
        <ele>623.5524902</ele>
        <time>2017-08-03T09:16:20Z</time>
      </trkpt>
      <trkpt lat="44.86563" lon="5.69854">
        <ele>622.5910645</ele>
        <time>2017-08-03T09:16:24Z</time>
      </trkpt>
      <trkpt lat="44.86562" lon="5.69844">
        <ele>622.1103516</ele>
        <time>2017-08-03T09:16:26Z</time>
      </trkpt>
      <trkpt lat="44.86557" lon="5.69827">
        <ele>620.668457</ele>
        <time>2017-08-03T09:16:29Z</time>
      </trkpt>
      <trkpt lat="44.86545" lon="5.69821">
        <ele>620.668457</ele>
        <time>2017-08-03T09:16:35Z</time>
      </trkpt>
      <trkpt lat="44.86543" lon="5.69823">
        <ele>621.6296387</ele>
        <time>2017-08-03T09:16:42Z</time>
      </trkpt>
      <trkpt lat="44.86533" lon="5.69824">
        <ele>623.5524902</ele>
        <time>2017-08-03T09:16:58Z</time>
      </trkpt>
      <trkpt lat="44.86532" lon="5.69825">
        <ele>623.0717773</ele>
        <time>2017-08-03T09:17:16Z</time>
      </trkpt>
      <trkpt lat="44.86529" lon="5.6982">
        <ele>623.0717773</ele>
        <time>2017-08-03T09:17:20Z</time>
      </trkpt>
      <trkpt lat="44.86532" lon="5.69791">
        <ele>624.5136719</ele>
        <time>2017-08-03T09:17:30Z</time>
      </trkpt>
      <trkpt lat="44.86528" lon="5.69781">
        <ele>624.9943848</ele>
        <time>2017-08-03T09:17:34Z</time>
      </trkpt>
      <trkpt lat="44.86526" lon="5.69769">
        <ele>625.9555664</ele>
        <time>2017-08-03T09:17:48Z</time>
      </trkpt>
      <trkpt lat="44.86527" lon="5.69767">
        <ele>625.9555664</ele>
        <time>2017-08-03T09:17:51Z</time>
      </trkpt>
      <trkpt lat="44.86529" lon="5.69737">
        <ele>628.3588867</ele>
        <time>2017-08-03T09:18:03Z</time>
      </trkpt>
      <trkpt lat="44.86524" lon="5.69723">
        <ele>629.8007813</ele>
        <time>2017-08-03T09:18:09Z</time>
      </trkpt>
      <trkpt lat="44.86523" lon="5.69717">
        <ele>630.762207</ele>
        <time>2017-08-03T09:18:12Z</time>
      </trkpt>
      <trkpt lat="44.86522" lon="5.69703">
        <ele>632.6848145</ele>
        <time>2017-08-03T09:18:19Z</time>
      </trkpt>
      <trkpt lat="44.86539" lon="5.69692">
        <ele>631.2429199</ele>
        <time>2017-08-03T09:18:31Z</time>
      </trkpt>
      <trkpt lat="44.86546" lon="5.69692">
        <ele>629.3200684</ele>
        <time>2017-08-03T09:18:33Z</time>
      </trkpt>
      <trkpt lat="44.86556" lon="5.69692">
        <ele>628.3588867</ele>
        <time>2017-08-03T09:18:35Z</time>
      </trkpt>
      <trkpt lat="44.8657" lon="5.69686">
        <ele>628.3588867</ele>
        <time>2017-08-03T09:18:40Z</time>
      </trkpt>
      <trkpt lat="44.86573" lon="5.69683">
        <ele>628.3588867</ele>
        <time>2017-08-03T09:18:42Z</time>
      </trkpt>
      <trkpt lat="44.86578" lon="5.69679">
        <ele>628.8395996</ele>
        <time>2017-08-03T09:18:45Z</time>
      </trkpt>
      <trkpt lat="44.86596" lon="5.69667">
        <ele>632.2041016</ele>
        <time>2017-08-03T09:18:59Z</time>
      </trkpt>
      <trkpt lat="44.86611" lon="5.69659">
        <ele>634.126709</ele>
        <time>2017-08-03T09:19:10Z</time>
      </trkpt>
      <trkpt lat="44.86616" lon="5.69651">
        <ele>635.0881348</ele>
        <time>2017-08-03T09:19:17Z</time>
      </trkpt>
      <trkpt lat="44.86628" lon="5.69645">
        <ele>637.4914551</ele>
        <time>2017-08-03T09:19:31Z</time>
      </trkpt>
      <trkpt lat="44.86628" lon="5.69642">
        <ele>637.972168</ele>
        <time>2017-08-03T09:19:34Z</time>
      </trkpt>
      <trkpt lat="44.8663" lon="5.69623">
        <ele>638.9335938</ele>
        <time>2017-08-03T09:19:44Z</time>
      </trkpt>
      <trkpt lat="44.86612" lon="5.69598">
        <ele>642.2980957</ele>
        <time>2017-08-03T09:20:00Z</time>
      </trkpt>
      <trkpt lat="44.8661" lon="5.69592">
        <ele>642.7788086</ele>
        <time>2017-08-03T09:20:03Z</time>
      </trkpt>
      <trkpt lat="44.86609" lon="5.69585">
        <ele>643.2592773</ele>
        <time>2017-08-03T09:20:07Z</time>
      </trkpt>
      <trkpt lat="44.8661" lon="5.69579">
        <ele>644.2207031</ele>
        <time>2017-08-03T09:20:10Z</time>
      </trkpt>
      <trkpt lat="44.86615" lon="5.69572">
        <ele>644.7011719</ele>
        <time>2017-08-03T09:20:14Z</time>
      </trkpt>
      <trkpt lat="44.86618" lon="5.69565">
        <ele>645.6625977</ele>
        <time>2017-08-03T09:20:19Z</time>
      </trkpt>
      <trkpt lat="44.8663" lon="5.69529">
        <ele>647.5852051</ele>
        <time>2017-08-03T09:20:36Z</time>
      </trkpt>
      <trkpt lat="44.86631" lon="5.69515">
        <ele>648.065918</ele>
        <time>2017-08-03T09:20:42Z</time>
      </trkpt>
      <trkpt lat="44.86631" lon="5.69501">
        <ele>649.0270996</ele>
        <time>2017-08-03T09:20:49Z</time>
      </trkpt>
      <trkpt lat="44.86634" lon="5.6948">
        <ele>649.5078125</ele>
        <time>2017-08-03T09:20:58Z</time>
      </trkpt>
      <trkpt lat="44.86636" lon="5.69473">
        <ele>649.5078125</ele>
        <time>2017-08-03T09:21:02Z</time>
      </trkpt>
      <trkpt lat="44.86638" lon="5.6947">
        <ele>649.9885254</ele>
        <time>2017-08-03T09:21:04Z</time>
      </trkpt>
      <trkpt lat="44.86641" lon="5.69464">
        <ele>649.9885254</ele>
        <time>2017-08-03T09:21:08Z</time>
      </trkpt>
      <trkpt lat="44.86657" lon="5.69465">
        <ele>648.5463867</ele>
        <time>2017-08-03T09:21:19Z</time>
      </trkpt>
      <trkpt lat="44.86657" lon="5.69463">
        <ele>649.0270996</ele>
        <time>2017-08-03T09:21:25Z</time>
      </trkpt>
      <trkpt lat="44.86654" lon="5.69467">
        <ele>649.0270996</ele>
        <time>2017-08-03T09:21:28Z</time>
      </trkpt>
      <trkpt lat="44.86636" lon="5.69467">
        <ele>649.0270996</ele>
        <time>2017-08-03T09:21:44Z</time>
      </trkpt>
      <trkpt lat="44.86635" lon="5.6947">
        <ele>649.0270996</ele>
        <time>2017-08-03T09:21:50Z</time>
      </trkpt>
      <trkpt lat="44.86633" lon="5.6947">
        <ele>649.0270996</ele>
        <time>2017-08-03T09:21:56Z</time>
      </trkpt>
      <trkpt lat="44.86629" lon="5.69472">
        <ele>649.0270996</ele>
        <time>2017-08-03T09:21:59Z</time>
      </trkpt>
      <trkpt lat="44.86624" lon="5.69471">
        <ele>649.5078125</ele>
        <time>2017-08-03T09:22:07Z</time>
      </trkpt>
      <trkpt lat="44.86627" lon="5.6947">
        <ele>649.5078125</ele>
        <time>2017-08-03T09:22:10Z</time>
      </trkpt>
      <trkpt lat="44.86632" lon="5.69471">
        <ele>648.5463867</ele>
        <time>2017-08-03T09:22:14Z</time>
      </trkpt>
      <trkpt lat="44.86625" lon="5.69474">
        <ele>649.0270996</ele>
        <time>2017-08-03T09:22:18Z</time>
      </trkpt>
      <trkpt lat="44.86592" lon="5.69524">
        <ele>651.4304199</ele>
        <time>2017-08-03T09:22:37Z</time>
      </trkpt>
      <trkpt lat="44.86555" lon="5.69526">
        <ele>651.9111328</ele>
        <time>2017-08-03T09:22:51Z</time>
      </trkpt>
      <trkpt lat="44.86526" lon="5.6951">
        <ele>654.795166</ele>
        <time>2017-08-03T09:23:08Z</time>
      </trkpt>
      <trkpt lat="44.86506" lon="5.69494">
        <ele>658.1599121</ele>
        <time>2017-08-03T09:23:22Z</time>
      </trkpt>
      <trkpt lat="44.86488" lon="5.69474">
        <ele>661.0437012</ele>
        <time>2017-08-03T09:23:38Z</time>
      </trkpt>
      <trkpt lat="44.86467" lon="5.69454">
        <ele>664.4082031</ele>
        <time>2017-08-03T09:23:55Z</time>
      </trkpt>
      <trkpt lat="44.86466" lon="5.69453">
        <ele>664.4082031</ele>
        <time>2017-08-03T09:23:56Z</time>
      </trkpt>
      <trkpt lat="44.86455" lon="5.69438">
        <ele>667.7727051</ele>
        <time>2017-08-03T09:24:08Z</time>
      </trkpt>
      <trkpt lat="44.86442" lon="5.69426">
        <ele>670.6569824</ele>
        <time>2017-08-03T09:24:19Z</time>
      </trkpt>
      <trkpt lat="44.86437" lon="5.6942">
        <ele>671.1376953</ele>
        <time>2017-08-03T09:24:24Z</time>
      </trkpt>
      <trkpt lat="44.86432" lon="5.69417">
        <ele>671.6181641</ele>
        <time>2017-08-03T09:24:28Z</time>
      </trkpt>
      <trkpt lat="44.86414" lon="5.69411">
        <ele>675.4633789</ele>
        <time>2017-08-03T09:24:45Z</time>
      </trkpt>
      <trkpt lat="44.86394" lon="5.6941">
        <ele>678.3474121</ele>
        <time>2017-08-03T09:25:02Z</time>
      </trkpt>
      <trkpt lat="44.86387" lon="5.69412">
        <ele>679.7893066</ele>
        <time>2017-08-03T09:25:10Z</time>
      </trkpt>
      <trkpt lat="44.86378" lon="5.69411">
        <ele>681.2314453</ele>
        <time>2017-08-03T09:25:17Z</time>
      </trkpt>
      <trkpt lat="44.86374" lon="5.69412">
        <ele>681.7119141</ele>
        <time>2017-08-03T09:25:21Z</time>
      </trkpt>
      <trkpt lat="44.86369" lon="5.69412">
        <ele>682.6733398</ele>
        <time>2017-08-03T09:25:38Z</time>
      </trkpt>
      <trkpt lat="44.86369" lon="5.69412">
        <ele>682.192627</ele>
        <time>2017-08-03T09:26:43Z</time>
      </trkpt>
      <trkpt lat="44.86369" lon="5.69412">
        <ele>682.192627</ele>
        <time>2017-08-03T09:26:57Z</time>
      </trkpt>
      <trkpt lat="44.86349" lon="5.6939">
        <ele>685.0769043</ele>
        <time>2017-08-03T09:27:16Z</time>
      </trkpt>
      <trkpt lat="44.86343" lon="5.69375">
        <ele>686.9992676</ele>
        <time>2017-08-03T09:27:25Z</time>
      </trkpt>
      <trkpt lat="44.86344" lon="5.69367">
        <ele>687.9606934</ele>
        <time>2017-08-03T09:27:29Z</time>
      </trkpt>
      <trkpt lat="44.86347" lon="5.69354">
        <ele>689.4025879</ele>
        <time>2017-08-03T09:27:37Z</time>
      </trkpt>
      <trkpt lat="44.86343" lon="5.6935">
        <ele>689.4025879</ele>
        <time>2017-08-03T09:27:42Z</time>
      </trkpt>
      <trkpt lat="44.86347" lon="5.69324">
        <ele>690.3640137</ele>
        <time>2017-08-03T09:27:57Z</time>
      </trkpt>
      <trkpt lat="44.86349" lon="5.69323">
        <ele>689.8833008</ele>
        <time>2017-08-03T09:28:07Z</time>
      </trkpt>
      <trkpt lat="44.8635" lon="5.69325">
        <ele>689.4025879</ele>
        <time>2017-08-03T09:28:20Z</time>
      </trkpt>
      <trkpt lat="44.86349" lon="5.69322">
        <ele>687.9606934</ele>
        <time>2017-08-03T09:28:43Z</time>
      </trkpt>
      <trkpt lat="44.86345" lon="5.69319">
        <ele>685.557373</ele>
        <time>2017-08-03T09:34:08Z</time>
      </trkpt>
      <trkpt lat="44.86346" lon="5.69319">
        <ele>685.557373</ele>
        <time>2017-08-03T09:34:09Z</time>
      </trkpt>
      <trkpt lat="44.86351" lon="5.69325">
        <ele>685.557373</ele>
        <time>2017-08-03T09:34:56Z</time>
      </trkpt>
      <trkpt lat="44.8635" lon="5.69323">
        <ele>686.5187988</ele>
        <time>2017-08-03T09:35:44Z</time>
      </trkpt>
      <trkpt lat="44.86349" lon="5.69324">
        <ele>686.5187988</ele>
        <time>2017-08-03T09:36:06Z</time>
      </trkpt>
      <trkpt lat="44.86349" lon="5.69324">
        <ele>686.0380859</ele>
        <time>2017-08-03T09:36:22Z</time>
      </trkpt>
      <trkpt lat="44.86349" lon="5.69323">
        <ele>686.0380859</ele>
        <time>2017-08-03T09:36:33Z</time>
      </trkpt>
      <trkpt lat="44.86344" lon="5.69343">
        <ele>686.0380859</ele>
        <time>2017-08-03T09:36:48Z</time>
      </trkpt>
      <trkpt lat="44.86344" lon="5.69344">
        <ele>686.5187988</ele>
        <time>2017-08-03T09:36:50Z</time>
      </trkpt>
      <trkpt lat="44.86321" lon="5.69383">
        <ele>688.4414063</ele>
        <time>2017-08-03T09:37:11Z</time>
      </trkpt>
      <trkpt lat="44.86319" lon="5.69386">
        <ele>688.9221191</ele>
        <time>2017-08-03T09:37:13Z</time>
      </trkpt>
      <trkpt lat="44.86308" lon="5.69383">
        <ele>689.8833008</ele>
        <time>2017-08-03T09:37:21Z</time>
      </trkpt>
      <trkpt lat="44.86289" lon="5.69376">
        <ele>693.2478027</ele>
        <time>2017-08-03T09:37:34Z</time>
      </trkpt>
      <trkpt lat="44.86285" lon="5.69375">
        <ele>694.2092285</ele>
        <time>2017-08-03T09:37:37Z</time>
      </trkpt>
      <trkpt lat="44.86282" lon="5.6937">
        <ele>694.6896973</ele>
        <time>2017-08-03T09:37:40Z</time>
      </trkpt>
      <trkpt lat="44.86274" lon="5.69365">
        <ele>695.651123</ele>
        <time>2017-08-03T09:37:46Z</time>
      </trkpt>
      <trkpt lat="44.86261" lon="5.69356">
        <ele>699.015625</ele>
        <time>2017-08-03T09:37:59Z</time>
      </trkpt>
      <trkpt lat="44.8626" lon="5.69353">
        <ele>699.015625</ele>
        <time>2017-08-03T09:38:01Z</time>
      </trkpt>
      <trkpt lat="44.86258" lon="5.69352">
        <ele>699.4963379</ele>
        <time>2017-08-03T09:38:04Z</time>
      </trkpt>
      <trkpt lat="44.86249" lon="5.69347">
        <ele>701.4191895</ele>
        <time>2017-08-03T09:38:13Z</time>
      </trkpt>
      <trkpt lat="44.86246" lon="5.69342">
        <ele>702.3803711</ele>
        <time>2017-08-03T09:38:17Z</time>
      </trkpt>
      <trkpt lat="44.86228" lon="5.69332">
        <ele>705.2644043</ele>
        <time>2017-08-03T09:38:33Z</time>
      </trkpt>
      <trkpt lat="44.86209" lon="5.69329">
        <ele>709.1096191</ele>
        <time>2017-08-03T09:38:50Z</time>
      </trkpt>
      <trkpt lat="44.86199" lon="5.6933">
        <ele>711.5129395</ele>
        <time>2017-08-03T09:39:00Z</time>
      </trkpt>
      <trkpt lat="44.86182" lon="5.69333">
        <ele>713.9160156</ele>
        <time>2017-08-03T09:39:17Z</time>
      </trkpt>
      <trkpt lat="44.86165" lon="5.69338">
        <ele>717.2810059</ele>
        <time>2017-08-03T09:39:34Z</time>
      </trkpt>
      <trkpt lat="44.86161" lon="5.69338">
        <ele>717.7614746</ele>
        <time>2017-08-03T09:39:37Z</time>
      </trkpt>
      <trkpt lat="44.86154" lon="5.69339">
        <ele>719.6843262</ele>
        <time>2017-08-03T09:39:45Z</time>
      </trkpt>
      <trkpt lat="44.86151" lon="5.69336">
        <ele>720.1647949</ele>
        <time>2017-08-03T09:39:48Z</time>
      </trkpt>
      <trkpt lat="44.86141" lon="5.6934">
        <ele>722.5681152</ele>
        <time>2017-08-03T09:39:58Z</time>
      </trkpt>
      <trkpt lat="44.86124" lon="5.69345">
        <ele>724.4907227</ele>
        <time>2017-08-03T09:40:13Z</time>
      </trkpt>
      <trkpt lat="44.86118" lon="5.69347">
        <ele>725.9326172</ele>
        <time>2017-08-03T09:40:19Z</time>
      </trkpt>
      <trkpt lat="44.86114" lon="5.69346">
        <ele>726.4133301</ele>
        <time>2017-08-03T09:40:23Z</time>
      </trkpt>
      <trkpt lat="44.86109" lon="5.69346">
        <ele>726.894043</ele>
        <time>2017-08-03T09:40:27Z</time>
      </trkpt>
      <trkpt lat="44.86103" lon="5.69348">
        <ele>727.8552246</ele>
        <time>2017-08-03T09:40:32Z</time>
      </trkpt>
      <trkpt lat="44.86098" lon="5.69348">
        <ele>728.3359375</ele>
        <time>2017-08-03T09:40:36Z</time>
      </trkpt>
      <trkpt lat="44.86095" lon="5.69347">
        <ele>728.8166504</ele>
        <time>2017-08-03T09:40:38Z</time>
      </trkpt>
      <trkpt lat="44.86087" lon="5.69347">
        <ele>730.2585449</ele>
        <time>2017-08-03T09:40:45Z</time>
      </trkpt>
      <trkpt lat="44.86086" lon="5.69345">
        <ele>730.7392578</ele>
        <time>2017-08-03T09:40:47Z</time>
      </trkpt>
      <trkpt lat="44.86083" lon="5.69345">
        <ele>730.7392578</ele>
        <time>2017-08-03T09:40:50Z</time>
      </trkpt>
      <trkpt lat="44.86071" lon="5.69343">
        <ele>732.1813965</ele>
        <time>2017-08-03T09:40:59Z</time>
      </trkpt>
      <trkpt lat="44.86049" lon="5.6933">
        <ele>735.0654297</ele>
        <time>2017-08-03T09:41:18Z</time>
      </trkpt>
      <trkpt lat="44.86027" lon="5.6931">
        <ele>737.9492188</ele>
        <time>2017-08-03T09:41:40Z</time>
      </trkpt>
      <trkpt lat="44.86022" lon="5.69303">
        <ele>738.9106445</ele>
        <time>2017-08-03T09:41:45Z</time>
      </trkpt>
      <trkpt lat="44.86019" lon="5.69293">
        <ele>738.9106445</ele>
        <time>2017-08-03T09:41:50Z</time>
      </trkpt>
      <trkpt lat="44.8603" lon="5.69244">
        <ele>737.9492188</ele>
        <time>2017-08-03T09:42:05Z</time>
      </trkpt>
      <trkpt lat="44.8604" lon="5.69205">
        <ele>736.5073242</ele>
        <time>2017-08-03T09:42:11Z</time>
      </trkpt>
      <trkpt lat="44.86059" lon="5.69171">
        <ele>735.0654297</ele>
        <time>2017-08-03T09:42:15Z</time>
      </trkpt>
      <trkpt lat="44.86116" lon="5.69109">
        <ele>732.1813965</ele>
        <time>2017-08-03T09:42:24Z</time>
      </trkpt>
      <trkpt lat="44.86121" lon="5.69103">
        <ele>732.1813965</ele>
        <time>2017-08-03T09:42:25Z</time>
      </trkpt>
      <trkpt lat="44.86128" lon="5.69089">
        <ele>730.7392578</ele>
        <time>2017-08-03T09:42:27Z</time>
      </trkpt>
      <trkpt lat="44.86145" lon="5.69074">
        <ele>729.777832</ele>
        <time>2017-08-03T09:42:29Z</time>
      </trkpt>
      <trkpt lat="44.86202" lon="5.6903">
        <ele>726.894043</ele>
        <time>2017-08-03T09:42:36Z</time>
      </trkpt>
      <trkpt lat="44.86217" lon="5.69009">
        <ele>723.529541</ele>
        <time>2017-08-03T09:42:38Z</time>
      </trkpt>
      <trkpt lat="44.86225" lon="5.69">
        <ele>723.529541</ele>
        <time>2017-08-03T09:42:39Z</time>
      </trkpt>
      <trkpt lat="44.86241" lon="5.68983">
        <ele>721.6066895</ele>
        <time>2017-08-03T09:42:41Z</time>
      </trkpt>
      <trkpt lat="44.86258" lon="5.68969">
        <ele>719.6843262</ele>
        <time>2017-08-03T09:42:43Z</time>
      </trkpt>
      <trkpt lat="44.86272" lon="5.68958">
        <ele>717.2810059</ele>
        <time>2017-08-03T09:42:45Z</time>
      </trkpt>
      <trkpt lat="44.86282" lon="5.6895">
        <ele>713.4355469</ele>
        <time>2017-08-03T09:42:47Z</time>
      </trkpt>
      <trkpt lat="44.86286" lon="5.68947">
        <ele>713.4355469</ele>
        <time>2017-08-03T09:42:48Z</time>
      </trkpt>
      <trkpt lat="44.86298" lon="5.68938">
        <ele>711.5129395</ele>
        <time>2017-08-03T09:42:57Z</time>
      </trkpt>
      <trkpt lat="44.86298" lon="5.68938">
        <ele>711.5129395</ele>
        <time>2017-08-03T09:43:00Z</time>
      </trkpt>
      <trkpt lat="44.8627" lon="5.6896">
        <ele>710.5515137</ele>
        <time>2017-08-03T09:43:13Z</time>
      </trkpt>
      <trkpt lat="44.86254" lon="5.68972">
        <ele>708.6289063</ele>
        <time>2017-08-03T09:43:24Z</time>
      </trkpt>
      <trkpt lat="44.86262" lon="5.68966">
        <ele>706.2255859</ele>
        <time>2017-08-03T09:43:36Z</time>
      </trkpt>
      <trkpt lat="44.86262" lon="5.68966">
        <ele>705.7451172</ele>
        <time>2017-08-03T09:43:42Z</time>
      </trkpt>
      <trkpt lat="44.86271" lon="5.68959">
        <ele>703.8225098</ele>
        <time>2017-08-03T09:43:45Z</time>
      </trkpt>
      <trkpt lat="44.86256" lon="5.68895">
        <ele>701.8999023</ele>
        <time>2017-08-03T09:43:55Z</time>
      </trkpt>
      <trkpt lat="44.86248" lon="5.68889">
        <ele>700.9384766</ele>
        <time>2017-08-03T09:43:59Z</time>
      </trkpt>
      <trkpt lat="44.86252" lon="5.68878">
        <ele>699.4963379</ele>
        <time>2017-08-03T09:44:07Z</time>
      </trkpt>
      <trkpt lat="44.86256" lon="5.68879">
        <ele>699.015625</ele>
        <time>2017-08-03T09:44:08Z</time>
      </trkpt>
      <trkpt lat="44.86263" lon="5.68881">
        <ele>698.5349121</ele>
        <time>2017-08-03T09:44:10Z</time>
      </trkpt>
      <trkpt lat="44.86267" lon="5.68873">
        <ele>697.5737305</ele>
        <time>2017-08-03T09:44:13Z</time>
      </trkpt>
      <trkpt lat="44.86277" lon="5.68862">
        <ele>695.651123</ele>
        <time>2017-08-03T09:44:16Z</time>
      </trkpt>
      <trkpt lat="44.86281" lon="5.6886">
        <ele>695.1704102</ele>
        <time>2017-08-03T09:44:17Z</time>
      </trkpt>
      <trkpt lat="44.86334" lon="5.68909">
        <ele>693.2478027</ele>
        <time>2017-08-03T09:44:23Z</time>
      </trkpt>
      <trkpt lat="44.86355" lon="5.68891">
        <ele>690.8444824</ele>
        <time>2017-08-03T09:44:27Z</time>
      </trkpt>
      <trkpt lat="44.86339" lon="5.68816">
        <ele>688.4414063</ele>
        <time>2017-08-03T09:44:30Z</time>
      </trkpt>
      <trkpt lat="44.86343" lon="5.68812">
        <ele>687.9606934</ele>
        <time>2017-08-03T09:44:31Z</time>
      </trkpt>
      <trkpt lat="44.8636" lon="5.68798">
        <ele>686.9992676</ele>
        <time>2017-08-03T09:44:37Z</time>
      </trkpt>
      <trkpt lat="44.86366" lon="5.68779">
        <ele>686.5187988</ele>
        <time>2017-08-03T09:44:43Z</time>
      </trkpt>
      <trkpt lat="44.86381" lon="5.68769">
        <ele>685.557373</ele>
        <time>2017-08-03T09:44:49Z</time>
      </trkpt>
      <trkpt lat="44.86386" lon="5.68756">
        <ele>684.1154785</ele>
        <time>2017-08-03T09:44:53Z</time>
      </trkpt>
      <trkpt lat="44.86388" lon="5.68748">
        <ele>683.1538086</ele>
        <time>2017-08-03T09:44:55Z</time>
      </trkpt>
      <trkpt lat="44.86391" lon="5.68743">
        <ele>682.6733398</ele>
        <time>2017-08-03T09:44:57Z</time>
      </trkpt>
      <trkpt lat="44.86403" lon="5.68736">
        <ele>682.192627</ele>
        <time>2017-08-03T09:45:01Z</time>
      </trkpt>
      <trkpt lat="44.86415" lon="5.68725">
        <ele>680.7507324</ele>
        <time>2017-08-03T09:45:04Z</time>
      </trkpt>
      <trkpt lat="44.86422" lon="5.68713">
        <ele>678.828125</ele>
        <time>2017-08-03T09:45:07Z</time>
      </trkpt>
      <trkpt lat="44.86425" lon="5.68707">
        <ele>677.8666992</ele>
        <time>2017-08-03T09:45:09Z</time>
      </trkpt>
      <trkpt lat="44.86445" lon="5.6866">
        <ele>675.4633789</ele>
        <time>2017-08-03T09:45:18Z</time>
      </trkpt>
      <trkpt lat="44.86449" lon="5.68649">
        <ele>672.5795898</ele>
        <time>2017-08-03T09:45:21Z</time>
      </trkpt>
      <trkpt lat="44.86449" lon="5.68628">
        <ele>670.1762695</ele>
        <time>2017-08-03T09:45:24Z</time>
      </trkpt>
      <trkpt lat="44.86453" lon="5.68613">
        <ele>669.2150879</ele>
        <time>2017-08-03T09:45:26Z</time>
      </trkpt>
      <trkpt lat="44.86453" lon="5.68601">
        <ele>668.734375</ele>
        <time>2017-08-03T09:45:28Z</time>
      </trkpt>
      <trkpt lat="44.8645" lon="5.68592">
        <ele>667.2922363</ele>
        <time>2017-08-03T09:45:30Z</time>
      </trkpt>
      <trkpt lat="44.86451" lon="5.68561">
        <ele>663.4470215</ele>
        <time>2017-08-03T09:45:35Z</time>
      </trkpt>
      <trkpt lat="44.86452" lon="5.68551">
        <ele>662.9663086</ele>
        <time>2017-08-03T09:45:37Z</time>
      </trkpt>
      <trkpt lat="44.86457" lon="5.6853">
        <ele>660.0822754</ele>
        <time>2017-08-03T09:45:41Z</time>
      </trkpt>
      <trkpt lat="44.86461" lon="5.68519">
        <ele>658.6403809</ele>
        <time>2017-08-03T09:45:44Z</time>
      </trkpt>
      <trkpt lat="44.86468" lon="5.68513">
        <ele>658.1599121</ele>
        <time>2017-08-03T09:45:47Z</time>
      </trkpt>
      <trkpt lat="44.86473" lon="5.68506">
        <ele>658.1599121</ele>
        <time>2017-08-03T09:45:49Z</time>
      </trkpt>
      <trkpt lat="44.8648" lon="5.68489">
        <ele>658.1599121</ele>
        <time>2017-08-03T09:45:52Z</time>
      </trkpt>
      <trkpt lat="44.86506" lon="5.68439">
        <ele>660.5629883</ele>
        <time>2017-08-03T09:46:03Z</time>
      </trkpt>
      <trkpt lat="44.86508" lon="5.68432">
        <ele>660.5629883</ele>
        <time>2017-08-03T09:46:05Z</time>
      </trkpt>
      <trkpt lat="44.86528" lon="5.68391">
        <ele>663.4470215</ele>
        <time>2017-08-03T09:46:16Z</time>
      </trkpt>
      <trkpt lat="44.86551" lon="5.68365">
        <ele>664.4082031</ele>
        <time>2017-08-03T09:46:27Z</time>
      </trkpt>
      <trkpt lat="44.86565" lon="5.68344">
        <ele>662.4855957</ele>
        <time>2017-08-03T09:46:32Z</time>
      </trkpt>
      <trkpt lat="44.86573" lon="5.68325">
        <ele>660.0822754</ele>
        <time>2017-08-03T09:46:35Z</time>
      </trkpt>
      <trkpt lat="44.86577" lon="5.68324">
        <ele>660.0822754</ele>
        <time>2017-08-03T09:46:36Z</time>
      </trkpt>
      <trkpt lat="44.86591" lon="5.68318">
        <ele>659.6018066</ele>
        <time>2017-08-03T09:46:39Z</time>
      </trkpt>
      <trkpt lat="44.86607" lon="5.68314">
        <ele>659.1210938</ele>
        <time>2017-08-03T09:46:42Z</time>
      </trkpt>
      <trkpt lat="44.8662" lon="5.68296">
        <ele>658.6403809</ele>
        <time>2017-08-03T09:46:46Z</time>
      </trkpt>
      <trkpt lat="44.86641" lon="5.6828">
        <ele>659.1210938</ele>
        <time>2017-08-03T09:46:52Z</time>
      </trkpt>
      <trkpt lat="44.86659" lon="5.68236">
        <ele>659.6018066</ele>
        <time>2017-08-03T09:47:01Z</time>
      </trkpt>
      <trkpt lat="44.86663" lon="5.68234">
        <ele>661.0437012</ele>
        <time>2017-08-03T09:47:03Z</time>
      </trkpt>
      <trkpt lat="44.86667" lon="5.68231">
        <ele>662.005127</ele>
        <time>2017-08-03T09:47:08Z</time>
      </trkpt>
      <trkpt lat="44.86673" lon="5.68214">
        <ele>661.0437012</ele>
        <time>2017-08-03T09:47:13Z</time>
      </trkpt>
      <trkpt lat="44.86681" lon="5.68193">
        <ele>660.0822754</ele>
        <time>2017-08-03T09:47:16Z</time>
      </trkpt>
      <trkpt lat="44.86686" lon="5.68172">
        <ele>657.1984863</ele>
        <time>2017-08-03T09:47:19Z</time>
      </trkpt>
      <trkpt lat="44.86687" lon="5.68154">
        <ele>655.2758789</ele>
        <time>2017-08-03T09:47:23Z</time>
      </trkpt>
      <trkpt lat="44.86689" lon="5.68145">
        <ele>654.3146973</ele>
        <time>2017-08-03T09:47:25Z</time>
      </trkpt>
      <trkpt lat="44.86699" lon="5.68128">
        <ele>652.8725586</ele>
        <time>2017-08-03T09:47:31Z</time>
      </trkpt>
      <trkpt lat="44.86713" lon="5.68111">
        <ele>650.4692383</ele>
        <time>2017-08-03T09:47:35Z</time>
      </trkpt>
      <trkpt lat="44.86718" lon="5.68099">
        <ele>648.065918</ele>
        <time>2017-08-03T09:47:37Z</time>
      </trkpt>
      <trkpt lat="44.86717" lon="5.68092">
        <ele>645.1818848</ele>
        <time>2017-08-03T09:47:39Z</time>
      </trkpt>
      <trkpt lat="44.86719" lon="5.68087">
        <ele>645.1818848</ele>
        <time>2017-08-03T09:47:40Z</time>
      </trkpt>
      <trkpt lat="44.86722" lon="5.68076">
        <ele>644.2207031</ele>
        <time>2017-08-03T09:47:42Z</time>
      </trkpt>
      <trkpt lat="44.86721" lon="5.68066">
        <ele>642.2980957</ele>
        <time>2017-08-03T09:47:44Z</time>
      </trkpt>
      <trkpt lat="44.86723" lon="5.68062">
        <ele>640.855957</ele>
        <time>2017-08-03T09:47:45Z</time>
      </trkpt>
      <trkpt lat="44.86759" lon="5.67994">
        <ele>637.972168</ele>
        <time>2017-08-03T09:47:54Z</time>
      </trkpt>
      <trkpt lat="44.86781" lon="5.67952">
        <ele>637.0107422</ele>
        <time>2017-08-03T09:48:00Z</time>
      </trkpt>
      <trkpt lat="44.868" lon="5.6792">
        <ele>634.6074219</ele>
        <time>2017-08-03T09:48:05Z</time>
      </trkpt>
      <trkpt lat="44.86816" lon="5.6789">
        <ele>632.6848145</ele>
        <time>2017-08-03T09:48:10Z</time>
      </trkpt>
      <trkpt lat="44.86842" lon="5.6784">
        <ele>630.762207</ele>
        <time>2017-08-03T09:48:17Z</time>
      </trkpt>
      <trkpt lat="44.8686" lon="5.67798">
        <ele>626.9169922</ele>
        <time>2017-08-03T09:48:23Z</time>
      </trkpt>
      <trkpt lat="44.86881" lon="5.67763">
        <ele>624.5136719</ele>
        <time>2017-08-03T09:48:28Z</time>
      </trkpt>
      <trkpt lat="44.86893" lon="5.67734">
        <ele>620.1877441</ele>
        <time>2017-08-03T09:48:32Z</time>
      </trkpt>
      <trkpt lat="44.86895" lon="5.67727">
        <ele>620.1877441</ele>
        <time>2017-08-03T09:48:33Z</time>
      </trkpt>
      <trkpt lat="44.86898" lon="5.6772">
        <ele>618.2648926</ele>
        <time>2017-08-03T09:48:34Z</time>
      </trkpt>
      <trkpt lat="44.86908" lon="5.67692">
        <ele>617.3037109</ele>
        <time>2017-08-03T09:48:37Z</time>
      </trkpt>
      <trkpt lat="44.8692" lon="5.67674">
        <ele>615.3811035</ele>
        <time>2017-08-03T09:48:40Z</time>
      </trkpt>
      <trkpt lat="44.86924" lon="5.67666">
        <ele>615.3811035</ele>
        <time>2017-08-03T09:48:41Z</time>
      </trkpt>
      <trkpt lat="44.8693" lon="5.67652">
        <ele>614.9003906</ele>
        <time>2017-08-03T09:48:43Z</time>
      </trkpt>
      <trkpt lat="44.86954" lon="5.67612">
        <ele>615.3811035</ele>
        <time>2017-08-03T09:48:55Z</time>
      </trkpt>
      <trkpt lat="44.86958" lon="5.67602">
        <ele>614.9003906</ele>
        <time>2017-08-03T09:48:57Z</time>
      </trkpt>
      <trkpt lat="44.86958" lon="5.67572">
        <ele>613.4584961</ele>
        <time>2017-08-03T09:49:01Z</time>
      </trkpt>
      <trkpt lat="44.86952" lon="5.67552">
        <ele>613.4584961</ele>
        <time>2017-08-03T09:49:04Z</time>
      </trkpt>
      <trkpt lat="44.86959" lon="5.67522">
        <ele>613.4584961</ele>
        <time>2017-08-03T09:49:09Z</time>
      </trkpt>
      <trkpt lat="44.86976" lon="5.67487">
        <ele>611.5358887</ele>
        <time>2017-08-03T09:49:14Z</time>
      </trkpt>
      <trkpt lat="44.86988" lon="5.67456">
        <ele>607.6906738</ele>
        <time>2017-08-03T09:49:17Z</time>
      </trkpt>
      <trkpt lat="44.86992" lon="5.67448">
        <ele>605.7680664</ele>
        <time>2017-08-03T09:49:18Z</time>
      </trkpt>
      <trkpt lat="44.87015" lon="5.674">
        <ele>603.364502</ele>
        <time>2017-08-03T09:49:24Z</time>
      </trkpt>
      <trkpt lat="44.87026" lon="5.67408">
        <ele>602.8837891</ele>
        <time>2017-08-03T09:49:29Z</time>
      </trkpt>
      <trkpt lat="44.87037" lon="5.67433">
        <ele>597.1159668</ele>
        <time>2017-08-03T09:49:37Z</time>
      </trkpt>
      <trkpt lat="44.87035" lon="5.67439">
        <ele>597.1159668</ele>
        <time>2017-08-03T09:49:38Z</time>
      </trkpt>
      <trkpt lat="44.87027" lon="5.67457">
        <ele>595.1933594</ele>
        <time>2017-08-03T09:49:41Z</time>
      </trkpt>
      <trkpt lat="44.87028" lon="5.67498">
        <ele>591.8288574</ele>
        <time>2017-08-03T09:49:49Z</time>
      </trkpt>
      <trkpt lat="44.87032" lon="5.67506">
        <ele>590.3869629</ele>
        <time>2017-08-03T09:49:51Z</time>
      </trkpt>
      <trkpt lat="44.87034" lon="5.67518">
        <ele>589.90625</ele>
        <time>2017-08-03T09:49:53Z</time>
      </trkpt>
      <trkpt lat="44.8704" lon="5.67539">
        <ele>588.4643555</ele>
        <time>2017-08-03T09:49:59Z</time>
      </trkpt>
      <trkpt lat="44.87035" lon="5.67556">
        <ele>585.5800781</ele>
        <time>2017-08-03T09:50:03Z</time>
      </trkpt>
      <trkpt lat="44.87038" lon="5.67569">
        <ele>583.6574707</ele>
        <time>2017-08-03T09:50:07Z</time>
      </trkpt>
      <trkpt lat="44.87041" lon="5.67584">
        <ele>583.1767578</ele>
        <time>2017-08-03T09:50:12Z</time>
      </trkpt>
      <trkpt lat="44.87047" lon="5.6759">
        <ele>582.6962891</ele>
        <time>2017-08-03T09:50:16Z</time>
      </trkpt>
      <trkpt lat="44.87054" lon="5.67591">
        <ele>581.7348633</ele>
        <time>2017-08-03T09:50:18Z</time>
      </trkpt>
      <trkpt lat="44.87063" lon="5.67595">
        <ele>580.7736816</ele>
        <time>2017-08-03T09:50:20Z</time>
      </trkpt>
      <trkpt lat="44.87077" lon="5.67616">
        <ele>576.9284668</ele>
        <time>2017-08-03T09:50:26Z</time>
      </trkpt>
      <trkpt lat="44.87077" lon="5.6762">
        <ele>576.9284668</ele>
        <time>2017-08-03T09:50:27Z</time>
      </trkpt>
      <trkpt lat="44.87077" lon="5.67636">
        <ele>575.0058594</ele>
        <time>2017-08-03T09:50:38Z</time>
      </trkpt>
      <trkpt lat="44.87079" lon="5.67638">
        <ele>573.5639648</ele>
        <time>2017-08-03T09:51:02Z</time>
      </trkpt>
      <trkpt lat="44.87083" lon="5.67643">
        <ele>571.1604004</ele>
        <time>2017-08-03T09:51:33Z</time>
      </trkpt>
      <trkpt lat="44.87088" lon="5.67651">
        <ele>567.7956543</ele>
        <time>2017-08-03T09:51:47Z</time>
      </trkpt>
      <trkpt lat="44.87088" lon="5.6765">
        <ele>568.2763672</ele>
        <time>2017-08-03T09:51:49Z</time>
      </trkpt>
      <trkpt lat="44.87091" lon="5.67651">
        <ele>566.8344727</ele>
        <time>2017-08-03T09:52:00Z</time>
      </trkpt>
      <trkpt lat="44.87084" lon="5.67657">
        <ele>565.3925781</ele>
        <time>2017-08-03T09:52:05Z</time>
      </trkpt>
      <trkpt lat="44.87081" lon="5.67662">
        <ele>563.4699707</ele>
        <time>2017-08-03T09:52:15Z</time>
      </trkpt>
      <trkpt lat="44.87106" lon="5.67659">
        <ele>562.0280762</ele>
        <time>2017-08-03T09:52:22Z</time>
      </trkpt>
      <trkpt lat="44.87113" lon="5.6765">
        <ele>559.144043</ele>
        <time>2017-08-03T09:52:25Z</time>
      </trkpt>
      <trkpt lat="44.87135" lon="5.67659">
        <ele>556.2600098</ele>
        <time>2017-08-03T09:52:32Z</time>
      </trkpt>
      <trkpt lat="44.87142" lon="5.67663">
        <ele>554.3374023</ele>
        <time>2017-08-03T09:52:34Z</time>
      </trkpt>
      <trkpt lat="44.87163" lon="5.67672">
        <ele>552.4145508</ele>
        <time>2017-08-03T09:52:39Z</time>
      </trkpt>
      <trkpt lat="44.87207" lon="5.67692">
        <ele>550.0114746</ele>
        <time>2017-08-03T09:52:53Z</time>
      </trkpt>
      <trkpt lat="44.87226" lon="5.67697">
        <ele>550.4921875</ele>
        <time>2017-08-03T09:53:12Z</time>
      </trkpt>
      <trkpt lat="44.87242" lon="5.67704">
        <ele>552.8952637</ele>
        <time>2017-08-03T09:53:29Z</time>
      </trkpt>
      <trkpt lat="44.87258" lon="5.67712">
        <ele>553.8566895</ele>
        <time>2017-08-03T09:53:52Z</time>
      </trkpt>
      <trkpt lat="44.87274" lon="5.67718">
        <ele>557.2214355</ele>
        <time>2017-08-03T09:54:13Z</time>
      </trkpt>
      <trkpt lat="44.87286" lon="5.67725">
        <ele>557.7021484</ele>
        <time>2017-08-03T09:54:26Z</time>
      </trkpt>
      <trkpt lat="44.87289" lon="5.67735">
        <ele>558.1828613</ele>
        <time>2017-08-03T09:54:42Z</time>
      </trkpt>
      <trkpt lat="44.87288" lon="5.67737">
        <ele>558.6633301</ele>
        <time>2017-08-03T09:55:11Z</time>
      </trkpt>
      <trkpt lat="44.87297" lon="5.67723">
        <ele>559.144043</ele>
        <time>2017-08-03T09:55:21Z</time>
      </trkpt>
      <trkpt lat="44.87287" lon="5.6769">
        <ele>563.4699707</ele>
        <time>2017-08-03T09:55:38Z</time>
      </trkpt>
      <trkpt lat="44.87284" lon="5.6767">
        <ele>566.3537598</ele>
        <time>2017-08-03T09:55:48Z</time>
      </trkpt>
      <trkpt lat="44.87284" lon="5.67668">
        <ele>566.3537598</ele>
        <time>2017-08-03T09:55:49Z</time>
      </trkpt>
      <trkpt lat="44.87284" lon="5.67666">
        <ele>566.8344727</ele>
        <time>2017-08-03T09:55:50Z</time>
      </trkpt>
      <trkpt lat="44.8729" lon="5.6766">
        <ele>568.2763672</ele>
        <time>2017-08-03T09:55:56Z</time>
      </trkpt>
      <trkpt lat="44.873" lon="5.67658">
        <ele>570.1989746</ele>
        <time>2017-08-03T09:56:03Z</time>
      </trkpt>
      <trkpt lat="44.87304" lon="5.67661">
        <ele>570.6796875</ele>
        <time>2017-08-03T09:56:07Z</time>
      </trkpt>
      <trkpt lat="44.87321" lon="5.67658">
        <ele>574.5251465</ele>
        <time>2017-08-03T09:56:18Z</time>
      </trkpt>
      <trkpt lat="44.87322" lon="5.67658">
        <ele>574.5251465</ele>
        <time>2017-08-03T09:56:19Z</time>
      </trkpt>
      <trkpt lat="44.87336" lon="5.67658">
        <ele>575.4863281</ele>
        <time>2017-08-03T09:56:28Z</time>
      </trkpt>
      <trkpt lat="44.87361" lon="5.67661">
        <ele>575.967041</ele>
        <time>2017-08-03T09:56:43Z</time>
      </trkpt>
      <trkpt lat="44.87374" lon="5.67664">
        <ele>576.4477539</ele>
        <time>2017-08-03T09:56:50Z</time>
      </trkpt>
      <trkpt lat="44.87402" lon="5.67681">
        <ele>576.4477539</ele>
        <time>2017-08-03T09:57:04Z</time>
      </trkpt>
      <trkpt lat="44.87441" lon="5.67696">
        <ele>578.8510742</ele>
        <time>2017-08-03T09:57:20Z</time>
      </trkpt>
      <trkpt lat="44.87449" lon="5.67702">
        <ele>578.3703613</ele>
        <time>2017-08-03T09:57:24Z</time>
      </trkpt>
      <trkpt lat="44.87494" lon="5.67696">
        <ele>578.8510742</ele>
        <time>2017-08-03T09:57:40Z</time>
      </trkpt>
      <trkpt lat="44.8753" lon="5.67697">
        <ele>579.331543</ele>
        <time>2017-08-03T09:57:51Z</time>
      </trkpt>
      <trkpt lat="44.87577" lon="5.67713">
        <ele>579.331543</ele>
        <time>2017-08-03T09:58:05Z</time>
      </trkpt>
      <trkpt lat="44.87582" lon="5.67716">
        <ele>578.3703613</ele>
        <time>2017-08-03T09:58:06Z</time>
      </trkpt>
      <trkpt lat="44.87597" lon="5.6772">
        <ele>577.8896484</ele>
        <time>2017-08-03T09:58:09Z</time>
      </trkpt>
      <trkpt lat="44.87624" lon="5.67722">
        <ele>577.8896484</ele>
        <time>2017-08-03T09:58:14Z</time>
      </trkpt>
      <trkpt lat="44.87638" lon="5.67724">
        <ele>577.4091797</ele>
        <time>2017-08-03T09:58:17Z</time>
      </trkpt>
      <trkpt lat="44.87661" lon="5.67725">
        <ele>576.9284668</ele>
        <time>2017-08-03T09:58:21Z</time>
      </trkpt>
      <trkpt lat="44.87677" lon="5.67725">
        <ele>576.4477539</ele>
        <time>2017-08-03T09:58:24Z</time>
      </trkpt>
      <trkpt lat="44.87705" lon="5.67719">
        <ele>576.4477539</ele>
        <time>2017-08-03T09:58:31Z</time>
      </trkpt>
      <trkpt lat="44.87748" lon="5.67711">
        <ele>576.4477539</ele>
        <time>2017-08-03T09:58:40Z</time>
      </trkpt>
      <trkpt lat="44.87766" lon="5.67711">
        <ele>576.4477539</ele>
        <time>2017-08-03T09:58:43Z</time>
      </trkpt>
      <trkpt lat="44.87808" lon="5.67706">
        <ele>575.4863281</ele>
        <time>2017-08-03T09:58:54Z</time>
      </trkpt>
      <trkpt lat="44.87829" lon="5.67705">
        <ele>575.967041</ele>
        <time>2017-08-03T09:58:59Z</time>
      </trkpt>
      <trkpt lat="44.87837" lon="5.67703">
        <ele>575.967041</ele>
        <time>2017-08-03T09:59:01Z</time>
      </trkpt>
      <trkpt lat="44.87881" lon="5.67696">
        <ele>577.4091797</ele>
        <time>2017-08-03T09:59:13Z</time>
      </trkpt>
      <trkpt lat="44.87889" lon="5.67694">
        <ele>576.9284668</ele>
        <time>2017-08-03T09:59:15Z</time>
      </trkpt>
      <trkpt lat="44.87898" lon="5.67693">
        <ele>576.9284668</ele>
        <time>2017-08-03T09:59:17Z</time>
      </trkpt>
      <trkpt lat="44.87942" lon="5.67683">
        <ele>576.4477539</ele>
        <time>2017-08-03T09:59:25Z</time>
      </trkpt>
      <trkpt lat="44.87953" lon="5.67677">
        <ele>576.9284668</ele>
        <time>2017-08-03T09:59:28Z</time>
      </trkpt>
      <trkpt lat="44.87992" lon="5.67631">
        <ele>577.4091797</ele>
        <time>2017-08-03T09:59:31Z</time>
      </trkpt>
      <trkpt lat="44.87992" lon="5.67631">
        <ele>578.8510742</ele>
        <time>2017-08-03T09:59:42Z</time>
      </trkpt>
      <trkpt lat="44.87992" lon="5.67631">
        <ele>578.8510742</ele>
        <time>2017-08-03T09:59:54Z</time>
      </trkpt>
      <trkpt lat="44.87992" lon="5.67631">
        <ele>578.8510742</ele>
        <time>2017-08-03T10:00:09Z</time>
      </trkpt>
      <trkpt lat="44.87992" lon="5.67631">
        <ele>579.8122559</ele>
        <time>2017-08-03T10:02:13Z</time>
      </trkpt>
      <trkpt lat="44.87992" lon="5.67631">
        <ele>579.331543</ele>
        <time>2017-08-03T10:02:30Z</time>
      </trkpt>
      <trkpt lat="44.87992" lon="5.67631">
        <ele>579.8122559</ele>
        <time>2017-08-03T10:02:50Z</time>
      </trkpt>
      <trkpt lat="44.87992" lon="5.67631">
        <ele>580.2929688</ele>
        <time>2017-08-03T10:03:06Z</time>
      </trkpt>
      <trkpt lat="44.88009" lon="5.67626">
        <ele>580.2929688</ele>
        <time>2017-08-03T10:03:19Z</time>
      </trkpt>
      <trkpt lat="44.88048" lon="5.6761">
        <ele>577.8896484</ele>
        <time>2017-08-03T10:03:30Z</time>
      </trkpt>
      <trkpt lat="44.88102" lon="5.67586">
        <ele>576.9284668</ele>
        <time>2017-08-03T10:03:43Z</time>
      </trkpt>
      <trkpt lat="44.8813" lon="5.67576">
        <ele>575.4863281</ele>
        <time>2017-08-03T10:03:48Z</time>
      </trkpt>
      <trkpt lat="44.88146" lon="5.67575">
        <ele>574.0444336</ele>
        <time>2017-08-03T10:03:50Z</time>
      </trkpt>
      <trkpt lat="44.88197" lon="5.67571">
        <ele>570.1989746</ele>
        <time>2017-08-03T10:03:55Z</time>
      </trkpt>
      <trkpt lat="44.88232" lon="5.67567">
        <ele>567.3151855</ele>
        <time>2017-08-03T10:03:58Z</time>
      </trkpt>
      <trkpt lat="44.88243" lon="5.67566">
        <ele>567.3151855</ele>
        <time>2017-08-03T10:03:59Z</time>
      </trkpt>
      <trkpt lat="44.88267" lon="5.67564">
        <ele>564.4311523</ele>
        <time>2017-08-03T10:04:01Z</time>
      </trkpt>
      <trkpt lat="44.88279" lon="5.67563">
        <ele>564.4311523</ele>
        <time>2017-08-03T10:04:02Z</time>
      </trkpt>
      <trkpt lat="44.88299" lon="5.67554">
        <ele>562.5085449</ele>
        <time>2017-08-03T10:04:04Z</time>
      </trkpt>
      <trkpt lat="44.88317" lon="5.67541">
        <ele>561.5473633</ele>
        <time>2017-08-03T10:04:06Z</time>
      </trkpt>
      <trkpt lat="44.8834" lon="5.67517">
        <ele>558.1828613</ele>
        <time>2017-08-03T10:04:09Z</time>
      </trkpt>
      <trkpt lat="44.88355" lon="5.67502">
        <ele>558.1828613</ele>
        <time>2017-08-03T10:04:11Z</time>
      </trkpt>
      <trkpt lat="44.88398" lon="5.67486">
        <ele>557.2214355</ele>
        <time>2017-08-03T10:04:16Z</time>
      </trkpt>
      <trkpt lat="44.8849" lon="5.67463">
        <ele>554.3374023</ele>
        <time>2017-08-03T10:04:28Z</time>
      </trkpt>
      <trkpt lat="44.88521" lon="5.67443">
        <ele>552.8952637</ele>
        <time>2017-08-03T10:04:33Z</time>
      </trkpt>
      <trkpt lat="44.8853" lon="5.67432">
        <ele>553.3759766</ele>
        <time>2017-08-03T10:04:35Z</time>
      </trkpt>
      <trkpt lat="44.88612" lon="5.67418">
        <ele>551.4533691</ele>
        <time>2017-08-03T10:04:48Z</time>
      </trkpt>
      <trkpt lat="44.88702" lon="5.674">
        <ele>550.9726563</ele>
        <time>2017-08-03T10:05:02Z</time>
      </trkpt>
      <trkpt lat="44.88827" lon="5.67363">
        <ele>550.9726563</ele>
        <time>2017-08-03T10:05:21Z</time>
      </trkpt>
      <trkpt lat="44.88878" lon="5.67354">
        <ele>551.4533691</ele>
        <time>2017-08-03T10:05:29Z</time>
      </trkpt>
      <trkpt lat="44.88896" lon="5.67347">
        <ele>550.0114746</ele>
        <time>2017-08-03T10:05:32Z</time>
      </trkpt>
      <trkpt lat="44.88901" lon="5.6734">
        <ele>548.5693359</ele>
        <time>2017-08-03T10:05:33Z</time>
      </trkpt>
      <trkpt lat="44.88942" lon="5.67334">
        <ele>548.5693359</ele>
        <time>2017-08-03T10:05:41Z</time>
      </trkpt>
      <trkpt lat="44.89035" lon="5.67328">
        <ele>550.0114746</ele>
        <time>2017-08-03T10:06:02Z</time>
      </trkpt>
      <trkpt lat="44.89106" lon="5.67323">
        <ele>553.3759766</ele>
        <time>2017-08-03T10:06:20Z</time>
      </trkpt>
      <trkpt lat="44.89139" lon="5.67313">
        <ele>556.7407227</ele>
        <time>2017-08-03T10:06:33Z</time>
      </trkpt>
      <trkpt lat="44.89186" lon="5.67299">
        <ele>557.7021484</ele>
        <time>2017-08-03T10:06:49Z</time>
      </trkpt>
      <trkpt lat="44.89239" lon="5.67297">
        <ele>557.7021484</ele>
        <time>2017-08-03T10:07:04Z</time>
      </trkpt>
      <trkpt lat="44.89301" lon="5.673">
        <ele>557.2214355</ele>
        <time>2017-08-03T10:07:18Z</time>
      </trkpt>
      <trkpt lat="44.89376" lon="5.67277">
        <ele>557.7021484</ele>
        <time>2017-08-03T10:07:38Z</time>
      </trkpt>
      <trkpt lat="44.8946" lon="5.67255">
        <ele>555.298584</ele>
        <time>2017-08-03T10:07:55Z</time>
      </trkpt>
      <trkpt lat="44.8947" lon="5.67252">
        <ele>555.7792969</ele>
        <time>2017-08-03T10:07:58Z</time>
      </trkpt>
      <trkpt lat="44.89477" lon="5.6727">
        <ele>555.298584</ele>
        <time>2017-08-03T10:08:02Z</time>
      </trkpt>
      <trkpt lat="44.89469" lon="5.6728">
        <ele>553.3759766</ele>
        <time>2017-08-03T10:08:07Z</time>
      </trkpt>
      <trkpt lat="44.89448" lon="5.67304">
        <ele>550.0114746</ele>
        <time>2017-08-03T10:08:13Z</time>
      </trkpt>
      <trkpt lat="44.89423" lon="5.67326">
        <ele>548.5693359</ele>
        <time>2017-08-03T10:08:17Z</time>
      </trkpt>
      <trkpt lat="44.8943" lon="5.67369">
        <ele>546.6468506</ele>
        <time>2017-08-03T10:08:23Z</time>
      </trkpt>
      <trkpt lat="44.89443" lon="5.67365">
        <ele>545.204834</ele>
        <time>2017-08-03T10:08:25Z</time>
      </trkpt>
      <trkpt lat="44.89475" lon="5.67357">
        <ele>543.7628174</ele>
        <time>2017-08-03T10:08:29Z</time>
      </trkpt>
      <trkpt lat="44.89511" lon="5.67356">
        <ele>541.84021</ele>
        <time>2017-08-03T10:08:33Z</time>
      </trkpt>
      <trkpt lat="44.89548" lon="5.67356">
        <ele>539.9176025</ele>
        <time>2017-08-03T10:08:37Z</time>
      </trkpt>
      <trkpt lat="44.89565" lon="5.67356">
        <ele>536.0723877</ele>
        <time>2017-08-03T10:08:39Z</time>
      </trkpt>
      <trkpt lat="44.89572" lon="5.67355">
        <ele>536.0723877</ele>
        <time>2017-08-03T10:08:40Z</time>
      </trkpt>
      <trkpt lat="44.89588" lon="5.67355">
        <ele>534.6303711</ele>
        <time>2017-08-03T10:08:42Z</time>
      </trkpt>
      <trkpt lat="44.89618" lon="5.67352">
        <ele>531.2657471</ele>
        <time>2017-08-03T10:08:46Z</time>
      </trkpt>
      <trkpt lat="44.89625" lon="5.67352">
        <ele>531.2657471</ele>
        <time>2017-08-03T10:08:47Z</time>
      </trkpt>
      <trkpt lat="44.89638" lon="5.67352">
        <ele>529.8237305</ele>
        <time>2017-08-03T10:08:49Z</time>
      </trkpt>
      <trkpt lat="44.89651" lon="5.67352">
        <ele>528.3818359</ele>
        <time>2017-08-03T10:08:51Z</time>
      </trkpt>
      <trkpt lat="44.8966" lon="5.67356">
        <ele>526.9398193</ele>
        <time>2017-08-03T10:08:53Z</time>
      </trkpt>
      <trkpt lat="44.8966" lon="5.67356">
        <ele>525.0172119</ele>
        <time>2017-08-03T10:08:55Z</time>
      </trkpt>
      <trkpt lat="44.89679" lon="5.67397">
        <ele>523.5751953</ele>
        <time>2017-08-03T10:08:58Z</time>
      </trkpt>
      <trkpt lat="44.89687" lon="5.67402">
        <ele>521.6525879</ele>
        <time>2017-08-03T10:09:00Z</time>
      </trkpt>
      <trkpt lat="44.89702" lon="5.67401">
        <ele>519.7298584</ele>
        <time>2017-08-03T10:09:03Z</time>
      </trkpt>
      <trkpt lat="44.89712" lon="5.67396">
        <ele>519.2492676</ele>
        <time>2017-08-03T10:09:05Z</time>
      </trkpt>
      <trkpt lat="44.89757" lon="5.67368">
        <ele>517.807251</ele>
        <time>2017-08-03T10:09:14Z</time>
      </trkpt>
      <trkpt lat="44.89818" lon="5.67355">
        <ele>517.3266602</ele>
        <time>2017-08-03T10:09:31Z</time>
      </trkpt>
      <trkpt lat="44.89834" lon="5.67348">
        <ele>517.3266602</ele>
        <time>2017-08-03T10:09:41Z</time>
      </trkpt>
      <trkpt lat="44.8985" lon="5.67337">
        <ele>517.807251</ele>
        <time>2017-08-03T10:09:53Z</time>
      </trkpt>
      <trkpt lat="44.8985" lon="5.67337">
        <ele>517.3266602</ele>
        <time>2017-08-03T10:09:56Z</time>
      </trkpt>
      <trkpt lat="44.89854" lon="5.67357">
        <ele>515.8846436</ele>
        <time>2017-08-03T10:10:06Z</time>
      </trkpt>
      <trkpt lat="44.89859" lon="5.67362">
        <ele>514.9233398</ele>
        <time>2017-08-03T10:10:13Z</time>
      </trkpt>
      <trkpt lat="44.89859" lon="5.67362">
        <ele>514.442627</ele>
        <time>2017-08-03T10:10:28Z</time>
      </trkpt>
      <trkpt lat="44.89859" lon="5.67362">
        <ele>513.9620361</ele>
        <time>2017-08-03T10:10:45Z</time>
      </trkpt>
      <trkpt lat="44.89859" lon="5.67362">
        <ele>513.9620361</ele>
        <time>2017-08-03T10:11:01Z</time>
      </trkpt>
      <trkpt lat="44.89859" lon="5.67362">
        <ele>514.442627</ele>
        <time>2017-08-03T10:11:14Z</time>
      </trkpt>
      <trkpt lat="44.89859" lon="5.67362">
        <ele>513.4814453</ele>
        <time>2017-08-03T10:11:31Z</time>
      </trkpt>
      <trkpt lat="44.89859" lon="5.67362">
        <ele>513.0007324</ele>
        <time>2017-08-03T10:11:56Z</time>
      </trkpt>
      <trkpt lat="44.89859" lon="5.67362">
        <ele>512.0394287</ele>
        <time>2017-08-03T10:21:18Z</time>
      </trkpt>
      <trkpt lat="44.89859" lon="5.67362">
        <ele>511.5587158</ele>
        <time>2017-08-03T10:21:33Z</time>
      </trkpt>
      <trkpt lat="44.89859" lon="5.67362">
        <ele>511.5587158</ele>
        <time>2017-08-03T10:21:46Z</time>
      </trkpt>
      <trkpt lat="44.89859" lon="5.67362">
        <ele>512.0394287</ele>
        <time>2017-08-03T10:21:57Z</time>
      </trkpt>
      <trkpt lat="44.89856" lon="5.6736">
        <ele>512.0394287</ele>
        <time>2017-08-03T10:22:01Z</time>
      </trkpt>
      <trkpt lat="44.89851" lon="5.67352">
        <ele>513.0007324</ele>
        <time>2017-08-03T10:22:05Z</time>
      </trkpt>
      <trkpt lat="44.89845" lon="5.67341">
        <ele>513.9620361</ele>
        <time>2017-08-03T10:22:09Z</time>
      </trkpt>
      <trkpt lat="44.8981" lon="5.67356">
        <ele>514.442627</ele>
        <time>2017-08-03T10:22:23Z</time>
      </trkpt>
      <trkpt lat="44.89718" lon="5.67392">
        <ele>514.442627</ele>
        <time>2017-08-03T10:22:50Z</time>
      </trkpt>
      <trkpt lat="44.89677" lon="5.67395">
        <ele>516.3652344</ele>
        <time>2017-08-03T10:23:05Z</time>
      </trkpt>
      <trkpt lat="44.89664" lon="5.67364">
        <ele>520.2105713</ele>
        <time>2017-08-03T10:23:19Z</time>
      </trkpt>
      <trkpt lat="44.8963" lon="5.67369">
        <ele>520.2105713</ele>
        <time>2017-08-03T10:23:29Z</time>
      </trkpt>
      <trkpt lat="44.89619" lon="5.67377">
        <ele>518.7685547</ele>
        <time>2017-08-03T10:23:33Z</time>
      </trkpt>
      <trkpt lat="44.89608" lon="5.67397">
        <ele>517.807251</ele>
        <time>2017-08-03T10:23:37Z</time>
      </trkpt>
      <trkpt lat="44.89592" lon="5.67424">
        <ele>515.4040527</ele>
        <time>2017-08-03T10:23:43Z</time>
      </trkpt>
      <trkpt lat="44.89584" lon="5.67435">
        <ele>512.5200195</ele>
        <time>2017-08-03T10:23:54Z</time>
      </trkpt>
      <trkpt lat="44.89584" lon="5.67435">
        <ele>512.0394287</ele>
        <time>2017-08-03T10:23:55Z</time>
      </trkpt>
      <trkpt lat="44.89576" lon="5.67458">
        <ele>510.59729</ele>
        <time>2017-08-03T10:24:00Z</time>
      </trkpt>
      <trkpt lat="44.89581" lon="5.67462">
        <ele>508.1940918</ele>
        <time>2017-08-03T10:24:12Z</time>
      </trkpt>
      <trkpt lat="44.89578" lon="5.67458">
        <ele>509.6361084</ele>
        <time>2017-08-03T10:24:30Z</time>
      </trkpt>
      <trkpt lat="44.89581" lon="5.67458">
        <ele>508.1940918</ele>
        <time>2017-08-03T10:24:48Z</time>
      </trkpt>
      <trkpt lat="44.89582" lon="5.67458">
        <ele>507.2327881</ele>
        <time>2017-08-03T10:25:14Z</time>
      </trkpt>
      <trkpt lat="44.89582" lon="5.67458">
        <ele>506.7520752</ele>
        <time>2017-08-03T10:27:36Z</time>
      </trkpt>
      <trkpt lat="44.89582" lon="5.67457">
        <ele>506.7520752</ele>
        <time>2017-08-03T10:28:24Z</time>
      </trkpt>
      <trkpt lat="44.89581" lon="5.67456">
        <ele>503.8681641</ele>
        <time>2017-08-03T10:34:00Z</time>
      </trkpt>
      <trkpt lat="44.89582" lon="5.67454">
        <ele>500.50354</ele>
        <time>2017-08-03T10:42:55Z</time>
      </trkpt>
      <trkpt lat="44.89583" lon="5.67454">
        <ele>498.1003418</ele>
        <time>2017-08-03T10:52:51Z</time>
      </trkpt>
      <trkpt lat="44.89584" lon="5.67456">
        <ele>494.7355957</ele>
        <time>2017-08-03T11:08:34Z</time>
      </trkpt>
      <trkpt lat="44.89585" lon="5.67457">
        <ele>493.774292</ele>
        <time>2017-08-03T11:18:33Z</time>
      </trkpt>
      <trkpt lat="44.89585" lon="5.67457">
        <ele>495.2161865</ele>
        <time>2017-08-03T11:19:05Z</time>
      </trkpt>
      <trkpt lat="44.89585" lon="5.67456">
        <ele>495.2161865</ele>
        <time>2017-08-03T11:19:14Z</time>
      </trkpt>
      <trkpt lat="44.89581" lon="5.67455">
        <ele>495.6968994</ele>
        <time>2017-08-03T11:19:18Z</time>
      </trkpt>
      <trkpt lat="44.89572" lon="5.6745">
        <ele>496.1777344</ele>
        <time>2017-08-03T11:19:32Z</time>
      </trkpt>
      <trkpt lat="44.89574" lon="5.67444">
        <ele>496.1777344</ele>
        <time>2017-08-03T11:19:45Z</time>
      </trkpt>
      <trkpt lat="44.89579" lon="5.67442">
        <ele>496.6583252</ele>
        <time>2017-08-03T11:19:49Z</time>
      </trkpt>
      <trkpt lat="44.89596" lon="5.67419">
        <ele>499.5422363</ele>
        <time>2017-08-03T11:20:05Z</time>
      </trkpt>
      <trkpt lat="44.89611" lon="5.67394">
        <ele>501.9455566</ele>
        <time>2017-08-03T11:20:20Z</time>
      </trkpt>
      <trkpt lat="44.89629" lon="5.67371">
        <ele>503.3874512</ele>
        <time>2017-08-03T11:20:33Z</time>
      </trkpt>
      <trkpt lat="44.89651" lon="5.67372">
        <ele>505.3101807</ele>
        <time>2017-08-03T11:20:46Z</time>
      </trkpt>
      <trkpt lat="44.89667" lon="5.67379">
        <ele>504.8294678</ele>
        <time>2017-08-03T11:20:53Z</time>
      </trkpt>
      <trkpt lat="44.89682" lon="5.67399">
        <ele>503.8681641</ele>
        <time>2017-08-03T11:20:57Z</time>
      </trkpt>
      <trkpt lat="44.8972" lon="5.67391">
        <ele>501.4648438</ele>
        <time>2017-08-03T11:21:02Z</time>
      </trkpt>
      <trkpt lat="44.89808" lon="5.67357">
        <ele>499.5422363</ele>
        <time>2017-08-03T11:21:14Z</time>
      </trkpt>
      <trkpt lat="44.89854" lon="5.67336">
        <ele>498.5809326</ele>
        <time>2017-08-03T11:21:25Z</time>
      </trkpt>
      <trkpt lat="44.89855" lon="5.67358">
        <ele>498.5809326</ele>
        <time>2017-08-03T11:21:29Z</time>
      </trkpt>
      <trkpt lat="44.89861" lon="5.67365">
        <ele>496.6583252</ele>
        <time>2017-08-03T11:21:42Z</time>
      </trkpt>
      <trkpt lat="44.89861" lon="5.67365">
        <ele>496.6583252</ele>
        <time>2017-08-03T11:21:55Z</time>
      </trkpt>
      <trkpt lat="44.89861" lon="5.67365">
        <ele>496.6583252</ele>
        <time>2017-08-03T11:22:24Z</time>
      </trkpt>
      <trkpt lat="44.89861" lon="5.67365">
        <ele>496.1777344</ele>
        <time>2017-08-03T11:22:42Z</time>
      </trkpt>
      <trkpt lat="44.89861" lon="5.67365">
        <ele>495.6968994</ele>
        <time>2017-08-03T11:32:17Z</time>
      </trkpt>
      <trkpt lat="44.89861" lon="5.67365">
        <ele>496.1777344</ele>
        <time>2017-08-03T11:32:33Z</time>
      </trkpt>
      <trkpt lat="44.89861" lon="5.67365">
        <ele>496.1777344</ele>
        <time>2017-08-03T11:32:48Z</time>
      </trkpt>
      <trkpt lat="44.89861" lon="5.67365">
        <ele>495.6968994</ele>
        <time>2017-08-03T11:33:00Z</time>
      </trkpt>
      <trkpt lat="44.89861" lon="5.67365">
        <ele>496.6583252</ele>
        <time>2017-08-03T11:33:02Z</time>
      </trkpt>
      <trkpt lat="44.89855" lon="5.67334">
        <ele>496.6583252</ele>
        <time>2017-08-03T11:33:10Z</time>
      </trkpt>
      <trkpt lat="44.89862" lon="5.67354">
        <ele>496.6583252</ele>
        <time>2017-08-03T11:33:13Z</time>
      </trkpt>
      <trkpt lat="44.89859" lon="5.6734">
        <ele>498.1003418</ele>
        <time>2017-08-03T11:33:20Z</time>
      </trkpt>
      <trkpt lat="44.89864" lon="5.67334">
        <ele>498.5809326</ele>
        <time>2017-08-03T11:33:24Z</time>
      </trkpt>
      <trkpt lat="44.89888" lon="5.67313">
        <ele>501.9455566</ele>
        <time>2017-08-03T11:33:42Z</time>
      </trkpt>
      <trkpt lat="44.89912" lon="5.67297">
        <ele>504.8294678</ele>
        <time>2017-08-03T11:34:00Z</time>
      </trkpt>
      <trkpt lat="44.89942" lon="5.67279">
        <ele>508.1940918</ele>
        <time>2017-08-03T11:34:21Z</time>
      </trkpt>
      <trkpt lat="44.89972" lon="5.6726">
        <ele>511.0780029</ele>
        <time>2017-08-03T11:34:41Z</time>
      </trkpt>
      <trkpt lat="44.89995" lon="5.67244">
        <ele>513.9620361</ele>
        <time>2017-08-03T11:34:58Z</time>
      </trkpt>
      <trkpt lat="44.90004" lon="5.67239">
        <ele>515.4040527</ele>
        <time>2017-08-03T11:35:14Z</time>
      </trkpt>
      <trkpt lat="44.90015" lon="5.67231">
        <ele>515.8846436</ele>
        <time>2017-08-03T11:35:27Z</time>
      </trkpt>
      <trkpt lat="44.90048" lon="5.67206">
        <ele>519.2492676</ele>
        <time>2017-08-03T11:35:45Z</time>
      </trkpt>
      <trkpt lat="44.90061" lon="5.67182">
        <ele>520.6912842</ele>
        <time>2017-08-03T11:35:57Z</time>
      </trkpt>
      <trkpt lat="44.90066" lon="5.67158">
        <ele>523.0946045</ele>
        <time>2017-08-03T11:36:11Z</time>
      </trkpt>
      <trkpt lat="44.90058" lon="5.6713">
        <ele>525.9783936</ele>
        <time>2017-08-03T11:36:26Z</time>
      </trkpt>
      <trkpt lat="44.90047" lon="5.671">
        <ele>529.3431396</ele>
        <time>2017-08-03T11:36:43Z</time>
      </trkpt>
      <trkpt lat="44.90046" lon="5.67099">
        <ele>529.3431396</ele>
        <time>2017-08-03T11:36:44Z</time>
      </trkpt>
      <trkpt lat="44.90045" lon="5.67096">
        <ele>529.8237305</ele>
        <time>2017-08-03T11:36:46Z</time>
      </trkpt>
      <trkpt lat="44.90052" lon="5.6707">
        <ele>533.1883545</ele>
        <time>2017-08-03T11:36:59Z</time>
      </trkpt>
      <trkpt lat="44.90059" lon="5.67058">
        <ele>534.1496582</ele>
        <time>2017-08-03T11:37:05Z</time>
      </trkpt>
      <trkpt lat="44.9009" lon="5.6704">
        <ele>537.0336914</ele>
        <time>2017-08-03T11:37:27Z</time>
      </trkpt>
      <trkpt lat="44.90121" lon="5.67023">
        <ele>538.475708</ele>
        <time>2017-08-03T11:37:44Z</time>
      </trkpt>
      <trkpt lat="44.90144" lon="5.66996">
        <ele>538.9562988</ele>
        <time>2017-08-03T11:37:58Z</time>
      </trkpt>
      <trkpt lat="44.90191" lon="5.66966">
        <ele>540.8789063</ele>
        <time>2017-08-03T11:38:19Z</time>
      </trkpt>
      <trkpt lat="44.90252" lon="5.66982">
        <ele>543.2821045</ele>
        <time>2017-08-03T11:38:43Z</time>
      </trkpt>
      <trkpt lat="44.9029" lon="5.66949">
        <ele>544.2436523</ele>
        <time>2017-08-03T11:38:59Z</time>
      </trkpt>
      <trkpt lat="44.90334" lon="5.66918">
        <ele>546.1662598</ele>
        <time>2017-08-03T11:39:16Z</time>
      </trkpt>
      <trkpt lat="44.90379" lon="5.66882">
        <ele>547.6081543</ele>
        <time>2017-08-03T11:39:34Z</time>
      </trkpt>
      <trkpt lat="44.90428" lon="5.66886">
        <ele>549.0500488</ele>
        <time>2017-08-03T11:39:49Z</time>
      </trkpt>
      <trkpt lat="44.90481" lon="5.66875">
        <ele>549.5307617</ele>
        <time>2017-08-03T11:40:05Z</time>
      </trkpt>
      <trkpt lat="44.90566" lon="5.66841">
        <ele>552.8952637</ele>
        <time>2017-08-03T11:40:32Z</time>
      </trkpt>
      <trkpt lat="44.90634" lon="5.66822">
        <ele>554.8178711</ele>
        <time>2017-08-03T11:40:53Z</time>
      </trkpt>
      <trkpt lat="44.90715" lon="5.66804">
        <ele>556.7407227</ele>
        <time>2017-08-03T11:41:17Z</time>
      </trkpt>
      <trkpt lat="44.9081" lon="5.66802">
        <ele>558.6633301</ele>
        <time>2017-08-03T11:41:46Z</time>
      </trkpt>
      <trkpt lat="44.90862" lon="5.66794">
        <ele>560.5859375</ele>
        <time>2017-08-03T11:42:02Z</time>
      </trkpt>
      <trkpt lat="44.90918" lon="5.66761">
        <ele>563.4699707</ele>
        <time>2017-08-03T11:42:20Z</time>
      </trkpt>
      <trkpt lat="44.90992" lon="5.66726">
        <ele>566.8344727</ele>
        <time>2017-08-03T11:42:44Z</time>
      </trkpt>
      <trkpt lat="44.91056" lon="5.66686">
        <ele>569.7185059</ele>
        <time>2017-08-03T11:43:06Z</time>
      </trkpt>
      <trkpt lat="44.91105" lon="5.66643">
        <ele>571.6408691</ele>
        <time>2017-08-03T11:43:23Z</time>
      </trkpt>
      <trkpt lat="44.91144" lon="5.6661">
        <ele>574.0444336</ele>
        <time>2017-08-03T11:43:37Z</time>
      </trkpt>
      <trkpt lat="44.91157" lon="5.66547">
        <ele>575.4863281</ele>
        <time>2017-08-03T11:43:52Z</time>
      </trkpt>
      <trkpt lat="44.91176" lon="5.66458">
        <ele>577.8896484</ele>
        <time>2017-08-03T11:44:12Z</time>
      </trkpt>
      <trkpt lat="44.9122" lon="5.6637">
        <ele>580.2929688</ele>
        <time>2017-08-03T11:44:36Z</time>
      </trkpt>
      <trkpt lat="44.91274" lon="5.66301">
        <ele>583.1767578</ele>
        <time>2017-08-03T11:44:58Z</time>
      </trkpt>
      <trkpt lat="44.91318" lon="5.66218">
        <ele>586.5415039</ele>
        <time>2017-08-03T11:45:21Z</time>
      </trkpt>
      <trkpt lat="44.91323" lon="5.66112">
        <ele>589.4255371</ele>
        <time>2017-08-03T11:45:44Z</time>
      </trkpt>
      <trkpt lat="44.91302" lon="5.66029">
        <ele>591.8288574</ele>
        <time>2017-08-03T11:46:04Z</time>
      </trkpt>
      <trkpt lat="44.91264" lon="5.65948">
        <ele>594.7126465</ele>
        <time>2017-08-03T11:46:26Z</time>
      </trkpt>
      <trkpt lat="44.91228" lon="5.65878">
        <ele>597.5966797</ele>
        <time>2017-08-03T11:46:45Z</time>
      </trkpt>
      <trkpt lat="44.91222" lon="5.65826">
        <ele>600.9611816</ele>
        <time>2017-08-03T11:46:58Z</time>
      </trkpt>
      <trkpt lat="44.91252" lon="5.65773">
        <ele>602.4030762</ele>
        <time>2017-08-03T11:47:14Z</time>
      </trkpt>
      <trkpt lat="44.91299" lon="5.65724">
        <ele>605.7680664</ele>
        <time>2017-08-03T11:47:36Z</time>
      </trkpt>
      <trkpt lat="44.91318" lon="5.65705">
        <ele>607.6906738</ele>
        <time>2017-08-03T11:47:48Z</time>
      </trkpt>
      <trkpt lat="44.91321" lon="5.65704">
        <ele>608.1713867</ele>
        <time>2017-08-03T11:47:52Z</time>
      </trkpt>
      <trkpt lat="44.9132" lon="5.65691">
        <ele>609.1325684</ele>
        <time>2017-08-03T11:47:58Z</time>
      </trkpt>
      <trkpt lat="44.91303" lon="5.65665">
        <ele>611.0551758</ele>
        <time>2017-08-03T11:48:10Z</time>
      </trkpt>
      <trkpt lat="44.91306" lon="5.65657">
        <ele>611.5358887</ele>
        <time>2017-08-03T11:48:14Z</time>
      </trkpt>
      <trkpt lat="44.91314" lon="5.65626">
        <ele>613.9389648</ele>
        <time>2017-08-03T11:48:29Z</time>
      </trkpt>
      <trkpt lat="44.91316" lon="5.65616">
        <ele>614.4196777</ele>
        <time>2017-08-03T11:48:34Z</time>
      </trkpt>
      <trkpt lat="44.91317" lon="5.65593">
        <ele>616.822998</ele>
        <time>2017-08-03T11:48:47Z</time>
      </trkpt>
      <trkpt lat="44.91317" lon="5.65577">
        <ele>619.2263184</ele>
        <time>2017-08-03T11:48:57Z</time>
      </trkpt>
      <trkpt lat="44.9132" lon="5.65552">
        <ele>621.6296387</ele>
        <time>2017-08-03T11:49:14Z</time>
      </trkpt>
      <trkpt lat="44.91319" lon="5.65526">
        <ele>624.9943848</ele>
        <time>2017-08-03T11:49:29Z</time>
      </trkpt>
      <trkpt lat="44.91314" lon="5.65508">
        <ele>627.3977051</ele>
        <time>2017-08-03T11:49:41Z</time>
      </trkpt>
      <trkpt lat="44.91311" lon="5.65486">
        <ele>630.762207</ele>
        <time>2017-08-03T11:49:57Z</time>
      </trkpt>
      <trkpt lat="44.91306" lon="5.65469">
        <ele>632.2041016</ele>
        <time>2017-08-03T11:50:09Z</time>
      </trkpt>
      <trkpt lat="44.91301" lon="5.65443">
        <ele>635.0881348</ele>
        <time>2017-08-03T11:50:24Z</time>
      </trkpt>
      <trkpt lat="44.91301" lon="5.65438">
        <ele>635.0881348</ele>
        <time>2017-08-03T11:50:43Z</time>
      </trkpt>
      <trkpt lat="44.91302" lon="5.65437">
        <ele>635.0881348</ele>
        <time>2017-08-03T11:51:23Z</time>
      </trkpt>
      <trkpt lat="44.91302" lon="5.65439">
        <ele>634.6074219</ele>
        <time>2017-08-03T11:52:02Z</time>
      </trkpt>
      <trkpt lat="44.91304" lon="5.65439">
        <ele>636.0495605</ele>
        <time>2017-08-03T11:52:41Z</time>
      </trkpt>
      <trkpt lat="44.91303" lon="5.65438">
        <ele>636.5302734</ele>
        <time>2017-08-03T11:53:07Z</time>
      </trkpt>
      <trkpt lat="44.91304" lon="5.65437">
        <ele>636.0495605</ele>
        <time>2017-08-03T11:53:22Z</time>
      </trkpt>
      <trkpt lat="44.91293" lon="5.65426">
        <ele>638.9335938</ele>
        <time>2017-08-03T11:53:41Z</time>
      </trkpt>
      <trkpt lat="44.91279" lon="5.65423">
        <ele>641.8173828</ele>
        <time>2017-08-03T11:54:04Z</time>
      </trkpt>
      <trkpt lat="44.91277" lon="5.65422">
        <ele>642.7788086</ele>
        <time>2017-08-03T11:54:06Z</time>
      </trkpt>
      <trkpt lat="44.91266" lon="5.6542">
        <ele>645.1818848</ele>
        <time>2017-08-03T11:54:26Z</time>
      </trkpt>
      <trkpt lat="44.91259" lon="5.65421">
        <ele>648.5463867</ele>
        <time>2017-08-03T11:54:42Z</time>
      </trkpt>
      <trkpt lat="44.91253" lon="5.65421">
        <ele>650.4692383</ele>
        <time>2017-08-03T11:55:00Z</time>
      </trkpt>
      <trkpt lat="44.91252" lon="5.65421">
        <ele>652.3918457</ele>
        <time>2017-08-03T11:55:31Z</time>
      </trkpt>
      <trkpt lat="44.91252" lon="5.65421">
        <ele>649.9885254</ele>
        <time>2017-08-03T11:55:52Z</time>
      </trkpt>
      <trkpt lat="44.91252" lon="5.65421">
        <ele>652.8725586</ele>
        <time>2017-08-03T11:55:54Z</time>
      </trkpt>
      <trkpt lat="44.91254" lon="5.65422">
        <ele>651.4304199</ele>
        <time>2017-08-03T11:56:22Z</time>
      </trkpt>
      <trkpt lat="44.91262" lon="5.65421">
        <ele>649.5078125</ele>
        <time>2017-08-03T11:56:27Z</time>
      </trkpt>
      <trkpt lat="44.91267" lon="5.6542">
        <ele>646.6240234</ele>
        <time>2017-08-03T11:56:31Z</time>
      </trkpt>
      <trkpt lat="44.91283" lon="5.65422">
        <ele>641.8173828</ele>
        <time>2017-08-03T11:56:38Z</time>
      </trkpt>
      <trkpt lat="44.91287" lon="5.65424">
        <ele>641.8173828</ele>
        <time>2017-08-03T11:56:39Z</time>
      </trkpt>
      <trkpt lat="44.91295" lon="5.65427">
        <ele>640.3754883</ele>
        <time>2017-08-03T11:56:41Z</time>
      </trkpt>
      <trkpt lat="44.91301" lon="5.65434">
        <ele>639.4140625</ele>
        <time>2017-08-03T11:56:43Z</time>
      </trkpt>
      <trkpt lat="44.91303" lon="5.65443">
        <ele>637.972168</ele>
        <time>2017-08-03T11:56:45Z</time>
      </trkpt>
      <trkpt lat="44.91305" lon="5.65464">
        <ele>635.5686035</ele>
        <time>2017-08-03T11:56:52Z</time>
      </trkpt>
      <trkpt lat="44.9131" lon="5.65492">
        <ele>633.6459961</ele>
        <time>2017-08-03T11:56:59Z</time>
      </trkpt>
      <trkpt lat="44.91311" lon="5.65503">
        <ele>631.7233887</ele>
        <time>2017-08-03T11:57:02Z</time>
      </trkpt>
      <trkpt lat="44.91314" lon="5.6553">
        <ele>626.4362793</ele>
        <time>2017-08-03T11:57:08Z</time>
      </trkpt>
      <trkpt lat="44.91314" lon="5.65534">
        <ele>626.4362793</ele>
        <time>2017-08-03T11:57:09Z</time>
      </trkpt>
      <trkpt lat="44.91314" lon="5.65564">
        <ele>623.0717773</ele>
        <time>2017-08-03T11:57:15Z</time>
      </trkpt>
      <trkpt lat="44.91314" lon="5.65566">
        <ele>623.0717773</ele>
        <time>2017-08-03T11:57:16Z</time>
      </trkpt>
      <trkpt lat="44.91314" lon="5.65571">
        <ele>622.1103516</ele>
        <time>2017-08-03T11:57:18Z</time>
      </trkpt>
      <trkpt lat="44.91312" lon="5.65611">
        <ele>618.2648926</ele>
        <time>2017-08-03T11:57:24Z</time>
      </trkpt>
      <trkpt lat="44.91305" lon="5.65641">
        <ele>615.8618164</ele>
        <time>2017-08-03T11:57:27Z</time>
      </trkpt>
      <trkpt lat="44.91304" lon="5.65651">
        <ele>613.9389648</ele>
        <time>2017-08-03T11:57:28Z</time>
      </trkpt>
      <trkpt lat="44.91317" lon="5.6569">
        <ele>611.0551758</ele>
        <time>2017-08-03T11:57:35Z</time>
      </trkpt>
      <trkpt lat="44.91321" lon="5.65688">
        <ele>611.0551758</ele>
        <time>2017-08-03T11:57:36Z</time>
      </trkpt>
      <trkpt lat="44.91327" lon="5.65681">
        <ele>612.0166016</ele>
        <time>2017-08-03T11:57:38Z</time>
      </trkpt>
      <trkpt lat="44.91331" lon="5.65677">
        <ele>612.0166016</ele>
        <time>2017-08-03T11:57:40Z</time>
      </trkpt>
      <trkpt lat="44.91334" lon="5.65673">
        <ele>612.9777832</ele>
        <time>2017-08-03T11:57:44Z</time>
      </trkpt>
      <trkpt lat="44.91343" lon="5.65663">
        <ele>614.4196777</ele>
        <time>2017-08-03T11:57:52Z</time>
      </trkpt>
      <trkpt lat="44.91358" lon="5.65634">
        <ele>615.8618164</ele>
        <time>2017-08-03T11:58:10Z</time>
      </trkpt>
      <trkpt lat="44.91374" lon="5.65594">
        <ele>619.2263184</ele>
        <time>2017-08-03T11:58:28Z</time>
      </trkpt>
      <trkpt lat="44.91397" lon="5.65546">
        <ele>622.1103516</ele>
        <time>2017-08-03T11:58:51Z</time>
      </trkpt>
      <trkpt lat="44.91437" lon="5.65516">
        <ele>625.9555664</ele>
        <time>2017-08-03T11:59:15Z</time>
      </trkpt>
      <trkpt lat="44.91475" lon="5.65514">
        <ele>628.8395996</ele>
        <time>2017-08-03T11:59:35Z</time>
      </trkpt>
      <trkpt lat="44.91512" lon="5.65525">
        <ele>631.7233887</ele>
        <time>2017-08-03T11:59:55Z</time>
      </trkpt>
      <trkpt lat="44.91544" lon="5.65535">
        <ele>634.6074219</ele>
        <time>2017-08-03T12:00:13Z</time>
      </trkpt>
      <trkpt lat="44.91582" lon="5.65542">
        <ele>637.4914551</ele>
        <time>2017-08-03T12:00:34Z</time>
      </trkpt>
      <trkpt lat="44.91619" lon="5.65538">
        <ele>640.855957</ele>
        <time>2017-08-03T12:00:55Z</time>
      </trkpt>
      <trkpt lat="44.91656" lon="5.65538">
        <ele>643.7399902</ele>
        <time>2017-08-03T12:01:15Z</time>
      </trkpt>
      <trkpt lat="44.91696" lon="5.65552">
        <ele>646.6240234</ele>
        <time>2017-08-03T12:01:36Z</time>
      </trkpt>
      <trkpt lat="44.91746" lon="5.65574">
        <ele>647.5852051</ele>
        <time>2017-08-03T12:01:59Z</time>
      </trkpt>
      <trkpt lat="44.91802" lon="5.65598">
        <ele>646.6240234</ele>
        <time>2017-08-03T12:02:15Z</time>
      </trkpt>
      <trkpt lat="44.9187" lon="5.65647">
        <ele>645.1818848</ele>
        <time>2017-08-03T12:02:29Z</time>
      </trkpt>
      <trkpt lat="44.919" lon="5.65664">
        <ele>646.1433105</ele>
        <time>2017-08-03T12:02:37Z</time>
      </trkpt>
      <trkpt lat="44.91911" lon="5.65667">
        <ele>646.1433105</ele>
        <time>2017-08-03T12:02:40Z</time>
      </trkpt>
      <trkpt lat="44.91946" lon="5.65663">
        <ele>649.9885254</ele>
        <time>2017-08-03T12:02:53Z</time>
      </trkpt>
      <trkpt lat="44.91982" lon="5.65651">
        <ele>653.3532715</ele>
        <time>2017-08-03T12:03:09Z</time>
      </trkpt>
      <trkpt lat="44.92023" lon="5.65633">
        <ele>656.2370605</ele>
        <time>2017-08-03T12:03:28Z</time>
      </trkpt>
      <trkpt lat="44.9203" lon="5.65627">
        <ele>657.6791992</ele>
        <time>2017-08-03T12:03:34Z</time>
      </trkpt>
      <trkpt lat="44.92035" lon="5.65619">
        <ele>658.6403809</ele>
        <time>2017-08-03T12:03:43Z</time>
      </trkpt>
      <trkpt lat="44.92055" lon="5.65584">
        <ele>660.5629883</ele>
        <time>2017-08-03T12:04:02Z</time>
      </trkpt>
      <trkpt lat="44.92079" lon="5.65542">
        <ele>663.4470215</ele>
        <time>2017-08-03T12:04:23Z</time>
      </trkpt>
      <trkpt lat="44.92116" lon="5.65495">
        <ele>665.3696289</ele>
        <time>2017-08-03T12:04:46Z</time>
      </trkpt>
      <trkpt lat="44.92149" lon="5.65455">
        <ele>668.734375</ele>
        <time>2017-08-03T12:05:04Z</time>
      </trkpt>
      <trkpt lat="44.92187" lon="5.6542">
        <ele>671.1376953</ele>
        <time>2017-08-03T12:05:22Z</time>
      </trkpt>
      <trkpt lat="44.92197" lon="5.65416">
        <ele>672.5795898</ele>
        <time>2017-08-03T12:05:26Z</time>
      </trkpt>
      <trkpt lat="44.92261" lon="5.654">
        <ele>676.4248047</ele>
        <time>2017-08-03T12:05:51Z</time>
      </trkpt>
      <trkpt lat="44.9231" lon="5.6541">
        <ele>679.3085938</ele>
        <time>2017-08-03T12:06:08Z</time>
      </trkpt>
      <trkpt lat="44.92367" lon="5.65429">
        <ele>681.7119141</ele>
        <time>2017-08-03T12:06:27Z</time>
      </trkpt>
      <trkpt lat="44.9242" lon="5.65446">
        <ele>684.5961914</ele>
        <time>2017-08-03T12:06:46Z</time>
      </trkpt>
      <trkpt lat="44.92471" lon="5.65456">
        <ele>687.9606934</ele>
        <time>2017-08-03T12:07:05Z</time>
      </trkpt>
      <trkpt lat="44.92527" lon="5.65446">
        <ele>690.8444824</ele>
        <time>2017-08-03T12:07:26Z</time>
      </trkpt>
      <trkpt lat="44.92586" lon="5.65445">
        <ele>694.2092285</ele>
        <time>2017-08-03T12:07:46Z</time>
      </trkpt>
      <trkpt lat="44.92627" lon="5.6545">
        <ele>697.0930176</ele>
        <time>2017-08-03T12:08:00Z</time>
      </trkpt>
      <trkpt lat="44.92706" lon="5.65452">
        <ele>700.9384766</ele>
        <time>2017-08-03T12:08:26Z</time>
      </trkpt>
      <trkpt lat="44.92745" lon="5.65462">
        <ele>703.8225098</ele>
        <time>2017-08-03T12:08:40Z</time>
      </trkpt>
      <trkpt lat="44.92783" lon="5.65444">
        <ele>705.7451172</ele>
        <time>2017-08-03T12:08:55Z</time>
      </trkpt>
      <trkpt lat="44.92823" lon="5.65401">
        <ele>708.6289063</ele>
        <time>2017-08-03T12:09:14Z</time>
      </trkpt>
      <trkpt lat="44.92857" lon="5.65342">
        <ele>711.5129395</ele>
        <time>2017-08-03T12:09:32Z</time>
      </trkpt>
      <trkpt lat="44.92892" lon="5.65271">
        <ele>714.8774414</ele>
        <time>2017-08-03T12:09:52Z</time>
      </trkpt>
      <trkpt lat="44.92925" lon="5.65208">
        <ele>718.2421875</ele>
        <time>2017-08-03T12:10:10Z</time>
      </trkpt>
      <trkpt lat="44.92957" lon="5.65155">
        <ele>720.6455078</ele>
        <time>2017-08-03T12:10:28Z</time>
      </trkpt>
      <trkpt lat="44.92988" lon="5.65122">
        <ele>722.5681152</ele>
        <time>2017-08-03T12:10:43Z</time>
      </trkpt>
      <trkpt lat="44.93006" lon="5.65104">
        <ele>724.0100098</ele>
        <time>2017-08-03T12:10:52Z</time>
      </trkpt>
      <trkpt lat="44.93011" lon="5.65099">
        <ele>724.0100098</ele>
        <time>2017-08-03T12:10:55Z</time>
      </trkpt>
      <trkpt lat="44.93012" lon="5.65098">
        <ele>724.4907227</ele>
        <time>2017-08-03T12:11:10Z</time>
      </trkpt>
      <trkpt lat="44.93014" lon="5.65097">
        <ele>724.0100098</ele>
        <time>2017-08-03T12:11:19Z</time>
      </trkpt>
      <trkpt lat="44.93014" lon="5.65097">
        <ele>724.9714355</ele>
        <time>2017-08-03T12:12:15Z</time>
      </trkpt>
      <trkpt lat="44.9302" lon="5.65091">
        <ele>724.9714355</ele>
        <time>2017-08-03T12:12:19Z</time>
      </trkpt>
      <trkpt lat="44.93057" lon="5.65059">
        <ele>726.894043</ele>
        <time>2017-08-03T12:12:37Z</time>
      </trkpt>
      <trkpt lat="44.93095" lon="5.65029">
        <ele>729.777832</ele>
        <time>2017-08-03T12:12:54Z</time>
      </trkpt>
      <trkpt lat="44.93143" lon="5.65017">
        <ele>733.1425781</ele>
        <time>2017-08-03T12:13:13Z</time>
      </trkpt>
      <trkpt lat="44.93191" lon="5.65002">
        <ele>736.0266113</ele>
        <time>2017-08-03T12:13:32Z</time>
      </trkpt>
      <trkpt lat="44.93237" lon="5.64986">
        <ele>739.3911133</ele>
        <time>2017-08-03T12:13:50Z</time>
      </trkpt>
      <trkpt lat="44.93294" lon="5.64971">
        <ele>742.2751465</ele>
        <time>2017-08-03T12:14:11Z</time>
      </trkpt>
      <trkpt lat="44.93346" lon="5.64956">
        <ele>745.1589355</ele>
        <time>2017-08-03T12:14:30Z</time>
      </trkpt>
      <trkpt lat="44.93419" lon="5.64981">
        <ele>747.5622559</ele>
        <time>2017-08-03T12:14:56Z</time>
      </trkpt>
      <trkpt lat="44.93468" lon="5.65039">
        <ele>748.5236816</ele>
        <time>2017-08-03T12:15:16Z</time>
      </trkpt>
      <trkpt lat="44.93476" lon="5.65035">
        <ele>749.9658203</ele>
        <time>2017-08-03T12:15:22Z</time>
      </trkpt>
      <trkpt lat="44.93476" lon="5.65035">
        <ele>749.9658203</ele>
        <time>2017-08-03T12:15:44Z</time>
      </trkpt>
      <trkpt lat="44.93476" lon="5.65035">
        <ele>751.8884277</ele>
        <time>2017-08-03T12:17:55Z</time>
      </trkpt>
      <trkpt lat="44.93479" lon="5.65041">
        <ele>750.927002</ele>
        <time>2017-08-03T12:18:01Z</time>
      </trkpt>
      <trkpt lat="44.93484" lon="5.65055">
        <ele>749.4851074</ele>
        <time>2017-08-03T12:18:04Z</time>
      </trkpt>
      <trkpt lat="44.93518" lon="5.65107">
        <ele>746.6010742</ele>
        <time>2017-08-03T12:18:13Z</time>
      </trkpt>
      <trkpt lat="44.93528" lon="5.65123">
        <ele>744.6782227</ele>
        <time>2017-08-03T12:18:15Z</time>
      </trkpt>
      <trkpt lat="44.93555" lon="5.65166">
        <ele>742.2751465</ele>
        <time>2017-08-03T12:18:20Z</time>
      </trkpt>
      <trkpt lat="44.93596" lon="5.65203">
        <ele>743.717041</ele>
        <time>2017-08-03T12:18:27Z</time>
      </trkpt>
      <trkpt lat="44.93607" lon="5.65206">
        <ele>743.717041</ele>
        <time>2017-08-03T12:18:29Z</time>
      </trkpt>
      <trkpt lat="44.9367" lon="5.65214">
        <ele>746.1203613</ele>
        <time>2017-08-03T12:18:44Z</time>
      </trkpt>
      <trkpt lat="44.93702" lon="5.65217">
        <ele>746.1203613</ele>
        <time>2017-08-03T12:18:54Z</time>
      </trkpt>
      <trkpt lat="44.9374" lon="5.65276">
        <ele>749.0043945</ele>
        <time>2017-08-03T12:19:10Z</time>
      </trkpt>
      <trkpt lat="44.93789" lon="5.65336">
        <ele>751.8884277</ele>
        <time>2017-08-03T12:19:31Z</time>
      </trkpt>
      <trkpt lat="44.93827" lon="5.65381">
        <ele>752.3688965</ele>
        <time>2017-08-03T12:19:49Z</time>
      </trkpt>
      <trkpt lat="44.93875" lon="5.65439">
        <ele>755.7336426</ele>
        <time>2017-08-03T12:20:12Z</time>
      </trkpt>
      <trkpt lat="44.93927" lon="5.65469">
        <ele>758.6174316</ele>
        <time>2017-08-03T12:20:32Z</time>
      </trkpt>
      <trkpt lat="44.94003" lon="5.6549">
        <ele>761.020752</ele>
        <time>2017-08-03T12:20:59Z</time>
      </trkpt>
      <trkpt lat="44.94045" lon="5.65501">
        <ele>763.4240723</ele>
        <time>2017-08-03T12:21:16Z</time>
      </trkpt>
      <trkpt lat="44.94094" lon="5.6551">
        <ele>764.385498</ele>
        <time>2017-08-03T12:21:34Z</time>
      </trkpt>
      <trkpt lat="44.9413" lon="5.65519">
        <ele>766.3081055</ele>
        <time>2017-08-03T12:21:48Z</time>
      </trkpt>
      <trkpt lat="44.94159" lon="5.65528">
        <ele>768.7114258</ele>
        <time>2017-08-03T12:22:01Z</time>
      </trkpt>
      <trkpt lat="44.94198" lon="5.65534">
        <ele>771.1147461</ele>
        <time>2017-08-03T12:22:19Z</time>
      </trkpt>
      <trkpt lat="44.94231" lon="5.65536">
        <ele>773.5180664</ele>
        <time>2017-08-03T12:22:36Z</time>
      </trkpt>
      <trkpt lat="44.9427" lon="5.65534">
        <ele>775.9211426</ele>
        <time>2017-08-03T12:22:54Z</time>
      </trkpt>
      <trkpt lat="44.94307" lon="5.65543">
        <ele>778.8051758</ele>
        <time>2017-08-03T12:23:14Z</time>
      </trkpt>
      <trkpt lat="44.94339" lon="5.65561">
        <ele>781.689209</ele>
        <time>2017-08-03T12:23:34Z</time>
      </trkpt>
      <trkpt lat="44.94362" lon="5.65574">
        <ele>783.6118164</ele>
        <time>2017-08-03T12:23:49Z</time>
      </trkpt>
      <trkpt lat="44.94397" lon="5.65582">
        <ele>786.9763184</ele>
        <time>2017-08-03T12:24:10Z</time>
      </trkpt>
      <trkpt lat="44.94429" lon="5.65586">
        <ele>789.8603516</ele>
        <time>2017-08-03T12:24:29Z</time>
      </trkpt>
      <trkpt lat="44.94461" lon="5.65592">
        <ele>792.7443848</ele>
        <time>2017-08-03T12:24:49Z</time>
      </trkpt>
      <trkpt lat="44.94467" lon="5.65592">
        <ele>793.2248535</ele>
        <time>2017-08-03T12:24:53Z</time>
      </trkpt>
      <trkpt lat="44.94485" lon="5.65594">
        <ele>794.666748</ele>
        <time>2017-08-03T12:25:05Z</time>
      </trkpt>
      <trkpt lat="44.94494" lon="5.65594">
        <ele>796.1091309</ele>
        <time>2017-08-03T12:25:10Z</time>
      </trkpt>
      <trkpt lat="44.94523" lon="5.65604">
        <ele>798.512207</ele>
        <time>2017-08-03T12:25:27Z</time>
      </trkpt>
      <trkpt lat="44.9453" lon="5.65608">
        <ele>798.512207</ele>
        <time>2017-08-03T12:25:32Z</time>
      </trkpt>
      <trkpt lat="44.94537" lon="5.65613">
        <ele>798.512207</ele>
        <time>2017-08-03T12:25:37Z</time>
      </trkpt>
      <trkpt lat="44.94538" lon="5.65614">
        <ele>798.9929199</ele>
        <time>2017-08-03T12:25:40Z</time>
      </trkpt>
      <trkpt lat="44.94552" lon="5.65616">
        <ele>799.4736328</ele>
        <time>2017-08-03T12:25:49Z</time>
      </trkpt>
      <trkpt lat="44.94559" lon="5.65636">
        <ele>799.9543457</ele>
        <time>2017-08-03T12:26:02Z</time>
      </trkpt>
      <trkpt lat="44.94559" lon="5.65636">
        <ele>800.9155273</ele>
        <time>2017-08-03T12:26:23Z</time>
      </trkpt>
      <trkpt lat="44.94559" lon="5.65636">
        <ele>803.7995605</ele>
        <time>2017-08-03T12:30:17Z</time>
      </trkpt>
      <trkpt lat="44.94559" lon="5.65636">
        <ele>803.3188477</ele>
        <time>2017-08-03T12:31:03Z</time>
      </trkpt>
      <trkpt lat="44.94559" lon="5.65636">
        <ele>804.7607422</ele>
        <time>2017-08-03T12:32:46Z</time>
      </trkpt>
      <trkpt lat="44.94559" lon="5.65636">
        <ele>804.7607422</ele>
        <time>2017-08-03T12:33:01Z</time>
      </trkpt>
      <trkpt lat="44.94557" lon="5.65624">
        <ele>804.7607422</ele>
        <time>2017-08-03T12:33:05Z</time>
      </trkpt>
      <trkpt lat="44.94581" lon="5.65609">
        <ele>806.6833496</ele>
        <time>2017-08-03T12:33:19Z</time>
      </trkpt>
      <trkpt lat="44.94588" lon="5.65606">
        <ele>806.6833496</ele>
        <time>2017-08-03T12:33:24Z</time>
      </trkpt>
      <trkpt lat="44.94619" lon="5.6558">
        <ele>809.0866699</ele>
        <time>2017-08-03T12:33:47Z</time>
      </trkpt>
      <trkpt lat="44.94625" lon="5.65577">
        <ele>809.5673828</ele>
        <time>2017-08-03T12:33:51Z</time>
      </trkpt>
      <trkpt lat="44.94643" lon="5.65566">
        <ele>811.4899902</ele>
        <time>2017-08-03T12:34:05Z</time>
      </trkpt>
      <trkpt lat="44.94648" lon="5.65562">
        <ele>811.4899902</ele>
        <time>2017-08-03T12:34:09Z</time>
      </trkpt>
      <trkpt lat="44.94661" lon="5.65553">
        <ele>813.4128418</ele>
        <time>2017-08-03T12:34:19Z</time>
      </trkpt>
      <trkpt lat="44.94681" lon="5.65543">
        <ele>815.3354492</ele>
        <time>2017-08-03T12:34:33Z</time>
      </trkpt>
      <trkpt lat="44.94684" lon="5.65541">
        <ele>814.8547363</ele>
        <time>2017-08-03T12:34:35Z</time>
      </trkpt>
      <trkpt lat="44.94688" lon="5.65539">
        <ele>815.3354492</ele>
        <time>2017-08-03T12:34:38Z</time>
      </trkpt>
      <trkpt lat="44.94716" lon="5.65527">
        <ele>818.6999512</ele>
        <time>2017-08-03T12:34:56Z</time>
      </trkpt>
      <trkpt lat="44.94722" lon="5.65526">
        <ele>819.1806641</ele>
        <time>2017-08-03T12:35:01Z</time>
      </trkpt>
      <trkpt lat="44.94729" lon="5.65523">
        <ele>819.661377</ele>
        <time>2017-08-03T12:35:05Z</time>
      </trkpt>
      <trkpt lat="44.94759" lon="5.65528">
        <ele>822.545166</ele>
        <time>2017-08-03T12:35:25Z</time>
      </trkpt>
      <trkpt lat="44.94761" lon="5.65529">
        <ele>823.0258789</ele>
        <time>2017-08-03T12:35:37Z</time>
      </trkpt>
      <trkpt lat="44.94766" lon="5.6553">
        <ele>823.5065918</ele>
        <time>2017-08-03T12:35:43Z</time>
      </trkpt>
      <trkpt lat="44.94799" lon="5.65539">
        <ele>826.8710938</ele>
        <time>2017-08-03T12:36:02Z</time>
      </trkpt>
      <trkpt lat="44.94829" lon="5.65545">
        <ele>828.7939453</ele>
        <time>2017-08-03T12:36:19Z</time>
      </trkpt>
      <trkpt lat="44.94869" lon="5.65547">
        <ele>831.1972656</ele>
        <time>2017-08-03T12:36:41Z</time>
      </trkpt>
      <trkpt lat="44.94904" lon="5.65549">
        <ele>833.1196289</ele>
        <time>2017-08-03T12:36:57Z</time>
      </trkpt>
      <trkpt lat="44.94936" lon="5.65547">
        <ele>834.5617676</ele>
        <time>2017-08-03T12:37:15Z</time>
      </trkpt>
      <trkpt lat="44.9496" lon="5.65536">
        <ele>835.0424805</ele>
        <time>2017-08-03T12:37:26Z</time>
      </trkpt>
      <trkpt lat="44.94977" lon="5.6553">
        <ele>835.5229492</ele>
        <time>2017-08-03T12:37:35Z</time>
      </trkpt>
      <trkpt lat="44.95033" lon="5.65501">
        <ele>836.9648438</ele>
        <time>2017-08-03T12:38:02Z</time>
      </trkpt>
      <trkpt lat="44.95071" lon="5.65485">
        <ele>836.9648438</ele>
        <time>2017-08-03T12:38:17Z</time>
      </trkpt>
      <trkpt lat="44.95114" lon="5.6547">
        <ele>837.9262695</ele>
        <time>2017-08-03T12:38:33Z</time>
      </trkpt>
      <trkpt lat="44.95135" lon="5.65444">
        <ele>837.4455566</ele>
        <time>2017-08-03T12:38:38Z</time>
      </trkpt>
      <trkpt lat="44.95148" lon="5.65451">
        <ele>838.4069824</ele>
        <time>2017-08-03T12:38:42Z</time>
      </trkpt>
      <trkpt lat="44.9519" lon="5.65473">
        <ele>837.9262695</ele>
        <time>2017-08-03T12:38:56Z</time>
      </trkpt>
      <trkpt lat="44.95276" lon="5.65523">
        <ele>836.484375</ele>
        <time>2017-08-03T12:39:16Z</time>
      </trkpt>
      <trkpt lat="44.95389" lon="5.65568">
        <ele>834.5617676</ele>
        <time>2017-08-03T12:39:39Z</time>
      </trkpt>
      <trkpt lat="44.95464" lon="5.65578">
        <ele>833.1196289</ele>
        <time>2017-08-03T12:39:54Z</time>
      </trkpt>
      <trkpt lat="44.95509" lon="5.65578">
        <ele>830.7165527</ele>
        <time>2017-08-03T12:40:06Z</time>
      </trkpt>
      <trkpt lat="44.95516" lon="5.65578">
        <ele>827.3518066</ele>
        <time>2017-08-03T12:40:07Z</time>
      </trkpt>
      <trkpt lat="44.95523" lon="5.65577">
        <ele>827.3518066</ele>
        <time>2017-08-03T12:40:08Z</time>
      </trkpt>
      <trkpt lat="44.95532" lon="5.65575">
        <ele>822.545166</ele>
        <time>2017-08-03T12:40:09Z</time>
      </trkpt>
      <trkpt lat="44.95542" lon="5.65573">
        <ele>822.545166</ele>
        <time>2017-08-03T12:40:10Z</time>
      </trkpt>
      <trkpt lat="44.95623" lon="5.65553">
        <ele>823.0258789</ele>
        <time>2017-08-03T12:40:22Z</time>
      </trkpt>
      <trkpt lat="44.95683" lon="5.65525">
        <ele>822.545166</ele>
        <time>2017-08-03T12:40:35Z</time>
      </trkpt>
      <trkpt lat="44.95722" lon="5.65501">
        <ele>825.4289551</ele>
        <time>2017-08-03T12:40:51Z</time>
      </trkpt>
      <trkpt lat="44.95776" lon="5.6555">
        <ele>824.4677734</ele>
        <time>2017-08-03T12:41:05Z</time>
      </trkpt>
      <trkpt lat="44.95806" lon="5.65558">
        <ele>822.545166</ele>
        <time>2017-08-03T12:41:11Z</time>
      </trkpt>
      <trkpt lat="44.95845" lon="5.65569">
        <ele>819.1806641</ele>
        <time>2017-08-03T12:41:17Z</time>
      </trkpt>
      <trkpt lat="44.95852" lon="5.65571">
        <ele>819.1806641</ele>
        <time>2017-08-03T12:41:18Z</time>
      </trkpt>
      <trkpt lat="44.9595" lon="5.65594">
        <ele>816.7773438</ele>
        <time>2017-08-03T12:41:32Z</time>
      </trkpt>
      <trkpt lat="44.96004" lon="5.65581">
        <ele>815.8161621</ele>
        <time>2017-08-03T12:41:41Z</time>
      </trkpt>
      <trkpt lat="44.96041" lon="5.6554">
        <ele>812.9321289</ele>
        <time>2017-08-03T12:41:48Z</time>
      </trkpt>
      <trkpt lat="44.96096" lon="5.65463">
        <ele>809.5673828</ele>
        <time>2017-08-03T12:41:58Z</time>
      </trkpt>
      <trkpt lat="44.96115" lon="5.65433">
        <ele>806.2026367</ele>
        <time>2017-08-03T12:42:01Z</time>
      </trkpt>
      <trkpt lat="44.96121" lon="5.65423">
        <ele>806.2026367</ele>
        <time>2017-08-03T12:42:02Z</time>
      </trkpt>
      <trkpt lat="44.96138" lon="5.65396">
        <ele>805.2414551</ele>
        <time>2017-08-03T12:42:05Z</time>
      </trkpt>
      <trkpt lat="44.96163" lon="5.65394">
        <ele>802.3574219</ele>
        <time>2017-08-03T12:42:11Z</time>
      </trkpt>
      <trkpt lat="44.96164" lon="5.65401">
        <ele>802.3574219</ele>
        <time>2017-08-03T12:42:12Z</time>
      </trkpt>
      <trkpt lat="44.96178" lon="5.65522">
        <ele>802.8381348</ele>
        <time>2017-08-03T12:42:28Z</time>
      </trkpt>
      <trkpt lat="44.96186" lon="5.65598">
        <ele>804.2802734</ele>
        <time>2017-08-03T12:42:41Z</time>
      </trkpt>
      <trkpt lat="44.962" lon="5.65599">
        <ele>804.7607422</ele>
        <time>2017-08-03T12:42:46Z</time>
      </trkpt>
      <trkpt lat="44.96244" lon="5.65574">
        <ele>807.6447754</ele>
        <time>2017-08-03T12:43:03Z</time>
      </trkpt>
      <trkpt lat="44.96254" lon="5.65568">
        <ele>809.0866699</ele>
        <time>2017-08-03T12:43:09Z</time>
      </trkpt>
      <trkpt lat="44.96277" lon="5.65559">
        <ele>811.0092773</ele>
        <time>2017-08-03T12:43:21Z</time>
      </trkpt>
      <trkpt lat="44.96302" lon="5.6555">
        <ele>812.9321289</ele>
        <time>2017-08-03T12:43:33Z</time>
      </trkpt>
      <trkpt lat="44.96336" lon="5.65539">
        <ele>814.8547363</ele>
        <time>2017-08-03T12:43:49Z</time>
      </trkpt>
      <trkpt lat="44.96363" lon="5.65533">
        <ele>815.8161621</ele>
        <time>2017-08-03T12:44:03Z</time>
      </trkpt>
      <trkpt lat="44.96394" lon="5.6553">
        <ele>817.2580566</ele>
        <time>2017-08-03T12:44:20Z</time>
      </trkpt>
      <trkpt lat="44.96417" lon="5.65533">
        <ele>817.2580566</ele>
        <time>2017-08-03T12:44:31Z</time>
      </trkpt>
      <trkpt lat="44.96443" lon="5.65535">
        <ele>817.2580566</ele>
        <time>2017-08-03T12:44:43Z</time>
      </trkpt>
      <trkpt lat="44.96488" lon="5.65538">
        <ele>819.1806641</ele>
        <time>2017-08-03T12:45:00Z</time>
      </trkpt>
      <trkpt lat="44.96537" lon="5.65545">
        <ele>817.2580566</ele>
        <time>2017-08-03T12:45:14Z</time>
      </trkpt>
      <trkpt lat="44.96576" lon="5.65552">
        <ele>814.8547363</ele>
        <time>2017-08-03T12:45:21Z</time>
      </trkpt>
      <trkpt lat="44.96602" lon="5.65558">
        <ele>813.8933105</ele>
        <time>2017-08-03T12:45:25Z</time>
      </trkpt>
      <trkpt lat="44.96614" lon="5.65562">
        <ele>812.9321289</ele>
        <time>2017-08-03T12:45:27Z</time>
      </trkpt>
      <trkpt lat="44.96632" lon="5.65567">
        <ele>811.9707031</ele>
        <time>2017-08-03T12:45:30Z</time>
      </trkpt>
      <trkpt lat="44.96659" lon="5.65574">
        <ele>812.451416</ele>
        <time>2017-08-03T12:45:35Z</time>
      </trkpt>
      <trkpt lat="44.96753" lon="5.65548">
        <ele>811.9707031</ele>
        <time>2017-08-03T12:45:51Z</time>
      </trkpt>
      <trkpt lat="44.96842" lon="5.65548">
        <ele>813.8933105</ele>
        <time>2017-08-03T12:46:11Z</time>
      </trkpt>
      <trkpt lat="44.96931" lon="5.65552">
        <ele>814.8547363</ele>
        <time>2017-08-03T12:46:36Z</time>
      </trkpt>
      <trkpt lat="44.96973" lon="5.65561">
        <ele>814.8547363</ele>
        <time>2017-08-03T12:46:51Z</time>
      </trkpt>
      <trkpt lat="44.97" lon="5.65567">
        <ele>813.8933105</ele>
        <time>2017-08-03T12:46:58Z</time>
      </trkpt>
      <trkpt lat="44.97062" lon="5.65547">
        <ele>814.8547363</ele>
        <time>2017-08-03T12:47:15Z</time>
      </trkpt>
      <trkpt lat="44.97139" lon="5.65499">
        <ele>816.2966309</ele>
        <time>2017-08-03T12:47:38Z</time>
      </trkpt>
      <trkpt lat="44.97183" lon="5.65521">
        <ele>817.7385254</ele>
        <time>2017-08-03T12:47:53Z</time>
      </trkpt>
      <trkpt lat="44.97223" lon="5.65553">
        <ele>820.6225586</ele>
        <time>2017-08-03T12:48:11Z</time>
      </trkpt>
      <trkpt lat="44.97242" lon="5.65568">
        <ele>821.1032715</ele>
        <time>2017-08-03T12:48:29Z</time>
      </trkpt>
      <trkpt lat="44.97242" lon="5.65568">
        <ele>820.1418457</ele>
        <time>2017-08-03T12:51:40Z</time>
      </trkpt>
      <trkpt lat="44.97242" lon="5.65568">
        <ele>821.5837402</ele>
        <time>2017-08-03T12:51:42Z</time>
      </trkpt>
      <trkpt lat="44.97242" lon="5.65568">
        <ele>821.5837402</ele>
        <time>2017-08-03T12:52:07Z</time>
      </trkpt>
      <trkpt lat="44.97242" lon="5.65568">
        <ele>822.545166</ele>
        <time>2017-08-03T12:53:25Z</time>
      </trkpt>
      <trkpt lat="44.97242" lon="5.65568">
        <ele>821.5837402</ele>
        <time>2017-08-03T12:53:45Z</time>
      </trkpt>
      <trkpt lat="44.97272" lon="5.6559">
        <ele>821.5837402</ele>
        <time>2017-08-03T12:53:55Z</time>
      </trkpt>
      <trkpt lat="44.97306" lon="5.65613">
        <ele>819.661377</ele>
        <time>2017-08-03T12:54:02Z</time>
      </trkpt>
      <trkpt lat="44.97338" lon="5.65636">
        <ele>815.3354492</ele>
        <time>2017-08-03T12:54:08Z</time>
      </trkpt>
      <trkpt lat="44.97343" lon="5.6564">
        <ele>815.3354492</ele>
        <time>2017-08-03T12:54:09Z</time>
      </trkpt>
      <trkpt lat="44.97358" lon="5.65654">
        <ele>812.9321289</ele>
        <time>2017-08-03T12:54:13Z</time>
      </trkpt>
      <trkpt lat="44.97368" lon="5.65664">
        <ele>811.0092773</ele>
        <time>2017-08-03T12:54:16Z</time>
      </trkpt>
      <trkpt lat="44.97374" lon="5.65671">
        <ele>809.5673828</ele>
        <time>2017-08-03T12:54:18Z</time>
      </trkpt>
      <trkpt lat="44.97392" lon="5.65692">
        <ele>806.2026367</ele>
        <time>2017-08-03T12:54:24Z</time>
      </trkpt>
      <trkpt lat="44.97422" lon="5.65714">
        <ele>802.8381348</ele>
        <time>2017-08-03T12:54:32Z</time>
      </trkpt>
      <trkpt lat="44.97429" lon="5.65721">
        <ele>801.3962402</ele>
        <time>2017-08-03T12:54:34Z</time>
      </trkpt>
      <trkpt lat="44.97453" lon="5.65742">
        <ele>798.0317383</ele>
        <time>2017-08-03T12:54:40Z</time>
      </trkpt>
      <trkpt lat="44.97455" lon="5.65745">
        <ele>798.0317383</ele>
        <time>2017-08-03T12:54:41Z</time>
      </trkpt>
      <trkpt lat="44.97455" lon="5.65745">
        <ele>796.5898438</ele>
        <time>2017-08-03T12:54:43Z</time>
      </trkpt>
      <trkpt lat="44.97455" lon="5.65745">
        <ele>796.1091309</ele>
        <time>2017-08-03T12:55:54Z</time>
      </trkpt>
      <trkpt lat="44.97472" lon="5.65763">
        <ele>794.666748</ele>
        <time>2017-08-03T12:56:05Z</time>
      </trkpt>
      <trkpt lat="44.97519" lon="5.65788">
        <ele>790.3410645</ele>
        <time>2017-08-03T12:56:13Z</time>
      </trkpt>
      <trkpt lat="44.97527" lon="5.65792">
        <ele>790.3410645</ele>
        <time>2017-08-03T12:56:14Z</time>
      </trkpt>
      <trkpt lat="44.97561" lon="5.65807">
        <ele>788.8991699</ele>
        <time>2017-08-03T12:56:18Z</time>
      </trkpt>
      <trkpt lat="44.97585" lon="5.65811">
        <ele>786.9763184</ele>
        <time>2017-08-03T12:56:21Z</time>
      </trkpt>
      <trkpt lat="44.97625" lon="5.65813">
        <ele>784.5732422</ele>
        <time>2017-08-03T12:56:27Z</time>
      </trkpt>
      <trkpt lat="44.97715" lon="5.65802">
        <ele>781.2087402</ele>
        <time>2017-08-03T12:56:41Z</time>
      </trkpt>
      <trkpt lat="44.978" lon="5.6578">
        <ele>780.7280273</ele>
        <time>2017-08-03T12:56:58Z</time>
      </trkpt>
      <trkpt lat="44.97865" lon="5.65738">
        <ele>780.2473145</ele>
        <time>2017-08-03T12:57:12Z</time>
      </trkpt>
      <trkpt lat="44.97938" lon="5.65699">
        <ele>783.1311035</ele>
        <time>2017-08-03T12:57:31Z</time>
      </trkpt>
      <trkpt lat="44.97984" lon="5.65703">
        <ele>782.6506348</ele>
        <time>2017-08-03T12:57:44Z</time>
      </trkpt>
      <trkpt lat="44.98083" lon="5.65723">
        <ele>779.7663574</ele>
        <time>2017-08-03T12:58:05Z</time>
      </trkpt>
      <trkpt lat="44.98118" lon="5.65723">
        <ele>777.84375</ele>
        <time>2017-08-03T12:58:12Z</time>
      </trkpt>
      <trkpt lat="44.98139" lon="5.65721">
        <ele>775.4404297</ele>
        <time>2017-08-03T12:58:17Z</time>
      </trkpt>
      <trkpt lat="44.98179" lon="5.65749">
        <ele>772.0759277</ele>
        <time>2017-08-03T12:58:26Z</time>
      </trkpt>
      <trkpt lat="44.98199" lon="5.65762">
        <ele>772.0759277</ele>
        <time>2017-08-03T12:58:30Z</time>
      </trkpt>
      <trkpt lat="44.98216" lon="5.65785">
        <ele>770.1533203</ele>
        <time>2017-08-03T12:58:35Z</time>
      </trkpt>
      <trkpt lat="44.9823" lon="5.65815">
        <ele>768.7114258</ele>
        <time>2017-08-03T12:58:40Z</time>
      </trkpt>
      <trkpt lat="44.98237" lon="5.65827">
        <ele>767.75</ele>
        <time>2017-08-03T12:58:42Z</time>
      </trkpt>
      <trkpt lat="44.98276" lon="5.65876">
        <ele>765.8276367</ele>
        <time>2017-08-03T12:58:52Z</time>
      </trkpt>
      <trkpt lat="44.98355" lon="5.65938">
        <ele>761.9821777</ele>
        <time>2017-08-03T12:59:06Z</time>
      </trkpt>
      <trkpt lat="44.9838" lon="5.65961">
        <ele>760.5400391</ele>
        <time>2017-08-03T12:59:10Z</time>
      </trkpt>
      <trkpt lat="44.9839" lon="5.66005">
        <ele>758.1369629</ele>
        <time>2017-08-03T12:59:14Z</time>
      </trkpt>
      <trkpt lat="44.98391" lon="5.6602">
        <ele>756.6948242</ele>
        <time>2017-08-03T12:59:15Z</time>
      </trkpt>
      <trkpt lat="44.98405" lon="5.66076">
        <ele>754.291748</ele>
        <time>2017-08-03T12:59:19Z</time>
      </trkpt>
      <trkpt lat="44.98412" lon="5.66089">
        <ele>752.3688965</ele>
        <time>2017-08-03T12:59:20Z</time>
      </trkpt>
      <trkpt lat="44.9846" lon="5.66166">
        <ele>748.5236816</ele>
        <time>2017-08-03T12:59:27Z</time>
      </trkpt>
      <trkpt lat="44.98466" lon="5.66178">
        <ele>748.5236816</ele>
        <time>2017-08-03T12:59:28Z</time>
      </trkpt>
      <trkpt lat="44.98477" lon="5.66204">
        <ele>747.081543</ele>
        <time>2017-08-03T12:59:30Z</time>
      </trkpt>
      <trkpt lat="44.98488" lon="5.6623">
        <ele>744.1977539</ele>
        <time>2017-08-03T12:59:32Z</time>
      </trkpt>
      <trkpt lat="44.98494" lon="5.66256">
        <ele>742.7558594</ele>
        <time>2017-08-03T12:59:34Z</time>
      </trkpt>
      <trkpt lat="44.98496" lon="5.66292">
        <ele>740.8330078</ele>
        <time>2017-08-03T12:59:37Z</time>
      </trkpt>
      <trkpt lat="44.98493" lon="5.663">
        <ele>740.3525391</ele>
        <time>2017-08-03T12:59:38Z</time>
      </trkpt>
      <trkpt lat="44.98492" lon="5.66326">
        <ele>739.8718262</ele>
        <time>2017-08-03T12:59:40Z</time>
      </trkpt>
      <trkpt lat="44.9849" lon="5.6635">
        <ele>738.9106445</ele>
        <time>2017-08-03T12:59:43Z</time>
      </trkpt>
      <trkpt lat="44.985" lon="5.66367">
        <ele>738.9106445</ele>
        <time>2017-08-03T12:59:47Z</time>
      </trkpt>
      <trkpt lat="44.98515" lon="5.66375">
        <ele>738.9106445</ele>
        <time>2017-08-03T12:59:50Z</time>
      </trkpt>
      <trkpt lat="44.98579" lon="5.66396">
        <ele>736.0266113</ele>
        <time>2017-08-03T13:00:03Z</time>
      </trkpt>
      <trkpt lat="44.98632" lon="5.66403">
        <ele>734.1040039</ele>
        <time>2017-08-03T13:00:10Z</time>
      </trkpt>
      <trkpt lat="44.98667" lon="5.6641">
        <ele>732.1813965</ele>
        <time>2017-08-03T13:00:14Z</time>
      </trkpt>
      <trkpt lat="44.98692" lon="5.6642">
        <ele>730.2585449</ele>
        <time>2017-08-03T13:00:17Z</time>
      </trkpt>
      <trkpt lat="44.9873" lon="5.66441">
        <ele>727.3747559</ele>
        <time>2017-08-03T13:00:21Z</time>
      </trkpt>
      <trkpt lat="44.9876" lon="5.66457">
        <ele>724.4907227</ele>
        <time>2017-08-03T13:00:24Z</time>
      </trkpt>
      <trkpt lat="44.98781" lon="5.66467">
        <ele>723.0488281</ele>
        <time>2017-08-03T13:00:26Z</time>
      </trkpt>
      <trkpt lat="44.98803" lon="5.6648">
        <ele>721.6066895</ele>
        <time>2017-08-03T13:00:28Z</time>
      </trkpt>
      <trkpt lat="44.98825" lon="5.66494">
        <ele>718.2421875</ele>
        <time>2017-08-03T13:00:30Z</time>
      </trkpt>
      <trkpt lat="44.98835" lon="5.665">
        <ele>718.2421875</ele>
        <time>2017-08-03T13:00:31Z</time>
      </trkpt>
      <trkpt lat="44.98852" lon="5.66509">
        <ele>715.8388672</ele>
        <time>2017-08-03T13:00:33Z</time>
      </trkpt>
      <trkpt lat="44.98868" lon="5.66517">
        <ele>714.3967285</ele>
        <time>2017-08-03T13:00:35Z</time>
      </trkpt>
      <trkpt lat="44.98882" lon="5.66521">
        <ele>710.0708008</ele>
        <time>2017-08-03T13:00:37Z</time>
      </trkpt>
      <trkpt lat="44.98903" lon="5.66539">
        <ele>708.1484375</ele>
        <time>2017-08-03T13:00:40Z</time>
      </trkpt>
      <trkpt lat="44.98907" lon="5.66545">
        <ele>707.1870117</ele>
        <time>2017-08-03T13:00:41Z</time>
      </trkpt>
      <trkpt lat="44.98917" lon="5.6656">
        <ele>705.2644043</ele>
        <time>2017-08-03T13:00:44Z</time>
      </trkpt>
      <trkpt lat="44.98925" lon="5.66573">
        <ele>702.861084</ele>
        <time>2017-08-03T13:00:47Z</time>
      </trkpt>
      <trkpt lat="44.98934" lon="5.6659">
        <ele>701.4191895</ele>
        <time>2017-08-03T13:00:49Z</time>
      </trkpt>
      <trkpt lat="44.98944" lon="5.66609">
        <ele>699.9770508</ele>
        <time>2017-08-03T13:00:51Z</time>
      </trkpt>
      <trkpt lat="44.98953" lon="5.66629">
        <ele>696.1318359</ele>
        <time>2017-08-03T13:00:53Z</time>
      </trkpt>
      <trkpt lat="44.98957" lon="5.6664">
        <ele>696.1318359</ele>
        <time>2017-08-03T13:00:54Z</time>
      </trkpt>
      <trkpt lat="44.98965" lon="5.66669">
        <ele>694.2092285</ele>
        <time>2017-08-03T13:00:56Z</time>
      </trkpt>
      <trkpt lat="44.98968" lon="5.66694">
        <ele>692.767334</ele>
        <time>2017-08-03T13:00:58Z</time>
      </trkpt>
      <trkpt lat="44.9897" lon="5.66733">
        <ele>690.3640137</ele>
        <time>2017-08-03T13:01:01Z</time>
      </trkpt>
      <trkpt lat="44.9897" lon="5.66744">
        <ele>689.4025879</ele>
        <time>2017-08-03T13:01:02Z</time>
      </trkpt>
      <trkpt lat="44.98975" lon="5.66771">
        <ele>687.9606934</ele>
        <time>2017-08-03T13:01:05Z</time>
      </trkpt>
      <trkpt lat="44.98979" lon="5.66787">
        <ele>684.1154785</ele>
        <time>2017-08-03T13:01:07Z</time>
      </trkpt>
      <trkpt lat="44.98982" lon="5.66794">
        <ele>684.1154785</ele>
        <time>2017-08-03T13:01:08Z</time>
      </trkpt>
      <trkpt lat="44.98987" lon="5.66807">
        <ele>681.7119141</ele>
        <time>2017-08-03T13:01:10Z</time>
      </trkpt>
      <trkpt lat="44.9899" lon="5.6681">
        <ele>680.7507324</ele>
        <time>2017-08-03T13:01:11Z</time>
      </trkpt>
      <trkpt lat="44.99005" lon="5.66821">
        <ele>678.3474121</ele>
        <time>2017-08-03T13:01:15Z</time>
      </trkpt>
      <trkpt lat="44.99011" lon="5.66825">
        <ele>676.9055176</ele>
        <time>2017-08-03T13:01:16Z</time>
      </trkpt>
      <trkpt lat="44.99029" lon="5.66842">
        <ele>675.9440918</ele>
        <time>2017-08-03T13:01:19Z</time>
      </trkpt>
      <trkpt lat="44.99041" lon="5.66858">
        <ele>673.5410156</ele>
        <time>2017-08-03T13:01:22Z</time>
      </trkpt>
      <trkpt lat="44.99041" lon="5.66858">
        <ele>673.0603027</ele>
        <time>2017-08-03T13:01:23Z</time>
      </trkpt>
      <trkpt lat="44.991" lon="5.66881">
        <ele>669.6958008</ele>
        <time>2017-08-03T13:01:30Z</time>
      </trkpt>
      <trkpt lat="44.99106" lon="5.66884">
        <ele>669.6958008</ele>
        <time>2017-08-03T13:01:31Z</time>
      </trkpt>
      <trkpt lat="44.9912" lon="5.66891">
        <ele>668.2536621</ele>
        <time>2017-08-03T13:01:33Z</time>
      </trkpt>
      <trkpt lat="44.99139" lon="5.66899">
        <ele>666.8115234</ele>
        <time>2017-08-03T13:01:36Z</time>
      </trkpt>
      <trkpt lat="44.99148" lon="5.66903">
        <ele>665.3696289</ele>
        <time>2017-08-03T13:01:38Z</time>
      </trkpt>
      <trkpt lat="44.99157" lon="5.66906">
        <ele>664.4082031</ele>
        <time>2017-08-03T13:01:40Z</time>
      </trkpt>
      <trkpt lat="44.99191" lon="5.66922">
        <ele>662.4855957</ele>
        <time>2017-08-03T13:01:46Z</time>
      </trkpt>
      <trkpt lat="44.99214" lon="5.66959">
        <ele>659.1210938</ele>
        <time>2017-08-03T13:01:51Z</time>
      </trkpt>
      <trkpt lat="44.99218" lon="5.66968">
        <ele>659.1210938</ele>
        <time>2017-08-03T13:01:52Z</time>
      </trkpt>
      <trkpt lat="44.99223" lon="5.66979">
        <ele>658.1599121</ele>
        <time>2017-08-03T13:01:53Z</time>
      </trkpt>
      <trkpt lat="44.99255" lon="5.67017">
        <ele>654.795166</ele>
        <time>2017-08-03T13:01:58Z</time>
      </trkpt>
      <trkpt lat="44.99261" lon="5.67023">
        <ele>654.795166</ele>
        <time>2017-08-03T13:01:59Z</time>
      </trkpt>
      <trkpt lat="44.99339" lon="5.67083">
        <ele>650.949707</ele>
        <time>2017-08-03T13:02:11Z</time>
      </trkpt>
      <trkpt lat="44.99345" lon="5.67088">
        <ele>650.949707</ele>
        <time>2017-08-03T13:02:12Z</time>
      </trkpt>
      <trkpt lat="44.99361" lon="5.67112">
        <ele>649.5078125</ele>
        <time>2017-08-03T13:02:15Z</time>
      </trkpt>
      <trkpt lat="44.99372" lon="5.67129">
        <ele>648.5463867</ele>
        <time>2017-08-03T13:02:17Z</time>
      </trkpt>
      <trkpt lat="44.99377" lon="5.67137">
        <ele>647.5852051</ele>
        <time>2017-08-03T13:02:18Z</time>
      </trkpt>
      <trkpt lat="44.99382" lon="5.67153">
        <ele>643.7399902</ele>
        <time>2017-08-03T13:02:21Z</time>
      </trkpt>
      <trkpt lat="44.99382" lon="5.67153">
        <ele>643.7399902</ele>
        <time>2017-08-03T13:02:22Z</time>
      </trkpt>
      <trkpt lat="44.99382" lon="5.67153">
        <ele>643.2592773</ele>
        <time>2017-08-03T13:02:31Z</time>
      </trkpt>
      <trkpt lat="44.99384" lon="5.67143">
        <ele>643.7399902</ele>
        <time>2017-08-03T13:02:39Z</time>
      </trkpt>
      <trkpt lat="44.99381" lon="5.67138">
        <ele>643.7399902</ele>
        <time>2017-08-03T13:02:41Z</time>
      </trkpt>
      <trkpt lat="44.99376" lon="5.67131">
        <ele>644.7011719</ele>
        <time>2017-08-03T13:02:44Z</time>
      </trkpt>
      <trkpt lat="44.99373" lon="5.67126">
        <ele>645.6625977</ele>
        <time>2017-08-03T13:02:46Z</time>
      </trkpt>
      <trkpt lat="44.99347" lon="5.6709">
        <ele>648.065918</ele>
        <time>2017-08-03T13:03:03Z</time>
      </trkpt>
      <trkpt lat="44.99344" lon="5.67073">
        <ele>648.5463867</ele>
        <time>2017-08-03T13:03:10Z</time>
      </trkpt>
      <trkpt lat="44.99389" lon="5.67047">
        <ele>649.0270996</ele>
        <time>2017-08-03T13:03:28Z</time>
      </trkpt>
      <trkpt lat="44.99434" lon="5.67065">
        <ele>650.4692383</ele>
        <time>2017-08-03T13:03:43Z</time>
      </trkpt>
      <trkpt lat="44.99437" lon="5.67066">
        <ele>650.949707</ele>
        <time>2017-08-03T13:03:44Z</time>
      </trkpt>
      <trkpt lat="44.99468" lon="5.67077">
        <ele>653.3532715</ele>
        <time>2017-08-03T13:04:00Z</time>
      </trkpt>
      <trkpt lat="44.99469" lon="5.67077">
        <ele>652.8725586</ele>
        <time>2017-08-03T13:04:18Z</time>
      </trkpt>
      <trkpt lat="44.9948" lon="5.67084">
        <ele>652.3918457</ele>
        <time>2017-08-03T13:04:59Z</time>
      </trkpt>
      <trkpt lat="44.99497" lon="5.67107">
        <ele>650.4692383</ele>
        <time>2017-08-03T13:05:04Z</time>
      </trkpt>
      <trkpt lat="44.99505" lon="5.67121">
        <ele>648.5463867</ele>
        <time>2017-08-03T13:05:06Z</time>
      </trkpt>
      <trkpt lat="44.99509" lon="5.67127">
        <ele>647.1044922</ele>
        <time>2017-08-03T13:05:07Z</time>
      </trkpt>
      <trkpt lat="44.99515" lon="5.67155">
        <ele>644.2207031</ele>
        <time>2017-08-03T13:05:11Z</time>
      </trkpt>
      <trkpt lat="44.9952" lon="5.67168">
        <ele>641.8173828</ele>
        <time>2017-08-03T13:05:13Z</time>
      </trkpt>
      <trkpt lat="44.99527" lon="5.67182">
        <ele>640.3754883</ele>
        <time>2017-08-03T13:05:15Z</time>
      </trkpt>
      <trkpt lat="44.99537" lon="5.67198">
        <ele>637.0107422</ele>
        <time>2017-08-03T13:05:17Z</time>
      </trkpt>
      <trkpt lat="44.99543" lon="5.67205">
        <ele>637.0107422</ele>
        <time>2017-08-03T13:05:18Z</time>
      </trkpt>
      <trkpt lat="44.99572" lon="5.67232">
        <ele>634.6074219</ele>
        <time>2017-08-03T13:05:22Z</time>
      </trkpt>
      <trkpt lat="44.99597" lon="5.67253">
        <ele>632.6848145</ele>
        <time>2017-08-03T13:05:25Z</time>
      </trkpt>
      <trkpt lat="44.99613" lon="5.67267">
        <ele>631.2429199</ele>
        <time>2017-08-03T13:05:27Z</time>
      </trkpt>
      <trkpt lat="44.99627" lon="5.67281">
        <ele>628.8395996</ele>
        <time>2017-08-03T13:05:29Z</time>
      </trkpt>
      <trkpt lat="44.99638" lon="5.67295">
        <ele>625.4748535</ele>
        <time>2017-08-03T13:05:31Z</time>
      </trkpt>
      <trkpt lat="44.99644" lon="5.67302">
        <ele>625.4748535</ele>
        <time>2017-08-03T13:05:32Z</time>
      </trkpt>
      <trkpt lat="44.99655" lon="5.67316">
        <ele>624.032959</ele>
        <time>2017-08-03T13:05:34Z</time>
      </trkpt>
      <trkpt lat="44.99666" lon="5.67332">
        <ele>622.5910645</ele>
        <time>2017-08-03T13:05:36Z</time>
      </trkpt>
      <trkpt lat="44.99684" lon="5.67358">
        <ele>620.668457</ele>
        <time>2017-08-03T13:05:39Z</time>
      </trkpt>
      <trkpt lat="44.99694" lon="5.67372">
        <ele>618.7456055</ele>
        <time>2017-08-03T13:05:41Z</time>
      </trkpt>
      <trkpt lat="44.99702" lon="5.67384">
        <ele>616.822998</ele>
        <time>2017-08-03T13:05:43Z</time>
      </trkpt>
      <trkpt lat="44.99715" lon="5.674">
        <ele>612.0166016</ele>
        <time>2017-08-03T13:05:46Z</time>
      </trkpt>
      <trkpt lat="44.99724" lon="5.67412">
        <ele>610.5744629</ele>
        <time>2017-08-03T13:05:48Z</time>
      </trkpt>
      <trkpt lat="44.99734" lon="5.67422">
        <ele>608.6518555</ele>
        <time>2017-08-03T13:05:50Z</time>
      </trkpt>
      <trkpt lat="44.99747" lon="5.67431">
        <ele>606.729248</ele>
        <time>2017-08-03T13:05:52Z</time>
      </trkpt>
      <trkpt lat="44.99754" lon="5.67436">
        <ele>605.7680664</ele>
        <time>2017-08-03T13:05:53Z</time>
      </trkpt>
      <trkpt lat="44.99767" lon="5.67447">
        <ele>602.8837891</ele>
        <time>2017-08-03T13:05:55Z</time>
      </trkpt>
      <trkpt lat="44.99779" lon="5.67459">
        <ele>600</ele>
        <time>2017-08-03T13:05:57Z</time>
      </trkpt>
      <trkpt lat="44.99784" lon="5.67464">
        <ele>598.5578613</ele>
        <time>2017-08-03T13:05:58Z</time>
      </trkpt>
      <trkpt lat="44.99801" lon="5.67481">
        <ele>594.7126465</ele>
        <time>2017-08-03T13:06:01Z</time>
      </trkpt>
      <trkpt lat="44.99807" lon="5.67487">
        <ele>594.7126465</ele>
        <time>2017-08-03T13:06:02Z</time>
      </trkpt>
      <trkpt lat="44.99835" lon="5.67515">
        <ele>591.8288574</ele>
        <time>2017-08-03T13:06:06Z</time>
      </trkpt>
      <trkpt lat="44.99844" lon="5.67521">
        <ele>590.8674316</ele>
        <time>2017-08-03T13:06:07Z</time>
      </trkpt>
      <trkpt lat="44.99859" lon="5.6753">
        <ele>588.9450684</ele>
        <time>2017-08-03T13:06:09Z</time>
      </trkpt>
      <trkpt lat="44.99871" lon="5.67535">
        <ele>587.0219727</ele>
        <time>2017-08-03T13:06:11Z</time>
      </trkpt>
      <trkpt lat="44.99881" lon="5.67535">
        <ele>585.0996094</ele>
        <time>2017-08-03T13:06:13Z</time>
      </trkpt>
      <trkpt lat="44.99902" lon="5.67532">
        <ele>582.2155762</ele>
        <time>2017-08-03T13:06:16Z</time>
      </trkpt>
      <trkpt lat="44.99918" lon="5.67528">
        <ele>580.2929688</ele>
        <time>2017-08-03T13:06:18Z</time>
      </trkpt>
      <trkpt lat="44.99942" lon="5.67523">
        <ele>577.8896484</ele>
        <time>2017-08-03T13:06:21Z</time>
      </trkpt>
      <trkpt lat="44.99955" lon="5.67522">
        <ele>575.4863281</ele>
        <time>2017-08-03T13:06:23Z</time>
      </trkpt>
      <trkpt lat="44.99962" lon="5.67521">
        <ele>574.0444336</ele>
        <time>2017-08-03T13:06:24Z</time>
      </trkpt>
      <trkpt lat="44.99981" lon="5.6752">
        <ele>572.1218262</ele>
        <time>2017-08-03T13:06:27Z</time>
      </trkpt>
      <trkpt lat="44.99988" lon="5.6752">
        <ele>570.6796875</ele>
        <time>2017-08-03T13:06:28Z</time>
      </trkpt>
      <trkpt lat="45.00001" lon="5.67519">
        <ele>568.7570801</ele>
        <time>2017-08-03T13:06:30Z</time>
      </trkpt>
      <trkpt lat="45.00013" lon="5.67519">
        <ele>566.3537598</ele>
        <time>2017-08-03T13:06:32Z</time>
      </trkpt>
      <trkpt lat="45.00027" lon="5.67519">
        <ele>564.9118652</ele>
        <time>2017-08-03T13:06:34Z</time>
      </trkpt>
      <trkpt lat="45.00035" lon="5.67519">
        <ele>563.4699707</ele>
        <time>2017-08-03T13:06:35Z</time>
      </trkpt>
      <trkpt lat="45.00064" lon="5.67523">
        <ele>560.5859375</ele>
        <time>2017-08-03T13:06:39Z</time>
      </trkpt>
      <trkpt lat="45.00071" lon="5.67523">
        <ele>558.6633301</ele>
        <time>2017-08-03T13:06:40Z</time>
      </trkpt>
      <trkpt lat="45.00105" lon="5.67553">
        <ele>555.7792969</ele>
        <time>2017-08-03T13:06:46Z</time>
      </trkpt>
      <trkpt lat="45.00133" lon="5.67582">
        <ele>553.3759766</ele>
        <time>2017-08-03T13:06:50Z</time>
      </trkpt>
      <trkpt lat="45.00155" lon="5.67602">
        <ele>551.4533691</ele>
        <time>2017-08-03T13:06:53Z</time>
      </trkpt>
      <trkpt lat="45.0018" lon="5.67635">
        <ele>550.0114746</ele>
        <time>2017-08-03T13:06:57Z</time>
      </trkpt>
      <trkpt lat="45.00222" lon="5.67666">
        <ele>548.0888672</ele>
        <time>2017-08-03T13:07:03Z</time>
      </trkpt>
      <trkpt lat="45.00243" lon="5.67682">
        <ele>547.1274414</ele>
        <time>2017-08-03T13:07:06Z</time>
      </trkpt>
      <trkpt lat="45.0029" lon="5.67708">
        <ele>545.204834</ele>
        <time>2017-08-03T13:07:15Z</time>
      </trkpt>
      <trkpt lat="45.0032" lon="5.67736">
        <ele>544.2436523</ele>
        <time>2017-08-03T13:07:21Z</time>
      </trkpt>
      <trkpt lat="45.00378" lon="5.67777">
        <ele>540.3983154</ele>
        <time>2017-08-03T13:07:30Z</time>
      </trkpt>
      <trkpt lat="45.00459" lon="5.67813">
        <ele>537.0336914</ele>
        <time>2017-08-03T13:07:42Z</time>
      </trkpt>
      <trkpt lat="45.00509" lon="5.67832">
        <ele>537.9949951</ele>
        <time>2017-08-03T13:07:54Z</time>
      </trkpt>
      <trkpt lat="45.0055" lon="5.67824">
        <ele>536.5531006</ele>
        <time>2017-08-03T13:08:09Z</time>
      </trkpt>
      <trkpt lat="45.00554" lon="5.67821">
        <ele>535.5915527</ele>
        <time>2017-08-03T13:08:10Z</time>
      </trkpt>
      <trkpt lat="45.00583" lon="5.67812">
        <ele>535.5915527</ele>
        <time>2017-08-03T13:08:20Z</time>
      </trkpt>
      <trkpt lat="45.00597" lon="5.6786">
        <ele>534.1496582</ele>
        <time>2017-08-03T13:08:31Z</time>
      </trkpt>
      <trkpt lat="45.00599" lon="5.6789">
        <ele>533.1883545</ele>
        <time>2017-08-03T13:08:35Z</time>
      </trkpt>
      <trkpt lat="45.00599" lon="5.67916">
        <ele>530.7851563</ele>
        <time>2017-08-03T13:08:38Z</time>
      </trkpt>
      <trkpt lat="45.00597" lon="5.67936">
        <ele>526.9398193</ele>
        <time>2017-08-03T13:08:41Z</time>
      </trkpt>
      <trkpt lat="45.00597" lon="5.67944">
        <ele>526.9398193</ele>
        <time>2017-08-03T13:08:42Z</time>
      </trkpt>
      <trkpt lat="45.00597" lon="5.6795">
        <ele>525.0172119</ele>
        <time>2017-08-03T13:08:43Z</time>
      </trkpt>
      <trkpt lat="45.0061" lon="5.67963">
        <ele>523.0946045</ele>
        <time>2017-08-03T13:08:48Z</time>
      </trkpt>
      <trkpt lat="45.00619" lon="5.67962">
        <ele>521.6525879</ele>
        <time>2017-08-03T13:08:52Z</time>
      </trkpt>
      <trkpt lat="45.00661" lon="5.67954">
        <ele>519.7298584</ele>
        <time>2017-08-03T13:09:00Z</time>
      </trkpt>
      <trkpt lat="45.00696" lon="5.67955">
        <ele>521.1719971</ele>
        <time>2017-08-03T13:09:09Z</time>
      </trkpt>
      <trkpt lat="45.00764" lon="5.67973">
        <ele>523.5751953</ele>
        <time>2017-08-03T13:09:27Z</time>
      </trkpt>
      <trkpt lat="45.00817" lon="5.67999">
        <ele>521.6525879</ele>
        <time>2017-08-03T13:09:38Z</time>
      </trkpt>
      <trkpt lat="45.00856" lon="5.68022">
        <ele>518.7685547</ele>
        <time>2017-08-03T13:09:44Z</time>
      </trkpt>
      <trkpt lat="45.00888" lon="5.68048">
        <ele>516.3652344</ele>
        <time>2017-08-03T13:09:48Z</time>
      </trkpt>
      <trkpt lat="45.00966" lon="5.68071">
        <ele>514.442627</ele>
        <time>2017-08-03T13:09:58Z</time>
      </trkpt>
      <trkpt lat="45.00994" lon="5.68072">
        <ele>514.9233398</ele>
        <time>2017-08-03T13:10:03Z</time>
      </trkpt>
      <trkpt lat="45.01014" lon="5.68068">
        <ele>515.8846436</ele>
        <time>2017-08-03T13:10:07Z</time>
      </trkpt>
      <trkpt lat="45.01048" lon="5.68079">
        <ele>518.2878418</ele>
        <time>2017-08-03T13:10:18Z</time>
      </trkpt>
      <trkpt lat="45.01063" lon="5.68081">
        <ele>517.3266602</ele>
        <time>2017-08-03T13:10:22Z</time>
      </trkpt>
      <trkpt lat="45.01078" lon="5.68085">
        <ele>515.8846436</ele>
        <time>2017-08-03T13:10:25Z</time>
      </trkpt>
      <trkpt lat="45.01122" lon="5.68113">
        <ele>513.4814453</ele>
        <time>2017-08-03T13:10:31Z</time>
      </trkpt>
      <trkpt lat="45.01142" lon="5.6812">
        <ele>512.0394287</ele>
        <time>2017-08-03T13:10:33Z</time>
      </trkpt>
      <trkpt lat="45.01163" lon="5.68122">
        <ele>511.0780029</ele>
        <time>2017-08-03T13:10:35Z</time>
      </trkpt>
      <trkpt lat="45.01183" lon="5.6813">
        <ele>509.6361084</ele>
        <time>2017-08-03T13:10:37Z</time>
      </trkpt>
      <trkpt lat="45.01237" lon="5.68156">
        <ele>507.713501</ele>
        <time>2017-08-03T13:10:43Z</time>
      </trkpt>
      <trkpt lat="45.01301" lon="5.68167">
        <ele>512.0394287</ele>
        <time>2017-08-03T13:10:55Z</time>
      </trkpt>
      <trkpt lat="45.01304" lon="5.68167">
        <ele>512.0394287</ele>
        <time>2017-08-03T13:10:56Z</time>
      </trkpt>
      <trkpt lat="45.01321" lon="5.68187">
        <ele>512.0394287</ele>
        <time>2017-08-03T13:11:08Z</time>
      </trkpt>
      <trkpt lat="45.01337" lon="5.68222">
        <ele>511.0780029</ele>
        <time>2017-08-03T13:11:16Z</time>
      </trkpt>
      <trkpt lat="45.0138" lon="5.68251">
        <ele>510.1166992</ele>
        <time>2017-08-03T13:11:28Z</time>
      </trkpt>
      <trkpt lat="45.01403" lon="5.68257">
        <ele>509.1553955</ele>
        <time>2017-08-03T13:11:32Z</time>
      </trkpt>
      <trkpt lat="45.01434" lon="5.68276">
        <ele>507.713501</ele>
        <time>2017-08-03T13:11:37Z</time>
      </trkpt>
      <trkpt lat="45.01455" lon="5.68299">
        <ele>506.2714844</ele>
        <time>2017-08-03T13:11:40Z</time>
      </trkpt>
      <trkpt lat="45.0148" lon="5.6832">
        <ele>503.8681641</ele>
        <time>2017-08-03T13:11:43Z</time>
      </trkpt>
      <trkpt lat="45.01516" lon="5.68329">
        <ele>502.4261475</ele>
        <time>2017-08-03T13:11:47Z</time>
      </trkpt>
      <trkpt lat="45.01525" lon="5.68332">
        <ele>502.4261475</ele>
        <time>2017-08-03T13:11:48Z</time>
      </trkpt>
      <trkpt lat="45.01552" lon="5.68357">
        <ele>501.9455566</ele>
        <time>2017-08-03T13:11:52Z</time>
      </trkpt>
      <trkpt lat="45.01573" lon="5.68346">
        <ele>500.0229492</ele>
        <time>2017-08-03T13:11:56Z</time>
      </trkpt>
      <trkpt lat="45.01585" lon="5.68343">
        <ele>499.0615234</ele>
        <time>2017-08-03T13:11:58Z</time>
      </trkpt>
      <trkpt lat="45.01613" lon="5.68347">
        <ele>497.6196289</ele>
        <time>2017-08-03T13:12:02Z</time>
      </trkpt>
      <trkpt lat="45.01638" lon="5.68386">
        <ele>496.1777344</ele>
        <time>2017-08-03T13:12:07Z</time>
      </trkpt>
      <trkpt lat="45.01664" lon="5.68409">
        <ele>496.6583252</ele>
        <time>2017-08-03T13:12:12Z</time>
      </trkpt>
      <trkpt lat="45.01691" lon="5.68435">
        <ele>496.1777344</ele>
        <time>2017-08-03T13:12:17Z</time>
      </trkpt>
      <trkpt lat="45.01723" lon="5.68444">
        <ele>497.6196289</ele>
        <time>2017-08-03T13:12:24Z</time>
      </trkpt>
      <trkpt lat="45.01732" lon="5.68444">
        <ele>498.1003418</ele>
        <time>2017-08-03T13:12:26Z</time>
      </trkpt>
      <trkpt lat="45.01756" lon="5.68448">
        <ele>498.1003418</ele>
        <time>2017-08-03T13:12:31Z</time>
      </trkpt>
      <trkpt lat="45.01785" lon="5.68459">
        <ele>498.1003418</ele>
        <time>2017-08-03T13:12:38Z</time>
      </trkpt>
      <trkpt lat="45.01797" lon="5.68467">
        <ele>498.5809326</ele>
        <time>2017-08-03T13:12:41Z</time>
      </trkpt>
      <trkpt lat="45.01831" lon="5.68505">
        <ele>500.9841309</ele>
        <time>2017-08-03T13:12:53Z</time>
      </trkpt>
      <trkpt lat="45.01861" lon="5.68528">
        <ele>502.4261475</ele>
        <time>2017-08-03T13:13:05Z</time>
      </trkpt>
      <trkpt lat="45.01896" lon="5.68551">
        <ele>503.8681641</ele>
        <time>2017-08-03T13:13:19Z</time>
      </trkpt>
      <trkpt lat="45.01903" lon="5.6856">
        <ele>502.9067383</ele>
        <time>2017-08-03T13:13:22Z</time>
      </trkpt>
      <trkpt lat="45.01916" lon="5.68569">
        <ele>501.9455566</ele>
        <time>2017-08-03T13:13:25Z</time>
      </trkpt>
      <trkpt lat="45.01944" lon="5.6858">
        <ele>500.0229492</ele>
        <time>2017-08-03T13:13:29Z</time>
      </trkpt>
      <trkpt lat="45.01987" lon="5.68635">
        <ele>497.6196289</ele>
        <time>2017-08-03T13:13:36Z</time>
      </trkpt>
      <trkpt lat="45.01991" lon="5.68644">
        <ele>498.1003418</ele>
        <time>2017-08-03T13:13:37Z</time>
      </trkpt>
      <trkpt lat="45.02012" lon="5.68691">
        <ele>499.5422363</ele>
        <time>2017-08-03T13:13:46Z</time>
      </trkpt>
      <trkpt lat="45.02017" lon="5.6872">
        <ele>499.0615234</ele>
        <time>2017-08-03T13:13:51Z</time>
      </trkpt>
      <trkpt lat="45.02023" lon="5.6879">
        <ele>501.4648438</ele>
        <time>2017-08-03T13:14:06Z</time>
      </trkpt>
      <trkpt lat="45.02052" lon="5.68816">
        <ele>504.8294678</ele>
        <time>2017-08-03T13:14:19Z</time>
      </trkpt>
      <trkpt lat="45.0207" lon="5.68833">
        <ele>507.2327881</ele>
        <time>2017-08-03T13:14:27Z</time>
      </trkpt>
      <trkpt lat="45.02102" lon="5.68835">
        <ele>506.2714844</ele>
        <time>2017-08-03T13:14:43Z</time>
      </trkpt>
      <trkpt lat="45.02108" lon="5.68828">
        <ele>503.8681641</ele>
        <time>2017-08-03T13:14:55Z</time>
      </trkpt>
      <trkpt lat="45.02123" lon="5.68808">
        <ele>503.8681641</ele>
        <time>2017-08-03T13:16:04Z</time>
      </trkpt>
      <trkpt lat="45.02139" lon="5.68799">
        <ele>502.4261475</ele>
        <time>2017-08-03T13:16:07Z</time>
      </trkpt>
      <trkpt lat="45.02162" lon="5.68802">
        <ele>501.9455566</ele>
        <time>2017-08-03T13:16:11Z</time>
      </trkpt>
      <trkpt lat="45.02182" lon="5.68809">
        <ele>500.9841309</ele>
        <time>2017-08-03T13:16:15Z</time>
      </trkpt>
      <trkpt lat="45.02203" lon="5.68826">
        <ele>501.4648438</ele>
        <time>2017-08-03T13:16:21Z</time>
      </trkpt>
      <trkpt lat="45.02226" lon="5.68821">
        <ele>501.9455566</ele>
        <time>2017-08-03T13:16:27Z</time>
      </trkpt>
      <trkpt lat="45.02248" lon="5.68827">
        <ele>501.4648438</ele>
        <time>2017-08-03T13:16:32Z</time>
      </trkpt>
      <trkpt lat="45.02266" lon="5.68853">
        <ele>501.9455566</ele>
        <time>2017-08-03T13:16:38Z</time>
      </trkpt>
      <trkpt lat="45.02278" lon="5.68873">
        <ele>501.9455566</ele>
        <time>2017-08-03T13:16:43Z</time>
      </trkpt>
      <trkpt lat="45.02311" lon="5.6888">
        <ele>499.5422363</ele>
        <time>2017-08-03T13:16:49Z</time>
      </trkpt>
      <trkpt lat="45.02347" lon="5.68877">
        <ele>496.1777344</ele>
        <time>2017-08-03T13:16:53Z</time>
      </trkpt>
      <trkpt lat="45.02356" lon="5.68877">
        <ele>496.1777344</ele>
        <time>2017-08-03T13:16:54Z</time>
      </trkpt>
      <trkpt lat="45.02384" lon="5.68886">
        <ele>497.138916</ele>
        <time>2017-08-03T13:16:58Z</time>
      </trkpt>
      <trkpt lat="45.02411" lon="5.68911">
        <ele>495.2161865</ele>
        <time>2017-08-03T13:17:02Z</time>
      </trkpt>
      <trkpt lat="45.02425" lon="5.68912">
        <ele>492.8129883</ele>
        <time>2017-08-03T13:17:04Z</time>
      </trkpt>
      <trkpt lat="45.0244" lon="5.68906">
        <ele>491.8516846</ele>
        <time>2017-08-03T13:17:06Z</time>
      </trkpt>
      <trkpt lat="45.02456" lon="5.68904">
        <ele>489.4483643</ele>
        <time>2017-08-03T13:17:08Z</time>
      </trkpt>
      <trkpt lat="45.0251" lon="5.68895">
        <ele>486.5644531</ele>
        <time>2017-08-03T13:17:16Z</time>
      </trkpt>
      <trkpt lat="45.02519" lon="5.68893">
        <ele>486.0837402</ele>
        <time>2017-08-03T13:17:17Z</time>
      </trkpt>
      <trkpt lat="45.02544" lon="5.68894">
        <ele>485.6030273</ele>
        <time>2017-08-03T13:17:20Z</time>
      </trkpt>
      <trkpt lat="45.02579" lon="5.68879">
        <ele>481.2772217</ele>
        <time>2017-08-03T13:17:24Z</time>
      </trkpt>
      <trkpt lat="45.02588" lon="5.68875">
        <ele>481.2772217</ele>
        <time>2017-08-03T13:17:25Z</time>
      </trkpt>
      <trkpt lat="45.02596" lon="5.68869">
        <ele>479.3544922</ele>
        <time>2017-08-03T13:17:26Z</time>
      </trkpt>
      <trkpt lat="45.02611" lon="5.68846">
        <ele>477.4318848</ele>
        <time>2017-08-03T13:17:29Z</time>
      </trkpt>
      <trkpt lat="45.02609" lon="5.68827">
        <ele>473.5866699</ele>
        <time>2017-08-03T13:17:31Z</time>
      </trkpt>
      <trkpt lat="45.02612" lon="5.68801">
        <ele>473.5866699</ele>
        <time>2017-08-03T13:17:32Z</time>
      </trkpt>
      <trkpt lat="45.02624" lon="5.6877">
        <ele>471.6639404</ele>
        <time>2017-08-03T13:17:34Z</time>
      </trkpt>
      <trkpt lat="45.02631" lon="5.68754">
        <ele>469.2607422</ele>
        <time>2017-08-03T13:17:35Z</time>
      </trkpt>
      <trkpt lat="45.02651" lon="5.68752">
        <ele>463.9733887</ele>
        <time>2017-08-03T13:17:38Z</time>
      </trkpt>
      <trkpt lat="45.02661" lon="5.68773">
        <ele>463.012085</ele>
        <time>2017-08-03T13:17:41Z</time>
      </trkpt>
      <trkpt lat="45.02688" lon="5.6878">
        <ele>459.647583</ele>
        <time>2017-08-03T13:17:46Z</time>
      </trkpt>
      <trkpt lat="45.02697" lon="5.68776">
        <ele>459.1668701</ele>
        <time>2017-08-03T13:17:48Z</time>
      </trkpt>
      <trkpt lat="45.02736" lon="5.68803">
        <ele>456.282959</ele>
        <time>2017-08-03T13:17:53Z</time>
      </trkpt>
      <trkpt lat="45.0275" lon="5.68829">
        <ele>454.3602295</ele>
        <time>2017-08-03T13:17:55Z</time>
      </trkpt>
      <trkpt lat="45.02791" lon="5.68888">
        <ele>443.7857666</ele>
        <time>2017-08-03T13:18:01Z</time>
      </trkpt>
      <trkpt lat="45.02798" lon="5.68888">
        <ele>443.7857666</ele>
        <time>2017-08-03T13:18:02Z</time>
      </trkpt>
      <trkpt lat="45.02807" lon="5.68886">
        <ele>443.7857666</ele>
        <time>2017-08-03T13:18:03Z</time>
      </trkpt>
      <trkpt lat="45.02833" lon="5.68914">
        <ele>441.3824463</ele>
        <time>2017-08-03T13:18:07Z</time>
      </trkpt>
      <trkpt lat="45.02867" lon="5.68964">
        <ele>442.8244629</ele>
        <time>2017-08-03T13:18:15Z</time>
      </trkpt>
      <trkpt lat="45.02912" lon="5.68983">
        <ele>439.4597168</ele>
        <time>2017-08-03T13:18:22Z</time>
      </trkpt>
      <trkpt lat="45.02923" lon="5.6898">
        <ele>439.4597168</ele>
        <time>2017-08-03T13:18:23Z</time>
      </trkpt>
      <trkpt lat="45.02953" lon="5.68982">
        <ele>434.1726074</ele>
        <time>2017-08-03T13:18:26Z</time>
      </trkpt>
      <trkpt lat="45.02962" lon="5.68985">
        <ele>434.1726074</ele>
        <time>2017-08-03T13:18:27Z</time>
      </trkpt>
      <trkpt lat="45.02982" lon="5.68988">
        <ele>430.8079834</ele>
        <time>2017-08-03T13:18:29Z</time>
      </trkpt>
      <trkpt lat="45.02993" lon="5.68992">
        <ele>430.8079834</ele>
        <time>2017-08-03T13:18:30Z</time>
      </trkpt>
      <trkpt lat="45.03015" lon="5.68999">
        <ele>428.4046631</ele>
        <time>2017-08-03T13:18:32Z</time>
      </trkpt>
      <trkpt lat="45.03025" lon="5.69002">
        <ele>426.4820557</ele>
        <time>2017-08-03T13:18:33Z</time>
      </trkpt>
      <trkpt lat="45.03047" lon="5.69002">
        <ele>423.5980225</ele>
        <time>2017-08-03T13:18:35Z</time>
      </trkpt>
      <trkpt lat="45.03072" lon="5.69002">
        <ele>421.1948242</ele>
        <time>2017-08-03T13:18:37Z</time>
      </trkpt>
      <trkpt lat="45.03097" lon="5.69002">
        <ele>418.7915039</ele>
        <time>2017-08-03T13:18:39Z</time>
      </trkpt>
      <trkpt lat="45.03121" lon="5.69008">
        <ele>416.3881836</ele>
        <time>2017-08-03T13:18:41Z</time>
      </trkpt>
      <trkpt lat="45.03138" lon="5.69024">
        <ele>414.4654541</ele>
        <time>2017-08-03T13:18:43Z</time>
      </trkpt>
      <trkpt lat="45.03155" lon="5.69025">
        <ele>413.9848633</ele>
        <time>2017-08-03T13:18:45Z</time>
      </trkpt>
      <trkpt lat="45.0317" lon="5.69025">
        <ele>413.9848633</ele>
        <time>2017-08-03T13:18:47Z</time>
      </trkpt>
      <trkpt lat="45.03203" lon="5.69031">
        <ele>414.4654541</ele>
        <time>2017-08-03T13:18:52Z</time>
      </trkpt>
      <trkpt lat="45.03222" lon="5.6903">
        <ele>413.9848633</ele>
        <time>2017-08-03T13:18:55Z</time>
      </trkpt>
      <trkpt lat="45.03236" lon="5.69033">
        <ele>412.5428467</ele>
        <time>2017-08-03T13:18:57Z</time>
      </trkpt>
      <trkpt lat="45.03251" lon="5.69043">
        <ele>411.581665</ele>
        <time>2017-08-03T13:18:59Z</time>
      </trkpt>
      <trkpt lat="45.03267" lon="5.69053">
        <ele>411.1009521</ele>
        <time>2017-08-03T13:19:01Z</time>
      </trkpt>
      <trkpt lat="45.03301" lon="5.69062">
        <ele>410.1396484</ele>
        <time>2017-08-03T13:19:05Z</time>
      </trkpt>
      <trkpt lat="45.0334" lon="5.69078">
        <ele>407.2556152</ele>
        <time>2017-08-03T13:19:10Z</time>
      </trkpt>
      <trkpt lat="45.03381" lon="5.69089">
        <ele>406.2943115</ele>
        <time>2017-08-03T13:19:15Z</time>
      </trkpt>
      <trkpt lat="45.03464" lon="5.69119">
        <ele>404.8522949</ele>
        <time>2017-08-03T13:19:26Z</time>
      </trkpt>
      <trkpt lat="45.0347" lon="5.69122">
        <ele>404.8522949</ele>
        <time>2017-08-03T13:19:27Z</time>
      </trkpt>
      <trkpt lat="45.03506" lon="5.69153">
        <ele>401.9685059</ele>
        <time>2017-08-03T13:19:33Z</time>
      </trkpt>
      <trkpt lat="45.03532" lon="5.69155">
        <ele>399.0843506</ele>
        <time>2017-08-03T13:19:36Z</time>
      </trkpt>
      <trkpt lat="45.03542" lon="5.69156">
        <ele>399.0843506</ele>
        <time>2017-08-03T13:19:37Z</time>
      </trkpt>
      <trkpt lat="45.03562" lon="5.69157">
        <ele>396.6811523</ele>
        <time>2017-08-03T13:19:39Z</time>
      </trkpt>
      <trkpt lat="45.03587" lon="5.69154">
        <ele>394.7585449</ele>
        <time>2017-08-03T13:19:41Z</time>
      </trkpt>
      <trkpt lat="45.036" lon="5.69149">
        <ele>393.7972412</ele>
        <time>2017-08-03T13:19:42Z</time>
      </trkpt>
      <trkpt lat="45.03618" lon="5.69134">
        <ele>391.8745117</ele>
        <time>2017-08-03T13:19:44Z</time>
      </trkpt>
      <trkpt lat="45.03631" lon="5.69118">
        <ele>391.3937988</ele>
        <time>2017-08-03T13:19:46Z</time>
      </trkpt>
      <trkpt lat="45.03642" lon="5.6911">
        <ele>390.913208</ele>
        <time>2017-08-03T13:19:48Z</time>
      </trkpt>
      <trkpt lat="45.03664" lon="5.69101">
        <ele>390.913208</ele>
        <time>2017-08-03T13:19:52Z</time>
      </trkpt>
      <trkpt lat="45.03679" lon="5.69102">
        <ele>390.913208</ele>
        <time>2017-08-03T13:19:54Z</time>
      </trkpt>
      <trkpt lat="45.03696" lon="5.69101">
        <ele>390.913208</ele>
        <time>2017-08-03T13:19:56Z</time>
      </trkpt>
      <trkpt lat="45.03717" lon="5.69099">
        <ele>390.4326172</ele>
        <time>2017-08-03T13:19:59Z</time>
      </trkpt>
      <trkpt lat="45.03738" lon="5.69096">
        <ele>390.4326172</ele>
        <time>2017-08-03T13:20:02Z</time>
      </trkpt>
      <trkpt lat="45.03788" lon="5.69103">
        <ele>391.3937988</ele>
        <time>2017-08-03T13:20:10Z</time>
      </trkpt>
      <trkpt lat="45.03813" lon="5.69089">
        <ele>392.3553467</ele>
        <time>2017-08-03T13:20:16Z</time>
      </trkpt>
      <trkpt lat="45.03831" lon="5.69089">
        <ele>393.3165283</ele>
        <time>2017-08-03T13:20:20Z</time>
      </trkpt>
      <trkpt lat="45.03849" lon="5.69102">
        <ele>393.3165283</ele>
        <time>2017-08-03T13:20:24Z</time>
      </trkpt>
      <trkpt lat="45.03865" lon="5.69105">
        <ele>392.3553467</ele>
        <time>2017-08-03T13:20:27Z</time>
      </trkpt>
      <trkpt lat="45.03898" lon="5.69129">
        <ele>390.4326172</ele>
        <time>2017-08-03T13:20:33Z</time>
      </trkpt>
      <trkpt lat="45.03913" lon="5.6913">
        <ele>389.4711914</ele>
        <time>2017-08-03T13:20:35Z</time>
      </trkpt>
      <trkpt lat="45.03944" lon="5.69135">
        <ele>388.5100098</ele>
        <time>2017-08-03T13:20:39Z</time>
      </trkpt>
      <trkpt lat="45.03967" lon="5.69152">
        <ele>388.5100098</ele>
        <time>2017-08-03T13:20:43Z</time>
      </trkpt>
      <trkpt lat="45.04007" lon="5.69154">
        <ele>388.9906006</ele>
        <time>2017-08-03T13:20:52Z</time>
      </trkpt>
      <trkpt lat="45.04043" lon="5.69156">
        <ele>387.548584</ele>
        <time>2017-08-03T13:21:04Z</time>
      </trkpt>
      <trkpt lat="45.04045" lon="5.69157">
        <ele>387.548584</ele>
        <time>2017-08-03T13:21:17Z</time>
      </trkpt>
      <trkpt lat="45.04063" lon="5.69174">
        <ele>387.0679932</ele>
        <time>2017-08-03T13:22:11Z</time>
      </trkpt>
      <trkpt lat="45.04093" lon="5.69183">
        <ele>386.5874023</ele>
        <time>2017-08-03T13:22:18Z</time>
      </trkpt>
      <trkpt lat="45.04143" lon="5.69225">
        <ele>388.9906006</ele>
        <time>2017-08-03T13:22:34Z</time>
      </trkpt>
      <trkpt lat="45.04169" lon="5.69249">
        <ele>389.4711914</ele>
        <time>2017-08-03T13:22:44Z</time>
      </trkpt>
      <trkpt lat="45.04234" lon="5.69284">
        <ele>386.1066895</ele>
        <time>2017-08-03T13:22:57Z</time>
      </trkpt>
      <trkpt lat="45.04267" lon="5.69301">
        <ele>383.7032471</ele>
        <time>2017-08-03T13:23:02Z</time>
      </trkpt>
      <trkpt lat="45.04321" lon="5.69321">
        <ele>380.3387451</ele>
        <time>2017-08-03T13:23:09Z</time>
      </trkpt>
      <trkpt lat="45.04332" lon="5.69321">
        <ele>380.3387451</ele>
        <time>2017-08-03T13:23:10Z</time>
      </trkpt>
      <trkpt lat="45.04353" lon="5.69324">
        <ele>378.8968506</ele>
        <time>2017-08-03T13:23:12Z</time>
      </trkpt>
      <trkpt lat="45.04381" lon="5.69331">
        <ele>375.0515137</ele>
        <time>2017-08-03T13:23:15Z</time>
      </trkpt>
      <trkpt lat="45.04398" lon="5.69339">
        <ele>372.1674805</ele>
        <time>2017-08-03T13:23:17Z</time>
      </trkpt>
      <trkpt lat="45.04414" lon="5.69341">
        <ele>369.7642822</ele>
        <time>2017-08-03T13:23:19Z</time>
      </trkpt>
      <trkpt lat="45.04429" lon="5.69341">
        <ele>367.3609619</ele>
        <time>2017-08-03T13:23:21Z</time>
      </trkpt>
      <trkpt lat="45.04442" lon="5.69333">
        <ele>362.5543213</ele>
        <time>2017-08-03T13:23:24Z</time>
      </trkpt>
      <trkpt lat="45.0445" lon="5.69321">
        <ele>360.6317139</ele>
        <time>2017-08-03T13:23:26Z</time>
      </trkpt>
      <trkpt lat="45.04452" lon="5.6931">
        <ele>359.1896973</ele>
        <time>2017-08-03T13:23:27Z</time>
      </trkpt>
      <trkpt lat="45.04457" lon="5.69265">
        <ele>354.3831787</ele>
        <time>2017-08-03T13:23:30Z</time>
      </trkpt>
      <trkpt lat="45.04461" lon="5.6925">
        <ele>354.3831787</ele>
        <time>2017-08-03T13:23:31Z</time>
      </trkpt>
      <trkpt lat="45.04469" lon="5.69217">
        <ele>350.5378418</ele>
        <time>2017-08-03T13:23:33Z</time>
      </trkpt>
      <trkpt lat="45.04472" lon="5.69201">
        <ele>346.692627</ele>
        <time>2017-08-03T13:23:34Z</time>
      </trkpt>
      <trkpt lat="45.04476" lon="5.69186">
        <ele>346.692627</ele>
        <time>2017-08-03T13:23:35Z</time>
      </trkpt>
      <trkpt lat="45.0448" lon="5.69171">
        <ele>342.84729</ele>
        <time>2017-08-03T13:23:36Z</time>
      </trkpt>
      <trkpt lat="45.04484" lon="5.69155">
        <ele>339.482666</ele>
        <time>2017-08-03T13:23:37Z</time>
      </trkpt>
      <trkpt lat="45.04504" lon="5.69144">
        <ele>337.5600586</ele>
        <time>2017-08-03T13:23:40Z</time>
      </trkpt>
      <trkpt lat="45.04515" lon="5.69143">
        <ele>335.6373291</ele>
        <time>2017-08-03T13:23:43Z</time>
      </trkpt>
      <trkpt lat="45.04547" lon="5.69081">
        <ele>338.0407715</ele>
        <time>2017-08-03T13:23:57Z</time>
      </trkpt>
      <trkpt lat="45.04601" lon="5.69014">
        <ele>340.9246826</ele>
        <time>2017-08-03T13:24:16Z</time>
      </trkpt>
      <trkpt lat="45.0465" lon="5.68928">
        <ele>340.9246826</ele>
        <time>2017-08-03T13:24:36Z</time>
      </trkpt>
      <trkpt lat="45.04717" lon="5.68776">
        <ele>340.9246826</ele>
        <time>2017-08-03T13:25:03Z</time>
      </trkpt>
      <trkpt lat="45.0479" lon="5.68643">
        <ele>339.9633789</ele>
        <time>2017-08-03T13:25:25Z</time>
      </trkpt>
      <trkpt lat="45.04828" lon="5.68574">
        <ele>338.0407715</ele>
        <time>2017-08-03T13:25:35Z</time>
      </trkpt>
      <trkpt lat="45.04887" lon="5.68489">
        <ele>335.1567383</ele>
        <time>2017-08-03T13:25:48Z</time>
      </trkpt>
      <trkpt lat="45.04952" lon="5.68402">
        <ele>331.3115234</ele>
        <time>2017-08-03T13:26:00Z</time>
      </trkpt>
      <trkpt lat="45.04973" lon="5.68372">
        <ele>330.8309326</ele>
        <time>2017-08-03T13:26:04Z</time>
      </trkpt>
      <trkpt lat="45.05027" lon="5.68249">
        <ele>329.388916</ele>
        <time>2017-08-03T13:26:20Z</time>
      </trkpt>
      <trkpt lat="45.05033" lon="5.68233">
        <ele>329.388916</ele>
        <time>2017-08-03T13:26:22Z</time>
      </trkpt>
      <trkpt lat="45.05046" lon="5.68204">
        <ele>329.388916</ele>
        <time>2017-08-03T13:26:26Z</time>
      </trkpt>
      <trkpt lat="45.05078" lon="5.68196">
        <ele>329.388916</ele>
        <time>2017-08-03T13:26:30Z</time>
      </trkpt>
      <trkpt lat="45.05086" lon="5.68184">
        <ele>329.388916</ele>
        <time>2017-08-03T13:26:32Z</time>
      </trkpt>
      <trkpt lat="45.05155" lon="5.68079">
        <ele>328.9083252</ele>
        <time>2017-08-03T13:26:49Z</time>
      </trkpt>
      <trkpt lat="45.05177" lon="5.6807">
        <ele>329.388916</ele>
        <time>2017-08-03T13:26:53Z</time>
      </trkpt>
      <trkpt lat="45.05205" lon="5.68075">
        <ele>329.388916</ele>
        <time>2017-08-03T13:26:58Z</time>
      </trkpt>
      <trkpt lat="45.05275" lon="5.68146">
        <ele>328.4276123</ele>
        <time>2017-08-03T13:27:13Z</time>
      </trkpt>
      <trkpt lat="45.05326" lon="5.68215">
        <ele>328.4276123</ele>
        <time>2017-08-03T13:27:26Z</time>
      </trkpt>
      <trkpt lat="45.05347" lon="5.68214">
        <ele>328.4276123</ele>
        <time>2017-08-03T13:27:31Z</time>
      </trkpt>
      <trkpt lat="45.05355" lon="5.68202">
        <ele>328.9083252</ele>
        <time>2017-08-03T13:27:33Z</time>
      </trkpt>
      <trkpt lat="45.05382" lon="5.68216">
        <ele>327.9467773</ele>
        <time>2017-08-03T13:27:39Z</time>
      </trkpt>
      <trkpt lat="45.05389" lon="5.68229">
        <ele>327.4661865</ele>
        <time>2017-08-03T13:27:41Z</time>
      </trkpt>
      <trkpt lat="45.0544" lon="5.68315">
        <ele>326.5048828</ele>
        <time>2017-08-03T13:27:55Z</time>
      </trkpt>
      <trkpt lat="45.05459" lon="5.68329">
        <ele>326.9855957</ele>
        <time>2017-08-03T13:27:59Z</time>
      </trkpt>
      <trkpt lat="45.05487" lon="5.68342">
        <ele>326.9855957</ele>
        <time>2017-08-03T13:28:04Z</time>
      </trkpt>
      <trkpt lat="45.05512" lon="5.68364">
        <ele>326.0241699</ele>
        <time>2017-08-03T13:28:09Z</time>
      </trkpt>
      <trkpt lat="45.05554" lon="5.68426">
        <ele>325.0629883</ele>
        <time>2017-08-03T13:28:20Z</time>
      </trkpt>
      <trkpt lat="45.05573" lon="5.6844">
        <ele>324.1015625</ele>
        <time>2017-08-03T13:28:24Z</time>
      </trkpt>
      <trkpt lat="45.05581" lon="5.68442">
        <ele>324.1015625</ele>
        <time>2017-08-03T13:28:26Z</time>
      </trkpt>
      <trkpt lat="45.05627" lon="5.68496">
        <ele>323.6209717</ele>
        <time>2017-08-03T13:28:35Z</time>
      </trkpt>
      <trkpt lat="45.05637" lon="5.68506">
        <ele>323.1403809</ele>
        <time>2017-08-03T13:28:37Z</time>
      </trkpt>
      <trkpt lat="45.05663" lon="5.68508">
        <ele>323.6209717</ele>
        <time>2017-08-03T13:28:42Z</time>
      </trkpt>
      <trkpt lat="45.05775" lon="5.68471">
        <ele>319.7756348</ele>
        <time>2017-08-03T13:29:00Z</time>
      </trkpt>
      <trkpt lat="45.05789" lon="5.68467">
        <ele>319.7756348</ele>
        <time>2017-08-03T13:29:02Z</time>
      </trkpt>
      <trkpt lat="45.0581" lon="5.68459">
        <ele>319.2950439</ele>
        <time>2017-08-03T13:29:07Z</time>
      </trkpt>
      <trkpt lat="45.05895" lon="5.68432">
        <ele>318.3336182</ele>
        <time>2017-08-03T13:29:22Z</time>
      </trkpt>
      <trkpt lat="45.05919" lon="5.68414">
        <ele>318.3336182</ele>
        <time>2017-08-03T13:29:27Z</time>
      </trkpt>
      <trkpt lat="45.06039" lon="5.68372">
        <ele>317.3724365</ele>
        <time>2017-08-03T13:29:47Z</time>
      </trkpt>
      <trkpt lat="45.06146" lon="5.68329">
        <ele>315.9304199</ele>
        <time>2017-08-03T13:30:06Z</time>
      </trkpt>
      <trkpt lat="45.06229" lon="5.68292">
        <ele>315.4498291</ele>
        <time>2017-08-03T13:30:21Z</time>
      </trkpt>
      <trkpt lat="45.06253" lon="5.68281">
        <ele>314.9691162</ele>
        <time>2017-08-03T13:30:26Z</time>
      </trkpt>
      <trkpt lat="45.06265" lon="5.68264">
        <ele>314.4884033</ele>
        <time>2017-08-03T13:30:30Z</time>
      </trkpt>
      <trkpt lat="45.06286" lon="5.68153">
        <ele>314.9691162</ele>
        <time>2017-08-03T13:30:46Z</time>
      </trkpt>
      <trkpt lat="45.06301" lon="5.68065">
        <ele>314.4884033</ele>
        <time>2017-08-03T13:30:59Z</time>
      </trkpt>
      <trkpt lat="45.06312" lon="5.68042">
        <ele>314.9691162</ele>
        <time>2017-08-03T13:31:03Z</time>
      </trkpt>
      <trkpt lat="45.06337" lon="5.68034">
        <ele>313.5272217</ele>
        <time>2017-08-03T13:31:09Z</time>
      </trkpt>
      <trkpt lat="45.06356" lon="5.68036">
        <ele>313.5272217</ele>
        <time>2017-08-03T13:31:15Z</time>
      </trkpt>
      <trkpt lat="45.0639" lon="5.67914">
        <ele>313.5272217</ele>
        <time>2017-08-03T13:31:30Z</time>
      </trkpt>
      <trkpt lat="45.0642" lon="5.67814">
        <ele>313.5272217</ele>
        <time>2017-08-03T13:31:45Z</time>
      </trkpt>
      <trkpt lat="45.06443" lon="5.67738">
        <ele>313.5272217</ele>
        <time>2017-08-03T13:31:57Z</time>
      </trkpt>
      <trkpt lat="45.06461" lon="5.67743">
        <ele>314.0078125</ele>
        <time>2017-08-03T13:32:01Z</time>
      </trkpt>
      <trkpt lat="45.0659" lon="5.67798">
        <ele>312.5657959</ele>
        <time>2017-08-03T13:32:25Z</time>
      </trkpt>
      <trkpt lat="45.06685" lon="5.67836">
        <ele>311.1237793</ele>
        <time>2017-08-03T13:32:43Z</time>
      </trkpt>
      <trkpt lat="45.06727" lon="5.67855">
        <ele>311.1237793</ele>
        <time>2017-08-03T13:32:51Z</time>
      </trkpt>
      <trkpt lat="45.06792" lon="5.67927">
        <ele>309.6818848</ele>
        <time>2017-08-03T13:33:06Z</time>
      </trkpt>
      <trkpt lat="45.06839" lon="5.67991">
        <ele>308.2398682</ele>
        <time>2017-08-03T13:33:23Z</time>
      </trkpt>
      <trkpt lat="45.06876" lon="5.68049">
        <ele>307.2785645</ele>
        <time>2017-08-03T13:33:28Z</time>
      </trkpt>
      <trkpt lat="45.06885" lon="5.68046">
        <ele>307.2785645</ele>
        <time>2017-08-03T13:33:33Z</time>
      </trkpt>
      <trkpt lat="45.06902" lon="5.68041">
        <ele>306.7978516</ele>
        <time>2017-08-03T13:33:40Z</time>
      </trkpt>
      <trkpt lat="45.06918" lon="5.68035">
        <ele>306.7978516</ele>
        <time>2017-08-03T13:33:44Z</time>
      </trkpt>
      <trkpt lat="45.0693" lon="5.68031">
        <ele>306.7978516</ele>
        <time>2017-08-03T13:33:47Z</time>
      </trkpt>
      <trkpt lat="45.06942" lon="5.68027">
        <ele>306.3172607</ele>
        <time>2017-08-03T13:33:50Z</time>
      </trkpt>
      <trkpt lat="45.06954" lon="5.68024">
        <ele>306.3172607</ele>
        <time>2017-08-03T13:33:53Z</time>
      </trkpt>
      <trkpt lat="45.06968" lon="5.68019">
        <ele>306.3172607</ele>
        <time>2017-08-03T13:33:56Z</time>
      </trkpt>
      <trkpt lat="45.06993" lon="5.68011">
        <ele>306.3172607</ele>
        <time>2017-08-03T13:34:02Z</time>
      </trkpt>
      <trkpt lat="45.07001" lon="5.68009">
        <ele>306.7978516</ele>
        <time>2017-08-03T13:34:04Z</time>
      </trkpt>
      <trkpt lat="45.07041" lon="5.67999">
        <ele>306.3172607</ele>
        <time>2017-08-03T13:34:15Z</time>
      </trkpt>
      <trkpt lat="45.07052" lon="5.67996">
        <ele>306.7978516</ele>
        <time>2017-08-03T13:34:18Z</time>
      </trkpt>
      <trkpt lat="45.07067" lon="5.67993">
        <ele>306.7978516</ele>
        <time>2017-08-03T13:34:22Z</time>
      </trkpt>
      <trkpt lat="45.0709" lon="5.67987">
        <ele>305.8366699</ele>
        <time>2017-08-03T13:34:27Z</time>
      </trkpt>
      <trkpt lat="45.07131" lon="5.67979">
        <ele>305.8366699</ele>
        <time>2017-08-03T13:34:36Z</time>
      </trkpt>
      <trkpt lat="45.07163" lon="5.67974">
        <ele>305.8366699</ele>
        <time>2017-08-03T13:34:45Z</time>
      </trkpt>
      <trkpt lat="45.07168" lon="5.67973">
        <ele>305.8366699</ele>
        <time>2017-08-03T13:34:47Z</time>
      </trkpt>
      <trkpt lat="45.07191" lon="5.6787">
        <ele>305.355957</ele>
        <time>2017-08-03T13:34:51Z</time>
      </trkpt>
      <trkpt lat="45.07197" lon="5.67876">
        <ele>305.8366699</ele>
        <time>2017-08-03T13:34:53Z</time>
      </trkpt>
      <trkpt lat="45.07215" lon="5.67894">
        <ele>306.3172607</ele>
        <time>2017-08-03T13:34:59Z</time>
      </trkpt>
      <trkpt lat="45.07223" lon="5.67933">
        <ele>305.355957</ele>
        <time>2017-08-03T13:35:04Z</time>
      </trkpt>
      <trkpt lat="45.07224" lon="5.67954">
        <ele>304.3946533</ele>
        <time>2017-08-03T13:35:06Z</time>
      </trkpt>
      <trkpt lat="45.07229" lon="5.68007">
        <ele>304.3946533</ele>
        <time>2017-08-03T13:35:11Z</time>
      </trkpt>
      <trkpt lat="45.07233" lon="5.68025">
        <ele>303.4332275</ele>
        <time>2017-08-03T13:35:13Z</time>
      </trkpt>
      <trkpt lat="45.07255" lon="5.68028">
        <ele>303.9139404</ele>
        <time>2017-08-03T13:35:18Z</time>
      </trkpt>
      <trkpt lat="45.07271" lon="5.68021">
        <ele>304.3946533</ele>
        <time>2017-08-03T13:35:22Z</time>
      </trkpt>
      <trkpt lat="45.07293" lon="5.68025">
        <ele>304.3946533</ele>
        <time>2017-08-03T13:35:27Z</time>
      </trkpt>
      <trkpt lat="45.07337" lon="5.68027">
        <ele>303.9139404</ele>
        <time>2017-08-03T13:35:36Z</time>
      </trkpt>
      <trkpt lat="45.07408" lon="5.68095">
        <ele>302.4719238</ele>
        <time>2017-08-03T13:35:51Z</time>
      </trkpt>
      <trkpt lat="45.07472" lon="5.68149">
        <ele>301.5106201</ele>
        <time>2017-08-03T13:36:02Z</time>
      </trkpt>
      <trkpt lat="45.07498" lon="5.68169">
        <ele>301.5106201</ele>
        <time>2017-08-03T13:36:07Z</time>
      </trkpt>
      <trkpt lat="45.07533" lon="5.68192">
        <ele>300.5493164</ele>
        <time>2017-08-03T13:36:14Z</time>
      </trkpt>
      <trkpt lat="45.07613" lon="5.68238">
        <ele>299.5880127</ele>
        <time>2017-08-03T13:36:28Z</time>
      </trkpt>
      <trkpt lat="45.07657" lon="5.68265">
        <ele>299.5880127</ele>
        <time>2017-08-03T13:36:36Z</time>
      </trkpt>
      <trkpt lat="45.0772" lon="5.68301">
        <ele>299.1072998</ele>
        <time>2017-08-03T13:36:47Z</time>
      </trkpt>
      <trkpt lat="45.07778" lon="5.68337">
        <ele>298.1461182</ele>
        <time>2017-08-03T13:36:57Z</time>
      </trkpt>
      <trkpt lat="45.07884" lon="5.68397">
        <ele>297.1846924</ele>
        <time>2017-08-03T13:37:16Z</time>
      </trkpt>
      <trkpt lat="45.08034" lon="5.68482">
        <ele>296.2235107</ele>
        <time>2017-08-03T13:37:42Z</time>
      </trkpt>
      <trkpt lat="45.08164" lon="5.68558">
        <ele>294.3007813</ele>
        <time>2017-08-03T13:38:05Z</time>
      </trkpt>
      <trkpt lat="45.08321" lon="5.68647">
        <ele>291.416748</ele>
        <time>2017-08-03T13:38:33Z</time>
      </trkpt>
      <trkpt lat="45.08474" lon="5.68728">
        <ele>290.9361572</ele>
        <time>2017-08-03T13:39:00Z</time>
      </trkpt>
      <trkpt lat="45.08572" lon="5.68782">
        <ele>289.9748535</ele>
        <time>2017-08-03T13:39:19Z</time>
      </trkpt>
      <trkpt lat="45.08676" lon="5.6884">
        <ele>289.0135498</ele>
        <time>2017-08-03T13:39:40Z</time>
      </trkpt>
      <trkpt lat="45.08686" lon="5.68849">
        <ele>289.0135498</ele>
        <time>2017-08-03T13:39:46Z</time>
      </trkpt>
      <trkpt lat="45.08686" lon="5.68849">
        <ele>288.532959</ele>
        <time>2017-08-03T13:39:52Z</time>
      </trkpt>
      <trkpt lat="45.08686" lon="5.68839">
        <ele>289.0135498</ele>
        <time>2017-08-03T13:39:55Z</time>
      </trkpt>
      <trkpt lat="45.08696" lon="5.68807">
        <ele>289.4941406</ele>
        <time>2017-08-03T13:40:01Z</time>
      </trkpt>
      <trkpt lat="45.08716" lon="5.68803">
        <ele>289.0135498</ele>
        <time>2017-08-03T13:40:05Z</time>
      </trkpt>
      <trkpt lat="45.08794" lon="5.68857">
        <ele>288.0522461</ele>
        <time>2017-08-03T13:40:19Z</time>
      </trkpt>
      <trkpt lat="45.08891" lon="5.68941">
        <ele>286.1295166</ele>
        <time>2017-08-03T13:40:38Z</time>
      </trkpt>
      <trkpt lat="45.08997" lon="5.69026">
        <ele>285.6488037</ele>
        <time>2017-08-03T13:40:57Z</time>
      </trkpt>
      <trkpt lat="45.09108" lon="5.69117">
        <ele>283.7261963</ele>
        <time>2017-08-03T13:41:20Z</time>
      </trkpt>
      <trkpt lat="45.0912" lon="5.69126">
        <ele>283.2456055</ele>
        <time>2017-08-03T13:41:23Z</time>
      </trkpt>
      <trkpt lat="45.09127" lon="5.69133">
        <ele>282.7650146</ele>
        <time>2017-08-03T13:41:25Z</time>
      </trkpt>
      <trkpt lat="45.09124" lon="5.69131">
        <ele>282.7650146</ele>
        <time>2017-08-03T13:41:31Z</time>
      </trkpt>
      <trkpt lat="45.09121" lon="5.69128">
        <ele>282.7650146</ele>
        <time>2017-08-03T13:41:32Z</time>
      </trkpt>
      <trkpt lat="45.09112" lon="5.69121">
        <ele>282.2843018</ele>
        <time>2017-08-03T13:41:43Z</time>
      </trkpt>
      <trkpt lat="45.09105" lon="5.69115">
        <ele>282.2843018</ele>
        <time>2017-08-03T13:42:10Z</time>
      </trkpt>
      <trkpt lat="45.09105" lon="5.69115">
        <ele>281.8035889</ele>
        <time>2017-08-03T13:42:48Z</time>
      </trkpt>
      <trkpt lat="45.09104" lon="5.69114">
        <ele>281.8035889</ele>
        <time>2017-08-03T13:43:01Z</time>
      </trkpt>
      <trkpt lat="45.09104" lon="5.69114">
        <ele>281.322998</ele>
        <time>2017-08-03T13:43:21Z</time>
      </trkpt>
      <trkpt lat="45.09104" lon="5.69114">
        <ele>281.322998</ele>
        <time>2017-08-03T13:43:46Z</time>
      </trkpt>
      <trkpt lat="45.09104" lon="5.69114">
        <ele>281.322998</ele>
        <time>2017-08-03T13:43:49Z</time>
      </trkpt>
      <trkpt lat="45.09141" lon="5.69147">
        <ele>281.8035889</ele>
        <time>2017-08-03T13:44:01Z</time>
      </trkpt>
      <trkpt lat="45.09207" lon="5.69204">
        <ele>280.8424072</ele>
        <time>2017-08-03T13:44:18Z</time>
      </trkpt>
      <trkpt lat="45.09221" lon="5.69215">
        <ele>281.322998</ele>
        <time>2017-08-03T13:44:21Z</time>
      </trkpt>
      <trkpt lat="45.09284" lon="5.69268">
        <ele>280.3616943</ele>
        <time>2017-08-03T13:44:35Z</time>
      </trkpt>
      <trkpt lat="45.09373" lon="5.69342">
        <ele>279.4002686</ele>
        <time>2017-08-03T13:44:54Z</time>
      </trkpt>
      <trkpt lat="45.09448" lon="5.69407">
        <ele>277.958252</ele>
        <time>2017-08-03T13:45:11Z</time>
      </trkpt>
      <trkpt lat="45.09519" lon="5.69475">
        <ele>276.9970703</ele>
        <time>2017-08-03T13:45:27Z</time>
      </trkpt>
      <trkpt lat="45.09613" lon="5.69576">
        <ele>275.5550537</ele>
        <time>2017-08-03T13:45:49Z</time>
      </trkpt>
      <trkpt lat="45.09669" lon="5.69633">
        <ele>275.5550537</ele>
        <time>2017-08-03T13:46:01Z</time>
      </trkpt>
      <trkpt lat="45.0969" lon="5.69652">
        <ele>275.0744629</ele>
        <time>2017-08-03T13:46:05Z</time>
      </trkpt>
      <trkpt lat="45.09721" lon="5.69679">
        <ele>274.59375</ele>
        <time>2017-08-03T13:46:11Z</time>
      </trkpt>
      <trkpt lat="45.09805" lon="5.69742">
        <ele>273.1518555</ele>
        <time>2017-08-03T13:46:28Z</time>
      </trkpt>
      <trkpt lat="45.09836" lon="5.69765">
        <ele>273.1518555</ele>
        <time>2017-08-03T13:46:36Z</time>
      </trkpt>
      <trkpt lat="45.09839" lon="5.69768">
        <ele>272.6711426</ele>
        <time>2017-08-03T13:46:40Z</time>
      </trkpt>
      <trkpt lat="45.0986" lon="5.69785">
        <ele>273.6324463</ele>
        <time>2017-08-03T13:46:48Z</time>
      </trkpt>
      <trkpt lat="45.09916" lon="5.69814">
        <ele>274.1130371</ele>
        <time>2017-08-03T13:47:01Z</time>
      </trkpt>
      <trkpt lat="45.09918" lon="5.69815">
        <ele>274.1130371</ele>
        <time>2017-08-03T13:47:03Z</time>
      </trkpt>
      <trkpt lat="45.09944" lon="5.69845">
        <ele>273.1518555</ele>
        <time>2017-08-03T13:47:09Z</time>
      </trkpt>
      <trkpt lat="45.10023" lon="5.69906">
        <ele>272.1904297</ele>
        <time>2017-08-03T13:47:23Z</time>
      </trkpt>
      <trkpt lat="45.10118" lon="5.69977">
        <ele>269.7871094</ele>
        <time>2017-08-03T13:47:41Z</time>
      </trkpt>
      <trkpt lat="45.10218" lon="5.70023">
        <ele>268.3450928</ele>
        <time>2017-08-03T13:47:58Z</time>
      </trkpt>
      <trkpt lat="45.10289" lon="5.70007">
        <ele>267.864502</ele>
        <time>2017-08-03T13:48:10Z</time>
      </trkpt>
      <trkpt lat="45.10317" lon="5.6999">
        <ele>266.9031982</ele>
        <time>2017-08-03T13:48:15Z</time>
      </trkpt>
      <trkpt lat="45.10329" lon="5.6998">
        <ele>266.9031982</ele>
        <time>2017-08-03T13:48:17Z</time>
      </trkpt>
      <trkpt lat="45.10405" lon="5.69899">
        <ele>265.4613037</ele>
        <time>2017-08-03T13:48:32Z</time>
      </trkpt>
      <trkpt lat="45.10422" lon="5.6988">
        <ele>265.9418945</ele>
        <time>2017-08-03T13:48:36Z</time>
      </trkpt>
      <trkpt lat="45.1045" lon="5.6985">
        <ele>265.4613037</ele>
        <time>2017-08-03T13:48:42Z</time>
      </trkpt>
      <trkpt lat="45.10528" lon="5.69765">
        <ele>265.4613037</ele>
        <time>2017-08-03T13:48:58Z</time>
      </trkpt>
      <trkpt lat="45.10601" lon="5.69684">
        <ele>264.9805908</ele>
        <time>2017-08-03T13:49:14Z</time>
      </trkpt>
      <trkpt lat="45.10679" lon="5.69599">
        <ele>264.0192871</ele>
        <time>2017-08-03T13:49:30Z</time>
      </trkpt>
      <trkpt lat="45.10703" lon="5.69573">
        <ele>263.5385742</ele>
        <time>2017-08-03T13:49:35Z</time>
      </trkpt>
      <trkpt lat="45.10769" lon="5.69504">
        <ele>263.0578613</ele>
        <time>2017-08-03T13:49:49Z</time>
      </trkpt>
      <trkpt lat="45.10783" lon="5.69489">
        <ele>263.0578613</ele>
        <time>2017-08-03T13:49:52Z</time>
      </trkpt>
      <trkpt lat="45.10824" lon="5.69445">
        <ele>263.0578613</ele>
        <time>2017-08-03T13:50:01Z</time>
      </trkpt>
      <trkpt lat="45.10837" lon="5.6943">
        <ele>263.0578613</ele>
        <time>2017-08-03T13:50:04Z</time>
      </trkpt>
      <trkpt lat="45.1088" lon="5.69382">
        <ele>262.5771484</ele>
        <time>2017-08-03T13:50:14Z</time>
      </trkpt>
      <trkpt lat="45.10892" lon="5.69369">
        <ele>262.5771484</ele>
        <time>2017-08-03T13:50:17Z</time>
      </trkpt>
      <trkpt lat="45.10917" lon="5.69369">
        <ele>261.6159668</ele>
        <time>2017-08-03T13:50:21Z</time>
      </trkpt>
      <trkpt lat="45.10981" lon="5.69396">
        <ele>260.654541</ele>
        <time>2017-08-03T13:50:32Z</time>
      </trkpt>
      <trkpt lat="45.10992" lon="5.69404">
        <ele>261.1352539</ele>
        <time>2017-08-03T13:50:34Z</time>
      </trkpt>
      <trkpt lat="45.11044" lon="5.69441">
        <ele>260.654541</ele>
        <time>2017-08-03T13:50:43Z</time>
      </trkpt>
      <trkpt lat="45.11059" lon="5.69465">
        <ele>260.654541</ele>
        <time>2017-08-03T13:50:47Z</time>
      </trkpt>
      <trkpt lat="45.11108" lon="5.69516">
        <ele>260.654541</ele>
        <time>2017-08-03T13:50:57Z</time>
      </trkpt>
      <trkpt lat="45.11128" lon="5.69528">
        <ele>260.654541</ele>
        <time>2017-08-03T13:51:01Z</time>
      </trkpt>
      <trkpt lat="45.11142" lon="5.69531">
        <ele>260.654541</ele>
        <time>2017-08-03T13:51:03Z</time>
      </trkpt>
      <trkpt lat="45.11165" lon="5.69518">
        <ele>260.1739502</ele>
        <time>2017-08-03T13:51:07Z</time>
      </trkpt>
      <trkpt lat="45.11195" lon="5.69493">
        <ele>260.1739502</ele>
        <time>2017-08-03T13:51:13Z</time>
      </trkpt>
      <trkpt lat="45.11224" lon="5.69491">
        <ele>259.2126465</ele>
        <time>2017-08-03T13:51:18Z</time>
      </trkpt>
      <trkpt lat="45.11253" lon="5.69499">
        <ele>260.1739502</ele>
        <time>2017-08-03T13:51:23Z</time>
      </trkpt>
      <trkpt lat="45.11268" lon="5.69502">
        <ele>259.6933594</ele>
        <time>2017-08-03T13:51:26Z</time>
      </trkpt>
      <trkpt lat="45.11329" lon="5.6952">
        <ele>259.6933594</ele>
        <time>2017-08-03T13:51:36Z</time>
      </trkpt>
      <trkpt lat="45.11349" lon="5.6953">
        <ele>259.6933594</ele>
        <time>2017-08-03T13:51:40Z</time>
      </trkpt>
      <trkpt lat="45.11386" lon="5.69532">
        <ele>260.1739502</ele>
        <time>2017-08-03T13:51:46Z</time>
      </trkpt>
      <trkpt lat="45.1143" lon="5.69557">
        <ele>260.1739502</ele>
        <time>2017-08-03T13:51:54Z</time>
      </trkpt>
      <trkpt lat="45.11466" lon="5.69583">
        <ele>259.6933594</ele>
        <time>2017-08-03T13:52:01Z</time>
      </trkpt>
      <trkpt lat="45.11493" lon="5.69592">
        <ele>259.6933594</ele>
        <time>2017-08-03T13:52:06Z</time>
      </trkpt>
      <trkpt lat="45.1152" lon="5.69601">
        <ele>259.6933594</ele>
        <time>2017-08-03T13:52:11Z</time>
      </trkpt>
      <trkpt lat="45.11536" lon="5.69618">
        <ele>259.6933594</ele>
        <time>2017-08-03T13:52:15Z</time>
      </trkpt>
      <trkpt lat="45.11571" lon="5.69634">
        <ele>259.6933594</ele>
        <time>2017-08-03T13:52:20Z</time>
      </trkpt>
      <trkpt lat="45.1165" lon="5.69628">
        <ele>259.6933594</ele>
        <time>2017-08-03T13:52:34Z</time>
      </trkpt>
      <trkpt lat="45.11673" lon="5.69614">
        <ele>258.7319336</ele>
        <time>2017-08-03T13:52:40Z</time>
      </trkpt>
      <trkpt lat="45.11681" lon="5.69609">
        <ele>259.2126465</ele>
        <time>2017-08-03T13:52:42Z</time>
      </trkpt>
      <trkpt lat="45.1169" lon="5.69604">
        <ele>258.2513428</ele>
        <time>2017-08-03T13:52:44Z</time>
      </trkpt>
      <trkpt lat="45.11681" lon="5.69571">
        <ele>259.2126465</ele>
        <time>2017-08-03T13:52:49Z</time>
      </trkpt>
      <trkpt lat="45.11684" lon="5.69557">
        <ele>259.6933594</ele>
        <time>2017-08-03T13:52:52Z</time>
      </trkpt>
      <trkpt lat="45.11693" lon="5.69525">
        <ele>259.2126465</ele>
        <time>2017-08-03T13:52:58Z</time>
      </trkpt>
      <trkpt lat="45.11761" lon="5.69479">
        <ele>258.2513428</ele>
        <time>2017-08-03T13:53:13Z</time>
      </trkpt>
      <trkpt lat="45.11776" lon="5.69469">
        <ele>258.7319336</ele>
        <time>2017-08-03T13:53:16Z</time>
      </trkpt>
      <trkpt lat="45.11801" lon="5.69456">
        <ele>258.2513428</ele>
        <time>2017-08-03T13:53:21Z</time>
      </trkpt>
      <trkpt lat="45.11833" lon="5.69451">
        <ele>257.770752</ele>
        <time>2017-08-03T13:53:27Z</time>
      </trkpt>
      <trkpt lat="45.1186" lon="5.69455">
        <ele>257.2900391</ele>
        <time>2017-08-03T13:53:32Z</time>
      </trkpt>
      <trkpt lat="45.11887" lon="5.6947">
        <ele>256.8093262</ele>
        <time>2017-08-03T13:53:38Z</time>
      </trkpt>
      <trkpt lat="45.11918" lon="5.69468">
        <ele>256.3287354</ele>
        <time>2017-08-03T13:53:45Z</time>
      </trkpt>
      <trkpt lat="45.1193" lon="5.69457">
        <ele>255.8480225</ele>
        <time>2017-08-03T13:53:49Z</time>
      </trkpt>
      <trkpt lat="45.11963" lon="5.69456">
        <ele>256.8093262</ele>
        <time>2017-08-03T13:54:01Z</time>
      </trkpt>
      <trkpt lat="45.11965" lon="5.6946">
        <ele>256.8093262</ele>
        <time>2017-08-03T13:54:02Z</time>
      </trkpt>
      <trkpt lat="45.11999" lon="5.69487">
        <ele>255.8480225</ele>
        <time>2017-08-03T13:54:10Z</time>
      </trkpt>
      <trkpt lat="45.12051" lon="5.6953">
        <ele>254.8865967</ele>
        <time>2017-08-03T13:54:22Z</time>
      </trkpt>
      <trkpt lat="45.12069" lon="5.69524">
        <ele>255.3673096</ele>
        <time>2017-08-03T13:54:27Z</time>
      </trkpt>
      <trkpt lat="45.12127" lon="5.69415">
        <ele>255.3673096</ele>
        <time>2017-08-03T13:54:48Z</time>
      </trkpt>
      <trkpt lat="45.12184" lon="5.69308">
        <ele>254.4060059</ele>
        <time>2017-08-03T13:55:06Z</time>
      </trkpt>
      <trkpt lat="45.1223" lon="5.69218">
        <ele>254.4060059</ele>
        <time>2017-08-03T13:55:24Z</time>
      </trkpt>
      <trkpt lat="45.12245" lon="5.69184">
        <ele>254.4060059</ele>
        <time>2017-08-03T13:55:36Z</time>
      </trkpt>
      <trkpt lat="45.12248" lon="5.69175">
        <ele>253.4447021</ele>
        <time>2017-08-03T13:55:48Z</time>
      </trkpt>
      <trkpt lat="45.12248" lon="5.69175">
        <ele>253.4447021</ele>
        <time>2017-08-03T13:56:10Z</time>
      </trkpt>
      <trkpt lat="45.1225" lon="5.6917">
        <ele>252.9639893</ele>
        <time>2017-08-03T13:56:56Z</time>
      </trkpt>
      <trkpt lat="45.12265" lon="5.69192">
        <ele>252.4833984</ele>
        <time>2017-08-03T13:57:01Z</time>
      </trkpt>
      <trkpt lat="45.12297" lon="5.69197">
        <ele>250.0802002</ele>
        <time>2017-08-03T13:57:08Z</time>
      </trkpt>
      <trkpt lat="45.12316" lon="5.69177">
        <ele>250.0802002</ele>
        <time>2017-08-03T13:57:12Z</time>
      </trkpt>
      <trkpt lat="45.1233" lon="5.69163">
        <ele>250.0802002</ele>
        <time>2017-08-03T13:57:15Z</time>
      </trkpt>
      <trkpt lat="45.12342" lon="5.69151">
        <ele>249.5994873</ele>
        <time>2017-08-03T13:57:18Z</time>
      </trkpt>
      <trkpt lat="45.12376" lon="5.69105">
        <ele>249.1187744</ele>
        <time>2017-08-03T13:57:27Z</time>
      </trkpt>
      <trkpt lat="45.12403" lon="5.69081">
        <ele>249.1187744</ele>
        <time>2017-08-03T13:57:34Z</time>
      </trkpt>
      <trkpt lat="45.12445" lon="5.69046">
        <ele>246.7154541</ele>
        <time>2017-08-03T13:57:42Z</time>
      </trkpt>
      <trkpt lat="45.12485" lon="5.69002">
        <ele>246.2348633</ele>
        <time>2017-08-03T13:57:50Z</time>
      </trkpt>
      <trkpt lat="45.125" lon="5.68977">
        <ele>246.2348633</ele>
        <time>2017-08-03T13:57:55Z</time>
      </trkpt>
      <trkpt lat="45.12519" lon="5.6896">
        <ele>246.2348633</ele>
        <time>2017-08-03T13:57:59Z</time>
      </trkpt>
      <trkpt lat="45.12539" lon="5.68941">
        <ele>247.1960449</ele>
        <time>2017-08-03T13:58:04Z</time>
      </trkpt>
      <trkpt lat="45.12565" lon="5.68898">
        <ele>248.1575928</ele>
        <time>2017-08-03T13:58:13Z</time>
      </trkpt>
      <trkpt lat="45.12585" lon="5.68884">
        <ele>247.6767578</ele>
        <time>2017-08-03T13:58:23Z</time>
      </trkpt>
      <trkpt lat="45.12619" lon="5.68865">
        <ele>247.6767578</ele>
        <time>2017-08-03T13:58:35Z</time>
      </trkpt>
      <trkpt lat="45.12641" lon="5.68854">
        <ele>247.1960449</ele>
        <time>2017-08-03T13:58:43Z</time>
      </trkpt>
      <trkpt lat="45.12678" lon="5.68844">
        <ele>247.6767578</ele>
        <time>2017-08-03T13:58:54Z</time>
      </trkpt>
      <trkpt lat="45.12732" lon="5.68838">
        <ele>247.6767578</ele>
        <time>2017-08-03T13:59:06Z</time>
      </trkpt>
      <trkpt lat="45.12754" lon="5.68839">
        <ele>247.1960449</ele>
        <time>2017-08-03T13:59:10Z</time>
      </trkpt>
      <trkpt lat="45.12793" lon="5.68842">
        <ele>246.2348633</ele>
        <time>2017-08-03T13:59:17Z</time>
      </trkpt>
      <trkpt lat="45.12811" lon="5.68844">
        <ele>246.7154541</ele>
        <time>2017-08-03T13:59:21Z</time>
      </trkpt>
      <trkpt lat="45.12838" lon="5.68848">
        <ele>246.7154541</ele>
        <time>2017-08-03T13:59:26Z</time>
      </trkpt>
      <trkpt lat="45.12857" lon="5.68849">
        <ele>247.1960449</ele>
        <time>2017-08-03T13:59:30Z</time>
      </trkpt>
      <trkpt lat="45.12878" lon="5.68851">
        <ele>247.1960449</ele>
        <time>2017-08-03T13:59:34Z</time>
      </trkpt>
      <trkpt lat="45.12892" lon="5.68851">
        <ele>246.7154541</ele>
        <time>2017-08-03T13:59:37Z</time>
      </trkpt>
      <trkpt lat="45.12919" lon="5.6885">
        <ele>246.7154541</ele>
        <time>2017-08-03T13:59:42Z</time>
      </trkpt>
      <trkpt lat="45.12979" lon="5.68844">
        <ele>246.7154541</ele>
        <time>2017-08-03T13:59:54Z</time>
      </trkpt>
      <trkpt lat="45.13049" lon="5.68838">
        <ele>246.2348633</ele>
        <time>2017-08-03T14:00:08Z</time>
      </trkpt>
      <trkpt lat="45.13084" lon="5.68835">
        <ele>245.7541504</ele>
        <time>2017-08-03T14:00:15Z</time>
      </trkpt>
      <trkpt lat="45.13095" lon="5.68835">
        <ele>246.2348633</ele>
        <time>2017-08-03T14:00:17Z</time>
      </trkpt>
      <trkpt lat="45.13105" lon="5.68834">
        <ele>246.2348633</ele>
        <time>2017-08-03T14:00:19Z</time>
      </trkpt>
      <trkpt lat="45.13115" lon="5.68834">
        <ele>246.2348633</ele>
        <time>2017-08-03T14:00:21Z</time>
      </trkpt>
      <trkpt lat="45.13184" lon="5.68834">
        <ele>245.2734375</ele>
        <time>2017-08-03T14:00:35Z</time>
      </trkpt>
      <trkpt lat="45.13195" lon="5.68833">
        <ele>245.2734375</ele>
        <time>2017-08-03T14:00:37Z</time>
      </trkpt>
      <trkpt lat="45.13226" lon="5.68834">
        <ele>244.3122559</ele>
        <time>2017-08-03T14:00:43Z</time>
      </trkpt>
      <trkpt lat="45.13248" lon="5.68833">
        <ele>244.3122559</ele>
        <time>2017-08-03T14:00:47Z</time>
      </trkpt>
      <trkpt lat="45.13304" lon="5.68827">
        <ele>245.7541504</ele>
        <time>2017-08-03T14:01:00Z</time>
      </trkpt>
      <trkpt lat="45.13352" lon="5.68814">
        <ele>245.2734375</ele>
        <time>2017-08-03T14:01:11Z</time>
      </trkpt>
      <trkpt lat="45.13387" lon="5.68798">
        <ele>245.2734375</ele>
        <time>2017-08-03T14:01:19Z</time>
      </trkpt>
      <trkpt lat="45.13408" lon="5.6879">
        <ele>245.2734375</ele>
        <time>2017-08-03T14:01:23Z</time>
      </trkpt>
      <trkpt lat="45.13486" lon="5.68761">
        <ele>244.3122559</ele>
        <time>2017-08-03T14:01:38Z</time>
      </trkpt>
      <trkpt lat="45.13495" lon="5.68758">
        <ele>244.3122559</ele>
        <time>2017-08-03T14:01:40Z</time>
      </trkpt>
      <trkpt lat="45.13526" lon="5.68747">
        <ele>244.3122559</ele>
        <time>2017-08-03T14:01:47Z</time>
      </trkpt>
      <trkpt lat="45.13582" lon="5.68726">
        <ele>244.7928467</ele>
        <time>2017-08-03T14:01:59Z</time>
      </trkpt>
      <trkpt lat="45.13647" lon="5.68695">
        <ele>243.3508301</ele>
        <time>2017-08-03T14:02:13Z</time>
      </trkpt>
      <trkpt lat="45.13676" lon="5.68681">
        <ele>243.3508301</ele>
        <time>2017-08-03T14:02:20Z</time>
      </trkpt>
      <trkpt lat="45.13696" lon="5.68672">
        <ele>243.3508301</ele>
        <time>2017-08-03T14:02:25Z</time>
      </trkpt>
      <trkpt lat="45.13751" lon="5.68644">
        <ele>243.3508301</ele>
        <time>2017-08-03T14:02:37Z</time>
      </trkpt>
      <trkpt lat="45.13764" lon="5.68637">
        <ele>243.3508301</ele>
        <time>2017-08-03T14:02:40Z</time>
      </trkpt>
      <trkpt lat="45.13784" lon="5.6863">
        <ele>242.3896484</ele>
        <time>2017-08-03T14:02:44Z</time>
      </trkpt>
      <trkpt lat="45.13802" lon="5.6863">
        <ele>242.3896484</ele>
        <time>2017-08-03T14:02:48Z</time>
      </trkpt>
      <trkpt lat="45.13812" lon="5.68635">
        <ele>241.9089355</ele>
        <time>2017-08-03T14:02:50Z</time>
      </trkpt>
      <trkpt lat="45.13827" lon="5.68639">
        <ele>241.4282227</ele>
        <time>2017-08-03T14:02:53Z</time>
      </trkpt>
      <trkpt lat="45.13921" lon="5.68656">
        <ele>239.5054932</ele>
        <time>2017-08-03T14:03:09Z</time>
      </trkpt>
      <trkpt lat="45.13944" lon="5.68655">
        <ele>239.5054932</ele>
        <time>2017-08-03T14:03:13Z</time>
      </trkpt>
      <trkpt lat="45.14041" lon="5.68661">
        <ele>238.0635986</ele>
        <time>2017-08-03T14:03:30Z</time>
      </trkpt>
      <trkpt lat="45.14131" lon="5.68682">
        <ele>239.0249023</ele>
        <time>2017-08-03T14:03:49Z</time>
      </trkpt>
      <trkpt lat="45.14138" lon="5.68684">
        <ele>238.5443115</ele>
        <time>2017-08-03T14:03:51Z</time>
      </trkpt>
      <trkpt lat="45.14157" lon="5.68684">
        <ele>238.5443115</ele>
        <time>2017-08-03T14:03:55Z</time>
      </trkpt>
      <trkpt lat="45.14178" lon="5.68686">
        <ele>238.0635986</ele>
        <time>2017-08-03T14:03:59Z</time>
      </trkpt>
      <trkpt lat="45.14198" lon="5.68686">
        <ele>238.0635986</ele>
        <time>2017-08-03T14:04:03Z</time>
      </trkpt>
      <trkpt lat="45.14273" lon="5.68678">
        <ele>238.0635986</ele>
        <time>2017-08-03T14:04:18Z</time>
      </trkpt>
      <trkpt lat="45.14295" lon="5.68678">
        <ele>237.5828857</ele>
        <time>2017-08-03T14:04:22Z</time>
      </trkpt>
      <trkpt lat="45.14339" lon="5.68678">
        <ele>239.0249023</ele>
        <time>2017-08-03T14:04:32Z</time>
      </trkpt>
      <trkpt lat="45.1436" lon="5.68681">
        <ele>239.0249023</ele>
        <time>2017-08-03T14:04:38Z</time>
      </trkpt>
      <trkpt lat="45.14368" lon="5.68684">
        <ele>239.0249023</ele>
        <time>2017-08-03T14:04:48Z</time>
      </trkpt>
      <trkpt lat="45.14429" lon="5.68712">
        <ele>239.0249023</ele>
        <time>2017-08-03T14:04:55Z</time>
      </trkpt>
      <trkpt lat="45.14459" lon="5.68721">
        <ele>238.5443115</ele>
        <time>2017-08-03T14:05:02Z</time>
      </trkpt>
      <trkpt lat="45.14466" lon="5.68729">
        <ele>238.0635986</ele>
        <time>2017-08-03T14:05:04Z</time>
      </trkpt>
      <trkpt lat="45.14484" lon="5.68737">
        <ele>237.1022949</ele>
        <time>2017-08-03T14:05:08Z</time>
      </trkpt>
      <trkpt lat="45.14512" lon="5.68738">
        <ele>236.1409912</ele>
        <time>2017-08-03T14:05:13Z</time>
      </trkpt>
      <trkpt lat="45.14592" lon="5.68756">
        <ele>236.1409912</ele>
        <time>2017-08-03T14:05:29Z</time>
      </trkpt>
      <trkpt lat="45.14596" lon="5.68757">
        <ele>236.1409912</ele>
        <time>2017-08-03T14:05:30Z</time>
      </trkpt>
      <trkpt lat="45.14629" lon="5.68772">
        <ele>235.6602783</ele>
        <time>2017-08-03T14:05:37Z</time>
      </trkpt>
      <trkpt lat="45.14659" lon="5.68784">
        <ele>235.1796875</ele>
        <time>2017-08-03T14:05:43Z</time>
      </trkpt>
      <trkpt lat="45.14703" lon="5.68794">
        <ele>235.1796875</ele>
        <time>2017-08-03T14:05:52Z</time>
      </trkpt>
      <trkpt lat="45.14734" lon="5.68803">
        <ele>235.1796875</ele>
        <time>2017-08-03T14:05:59Z</time>
      </trkpt>
      <trkpt lat="45.14803" lon="5.68805">
        <ele>235.1796875</ele>
        <time>2017-08-03T14:06:13Z</time>
      </trkpt>
      <trkpt lat="45.14814" lon="5.68807">
        <ele>235.1796875</ele>
        <time>2017-08-03T14:06:15Z</time>
      </trkpt>
      <trkpt lat="45.1485" lon="5.68813">
        <ele>235.6602783</ele>
        <time>2017-08-03T14:06:22Z</time>
      </trkpt>
      <trkpt lat="45.14881" lon="5.68825">
        <ele>235.6602783</ele>
        <time>2017-08-03T14:06:28Z</time>
      </trkpt>
      <trkpt lat="45.14895" lon="5.68833">
        <ele>235.1796875</ele>
        <time>2017-08-03T14:06:31Z</time>
      </trkpt>
      <trkpt lat="45.14947" lon="5.6885">
        <ele>235.6602783</ele>
        <time>2017-08-03T14:06:42Z</time>
      </trkpt>
      <trkpt lat="45.15007" lon="5.68873">
        <ele>235.6602783</ele>
        <time>2017-08-03T14:06:55Z</time>
      </trkpt>
      <trkpt lat="45.15053" lon="5.68906">
        <ele>235.6602783</ele>
        <time>2017-08-03T14:07:05Z</time>
      </trkpt>
      <trkpt lat="45.15083" lon="5.68931">
        <ele>234.6990967</ele>
        <time>2017-08-03T14:07:11Z</time>
      </trkpt>
      <trkpt lat="45.15108" lon="5.68951">
        <ele>234.6990967</ele>
        <time>2017-08-03T14:07:16Z</time>
      </trkpt>
      <trkpt lat="45.15122" lon="5.68965">
        <ele>234.2183838</ele>
        <time>2017-08-03T14:07:19Z</time>
      </trkpt>
      <trkpt lat="45.15182" lon="5.6903">
        <ele>235.1796875</ele>
        <time>2017-08-03T14:07:34Z</time>
      </trkpt>
      <trkpt lat="45.15199" lon="5.69049">
        <ele>234.6990967</ele>
        <time>2017-08-03T14:07:38Z</time>
      </trkpt>
      <trkpt lat="45.15221" lon="5.69079">
        <ele>234.2183838</ele>
        <time>2017-08-03T14:07:44Z</time>
      </trkpt>
      <trkpt lat="45.15279" lon="5.69169">
        <ele>234.6990967</ele>
        <time>2017-08-03T14:08:01Z</time>
      </trkpt>
      <trkpt lat="45.15297" lon="5.69201">
        <ele>234.6990967</ele>
        <time>2017-08-03T14:08:07Z</time>
      </trkpt>
      <trkpt lat="45.15345" lon="5.69315">
        <ele>234.2183838</ele>
        <time>2017-08-03T14:08:26Z</time>
      </trkpt>
      <trkpt lat="45.15395" lon="5.69425">
        <ele>234.2183838</ele>
        <time>2017-08-03T14:08:45Z</time>
      </trkpt>
      <trkpt lat="45.15437" lon="5.69494">
        <ele>233.7376709</ele>
        <time>2017-08-03T14:08:58Z</time>
      </trkpt>
      <trkpt lat="45.15447" lon="5.6953">
        <ele>233.2570801</ele>
        <time>2017-08-03T14:09:07Z</time>
      </trkpt>
      <trkpt lat="45.15483" lon="5.69581">
        <ele>233.2570801</ele>
        <time>2017-08-03T14:09:14Z</time>
      </trkpt>
      <trkpt lat="45.15513" lon="5.69606">
        <ele>233.7376709</ele>
        <time>2017-08-03T14:09:22Z</time>
      </trkpt>
      <trkpt lat="45.1553" lon="5.6962">
        <ele>234.2183838</ele>
        <time>2017-08-03T14:09:26Z</time>
      </trkpt>
      <trkpt lat="45.15538" lon="5.69628">
        <ele>233.7376709</ele>
        <time>2017-08-03T14:09:28Z</time>
      </trkpt>
      <trkpt lat="45.15551" lon="5.69641">
        <ele>234.2183838</ele>
        <time>2017-08-03T14:09:31Z</time>
      </trkpt>
      <trkpt lat="45.15608" lon="5.69684">
        <ele>234.2183838</ele>
        <time>2017-08-03T14:09:44Z</time>
      </trkpt>
      <trkpt lat="45.15664" lon="5.69712">
        <ele>233.7376709</ele>
        <time>2017-08-03T14:09:55Z</time>
      </trkpt>
      <trkpt lat="45.15733" lon="5.69754">
        <ele>233.7376709</ele>
        <time>2017-08-03T14:10:09Z</time>
      </trkpt>
      <trkpt lat="45.15822" lon="5.69803">
        <ele>233.2570801</ele>
        <time>2017-08-03T14:10:27Z</time>
      </trkpt>
      <trkpt lat="45.15867" lon="5.69827">
        <ele>233.7376709</ele>
        <time>2017-08-03T14:10:38Z</time>
      </trkpt>
      <trkpt lat="45.15908" lon="5.69865">
        <ele>231.8149414</ele>
        <time>2017-08-03T14:10:46Z</time>
      </trkpt>
      <trkpt lat="45.15963" lon="5.69873">
        <ele>234.2183838</ele>
        <time>2017-08-03T14:10:55Z</time>
      </trkpt>
      <trkpt lat="45.16002" lon="5.69884">
        <ele>234.6990967</ele>
        <time>2017-08-03T14:11:06Z</time>
      </trkpt>
      <trkpt lat="45.16009" lon="5.69886">
        <ele>234.2183838</ele>
        <time>2017-08-03T14:11:17Z</time>
      </trkpt>
      <trkpt lat="45.16009" lon="5.69886">
        <ele>233.7376709</ele>
        <time>2017-08-03T14:11:45Z</time>
      </trkpt>
      <trkpt lat="45.16009" lon="5.69886">
        <ele>233.7376709</ele>
        <time>2017-08-03T14:12:04Z</time>
      </trkpt>
      <trkpt lat="45.16015" lon="5.69915">
        <ele>234.6990967</ele>
        <time>2017-08-03T14:12:12Z</time>
      </trkpt>
      <trkpt lat="45.16012" lon="5.69928">
        <ele>235.1796875</ele>
        <time>2017-08-03T14:12:14Z</time>
      </trkpt>
      <trkpt lat="45.15996" lon="5.70005">
        <ele>233.7376709</ele>
        <time>2017-08-03T14:12:24Z</time>
      </trkpt>
      <trkpt lat="45.15977" lon="5.70028">
        <ele>232.7764893</ele>
        <time>2017-08-03T14:12:29Z</time>
      </trkpt>
      <trkpt lat="45.15882" lon="5.6999">
        <ele>231.8149414</ele>
        <time>2017-08-03T14:12:43Z</time>
      </trkpt>
      <trkpt lat="45.15862" lon="5.69981">
        <ele>232.2957764</ele>
        <time>2017-08-03T14:12:47Z</time>
      </trkpt>
      <trkpt lat="45.15812" lon="5.69965">
        <ele>235.6602783</ele>
        <time>2017-08-03T14:13:00Z</time>
      </trkpt>
      <trkpt lat="45.15756" lon="5.69997">
        <ele>238.0635986</ele>
        <time>2017-08-03T14:13:16Z</time>
      </trkpt>
      <trkpt lat="45.15748" lon="5.70078">
        <ele>238.5443115</ele>
        <time>2017-08-03T14:13:27Z</time>
      </trkpt>
      <trkpt lat="45.15749" lon="5.70109">
        <ele>238.5443115</ele>
        <time>2017-08-03T14:13:31Z</time>
      </trkpt>
      <trkpt lat="45.15757" lon="5.70144">
        <ele>237.5828857</ele>
        <time>2017-08-03T14:13:35Z</time>
      </trkpt>
      <trkpt lat="45.1583" lon="5.70281">
        <ele>234.2183838</ele>
        <time>2017-08-03T14:13:51Z</time>
      </trkpt>
      <trkpt lat="45.15852" lon="5.70376">
        <ele>232.7764893</ele>
        <time>2017-08-03T14:14:01Z</time>
      </trkpt>
      <trkpt lat="45.15837" lon="5.70403">
        <ele>232.7764893</ele>
        <time>2017-08-03T14:14:05Z</time>
      </trkpt>
      <trkpt lat="45.15822" lon="5.7042">
        <ele>232.2957764</ele>
        <time>2017-08-03T14:14:08Z</time>
      </trkpt>
      <trkpt lat="45.15746" lon="5.70487">
        <ele>232.2957764</ele>
        <time>2017-08-03T14:14:23Z</time>
      </trkpt>
      <trkpt lat="45.15737" lon="5.70492">
        <ele>232.2957764</ele>
        <time>2017-08-03T14:14:25Z</time>
      </trkpt>
      <trkpt lat="45.15728" lon="5.70497">
        <ele>231.8149414</ele>
        <time>2017-08-03T14:14:27Z</time>
      </trkpt>
      <trkpt lat="45.15704" lon="5.70555">
        <ele>232.2957764</ele>
        <time>2017-08-03T14:14:37Z</time>
      </trkpt>
      <trkpt lat="45.15668" lon="5.7065">
        <ele>231.8149414</ele>
        <time>2017-08-03T14:14:51Z</time>
      </trkpt>
      <trkpt lat="45.15625" lon="5.70774">
        <ele>231.3343506</ele>
        <time>2017-08-03T14:15:08Z</time>
      </trkpt>
      <trkpt lat="45.15616" lon="5.70808">
        <ele>231.8149414</ele>
        <time>2017-08-03T14:15:14Z</time>
      </trkpt>
      <trkpt lat="45.15597" lon="5.70807">
        <ele>231.8149414</ele>
        <time>2017-08-03T14:15:19Z</time>
      </trkpt>
      <trkpt lat="45.1551" lon="5.70778">
        <ele>231.8149414</ele>
        <time>2017-08-03T14:15:35Z</time>
      </trkpt>
      <trkpt lat="45.15486" lon="5.70769">
        <ele>231.8149414</ele>
        <time>2017-08-03T14:15:39Z</time>
      </trkpt>
      <trkpt lat="45.15389" lon="5.70736">
        <ele>232.2957764</ele>
        <time>2017-08-03T14:15:57Z</time>
      </trkpt>
      <trkpt lat="45.15279" lon="5.70698">
        <ele>232.7764893</ele>
        <time>2017-08-03T14:16:17Z</time>
      </trkpt>
      <trkpt lat="45.15219" lon="5.70677">
        <ele>232.2957764</ele>
        <time>2017-08-03T14:16:30Z</time>
      </trkpt>
      <trkpt lat="45.15215" lon="5.70676">
        <ele>232.2957764</ele>
        <time>2017-08-03T14:16:31Z</time>
      </trkpt>
      <trkpt lat="45.15194" lon="5.70685">
        <ele>232.7764893</ele>
        <time>2017-08-03T14:16:39Z</time>
      </trkpt>
      <trkpt lat="45.15192" lon="5.70693">
        <ele>232.2957764</ele>
        <time>2017-08-03T14:16:46Z</time>
      </trkpt>
      <trkpt lat="45.1519" lon="5.70697">
        <ele>232.7764893</ele>
        <time>2017-08-03T14:16:51Z</time>
      </trkpt>
      <trkpt lat="45.15175" lon="5.70754">
        <ele>233.2570801</ele>
        <time>2017-08-03T14:17:00Z</time>
      </trkpt>
      <trkpt lat="45.15172" lon="5.7076">
        <ele>233.2570801</ele>
        <time>2017-08-03T14:17:01Z</time>
      </trkpt>
      <trkpt lat="45.15115" lon="5.70906">
        <ele>232.2957764</ele>
        <time>2017-08-03T14:17:23Z</time>
      </trkpt>
      <trkpt lat="45.1508" lon="5.70989">
        <ele>232.7764893</ele>
        <time>2017-08-03T14:17:35Z</time>
      </trkpt>
      <trkpt lat="45.15053" lon="5.71136">
        <ele>233.2570801</ele>
        <time>2017-08-03T14:17:54Z</time>
      </trkpt>
      <trkpt lat="45.15048" lon="5.71168">
        <ele>233.2570801</ele>
        <time>2017-08-03T14:17:58Z</time>
      </trkpt>
      <trkpt lat="45.15048" lon="5.71192">
        <ele>233.2570801</ele>
        <time>2017-08-03T14:18:01Z</time>
      </trkpt>
      <trkpt lat="45.15075" lon="5.71364">
        <ele>232.7764893</ele>
        <time>2017-08-03T14:18:22Z</time>
      </trkpt>
      <trkpt lat="45.1508" lon="5.71527">
        <ele>232.2957764</ele>
        <time>2017-08-03T14:18:42Z</time>
      </trkpt>
      <trkpt lat="45.15042" lon="5.71659">
        <ele>232.2957764</ele>
        <time>2017-08-03T14:19:00Z</time>
      </trkpt>
      <trkpt lat="45.15011" lon="5.71764">
        <ele>232.2957764</ele>
        <time>2017-08-03T14:19:14Z</time>
      </trkpt>
      <trkpt lat="45.15002" lon="5.71788">
        <ele>230.8537598</ele>
        <time>2017-08-03T14:19:21Z</time>
      </trkpt>
      <trkpt lat="45.15" lon="5.71799">
        <ele>230.3730469</ele>
        <time>2017-08-03T14:19:25Z</time>
      </trkpt>
      <trkpt lat="45.14992" lon="5.71823">
        <ele>230.8537598</ele>
        <time>2017-08-03T14:19:31Z</time>
      </trkpt>
      <trkpt lat="45.14986" lon="5.71846">
        <ele>230.8537598</ele>
        <time>2017-08-03T14:19:35Z</time>
      </trkpt>
      <trkpt lat="45.14976" lon="5.71875">
        <ele>230.8537598</ele>
        <time>2017-08-03T14:19:40Z</time>
      </trkpt>
      <trkpt lat="45.14969" lon="5.71898">
        <ele>231.3343506</ele>
        <time>2017-08-03T14:19:44Z</time>
      </trkpt>
      <trkpt lat="45.14965" lon="5.71908">
        <ele>231.3343506</ele>
        <time>2017-08-03T14:19:46Z</time>
      </trkpt>
      <trkpt lat="45.14956" lon="5.71937">
        <ele>231.3343506</ele>
        <time>2017-08-03T14:19:50Z</time>
      </trkpt>
      <trkpt lat="45.14952" lon="5.71951">
        <ele>231.8149414</ele>
        <time>2017-08-03T14:19:52Z</time>
      </trkpt>
      <trkpt lat="45.14905" lon="5.72103">
        <ele>231.3343506</ele>
        <time>2017-08-03T14:20:12Z</time>
      </trkpt>
      <trkpt lat="45.14843" lon="5.72301">
        <ele>230.8537598</ele>
        <time>2017-08-03T14:20:37Z</time>
      </trkpt>
      <trkpt lat="45.14834" lon="5.72331">
        <ele>231.3343506</ele>
        <time>2017-08-03T14:20:41Z</time>
      </trkpt>
      <trkpt lat="45.14825" lon="5.72361">
        <ele>230.8537598</ele>
        <time>2017-08-03T14:20:45Z</time>
      </trkpt>
      <trkpt lat="45.1481" lon="5.72409">
        <ele>230.8537598</ele>
        <time>2017-08-03T14:20:52Z</time>
      </trkpt>
      <trkpt lat="45.14808" lon="5.72417">
        <ele>230.3730469</ele>
        <time>2017-08-03T14:20:55Z</time>
      </trkpt>
      <trkpt lat="45.14805" lon="5.72428">
        <ele>230.3730469</ele>
        <time>2017-08-03T14:20:58Z</time>
      </trkpt>
      <trkpt lat="45.148" lon="5.72442">
        <ele>230.8537598</ele>
        <time>2017-08-03T14:21:01Z</time>
      </trkpt>
      <trkpt lat="45.1477" lon="5.72543">
        <ele>231.3343506</ele>
        <time>2017-08-03T14:21:16Z</time>
      </trkpt>
      <trkpt lat="45.14743" lon="5.72627">
        <ele>231.3343506</ele>
        <time>2017-08-03T14:21:27Z</time>
      </trkpt>
      <trkpt lat="45.14695" lon="5.72778">
        <ele>230.8537598</ele>
        <time>2017-08-03T14:21:46Z</time>
      </trkpt>
      <trkpt lat="45.14687" lon="5.72802">
        <ele>231.3343506</ele>
        <time>2017-08-03T14:21:49Z</time>
      </trkpt>
      <trkpt lat="45.14631" lon="5.72985">
        <ele>230.3730469</ele>
        <time>2017-08-03T14:22:11Z</time>
      </trkpt>
      <trkpt lat="45.14626" lon="5.73004">
        <ele>229.892334</ele>
        <time>2017-08-03T14:22:13Z</time>
      </trkpt>
      <trkpt lat="45.1463" lon="5.73116">
        <ele>229.892334</ele>
        <time>2017-08-03T14:22:25Z</time>
      </trkpt>
      <trkpt lat="45.14673" lon="5.73225">
        <ele>229.4117432</ele>
        <time>2017-08-03T14:22:39Z</time>
      </trkpt>
      <trkpt lat="45.14741" lon="5.73375">
        <ele>229.4117432</ele>
        <time>2017-08-03T14:22:59Z</time>
      </trkpt>
      <trkpt lat="45.14753" lon="5.73404">
        <ele>229.4117432</ele>
        <time>2017-08-03T14:23:03Z</time>
      </trkpt>
      <trkpt lat="45.14762" lon="5.73426">
        <ele>229.4117432</ele>
        <time>2017-08-03T14:23:06Z</time>
      </trkpt>
      <trkpt lat="45.14797" lon="5.73523">
        <ele>228.9311523</ele>
        <time>2017-08-03T14:23:19Z</time>
      </trkpt>
      <trkpt lat="45.14825" lon="5.73529">
        <ele>229.4117432</ele>
        <time>2017-08-03T14:23:23Z</time>
      </trkpt>
      <trkpt lat="45.14837" lon="5.73534">
        <ele>228.4504395</ele>
        <time>2017-08-03T14:23:26Z</time>
      </trkpt>
      <trkpt lat="45.14849" lon="5.73561">
        <ele>228.9311523</ele>
        <time>2017-08-03T14:23:32Z</time>
      </trkpt>
      <trkpt lat="45.14843" lon="5.73589">
        <ele>228.4504395</ele>
        <time>2017-08-03T14:23:36Z</time>
      </trkpt>
      <trkpt lat="45.14846" lon="5.73622">
        <ele>228.4504395</ele>
        <time>2017-08-03T14:23:40Z</time>
      </trkpt>
      <trkpt lat="45.14891" lon="5.73777">
        <ele>228.4504395</ele>
        <time>2017-08-03T14:24:00Z</time>
      </trkpt>
      <trkpt lat="45.14913" lon="5.73935">
        <ele>227.4891357</ele>
        <time>2017-08-03T14:24:19Z</time>
      </trkpt>
      <trkpt lat="45.1492" lon="5.73976">
        <ele>227.4891357</ele>
        <time>2017-08-03T14:24:24Z</time>
      </trkpt>
      <trkpt lat="45.14936" lon="5.74003">
        <ele>227.4891357</ele>
        <time>2017-08-03T14:24:28Z</time>
      </trkpt>
      <trkpt lat="45.14941" lon="5.74045">
        <ele>226.527832</ele>
        <time>2017-08-03T14:24:34Z</time>
      </trkpt>
      <trkpt lat="45.14936" lon="5.74073">
        <ele>227.4891357</ele>
        <time>2017-08-03T14:24:37Z</time>
      </trkpt>
      <trkpt lat="45.1496" lon="5.74216">
        <ele>227.9697266</ele>
        <time>2017-08-03T14:24:55Z</time>
      </trkpt>
      <trkpt lat="45.14982" lon="5.743">
        <ele>228.4504395</ele>
        <time>2017-08-03T14:25:09Z</time>
      </trkpt>
      <trkpt lat="45.15023" lon="5.74429">
        <ele>229.4117432</ele>
        <time>2017-08-03T14:25:28Z</time>
      </trkpt>
      <trkpt lat="45.15025" lon="5.74435">
        <ele>229.4117432</ele>
        <time>2017-08-03T14:25:29Z</time>
      </trkpt>
      <trkpt lat="45.15042" lon="5.74439">
        <ele>229.4117432</ele>
        <time>2017-08-03T14:25:33Z</time>
      </trkpt>
      <trkpt lat="45.15055" lon="5.74425">
        <ele>228.9311523</ele>
        <time>2017-08-03T14:25:36Z</time>
      </trkpt>
      <trkpt lat="45.15108" lon="5.74456">
        <ele>228.4504395</ele>
        <time>2017-08-03T14:25:40Z</time>
      </trkpt>
      <trkpt lat="45.15137" lon="5.74408">
        <ele>227.4891357</ele>
        <time>2017-08-03T14:25:48Z</time>
      </trkpt>
      <trkpt lat="45.15138" lon="5.74407">
        <ele>227.4891357</ele>
        <time>2017-08-03T14:25:50Z</time>
      </trkpt>
      <trkpt lat="45.15156" lon="5.74315">
        <ele>227.4891357</ele>
        <time>2017-08-03T14:25:54Z</time>
      </trkpt>
      <trkpt lat="45.15156" lon="5.74315">
        <ele>227.4891357</ele>
        <time>2017-08-03T14:25:56Z</time>
      </trkpt>
      <trkpt lat="45.1518" lon="5.743">
        <ele>227.0085449</ele>
        <time>2017-08-03T14:26:03Z</time>
      </trkpt>
      <trkpt lat="45.15194" lon="5.74306">
        <ele>227.4891357</ele>
        <time>2017-08-03T14:26:07Z</time>
      </trkpt>
      <trkpt lat="45.15227" lon="5.74241">
        <ele>227.9697266</ele>
        <time>2017-08-03T14:26:14Z</time>
      </trkpt>
      <trkpt lat="45.15284" lon="5.74132">
        <ele>231.8149414</ele>
        <time>2017-08-03T14:26:30Z</time>
      </trkpt>
      <trkpt lat="45.15354" lon="5.74132">
        <ele>232.7764893</ele>
        <time>2017-08-03T14:26:48Z</time>
      </trkpt>
      <trkpt lat="45.15397" lon="5.74059">
        <ele>231.8149414</ele>
        <time>2017-08-03T14:26:53Z</time>
      </trkpt>
      <trkpt lat="45.15362" lon="5.73972">
        <ele>228.9311523</ele>
        <time>2017-08-03T14:27:04Z</time>
      </trkpt>
      <trkpt lat="45.1537" lon="5.73943">
        <ele>227.4891357</ele>
        <time>2017-08-03T14:27:09Z</time>
      </trkpt>
      <trkpt lat="45.15381" lon="5.73934">
        <ele>227.0085449</ele>
        <time>2017-08-03T14:27:12Z</time>
      </trkpt>
      <trkpt lat="45.15393" lon="5.73931">
        <ele>226.527832</ele>
        <time>2017-08-03T14:27:14Z</time>
      </trkpt>
      <trkpt lat="45.15455" lon="5.73922">
        <ele>226.0471191</ele>
        <time>2017-08-03T14:27:25Z</time>
      </trkpt>
      <trkpt lat="45.15534" lon="5.73928">
        <ele>225.5665283</ele>
        <time>2017-08-03T14:27:38Z</time>
      </trkpt>
      <trkpt lat="45.15553" lon="5.73931">
        <ele>225.0859375</ele>
        <time>2017-08-03T14:27:41Z</time>
      </trkpt>
      <trkpt lat="45.1558" lon="5.739">
        <ele>224.6052246</ele>
        <time>2017-08-03T14:27:45Z</time>
      </trkpt>
      <trkpt lat="45.15654" lon="5.73913">
        <ele>224.1245117</ele>
        <time>2017-08-03T14:27:57Z</time>
      </trkpt>
      <trkpt lat="45.15679" lon="5.73916">
        <ele>224.6052246</ele>
        <time>2017-08-03T14:28:01Z</time>
      </trkpt>
      <trkpt lat="45.15776" lon="5.73931">
        <ele>224.1245117</ele>
        <time>2017-08-03T14:28:18Z</time>
      </trkpt>
      <trkpt lat="45.15787" lon="5.73933">
        <ele>224.1245117</ele>
        <time>2017-08-03T14:28:20Z</time>
      </trkpt>
      <trkpt lat="45.15796" lon="5.73953">
        <ele>223.6437988</ele>
        <time>2017-08-03T14:28:24Z</time>
      </trkpt>
      <trkpt lat="45.15781" lon="5.74133">
        <ele>223.163208</ele>
        <time>2017-08-03T14:28:46Z</time>
      </trkpt>
      <trkpt lat="45.15771" lon="5.74283">
        <ele>222.6824951</ele>
        <time>2017-08-03T14:29:05Z</time>
      </trkpt>
      <trkpt lat="45.15796" lon="5.74329">
        <ele>222.6824951</ele>
        <time>2017-08-03T14:29:13Z</time>
      </trkpt>
      <trkpt lat="45.15818" lon="5.74363">
        <ele>222.6824951</ele>
        <time>2017-08-03T14:29:19Z</time>
      </trkpt>
      <trkpt lat="45.15807" lon="5.74402">
        <ele>222.2017822</ele>
        <time>2017-08-03T14:29:25Z</time>
      </trkpt>
      <trkpt lat="45.15761" lon="5.74464">
        <ele>222.6824951</ele>
        <time>2017-08-03T14:29:36Z</time>
      </trkpt>
      <trkpt lat="45.15761" lon="5.74503">
        <ele>222.6824951</ele>
        <time>2017-08-03T14:29:43Z</time>
      </trkpt>
      <trkpt lat="45.15766" lon="5.74507">
        <ele>222.6824951</ele>
        <time>2017-08-03T14:29:44Z</time>
      </trkpt>
      <trkpt lat="45.1579" lon="5.74531">
        <ele>222.6824951</ele>
        <time>2017-08-03T14:29:50Z</time>
      </trkpt>
      <trkpt lat="45.15803" lon="5.7453">
        <ele>221.7211914</ele>
        <time>2017-08-03T14:29:57Z</time>
      </trkpt>
      <trkpt lat="45.15803" lon="5.7453">
        <ele>221.7211914</ele>
        <time>2017-08-03T14:30:13Z</time>
      </trkpt>
      <trkpt lat="45.15803" lon="5.7453">
        <ele>221.2406006</ele>
        <time>2017-08-03T14:30:49Z</time>
      </trkpt>
      <trkpt lat="45.15803" lon="5.7453">
        <ele>221.2406006</ele>
        <time>2017-08-03T14:31:04Z</time>
      </trkpt>
      <trkpt lat="45.15803" lon="5.7453">
        <ele>221.2406006</ele>
        <time>2017-08-03T14:31:21Z</time>
      </trkpt>
      <trkpt lat="45.15803" lon="5.7453">
        <ele>221.2406006</ele>
        <time>2017-08-03T14:31:44Z</time>
      </trkpt>
      <trkpt lat="45.15803" lon="5.7453">
        <ele>220.7598877</ele>
        <time>2017-08-03T14:31:53Z</time>
      </trkpt>
      <trkpt lat="45.15803" lon="5.7453">
        <ele>220.2791748</ele>
        <time>2017-08-03T14:32:14Z</time>
      </trkpt>
      <trkpt lat="45.15803" lon="5.7453">
        <ele>219.798584</ele>
        <time>2017-08-03T14:32:41Z</time>
      </trkpt>
      <trkpt lat="45.15803" lon="5.7453">
        <ele>220.2791748</ele>
        <time>2017-08-03T14:33:01Z</time>
      </trkpt>
      <trkpt lat="45.15803" lon="5.7453">
        <ele>220.7598877</ele>
        <time>2017-08-03T14:38:30Z</time>
      </trkpt>
    </trkseg>
  </trk>
</gpx>